Wetterdaten: Donnerstag, 15.02.2018
Datum Zeit Temp. A. Pool Temp. Feuchte A. Luftdruck Regen Wind Richtung Richtung Sonnenschein ET UV Solar Taupunkt Windchill Windben Empfang
15.02.2018 00:00 -3,9 C 4,4 C 95 % 1022,3 hPa 0,0 l/m 2,5 km/h (1 Bft) S-SW 207 0 min 0,000 mm 0,0 UV-I 0 W/m -4,6 C -3,9 C 3,2 km/h (1 Bft) 95,65 %
15.02.2018 00:01 -3,9 C 4,4 C 95 % 1022,3 hPa 0,0 l/m 2,6 km/h (1 Bft) S-SW 207 0 min 0,000 mm 0,0 UV-I 0 W/m -4,6 C -3,9 C 3,2 km/h (1 Bft) 94,44 %
15.02.2018 00:02 -3,9 C 4,4 C 95 % 1022,3 hPa 0,0 l/m 2,9 km/h (1 Bft) S-SW 207 0 min 0,000 mm 0,0 UV-I 0 W/m -4,6 C -3,9 C 3,2 km/h (1 Bft) 100,00 %
15.02.2018 00:03 -3,9 C 4,4 C 95 % 1022,3 hPa 0,0 l/m 2,4 km/h (1 Bft) S-SW 207 0 min 0,000 mm 0,0 UV-I 0 W/m -4,6 C -3,9 C 3,2 km/h (1 Bft) 95,83 %
15.02.2018 00:04 -3,8 C 4,4 C 95 % 1022,4 hPa 0,0 l/m 2,3 km/h (1 Bft) S-SW 207 0 min 0,000 mm 0,0 UV-I 0 W/m -4,5 C -3,8 C 3,2 km/h (1 Bft) 100,00 %
15.02.2018 00:05 -3,8 C 4,4 C 95 % 1022,4 hPa 0,0 l/m 3,1 km/h (1 Bft) S-SW 207 0 min 0,000 mm 0,0 UV-I 0 W/m -4,5 C -3,8 C 3,2 km/h (1 Bft) 95,83 %
15.02.2018 00:06 -3,8 C 4,4 C 95 % 1022,4 hPa 0,0 l/m 2,9 km/h (1 Bft) S-SW 207 0 min 0,000 mm 0,0 UV-I 0 W/m -4,5 C -3,8 C 3,2 km/h (1 Bft) 95,65 %
15.02.2018 00:07 -3,8 C 4,4 C 95 % 1022,4 hPa 0,0 l/m 3,6 km/h (1 Bft) S-SW 207 0 min 0,000 mm 0,0 UV-I 0 W/m -4,5 C -3,8 C 4,8 km/h (1 Bft) 100,00 %
15.02.2018 00:08 -3,9 C 4,4 C 95 % 1022,4 hPa 0,0 l/m 3,6 km/h (1 Bft) S-SW 207 0 min 0,000 mm 0,0 UV-I 0 W/m -4,6 C -3,9 C 4,8 km/h (1 Bft) 95,65 %
15.02.2018 00:09 -4,1 C 4,4 C 95 % 1022,3 hPa 0,0 l/m 3,4 km/h (1 Bft) S-SW 207 0 min 0,000 mm 0,0 UV-I 0 W/m -4,8 C -4,1 C 4,8 km/h (1 Bft) 100,00 %
15.02.2018 00:10 -4,2 C 4,4 C 95 % 1022,3 hPa 0,0 l/m 2,9 km/h (1 Bft) S-SW 207 0 min 0,000 mm 0,0 UV-I 0 W/m -4,9 C -4,2 C 4,8 km/h (1 Bft) 95,65 %
15.02.2018 00:11 -4,2 C 4,4 C 95 % 1022,3 hPa 0,0 l/m 3,1 km/h (1 Bft) S-SW 207 0 min 0,000 mm 0,0 UV-I 0 W/m -4,9 C -4,2 C 3,2 km/h (1 Bft) 100,00 %
15.02.2018 00:12 -4,3 C 4,4 C 95 % 1022,2 hPa 0,0 l/m 3,0 km/h (1 Bft) S-SW 207 0 min 0,000 mm 0,0 UV-I 0 W/m -5,0 C -4,3 C 3,2 km/h (1 Bft) 95,65 %
15.02.2018 00:13 -4,3 C 4,4 C 95 % 1022,3 hPa 0,0 l/m 3,1 km/h (1 Bft) S-SW 207 0 min 0,000 mm 0,0 UV-I 0 W/m -5,0 C -4,3 C 3,2 km/h (1 Bft) 100,00 %
15.02.2018 00:14 -4,2 C 4,4 C 95 % 1022,2 hPa 0,0 l/m 3,0 km/h (1 Bft) S-SW 207 0 min 0,000 mm 0,0 UV-I 0 W/m -4,9 C -4,2 C 3,2 km/h (1 Bft) 96,55 %
15.02.2018 00:15 -4,1 C 4,4 C 95 % 1022,2 hPa 0,0 l/m 3,0 km/h (1 Bft) S-SW 207 0 min 0,000 mm 0,0 UV-I 0 W/m -4,8 C -4,1 C 3,2 km/h (1 Bft) 100,00 %
15.02.2018 00:16 -4,1 C 4,4 C 95 % 1022,2 hPa 0,0 l/m 2,2 km/h (1 Bft) S-SW 207 0 min 0,000 mm 0,0 UV-I 0 W/m -4,8 C -4,1 C 3,2 km/h (1 Bft) 100,00 %
15.02.2018 00:17 -4,0 C 4,4 C 96 % 1022,2 hPa 0,0 l/m 2,3 km/h (1 Bft) S-SW 207 0 min 0,000 mm 0,0 UV-I 0 W/m -4,5 C -4,0 C 3,2 km/h (1 Bft) 100,00 %
15.02.2018 00:18 -3,9 C 4,4 C 96 % 1022,2 hPa 0,0 l/m 3,2 km/h (1 Bft) S-SW 207 0 min 0,000 mm 0,0 UV-I 0 W/m -4,4 C -3,9 C 4,8 km/h (1 Bft) 100,00 %
15.02.2018 00:19 -3,9 C 4,4 C 96 % 1022,2 hPa 0,0 l/m 2,7 km/h (1 Bft) S-SW 207 0 min 0,000 mm 0,0 UV-I 0 W/m -4,4 C -3,9 C 3,2 km/h (1 Bft) 91,67 %
15.02.2018 00:20 -3,9 C 4,4 C 95 % 1022,2 hPa 0,0 l/m 2,0 km/h (1 Bft) S-SW 207 0 min 0,000 mm 0,0 UV-I 0 W/m -4,6 C -3,9 C 3,2 km/h (1 Bft) 100,00 %
15.02.2018 00:21 -3,9 C 4,4 C 95 % 1022,2 hPa 0,0 l/m 2,5 km/h (1 Bft) S-SW 207 0 min 0,000 mm 0,0 UV-I 0 W/m -4,6 C -3,9 C 3,2 km/h (1 Bft) 100,00 %
15.02.2018 00:22 -4,0 C 4,4 C 95 % 1022,2 hPa 0,0 l/m 3,0 km/h (1 Bft) S-SW 207 0 min 0,000 mm 0,0 UV-I 0 W/m -4,7 C -4,0 C 3,2 km/h (1 Bft) 100,00 %
15.02.2018 00:23 -4,0 C 4,4 C 95 % 1022,2 hPa 0,0 l/m 2,7 km/h (1 Bft) S-SW 207 0 min 0,000 mm 0,0 UV-I 0 W/m -4,7 C -4,0 C 4,8 km/h (1 Bft) 100,00 %
15.02.2018 00:24 -4,0 C 4,4 C 95 % 1022,2 hPa 0,0 l/m 1,7 km/h (1 Bft) S-SW 207 0 min 0,000 mm 0,0 UV-I 0 W/m -4,7 C -4,0 C 3,2 km/h (1 Bft) 100,00 %
15.02.2018 00:25 -3,9 C 4,4 C 95 % 1022,2 hPa 0,0 l/m 1,4 km/h (1 Bft) S-SW 207 0 min 0,000 mm 0,0 UV-I 0 W/m -4,6 C -3,9 C 1,6 km/h (1 Bft) 100,00 %
15.02.2018 00:26 -3,9 C 4,4 C 95 % 1022,2 hPa 0,0 l/m 1,1 km/h (1 Bft) S-SW 207 0 min 0,000 mm 0,0 UV-I 0 W/m -4,6 C -3,9 C 1,6 km/h (1 Bft) 100,00 %
15.02.2018 00:27 -4,1 C 4,4 C 95 % 1022,2 hPa 0,0 l/m 1,3 km/h (1 Bft) S-SW 207 0 min 0,000 mm 0,0 UV-I 0 W/m -4,8 C -4,1 C 3,2 km/h (1 Bft) 100,00 %
15.02.2018 00:28 -4,1 C 4,4 C 95 % 1022,2 hPa 0,0 l/m 2,4 km/h (1 Bft) S-SW 207 0 min 0,000 mm 0,0 UV-I 0 W/m -4,8 C -4,1 C 3,2 km/h (1 Bft) 95,83 %
15.02.2018 00:29 -4,1 C 4,4 C 95 % 1022,2 hPa 0,0 l/m 2,8 km/h (1 Bft) S-SW 207 0 min 0,000 mm 0,0 UV-I 0 W/m -4,8 C -4,1 C 3,2 km/h (1 Bft) 100,00 %
15.02.2018 00:30 -4,1 C 4,4 C 95 % 1022,2 hPa 0,0 l/m 2,4 km/h (1 Bft) S-SW 207 0 min 0,000 mm 0,0 UV-I 0 W/m -4,8 C -4,1 C 3,2 km/h (1 Bft) 100,00 %
15.02.2018 00:31 -4,1 C 4,4 C 95 % 1022,1 hPa 0,0 l/m 1,9 km/h (1 Bft) S-SW 207 0 min 0,000 mm 0,0 UV-I 0 W/m -4,8 C -4,1 C 3,2 km/h (1 Bft) 100,00 %
15.02.2018 00:32 -4,1 C 4,4 C 95 % 1022,1 hPa 0,0 l/m 1,6 km/h (1 Bft) S-SW 207 0 min 0,000 mm 0,0 UV-I 0 W/m -4,8 C -4,1 C 3,2 km/h (1 Bft) 100,00 %
15.02.2018 00:33 -4,1 C 4,4 C 95 % 1022,1 hPa 0,0 l/m 1,6 km/h (1 Bft) S-SW 207 0 min 0,000 mm 0,0 UV-I 0 W/m -4,8 C -4,1 C 3,2 km/h (1 Bft) 100,00 %
15.02.2018 00:34 -4,2 C 4,4 C 95 % 1022,1 hPa 0,0 l/m 1,9 km/h (1 Bft) S-SW 207 0 min 0,000 mm 0,0 UV-I 0 W/m -4,9 C -4,2 C 3,2 km/h (1 Bft) 100,00 %
15.02.2018 00:35 -4,2 C 4,4 C 95 % 1022,1 hPa 0,0 l/m 2,0 km/h (1 Bft) S-SW 207 0 min 0,000 mm 0,0 UV-I 0 W/m -4,9 C -4,2 C 3,2 km/h (1 Bft) 100,00 %
15.02.2018 00:36 -4,2 C 4,4 C 95 % 1022,1 hPa 0,0 l/m 2,1 km/h (1 Bft) S-SW 207 0 min 0,000 mm 0,0 UV-I 0 W/m -4,9 C -4,2 C 3,2 km/h (1 Bft) 100,00 %
15.02.2018 00:37 -4,2 C 4,4 C 95 % 1022,1 hPa 0,0 l/m 2,3 km/h (1 Bft) S-SW 207 0 min 0,000 mm 0,0 UV-I 0 W/m -4,9 C -4,2 C 3,2 km/h (1 Bft) 100,00 %
15.02.2018 00:38 -4,3 C 4,4 C 95 % 1022,1 hPa 0,0 l/m 2,3 km/h (1 Bft) S-SW 207 0 min 0,000 mm 0,0 UV-I 0 W/m -5,0 C -4,3 C 3,2 km/h (1 Bft) 100,00 %
15.02.2018 00:39 -4,3 C 4,4 C 95 % 1022,1 hPa 0,0 l/m 2,8 km/h (1 Bft) S-SW 207 0 min 0,000 mm 0,0 UV-I 0 W/m -5,0 C -4,3 C 3,2 km/h (1 Bft) 100,00 %
15.02.2018 00:40 -4,4 C 4,4 C 95 % 1022,1 hPa 0,0 l/m 2,7 km/h (1 Bft) S-SW 207 0 min 0,000 mm 0,0 UV-I 0 W/m -5,1 C -4,4 C 3,2 km/h (1 Bft) 95,65 %
15.02.2018 00:41 -4,6 C 4,4 C 95 % 1022,1 hPa 0,0 l/m 3,2 km/h (1 Bft) S-SW 207 0 min 0,000 mm 0,0 UV-I 0 W/m -5,3 C -4,6 C 3,2 km/h (1 Bft) 100,00 %
15.02.2018 00:42 -4,6 C 4,4 C 94 % 1022,1 hPa 0,0 l/m 3,4 km/h (1 Bft) S-SW 207 0 min 0,000 mm 0,0 UV-I 0 W/m -5,4 C -4,6 C 4,8 km/h (1 Bft) 100,00 %
15.02.2018 00:43 -4,6 C 4,4 C 95 % 1022,1 hPa 0,0 l/m 2,0 km/h (1 Bft) S-SW 207 0 min 0,000 mm 0,0 UV-I 0 W/m -5,3 C -4,6 C 3,2 km/h (1 Bft) 100,00 %
15.02.2018 00:44 -4,5 C 4,4 C 95 % 1022,1 hPa 0,0 l/m 2,2 km/h (1 Bft) S-SW 207 0 min 0,000 mm 0,0 UV-I 0 W/m -5,2 C -4,5 C 3,2 km/h (1 Bft) 100,00 %
15.02.2018 00:45 -4,5 C 4,4 C 95 % 1022,1 hPa 0,0 l/m 1,8 km/h (1 Bft) S-SW 207 0 min 0,000 mm 0,0 UV-I 0 W/m -5,2 C -4,5 C 3,2 km/h (1 Bft) 100,00 %
15.02.2018 00:46 -4,5 C 4,4 C 95 % 1022,1 hPa 0,0 l/m 1,7 km/h (1 Bft) S-SW 207 0 min 0,000 mm 0,0 UV-I 0 W/m -5,2 C -4,5 C 3,2 km/h (1 Bft) 100,00 %
15.02.2018 00:47 -4,5 C 4,4 C 95 % 1022,1 hPa 0,0 l/m 1,7 km/h (1 Bft) S-SW 207 0 min 0,000 mm 0,0 UV-I 0 W/m -5,2 C -4,5 C 3,2 km/h (1 Bft) 96,30 %
15.02.2018 00:48 -4,4 C 4,4 C 95 % 1022,1 hPa 0,0 l/m 2,0 km/h (1 Bft) S-SW 207 0 min 0,000 mm 0,0 UV-I 0 W/m -5,1 C -4,4 C 3,2 km/h (1 Bft) 100,00 %
15.02.2018 00:49 -4,4 C 4,4 C 95 % 1022,1 hPa 0,0 l/m 2,4 km/h (1 Bft) S-SW 207 0 min 0,000 mm 0,0 UV-I 0 W/m -5,1 C -4,4 C 3,2 km/h (1 Bft) 100,00 %
15.02.2018 00:50 -4,3 C 4,4 C 95 % 1022,1 hPa 0,0 l/m 2,5 km/h (1 Bft) S-SW 207 0 min 0,000 mm 0,0 UV-I 0 W/m -5,0 C -4,3 C 3,2 km/h (1 Bft) 100,00 %
15.02.2018 00:51 -4,3 C 4,4 C 95 % 1022,1 hPa 0,0 l/m 1,9 km/h (1 Bft) S-SW 207 0 min 0,000 mm 0,0 UV-I 0 W/m -5,0 C -4,3 C 3,2 km/h (1 Bft) 100,00 %
15.02.2018 00:52 -4,3 C 4,4 C 95 % 1022,1 hPa 0,0 l/m 2,5 km/h (1 Bft) S-SW 207 0 min 0,000 mm 0,0 UV-I 0 W/m -5,0 C -4,3 C 3,2 km/h (1 Bft) 100,00 %
15.02.2018 00:53 -4,3 C 4,4 C 95 % 1022,1 hPa 0,0 l/m 2,3 km/h (1 Bft) S-SW 207 0 min 0,000 mm 0,0 UV-I 0 W/m -5,0 C -4,3 C 3,2 km/h (1 Bft) 95,83 %
15.02.2018 00:54 -4,3 C 4,4 C 95 % 1022,0 hPa 0,0 l/m 2,8 km/h (1 Bft) S-SW 207 0 min 0,000 mm 0,0 UV-I 0 W/m -5,0 C -4,3 C 4,8 km/h (1 Bft) 100,00 %
15.02.2018 00:55 -4,3 C 4,4 C 95 % 1022,0 hPa 0,0 l/m 2,7 km/h (1 Bft) S-SW 207 0 min 0,000 mm 0,0 UV-I 0 W/m -5,0 C -4,3 C 4,8 km/h (1 Bft) 100,00 %
15.02.2018 00:56 -4,3 C 4,4 C 95 % 1022,1 hPa 0,0 l/m 3,4 km/h (1 Bft) S-SW 207 0 min 0,000 mm 0,0 UV-I 0 W/m -5,0 C -4,3 C 4,8 km/h (1 Bft) 100,00 %
15.02.2018 00:57 -4,3 C 4,4 C 95 % 1022,0 hPa 0,0 l/m 3,4 km/h (1 Bft) S-SW 207 0 min 0,000 mm 0,0 UV-I 0 W/m -5,0 C -4,3 C 4,8 km/h (1 Bft) 100,00 %
15.02.2018 00:58 -4,4 C 4,4 C 95 % 1022,0 hPa 0,0 l/m 3,7 km/h (1 Bft) S-SW 207 0 min 0,000 mm 0,0 UV-I 0 W/m -5,1 C -4,4 C 4,8 km/h (1 Bft) 100,00 %
15.02.2018 00:59 -4,4 C 4,4 C 95 % 1022,0 hPa 0,0 l/m 3,8 km/h (1 Bft) S-SW 209 0 min 0,000 mm 0,0 UV-I 0 W/m -5,1 C -4,4 C 4,8 km/h (1 Bft) 95,65 %
15.02.2018 01:00 -4,4 C 4,4 C 95 % 1022,1 hPa 0,0 l/m 2,9 km/h (1 Bft) S-SW 209 0 min 0,000 mm 0,0 UV-I 0 W/m -5,1 C -4,4 C 3,2 km/h (1 Bft) 100,00 %
15.02.2018 01:01 -4,5 C 4,4 C 95 % 1022,1 hPa 0,0 l/m 3,1 km/h (1 Bft) S-SW 209 0 min 0,000 mm 0,0 UV-I 0 W/m -5,2 C -4,5 C 4,8 km/h (1 Bft) 100,00 %
15.02.2018 01:02 -4,5 C 4,4 C 95 % 1022,0 hPa 0,0 l/m 2,7 km/h (1 Bft) S-SW 209 0 min 0,000 mm 0,0 UV-I 0 W/m -5,2 C -4,5 C 3,2 km/h (1 Bft) 100,00 %
15.02.2018 01:03 -4,6 C 4,4 C 95 % 1022,0 hPa 0,0 l/m 3,0 km/h (1 Bft) S-SW 209 0 min 0,000 mm 0,0 UV-I 0 W/m -5,3 C -4,6 C 4,8 km/h (1 Bft) 100,00 %
15.02.2018 01:04 -4,5 C 4,4 C 95 % 1022,0 hPa 0,0 l/m 3,6 km/h (1 Bft) S-SW 209 0 min 0,000 mm 0,0 UV-I 0 W/m -5,2 C -4,5 C 4,8 km/h (1 Bft) 100,00 %
15.02.2018 01:05 -4,5 C 4,4 C 95 % 1022,0 hPa 0,0 l/m 3,9 km/h (1 Bft) S-SW 209 0 min 0,000 mm 0,0 UV-I 0 W/m -5,2 C -4,5 C 4,8 km/h (1 Bft) 100,00 %
15.02.2018 01:06 -4,6 C 4,4 C 95 % 1022,0 hPa 0,0 l/m 3,6 km/h (1 Bft) S-SW 209 0 min 0,000 mm 0,0 UV-I 0 W/m -5,3 C -4,6 C 4,8 km/h (1 Bft) 95,83 %
15.02.2018 01:07 -4,5 C 4,4 C 95 % 1022,0 hPa 0,0 l/m 4,4 km/h (1 Bft) S-SW 209 0 min 0,000 mm 0,0 UV-I 0 W/m -5,2 C -4,5 C 4,8 km/h (1 Bft) 98,96 %
15.02.2018 01:08 -4,5 C 4,4 C 95 % 1022,0 hPa 0,0 l/m 3,9 km/h (1 Bft) S-SW 209 0 min 0,000 mm 0,0 UV-I 0 W/m -5,2 C -4,5 C 4,8 km/h (1 Bft) 100,00 %
15.02.2018 01:09 -4,6 C 4,4 C 95 % 1022,0 hPa 0,0 l/m 3,6 km/h (1 Bft) S-SW 209 0 min 0,000 mm 0,0 UV-I 0 W/m -5,3 C -4,6 C 4,8 km/h (1 Bft) 100,00 %
15.02.2018 01:10 -4,6 C 4,4 C 95 % 1022,0 hPa 0,0 l/m 3,0 km/h (1 Bft) S-SW 209 0 min 0,000 mm 0,0 UV-I 0 W/m -5,3 C -4,6 C 3,2 km/h (1 Bft) 100,00 %
15.02.2018 01:11 -4,6 C 4,4 C 95 % 1022,1 hPa 0,0 l/m 2,9 km/h (1 Bft) S-SW 209 0 min 0,000 mm 0,0 UV-I 0 W/m -5,3 C -4,6 C 3,2 km/h (1 Bft) 100,00 %
15.02.2018 01:12 -4,6 C 4,4 C 95 % 1022,0 hPa 0,0 l/m 2,1 km/h (1 Bft) S-SW 209 0 min 0,000 mm 0,0 UV-I 0 W/m -5,3 C -4,6 C 3,2 km/h (1 Bft) 91,67 %
15.02.2018 01:13 -4,7 C 4,4 C 95 % 1022,0 hPa 0,0 l/m 2,2 km/h (1 Bft) S-SW 209 0 min 0,000 mm 0,0 UV-I 0 W/m -5,4 C -4,7 C 3,2 km/h (1 Bft) 100,00 %
15.02.2018 01:14 -4,7 C 4,4 C 95 % 1022,0 hPa 0,0 l/m 1,9 km/h (1 Bft) S-SW 209 0 min 0,000 mm 0,0 UV-I 0 W/m -5,4 C -4,7 C 3,2 km/h (1 Bft) 95,83 %
15.02.2018 01:15 -4,7 C 4,4 C 95 % 1022,0 hPa 0,0 l/m 2,1 km/h (1 Bft) S-SW 209 0 min 0,000 mm 0,0 UV-I 0 W/m -5,4 C -4,7 C 3,2 km/h (1 Bft) 100,00 %
15.02.2018 01:16 -4,7 C 4,4 C 95 % 1022,0 hPa 0,0 l/m 1,9 km/h (1 Bft) S-SW 209 0 min 0,000 mm 0,0 UV-I 0 W/m -5,4 C -4,7 C 3,2 km/h (1 Bft) 100,00 %
15.02.2018 01:17 -4,7 C 4,4 C 95 % 1022,0 hPa 0,0 l/m 2,1 km/h (1 Bft) S-SW 209 0 min 0,000 mm 0,0 UV-I 0 W/m -5,4 C -4,7 C 3,2 km/h (1 Bft) 100,00 %
15.02.2018 01:18 -4,7 C 4,4 C 95 % 1022,0 hPa 0,0 l/m 2,7 km/h (1 Bft) S-SW 209 0 min 0,000 mm 0,0 UV-I 0 W/m -5,4 C -4,7 C 3,2 km/h (1 Bft) 100,00 %
15.02.2018 01:19 -4,7 C 4,4 C 95 % 1022,0 hPa 0,0 l/m 3,2 km/h (1 Bft) S-SW 209 0 min 0,000 mm 0,0 UV-I 0 W/m -5,4 C -4,7 C 3,2 km/h (1 Bft) 100,00 %
15.02.2018 01:20 -4,7 C 4,4 C 95 % 1022,1 hPa 0,0 l/m 3,5 km/h (1 Bft) S-SW 209 0 min 0,000 mm 0,0 UV-I 0 W/m -5,4 C -4,7 C 4,8 km/h (1 Bft) 100,00 %
15.02.2018 01:21 -4,7 C 4,4 C 95 % 1022,1 hPa 0,0 l/m 2,8 km/h (1 Bft) S-SW 209 0 min 0,000 mm 0,0 UV-I 0 W/m -5,4 C -4,7 C 3,2 km/h (1 Bft) 100,00 %
15.02.2018 01:22 -4,7 C 4,4 C 95 % 1022,1 hPa 0,0 l/m 2,2 km/h (1 Bft) S-SW 209 0 min 0,000 mm 0,0 UV-I 0 W/m -5,4 C -4,7 C 3,2 km/h (1 Bft) 100,00 %
15.02.2018 01:23 -4,8 C 4,4 C 95 % 1022,2 hPa 0,0 l/m 2,3 km/h (1 Bft) S-SW 209 0 min 0,000 mm 0,0 UV-I 0 W/m -5,5 C -4,8 C 3,2 km/h (1 Bft) 100,00 %
15.02.2018 01:24 -4,7 C 4,4 C 95 % 1022,2 hPa 0,0 l/m 1,8 km/h (1 Bft) S-SW 209 0 min 0,000 mm 0,0 UV-I 0 W/m -5,4 C -4,7 C 3,2 km/h (1 Bft) 95,65 %
15.02.2018 01:25 -4,7 C 4,4 C 95 % 1022,2 hPa 0,0 l/m 1,8 km/h (1 Bft) S-SW 209 0 min 0,000 mm 0,0 UV-I 0 W/m -5,4 C -4,7 C 3,2 km/h (1 Bft) 100,00 %
15.02.2018 01:26 -4,7 C 4,4 C 95 % 1022,2 hPa 0,0 l/m 1,7 km/h (1 Bft) S-SW 209 0 min 0,000 mm 0,0 UV-I 0 W/m -5,4 C -4,7 C 3,2 km/h (1 Bft) 95,65 %
15.02.2018 01:27 -4,6 C 4,4 C 95 % 1022,2 hPa 0,0 l/m 1,6 km/h (1 Bft) S-SW 209 0 min 0,000 mm 0,0 UV-I 0 W/m -5,3 C -4,6 C 1,6 km/h (1 Bft) 100,00 %
15.02.2018 01:28 -4,6 C 4,4 C 95 % 1022,2 hPa 0,0 l/m 2,1 km/h (1 Bft) S-SW 209 0 min 0,000 mm 0,0 UV-I 0 W/m -5,3 C -4,6 C 3,2 km/h (1 Bft) 100,00 %
15.02.2018 01:29 -4,6 C 4,4 C 95 % 1022,2 hPa 0,0 l/m 2,2 km/h (1 Bft) S-SW 209 0 min 0,000 mm 0,0 UV-I 0 W/m -5,3 C -4,6 C 3,2 km/h (1 Bft) 100,00 %
15.02.2018 01:30 -4,6 C 4,4 C 95 % 1022,2 hPa 0,0 l/m 2,6 km/h (1 Bft) S-SW 209 0 min 0,000 mm 0,0 UV-I 0 W/m -5,3 C -4,6 C 3,2 km/h (1 Bft) 95,65 %
15.02.2018 01:31 -4,6 C 4,4 C 95 % 1022,3 hPa 0,0 l/m 2,3 km/h (1 Bft) S-SW 209 0 min 0,000 mm 0,0 UV-I 0 W/m -5,3 C -4,6 C 3,2 km/h (1 Bft) 100,00 %
15.02.2018 01:32 -4,6 C 4,4 C 95 % 1022,2 hPa 0,0 l/m 3,1 km/h (1 Bft) S-SW 209 0 min 0,000 mm 0,0 UV-I 0 W/m -5,3 C -4,6 C 3,2 km/h (1 Bft) 100,00 %
15.02.2018 01:33 -4,6 C 4,4 C 95 % 1022,2 hPa 0,0 l/m 2,7 km/h (1 Bft) S-SW 209 0 min 0,000 mm 0,0 UV-I 0 W/m -5,3 C -4,6 C 3,2 km/h (1 Bft) 100,00 %
15.02.2018 01:34 -4,6 C 4,4 C 95 % 1022,2 hPa 0,0 l/m 2,4 km/h (1 Bft) S-SW 209 0 min 0,000 mm 0,0 UV-I 0 W/m -5,3 C -4,6 C 3,2 km/h (1 Bft) 100,00 %
15.02.2018 01:35 -4,7 C 4,4 C 95 % 1022,1 hPa 0,0 l/m 1,9 km/h (1 Bft) S-SW 209 0 min 0,000 mm 0,0 UV-I 0 W/m -5,4 C -4,7 C 3,2 km/h (1 Bft) 100,00 %
15.02.2018 01:36 -4,8 C 4,4 C 95 % 1022,2 hPa 0,0 l/m 1,6 km/h (1 Bft) S-SW 209 0 min 0,000 mm 0,0 UV-I 0 W/m -5,5 C -4,8 C 1,6 km/h (1 Bft) 100,00 %
15.02.2018 01:37 -4,9 C 4,4 C 94 % 1022,2 hPa 0,0 l/m 1,4 km/h (1 Bft) S-SW 209 0 min 0,000 mm 0,0 UV-I 0 W/m -5,7 C -4,9 C 1,6 km/h (1 Bft) 100,00 %
15.02.2018 01:38 -4,9 C 4,4 C 94 % 1022,2 hPa 0,0 l/m 1,4 km/h (1 Bft) S-SW 209 0 min 0,000 mm 0,0 UV-I 0 W/m -5,7 C -4,9 C 1,6 km/h (1 Bft) 100,00 %
15.02.2018 01:39 -4,9 C 4,4 C 95 % 1022,2 hPa 0,0 l/m 1,4 km/h (1 Bft) S-SW 209 0 min 0,000 mm 0,0 UV-I 0 W/m -5,6 C -4,9 C 1,6 km/h (1 Bft) 100,00 %
15.02.2018 01:40 -5,0 C 4,4 C 95 % 1022,2 hPa 0,0 l/m 1,6 km/h (1 Bft) S-SW 209 0 min 0,000 mm 0,0 UV-I 0 W/m -5,7 C -5,0 C 3,2 km/h (1 Bft) 91,67 %
15.02.2018 01:41 -5,0 C 4,4 C 95 % 1022,2 hPa 0,0 l/m 2,2 km/h (1 Bft) S-SW 209 0 min 0,000 mm 0,0 UV-I 0 W/m -5,7 C -5,0 C 3,2 km/h (1 Bft) 100,00 %
15.02.2018 01:42 -4,9 C 4,4 C 95 % 1022,3 hPa 0,0 l/m 3,1 km/h (1 Bft) S-SW 209 0 min 0,000 mm 0,0 UV-I 0 W/m -5,6 C -4,9 C 3,2 km/h (1 Bft) 100,00 %
15.02.2018 01:43 -4,9 C 4,4 C 95 % 1022,3 hPa 0,0 l/m 3,0 km/h (1 Bft) S-SW 209 0 min 0,000 mm 0,0 UV-I 0 W/m -5,6 C -4,9 C 3,2 km/h (1 Bft) 100,00 %
15.02.2018 01:44 -4,8 C 4,4 C 95 % 1022,3 hPa 0,0 l/m 2,7 km/h (1 Bft) S-SW 209 0 min 0,000 mm 0,0 UV-I 0 W/m -5,5 C -4,8 C 3,2 km/h (1 Bft) 100,00 %
15.02.2018 01:45 -4,8 C 4,4 C 95 % 1022,3 hPa 0,0 l/m 3,1 km/h (1 Bft) S-SW 209 0 min 0,000 mm 0,0 UV-I 0 W/m -5,5 C -4,8 C 3,2 km/h (1 Bft) 100,00 %
15.02.2018 01:46 -4,8 C 4,4 C 95 % 1022,3 hPa 0,0 l/m 2,9 km/h (1 Bft) S-SW 209 0 min 0,000 mm 0,0 UV-I 0 W/m -5,5 C -4,8 C 3,2 km/h (1 Bft) 100,00 %
15.02.2018 01:47 -4,8 C 4,4 C 95 % 1022,2 hPa 0,0 l/m 2,5 km/h (1 Bft) S-SW 209 0 min 0,000 mm 0,0 UV-I 0 W/m -5,5 C -4,8 C 3,2 km/h (1 Bft) 96,15 %
15.02.2018 01:48 -4,8 C 4,4 C 95 % 1022,2 hPa 0,0 l/m 2,3 km/h (1 Bft) S-SW 209 0 min 0,000 mm 0,0 UV-I 0 W/m -5,5 C -4,8 C 3,2 km/h (1 Bft) 96,30 %
15.02.2018 01:49 -4,9 C 4,4 C 95 % 1022,2 hPa 0,0 l/m 2,5 km/h (1 Bft) S-SW 209 0 min 0,000 mm 0,0 UV-I 0 W/m -5,6 C -4,9 C 3,2 km/h (1 Bft) 100,00 %
15.02.2018 01:50 -5,0 C 4,4 C 95 % 1022,2 hPa 0,0 l/m 2,2 km/h (1 Bft) S-SW 209 0 min 0,000 mm 0,0 UV-I 0 W/m -5,7 C -5,0 C 3,2 km/h (1 Bft) 100,00 %
15.02.2018 01:51 -5,0 C 4,4 C 95 % 1022,2 hPa 0,0 l/m 2,1 km/h (1 Bft) S-SW 209 0 min 0,000 mm 0,0 UV-I 0 W/m -5,7 C -5,0 C 3,2 km/h (1 Bft) 95,83 %
15.02.2018 01:52 -5,1 C 4,4 C 95 % 1022,2 hPa 0,0 l/m 2,5 km/h (1 Bft) S-SW 209 0 min 0,000 mm 0,0 UV-I 0 W/m -5,8 C -5,1 C 3,2 km/h (1 Bft) 96,15 %
15.02.2018 01:53 -5,1 C 4,4 C 95 % 1022,2 hPa 0,0 l/m 2,8 km/h (1 Bft) S-SW 209 0 min 0,000 mm 0,0 UV-I 0 W/m -5,8 C -5,1 C 3,2 km/h (1 Bft) 100,00 %
15.02.2018 01:54 -5,1 C 4,4 C 95 % 1022,2 hPa 0,0 l/m 3,4 km/h (1 Bft) S-SW 209 0 min 0,000 mm 0,0 UV-I 0 W/m -5,8 C -5,1 C 4,8 km/h (1 Bft) 95,83 %
15.02.2018 01:55 -5,1 C 4,4 C 95 % 1022,2 hPa 0,0 l/m 3,6 km/h (1 Bft) S-SW 209 0 min 0,000 mm 0,0 UV-I 0 W/m -5,8 C -5,1 C 4,8 km/h (1 Bft) 100,00 %
15.02.2018 01:56 -5,0 C 4,4 C 95 % 1022,2 hPa 0,0 l/m 3,4 km/h (1 Bft) S-SW 209 0 min 0,000 mm 0,0 UV-I 0 W/m -5,7 C -5,0 C 4,8 km/h (1 Bft) 95,65 %
15.02.2018 01:57 -5,0 C 4,4 C 95 % 1022,2 hPa 0,0 l/m 3,9 km/h (1 Bft) S-SW 209 0 min 0,000 mm 0,0 UV-I 0 W/m -5,7 C -5,0 C 4,8 km/h (1 Bft) 100,00 %
15.02.2018 01:58 -5,0 C 4,4 C 95 % 1022,2 hPa 0,0 l/m 3,7 km/h (1 Bft) S-SW 209 0 min 0,000 mm 0,0 UV-I 0 W/m -5,7 C -5,0 C 4,8 km/h (1 Bft) 91,30 %
15.02.2018 01:59 -5,1 C 4,4 C 95 % 1022,2 hPa 0,0 l/m 3,8 km/h (1 Bft) S-SW 209 0 min 0,000 mm 0,0 UV-I 0 W/m -5,8 C -5,1 C 4,8 km/h (1 Bft) 100,00 %
15.02.2018 02:00 -5,1 C 4,4 C 95 % 1022,2 hPa 0,0 l/m 4,0 km/h (1 Bft) S-SW 209 0 min 0,000 mm 0,0 UV-I 0 W/m -5,8 C -5,1 C 4,8 km/h (1 Bft) 95,65 %
15.02.2018 02:01 -5,2 C 4,4 C 95 % 1022,2 hPa 0,0 l/m 3,6 km/h (1 Bft) S-SW 209 0 min 0,000 mm 0,0 UV-I 0 W/m -5,9 C -5,2 C 4,8 km/h (1 Bft) 100,00 %
15.02.2018 02:02 -5,2 C 4,4 C 95 % 1022,2 hPa 0,0 l/m 3,1 km/h (1 Bft) S-SW 209 0 min 0,000 mm 0,0 UV-I 0 W/m -5,9 C -5,2 C 3,2 km/h (1 Bft) 95,65 %
15.02.2018 02:03 -5,3 C 4,4 C 94 % 1022,2 hPa 0,0 l/m 3,5 km/h (1 Bft) S-SW 209 0 min 0,000 mm 0,0 UV-I 0 W/m -6,1 C -5,3 C 4,8 km/h (1 Bft) 92,59 %
15.02.2018 02:04 -5,3 C 4,4 C 95 % 1022,1 hPa 0,0 l/m 4,3 km/h (1 Bft) S-SW 208 0 min 0,000 mm 0,0 UV-I 0 W/m -6,0 C -5,3 C 4,8 km/h (1 Bft) 100,00 %
15.02.2018 02:05 -5,1 C 4,4 C 95 % 1022,1 hPa 0,0 l/m 4,3 km/h (1 Bft) S 182 0 min 0,000 mm 0,0 UV-I 0 W/m -5,8 C -5,1 C 4,8 km/h (1 Bft) 95,83 %
15.02.2018 02:06 -5,0 C 4,4 C 95 % 1022,2 hPa 0,0 l/m 4,5 km/h (1 Bft) S 182 0 min 0,000 mm 0,0 UV-I 0 W/m -5,7 C -5,0 C 4,8 km/h (1 Bft) 100,00 %
15.02.2018 02:07 -4,9 C 4,4 C 96 % 1022,2 hPa 0,0 l/m 3,7 km/h (1 Bft) S 182 0 min 0,000 mm 0,0 UV-I 0 W/m -5,4 C -4,9 C 4,8 km/h (1 Bft) 98,78 %
15.02.2018 02:08 -4,9 C 4,4 C 96 % 1022,2 hPa 0,0 l/m 3,6 km/h (1 Bft) S 182 0 min 0,000 mm 0,0 UV-I 0 W/m -5,4 C -4,9 C 4,8 km/h (1 Bft) 97,73 %
15.02.2018 02:09 -4,8 C 4,4 C 95 % 1022,2 hPa 0,0 l/m 2,6 km/h (1 Bft) S 182 0 min 0,000 mm 0,0 UV-I 0 W/m -5,5 C -4,8 C 3,2 km/h (1 Bft) 95,83 %
15.02.2018 02:10 -4,8 C 4,4 C 95 % 1022,2 hPa 0,0 l/m 2,6 km/h (1 Bft) S 182 0 min 0,000 mm 0,0 UV-I 0 W/m -5,5 C -4,8 C 3,2 km/h (1 Bft) 96,15 %
15.02.2018 02:11 -4,9 C 4,4 C 95 % 1022,2 hPa 0,0 l/m 2,5 km/h (1 Bft) S 182 0 min 0,000 mm 0,0 UV-I 0 W/m -5,6 C -4,9 C 3,2 km/h (1 Bft) 95,83 %
15.02.2018 02:12 -4,9 C 4,4 C 95 % 1022,1 hPa 0,0 l/m 1,9 km/h (1 Bft) S 182 0 min 0,000 mm 0,0 UV-I 0 W/m -5,6 C -4,9 C 3,2 km/h (1 Bft) 96,15 %
15.02.2018 02:13 -4,9 C 4,4 C 95 % 1022,1 hPa 0,0 l/m 2,2 km/h (1 Bft) S 182 0 min 0,000 mm 0,0 UV-I 0 W/m -5,6 C -4,9 C 3,2 km/h (1 Bft) 100,00 %
15.02.2018 02:14 -4,9 C 4,4 C 95 % 1022,1 hPa 0,0 l/m 2,1 km/h (1 Bft) S 182 0 min 0,000 mm 0,0 UV-I 0 W/m -5,6 C -4,9 C 3,2 km/h (1 Bft) 95,65 %
15.02.2018 02:15 -4,8 C 4,4 C 95 % 1022,1 hPa 0,0 l/m 2,0 km/h (1 Bft) S 182 0 min 0,000 mm 0,0 UV-I 0 W/m -5,5 C -4,8 C 3,2 km/h (1 Bft) 100,00 %
15.02.2018 02:16 -4,8 C 4,4 C 95 % 1022,1 hPa 0,0 l/m 2,2 km/h (1 Bft) S 182 0 min 0,000 mm 0,0 UV-I 0 W/m -5,5 C -4,8 C 3,2 km/h (1 Bft) 95,83 %
15.02.2018 02:17 -4,9 C 4,4 C 95 % 1022,1 hPa 0,0 l/m 2,1 km/h (1 Bft) S 182 0 min 0,000 mm 0,0 UV-I 0 W/m -5,6 C -4,9 C 3,2 km/h (1 Bft) 96,15 %
15.02.2018 02:18 -4,9 C 4,4 C 95 % 1022,1 hPa 0,0 l/m 2,1 km/h (1 Bft) S 182 0 min 0,000 mm 0,0 UV-I 0 W/m -5,6 C -4,9 C 3,2 km/h (1 Bft) 92,59 %
15.02.2018 02:19 -5,0 C 4,4 C 95 % 1022,1 hPa 0,0 l/m 2,0 km/h (1 Bft) S 182 0 min 0,000 mm 0,0 UV-I 0 W/m -5,7 C -5,0 C 3,2 km/h (1 Bft) 95,65 %
15.02.2018 02:20 -5,1 C 4,4 C 95 % 1022,1 hPa 0,0 l/m 2,5 km/h (1 Bft) S 182 0 min 0,000 mm 0,0 UV-I 0 W/m -5,8 C -5,1 C 3,2 km/h (1 Bft) 96,30 %
15.02.2018 02:21 -5,2 C 4,4 C 95 % 1022,1 hPa 0,0 l/m 2,3 km/h (1 Bft) S 182 0 min 0,000 mm 0,0 UV-I 0 W/m -5,9 C -5,2 C 3,2 km/h (1 Bft) 92,86 %
15.02.2018 02:22 -5,3 C 4,4 C 95 % 1022,1 hPa 0,0 l/m 2,7 km/h (1 Bft) S 182 0 min 0,000 mm 0,0 UV-I 0 W/m -6,0 C -5,3 C 3,2 km/h (1 Bft) 96,30 %
15.02.2018 02:23 -5,3 C 4,4 C 95 % 1022,1 hPa 0,0 l/m 2,7 km/h (1 Bft) S 182 0 min 0,000 mm 0,0 UV-I 0 W/m -6,0 C -5,3 C 3,2 km/h (1 Bft) 95,65 %
15.02.2018 02:24 -5,3 C 4,4 C 95 % 1022,0 hPa 0,0 l/m 3,0 km/h (1 Bft) S 182 0 min 0,000 mm 0,0 UV-I 0 W/m -6,0 C -5,3 C 3,2 km/h (1 Bft) 95,83 %
15.02.2018 02:25 -5,3 C 4,4 C 95 % 1022,0 hPa 0,0 l/m 3,2 km/h (1 Bft) S 182 0 min 0,000 mm 0,0 UV-I 0 W/m -6,0 C -5,3 C 3,2 km/h (1 Bft) 86,96 %
15.02.2018 02:26 -5,3 C 4,4 C 95 % 1021,9 hPa 0,0 l/m 3,4 km/h (1 Bft) S 182 0 min 0,000 mm 0,0 UV-I 0 W/m -6,0 C -5,3 C 4,8 km/h (1 Bft) 95,83 %
15.02.2018 02:27 -5,3 C 4,4 C 95 % 1021,9 hPa 0,0 l/m 4,1 km/h (1 Bft) S 182 0 min 0,000 mm 0,0 UV-I 0 W/m -6,0 C -5,3 C 4,8 km/h (1 Bft) 95,65 %
15.02.2018 02:28 -5,3 C 4,4 C 95 % 1021,9 hPa 0,0 l/m 4,6 km/h (1 Bft) S 182 0 min 0,000 mm 0,0 UV-I 0 W/m -6,0 C -5,3 C 4,8 km/h (1 Bft) 95,83 %
15.02.2018 02:29 -5,4 C 4,4 C 95 % 1021,9 hPa 0,0 l/m 4,6 km/h (1 Bft) S 182 0 min 0,000 mm 0,0 UV-I 0 W/m -6,1 C -5,4 C 4,8 km/h (1 Bft) 95,65 %
15.02.2018 02:30 -5,4 C 4,4 C 95 % 1021,9 hPa 0,0 l/m 4,8 km/h (1 Bft) S 182 0 min 0,000 mm 0,0 UV-I 0 W/m -6,1 C -5,4 C 4,8 km/h (1 Bft) 96,30 %
15.02.2018 02:31 -5,3 C 4,4 C 95 % 1021,9 hPa 0,0 l/m 3,9 km/h (1 Bft) S 182 0 min 0,000 mm 0,0 UV-I 0 W/m -6,0 C -5,3 C 4,8 km/h (1 Bft) 93,33 %
15.02.2018 02:32 -5,3 C 4,4 C 95 % 1021,9 hPa 0,0 l/m 3,5 km/h (1 Bft) S 182 0 min 0,000 mm 0,0 UV-I 0 W/m -6,0 C -5,3 C 4,8 km/h (1 Bft) 92,31 %
15.02.2018 02:33 -5,3 C 4,4 C 95 % 1021,9 hPa 0,0 l/m 3,5 km/h (1 Bft) S 182 0 min 0,000 mm 0,0 UV-I 0 W/m -6,0 C -5,3 C 4,8 km/h (1 Bft) 96,30 %
15.02.2018 02:34 -5,2 C 4,4 C 95 % 1021,9 hPa 0,0 l/m 3,7 km/h (1 Bft) S 182 0 min 0,000 mm 0,0 UV-I 0 W/m -5,9 C -5,2 C 4,8 km/h (1 Bft) 93,10 %
15.02.2018 02:35 -5,2 C 4,4 C 95 % 1021,9 hPa 0,0 l/m 3,7 km/h (1 Bft) S 182 0 min 0,000 mm 0,0 UV-I 0 W/m -5,9 C -5,2 C 4,8 km/h (1 Bft) 100,00 %
15.02.2018 02:36 -5,2 C 4,4 C 95 % 1021,9 hPa 0,0 l/m 3,5 km/h (1 Bft) S 182 0 min 0,000 mm 0,0 UV-I 0 W/m -5,9 C -5,2 C 4,8 km/h (1 Bft) 96,15 %
15.02.2018 02:37 -5,2 C 4,4 C 95 % 1021,9 hPa 0,0 l/m 2,6 km/h (1 Bft) S 182 0 min 0,000 mm 0,0 UV-I 0 W/m -5,9 C -5,2 C 4,8 km/h (1 Bft) 92,59 %
15.02.2018 02:38 -5,2 C 4,4 C 95 % 1021,9 hPa 0,0 l/m 2,8 km/h (1 Bft) S 182 0 min 0,000 mm 0,0 UV-I 0 W/m -5,9 C -5,2 C 4,8 km/h (1 Bft) 95,65 %
15.02.2018 02:39 -5,2 C 4,4 C 95 % 1021,9 hPa 0,0 l/m 1,9 km/h (1 Bft) S 182 0 min 0,000 mm 0,0 UV-I 0 W/m -5,9 C -5,2 C 3,2 km/h (1 Bft) 95,83 %
15.02.2018 02:40 -5,2 C 4,4 C 95 % 1021,9 hPa 0,0 l/m 1,5 km/h (1 Bft) S 182 0 min 0,000 mm 0,0 UV-I 0 W/m -5,9 C -5,2 C 3,2 km/h (1 Bft) 96,15 %
15.02.2018 02:41 -5,2 C 4,4 C 95 % 1021,9 hPa 0,0 l/m 2,5 km/h (1 Bft) S 182 0 min 0,000 mm 0,0 UV-I 0 W/m -5,9 C -5,2 C 3,2 km/h (1 Bft) 91,67 %
15.02.2018 02:42 -5,2 C 4,4 C 95 % 1021,9 hPa 0,0 l/m 4,3 km/h (1 Bft) S 182 0 min 0,000 mm 0,0 UV-I 0 W/m -5,9 C -5,2 C 4,8 km/h (1 Bft) 96,30 %
15.02.2018 02:43 -5,1 C 4,4 C 95 % 1022,0 hPa 0,0 l/m 4,4 km/h (1 Bft) S 182 0 min 0,000 mm 0,0 UV-I 0 W/m -5,8 C -5,1 C 4,8 km/h (1 Bft) 96,30 %
15.02.2018 02:44 -5,1 C 4,4 C 95 % 1022,0 hPa 0,0 l/m 3,7 km/h (1 Bft) S 182 0 min 0,000 mm 0,0 UV-I 0 W/m -5,8 C -5,1 C 4,8 km/h (1 Bft) 95,65 %
15.02.2018 02:45 -5,1 C 4,4 C 95 % 1022,0 hPa 0,0 l/m 4,0 km/h (1 Bft) S 182 0 min 0,000 mm 0,0 UV-I 0 W/m -5,8 C -5,1 C 4,8 km/h (1 Bft) 100,00 %
15.02.2018 02:46 -5,1 C 4,4 C 95 % 1022,0 hPa 0,0 l/m 4,3 km/h (1 Bft) S 182 0 min 0,000 mm 0,0 UV-I 0 W/m -5,8 C -5,1 C 4,8 km/h (1 Bft) 91,30 %
15.02.2018 02:47 -5,1 C 4,4 C 95 % 1022,0 hPa 0,0 l/m 2,7 km/h (1 Bft) S 182 0 min 0,000 mm 0,0 UV-I 0 W/m -5,8 C -5,1 C 3,2 km/h (1 Bft) 95,83 %
15.02.2018 02:48 -5,1 C 4,4 C 95 % 1022,0 hPa 0,0 l/m 3,2 km/h (1 Bft) S 182 0 min 0,000 mm 0,0 UV-I 0 W/m -5,8 C -5,1 C 3,2 km/h (1 Bft) 96,15 %
15.02.2018 02:49 -5,2 C 4,4 C 95 % 1022,0 hPa 0,0 l/m 3,1 km/h (1 Bft) S 182 0 min 0,000 mm 0,0 UV-I 0 W/m -5,9 C -5,2 C 3,2 km/h (1 Bft) 100,00 %
15.02.2018 02:50 -5,2 C 4,4 C 95 % 1022,0 hPa 0,0 l/m 3,2 km/h (1 Bft) S 182 0 min 0,000 mm 0,0 UV-I 0 W/m -5,9 C -5,2 C 3,2 km/h (1 Bft) 95,65 %
15.02.2018 02:51 -5,3 C 4,4 C 95 % 1022,0 hPa 0,0 l/m 3,2 km/h (1 Bft) S 182 0 min 0,000 mm 0,0 UV-I 0 W/m -6,0 C -5,3 C 3,2 km/h (1 Bft) 100,00 %
15.02.2018 02:52 -5,3 C 4,4 C 95 % 1022,0 hPa 0,0 l/m 3,1 km/h (1 Bft) S 182 0 min 0,000 mm 0,0 UV-I 0 W/m -6,0 C -5,3 C 3,2 km/h (1 Bft) 96,30 %
15.02.2018 02:53 -5,4 C 4,4 C 95 % 1022,0 hPa 0,0 l/m 3,6 km/h (1 Bft) S 182 0 min 0,000 mm 0,0 UV-I 0 W/m -6,1 C -5,4 C 4,8 km/h (1 Bft) 95,65 %
15.02.2018 02:54 -5,4 C 4,4 C 95 % 1022,0 hPa 0,0 l/m 3,9 km/h (1 Bft) S 182 0 min 0,000 mm 0,0 UV-I 0 W/m -6,1 C -5,4 C 4,8 km/h (1 Bft) 100,00 %
15.02.2018 02:55 -5,4 C 4,4 C 94 % 1022,0 hPa 0,0 l/m 4,2 km/h (1 Bft) S 182 0 min 0,000 mm 0,0 UV-I 0 W/m -6,2 C -5,4 C 4,8 km/h (1 Bft) 86,96 %
15.02.2018 02:56 -5,5 C 4,4 C 94 % 1022,0 hPa 0,0 l/m 3,7 km/h (1 Bft) S 182 0 min 0,000 mm 0,0 UV-I 0 W/m -6,3 C -5,5 C 4,8 km/h (1 Bft) 100,00 %
15.02.2018 02:57 -5,4 C 4,4 C 95 % 1022,1 hPa 0,0 l/m 3,6 km/h (1 Bft) S 182 0 min 0,000 mm 0,0 UV-I 0 W/m -6,1 C -5,4 C 4,8 km/h (1 Bft) 95,65 %
15.02.2018 02:58 -5,6 C 4,4 C 95 % 1022,0 hPa 0,0 l/m 3,9 km/h (1 Bft) S 182 0 min 0,000 mm 0,0 UV-I 0 W/m -6,3 C -5,6 C 4,8 km/h (1 Bft) 100,00 %
15.02.2018 02:59 -5,6 C 4,4 C 94 % 1022,0 hPa 0,0 l/m 4,4 km/h (1 Bft) S 182 0 min 0,000 mm 0,0 UV-I 0 W/m -6,4 C -5,6 C 4,8 km/h (1 Bft) 95,65 %
15.02.2018 03:00 -5,6 C 4,4 C 94 % 1022,0 hPa 0,0 l/m 3,6 km/h (1 Bft) S 182 0 min 0,000 mm 0,0 UV-I 0 W/m -6,4 C -5,6 C 4,8 km/h (1 Bft) 95,83 %
15.02.2018 03:01 -5,6 C 4,4 C 95 % 1022,0 hPa 0,0 l/m 3,0 km/h (1 Bft) S 182 0 min 0,000 mm 0,0 UV-I 0 W/m -6,3 C -5,6 C 3,2 km/h (1 Bft) 100,00 %
15.02.2018 03:02 -5,6 C 4,4 C 95 % 1022,0 hPa 0,0 l/m 3,1 km/h (1 Bft) S 182 0 min 0,000 mm 0,0 UV-I 0 W/m -6,3 C -5,6 C 4,8 km/h (1 Bft) 100,00 %
15.02.2018 03:03 -5,6 C 4,4 C 95 % 1022,0 hPa 0,0 l/m 2,7 km/h (1 Bft) S 182 0 min 0,000 mm 0,0 UV-I 0 W/m -6,3 C -5,6 C 3,2 km/h (1 Bft) 100,00 %
15.02.2018 03:04 -5,6 C 4,4 C 95 % 1022,0 hPa 0,0 l/m 2,9 km/h (1 Bft) S 182 0 min 0,000 mm 0,0 UV-I 0 W/m -6,3 C -5,6 C 4,8 km/h (1 Bft) 100,00 %
15.02.2018 03:05 -5,6 C 4,4 C 95 % 1022,0 hPa 0,0 l/m 3,5 km/h (1 Bft) S 182 0 min 0,000 mm 0,0 UV-I 0 W/m -6,3 C -5,6 C 4,8 km/h (1 Bft) 100,00 %
15.02.2018 03:06 -5,6 C 4,4 C 95 % 1022,0 hPa 0,0 l/m 3,5 km/h (1 Bft) S 182 0 min 0,000 mm 0,0 UV-I 0 W/m -6,3 C -5,6 C 4,8 km/h (1 Bft) 100,00 %
15.02.2018 03:07 -5,5 C 4,4 C 95 % 1022,0 hPa 0,0 l/m 3,5 km/h (1 Bft) S 182 0 min 0,000 mm 0,0 UV-I 0 W/m -6,2 C -5,5 C 4,8 km/h (1 Bft) 97,96 %
15.02.2018 03:08 -5,5 C 4,4 C 95 % 1022,0 hPa 0,0 l/m 2,8 km/h (1 Bft) S 182 0 min 0,000 mm 0,0 UV-I 0 W/m -6,2 C -5,5 C 3,2 km/h (1 Bft) 100,00 %
15.02.2018 03:09 -5,4 C 4,4 C 95 % 1022,1 hPa 0,0 l/m 2,4 km/h (1 Bft) S 182 0 min 0,000 mm 0,0 UV-I 0 W/m -6,1 C -5,4 C 3,2 km/h (1 Bft) 95,65 %
15.02.2018 03:10 -5,4 C 4,4 C 95 % 1022,1 hPa 0,0 l/m 1,2 km/h (1 Bft) S 182 0 min 0,000 mm 0,0 UV-I 0 W/m -6,1 C -5,4 C 1,6 km/h (1 Bft) 95,83 %
15.02.2018 03:11 -5,4 C 4,4 C 95 % 1022,0 hPa 0,0 l/m 1,4 km/h (1 Bft) S 182 0 min 0,000 mm 0,0 UV-I 0 W/m -6,1 C -5,4 C 1,6 km/h (1 Bft) 100,00 %
15.02.2018 03:12 -5,3 C 4,4 C 95 % 1022,1 hPa 0,0 l/m 0,9 km/h (0 Bft) S 182 0 min 0,000 mm 0,0 UV-I 0 W/m -6,0 C -5,3 C 1,6 km/h (1 Bft) 100,00 %
15.02.2018 03:13 -5,4 C 4,4 C 94 % 1022,1 hPa 0,0 l/m 0,0 km/h (0 Bft) S 182 0 min 0,000 mm 0,0 UV-I 0 W/m -6,2 C -5,4 C 0,0 km/h (0 Bft) 100,00 %
15.02.2018 03:14 -5,4 C 4,4 C 94 % 1022,1 hPa 0,0 l/m 0,0 km/h (0 Bft) S 182 0 min 0,000 mm 0,0 UV-I 0 W/m -6,2 C -5,4 C 0,0 km/h (0 Bft) 100,00 %
15.02.2018 03:15 -5,5 C 4,4 C 94 % 1022,1 hPa 0,0 l/m 0,0 km/h (0 Bft) S 182 0 min 0,000 mm 0,0 UV-I 0 W/m -6,3 C -5,5 C 0,0 km/h (0 Bft) 100,00 %
15.02.2018 03:16 -5,6 C 4,4 C 94 % 1022,1 hPa 0,0 l/m 0,0 km/h (0 Bft) S 182 0 min 0,000 mm 0,0 UV-I 0 W/m -6,4 C -5,6 C 0,0 km/h (0 Bft) 100,00 %
15.02.2018 03:17 -5,7 C 4,4 C 94 % 1022,0 hPa 0,0 l/m 0,5 km/h (0 Bft) S 182 0 min 0,000 mm 0,0 UV-I 0 W/m -6,5 C -5,7 C 1,6 km/h (1 Bft) 100,00 %
15.02.2018 03:18 -5,7 C 4,4 C 94 % 1022,0 hPa 0,0 l/m 1,7 km/h (1 Bft) S 182 0 min 0,000 mm 0,0 UV-I 0 W/m -6,5 C -5,7 C 3,2 km/h (1 Bft) 95,65 %
15.02.2018 03:19 -5,7 C 4,4 C 94 % 1022,0 hPa 0,0 l/m 2,1 km/h (1 Bft) S 182 0 min 0,000 mm 0,0 UV-I 0 W/m -6,5 C -5,7 C 3,2 km/h (1 Bft) 95,83 %
15.02.2018 03:20 -5,7 C 4,4 C 95 % 1022,0 hPa 0,0 l/m 3,1 km/h (1 Bft) S 182 0 min 0,000 mm 0,0 UV-I 0 W/m -6,4 C -5,7 C 3,2 km/h (1 Bft) 100,00 %
15.02.2018 03:21 -5,7 C 4,4 C 95 % 1022,0 hPa 0,0 l/m 3,2 km/h (1 Bft) S 182 0 min 0,000 mm 0,0 UV-I 0 W/m -6,4 C -5,7 C 3,2 km/h (1 Bft) 100,00 %
15.02.2018 03:22 -5,6 C 4,4 C 95 % 1022,1 hPa 0,0 l/m 3,1 km/h (1 Bft) S 182 0 min 0,000 mm 0,0 UV-I 0 W/m -6,3 C -5,6 C 3,2 km/h (1 Bft) 100,00 %
15.02.2018 03:23 -5,6 C 4,4 C 95 % 1022,1 hPa 0,0 l/m 3,3 km/h (1 Bft) S 182 0 min 0,000 mm 0,0 UV-I 0 W/m -6,3 C -5,6 C 4,8 km/h (1 Bft) 100,00 %
15.02.2018 03:24 -5,6 C 4,4 C 95 % 1022,1 hPa 0,0 l/m 3,6 km/h (1 Bft) S 182 0 min 0,000 mm 0,0 UV-I 0 W/m -6,3 C -5,6 C 4,8 km/h (1 Bft) 96,15 %
15.02.2018 03:25 -5,6 C 4,4 C 95 % 1022,1 hPa 0,0 l/m 3,8 km/h (1 Bft) S 183 0 min 0,000 mm 0,0 UV-I 0 W/m -6,3 C -5,6 C 4,8 km/h (1 Bft) 95,83 %
15.02.2018 03:26 -5,6 C 4,4 C 95 % 1022,1 hPa 0,0 l/m 3,5 km/h (1 Bft) S 183 0 min 0,000 mm 0,0 UV-I 0 W/m -6,3 C -5,6 C 4,8 km/h (1 Bft) 100,00 %
15.02.2018 03:27 -5,6 C 4,4 C 95 % 1022,1 hPa 0,0 l/m 3,8 km/h (1 Bft) S 183 0 min 0,000 mm 0,0 UV-I 0 W/m -6,3 C -5,6 C 4,8 km/h (1 Bft) 100,00 %
15.02.2018 03:28 -5,6 C 4,4 C 95 % 1022,1 hPa 0,0 l/m 3,8 km/h (1 Bft) S 183 0 min 0,000 mm 0,0 UV-I 0 W/m -6,3 C -5,6 C 4,8 km/h (1 Bft) 100,00 %
15.02.2018 03:29 -5,6 C 4,4 C 95 % 1022,1 hPa 0,0 l/m 3,7 km/h (1 Bft) S 183 0 min 0,000 mm 0,0 UV-I 0 W/m -6,3 C -5,6 C 4,8 km/h (1 Bft) 100,00 %
15.02.2018 03:30 -5,6 C 4,4 C 95 % 1022,2 hPa 0,0 l/m 3,4 km/h (1 Bft) S 183 0 min 0,000 mm 0,0 UV-I 0 W/m -6,3 C -5,6 C 4,8 km/h (1 Bft) 100,00 %
15.02.2018 03:31 -5,6 C 4,4 C 95 % 1022,2 hPa 0,0 l/m 3,5 km/h (1 Bft) S 183 0 min 0,000 mm 0,0 UV-I 0 W/m -6,3 C -5,6 C 4,8 km/h (1 Bft) 100,00 %
15.02.2018 03:32 -5,6 C 4,4 C 95 % 1022,2 hPa 0,0 l/m 3,5 km/h (1 Bft) S 183 0 min 0,000 mm 0,0 UV-I 0 W/m -6,3 C -5,6 C 4,8 km/h (1 Bft) 100,00 %
15.02.2018 03:33 -5,6 C 4,4 C 95 % 1022,1 hPa 0,0 l/m 3,2 km/h (1 Bft) S 183 0 min 0,000 mm 0,0 UV-I 0 W/m -6,3 C -5,6 C 4,8 km/h (1 Bft) 100,00 %
15.02.2018 03:34 -5,7 C 4,4 C 95 % 1022,1 hPa 0,0 l/m 2,8 km/h (1 Bft) S 183 0 min 0,000 mm 0,0 UV-I 0 W/m -6,4 C -5,7 C 3,2 km/h (1 Bft) 100,00 %
15.02.2018 03:35 -5,8 C 4,4 C 94 % 1022,1 hPa 0,0 l/m 2,9 km/h (1 Bft) S 183 0 min 0,000 mm 0,0 UV-I 0 W/m -6,6 C -5,8 C 3,2 km/h (1 Bft) 96,15 %
15.02.2018 03:36 -5,8 C 4,4 C 94 % 1022,2 hPa 0,0 l/m 3,2 km/h (1 Bft) S 183 0 min 0,000 mm 0,0 UV-I 0 W/m -6,6 C -5,8 C 3,2 km/h (1 Bft) 100,00 %
15.02.2018 03:37 -5,9 C 4,4 C 94 % 1022,2 hPa 0,0 l/m 2,5 km/h (1 Bft) S 183 0 min 0,000 mm 0,0 UV-I 0 W/m -6,7 C -5,9 C 3,2 km/h (1 Bft) 100,00 %
15.02.2018 03:38 -5,9 C 4,4 C 94 % 1022,1 hPa 0,0 l/m 2,3 km/h (1 Bft) S 183 0 min 0,000 mm 0,0 UV-I 0 W/m -6,7 C -5,9 C 3,2 km/h (1 Bft) 100,00 %
15.02.2018 03:39 -5,9 C 4,4 C 94 % 1022,1 hPa 0,0 l/m 2,3 km/h (1 Bft) S 183 0 min 0,000 mm 0,0 UV-I 0 W/m -6,7 C -5,9 C 3,2 km/h (1 Bft) 100,00 %
15.02.2018 03:40 -5,9 C 4,4 C 94 % 1022,1 hPa 0,0 l/m 2,4 km/h (1 Bft) S 183 0 min 0,000 mm 0,0 UV-I 0 W/m -6,7 C -5,9 C 3,2 km/h (1 Bft) 100,00 %
15.02.2018 03:41 -5,8 C 4,4 C 95 % 1022,1 hPa 0,0 l/m 2,7 km/h (1 Bft) S 183 0 min 0,000 mm 0,0 UV-I 0 W/m -6,5 C -5,8 C 3,2 km/h (1 Bft) 100,00 %
15.02.2018 03:42 -5,8 C 4,4 C 95 % 1022,0 hPa 0,0 l/m 3,0 km/h (1 Bft) S 183 0 min 0,000 mm 0,0 UV-I 0 W/m -6,5 C -5,8 C 3,2 km/h (1 Bft) 92,59 %
15.02.2018 03:43 -5,7 C 4,4 C 95 % 1022,0 hPa 0,0 l/m 3,0 km/h (1 Bft) S 183 0 min 0,000 mm 0,0 UV-I 0 W/m -6,4 C -5,7 C 3,2 km/h (1 Bft) 100,00 %
15.02.2018 03:44 -5,6 C 4,4 C 95 % 1022,0 hPa 0,0 l/m 3,2 km/h (1 Bft) S 183 0 min 0,000 mm 0,0 UV-I 0 W/m -6,3 C -5,6 C 3,2 km/h (1 Bft) 95,83 %
15.02.2018 03:45 -5,6 C 4,4 C 95 % 1022,1 hPa 0,0 l/m 3,2 km/h (1 Bft) S 183 0 min 0,000 mm 0,0 UV-I 0 W/m -6,3 C -5,6 C 3,2 km/h (1 Bft) 100,00 %
15.02.2018 03:46 -5,7 C 4,4 C 95 % 1022,1 hPa 0,0 l/m 2,9 km/h (1 Bft) S 183 0 min 0,000 mm 0,0 UV-I 0 W/m -6,4 C -5,7 C 3,2 km/h (1 Bft) 100,00 %
15.02.2018 03:47 -5,7 C 4,4 C 95 % 1022,1 hPa 0,0 l/m 3,4 km/h (1 Bft) S 183 0 min 0,000 mm 0,0 UV-I 0 W/m -6,4 C -5,7 C 4,8 km/h (1 Bft) 100,00 %
15.02.2018 03:48 -5,7 C 4,4 C 94 % 1022,1 hPa 0,0 l/m 3,5 km/h (1 Bft) S 183 0 min 0,000 mm 0,0 UV-I 0 W/m -6,5 C -5,7 C 4,8 km/h (1 Bft) 100,00 %
15.02.2018 03:49 -5,7 C 4,4 C 94 % 1022,1 hPa 0,0 l/m 3,5 km/h (1 Bft) S 183 0 min 0,000 mm 0,0 UV-I 0 W/m -6,5 C -5,7 C 4,8 km/h (1 Bft) 100,00 %
15.02.2018 03:50 -5,7 C 4,4 C 94 % 1022,1 hPa 0,0 l/m 3,7 km/h (1 Bft) S 183 0 min 0,000 mm 0,0 UV-I 0 W/m -6,5 C -5,7 C 4,8 km/h (1 Bft) 100,00 %
15.02.2018 03:51 -5,7 C 4,4 C 95 % 1022,1 hPa 0,0 l/m 4,6 km/h (1 Bft) S 184 0 min 0,000 mm 0,0 UV-I 0 W/m -6,4 C -5,7 C 4,8 km/h (1 Bft) 100,00 %
15.02.2018 03:52 -5,7 C 4,4 C 94 % 1022,1 hPa 0,0 l/m 4,5 km/h (1 Bft) S-SW 205 0 min 0,000 mm 0,0 UV-I 0 W/m -6,5 C -5,7 C 4,8 km/h (1 Bft) 96,15 %
15.02.2018 03:53 -5,7 C 4,4 C 94 % 1022,1 hPa 0,0 l/m 4,0 km/h (1 Bft) SW 228 0 min 0,000 mm 0,0 UV-I 0 W/m -6,5 C -5,7 C 6,4 km/h (2 Bft) 100,00 %
15.02.2018 03:54 -5,7 C 4,4 C 94 % 1022,2 hPa 0,0 l/m 4,1 km/h (1 Bft) SW 229 0 min 0,000 mm 0,0 UV-I 0 W/m -6,5 C -5,7 C 6,4 km/h (2 Bft) 100,00 %
15.02.2018 03:55 -5,7 C 4,4 C 94 % 1022,1 hPa 0,0 l/m 3,2 km/h (1 Bft) SW 229 0 min 0,000 mm 0,0 UV-I 0 W/m -6,5 C -5,7 C 4,8 km/h (1 Bft) 100,00 %
15.02.2018 03:56 -5,7 C 4,4 C 94 % 1022,1 hPa 0,0 l/m 3,3 km/h (1 Bft) SW 229 0 min 0,000 mm 0,0 UV-I 0 W/m -6,5 C -5,7 C 4,8 km/h (1 Bft) 100,00 %
15.02.2018 03:57 -5,8 C 4,4 C 94 % 1022,1 hPa 0,0 l/m 4,2 km/h (1 Bft) SW 229 0 min 0,000 mm 0,0 UV-I 0 W/m -6,6 C -5,8 C 4,8 km/h (1 Bft) 100,00 %
15.02.2018 03:58 -5,8 C 4,4 C 94 % 1022,1 hPa 0,0 l/m 4,3 km/h (1 Bft) SW 229 0 min 0,000 mm 0,0 UV-I 0 W/m -6,6 C -5,8 C 4,8 km/h (1 Bft) 100,00 %
15.02.2018 03:59 -5,8 C 4,4 C 94 % 1022,1 hPa 0,0 l/m 4,5 km/h (1 Bft) SW 229 0 min 0,000 mm 0,0 UV-I 0 W/m -6,6 C -5,8 C 4,8 km/h (1 Bft) 100,00 %
15.02.2018 04:00 -5,8 C 4,4 C 94 % 1022,1 hPa 0,0 l/m 4,6 km/h (1 Bft) SW 221 0 min 0,000 mm 0,0 UV-I 0 W/m -6,6 C -5,8 C 6,4 km/h (2 Bft) 100,00 %
15.02.2018 04:01 -5,8 C 4,4 C 94 % 1022,1 hPa 0,0 l/m 4,5 km/h (1 Bft) SW 221 0 min 0,000 mm 0,0 UV-I 0 W/m -6,6 C -5,8 C 4,8 km/h (1 Bft) 92,86 %
15.02.2018 04:02 -5,8 C 4,4 C 94 % 1022,0 hPa 0,0 l/m 3,2 km/h (1 Bft) SW 221 0 min 0,000 mm 0,0 UV-I 0 W/m -6,6 C -5,8 C 4,8 km/h (1 Bft) 100,00 %
15.02.2018 04:03 -5,8 C 4,4 C 94 % 1022,0 hPa 0,0 l/m 2,6 km/h (1 Bft) SW 221 0 min 0,000 mm 0,0 UV-I 0 W/m -6,6 C -5,8 C 3,2 km/h (1 Bft) 100,00 %
15.02.2018 04:04 -5,8 C 4,4 C 94 % 1022,0 hPa 0,0 l/m 2,3 km/h (1 Bft) SW 221 0 min 0,000 mm 0,0 UV-I 0 W/m -6,6 C -5,8 C 3,2 km/h (1 Bft) 100,00 %
15.02.2018 04:05 -5,8 C 4,4 C 94 % 1022,1 hPa 0,0 l/m 2,7 km/h (1 Bft) SW 221 0 min 0,000 mm 0,0 UV-I 0 W/m -6,6 C -5,8 C 3,2 km/h (1 Bft) 100,00 %
15.02.2018 04:06 -5,9 C 4,4 C 94 % 1022,1 hPa 0,0 l/m 2,1 km/h (1 Bft) SW 221 0 min 0,000 mm 0,0 UV-I 0 W/m -6,7 C -5,9 C 3,2 km/h (1 Bft) 100,00 %
15.02.2018 04:07 -5,9 C 4,4 C 94 % 1022,1 hPa 0,0 l/m 2,5 km/h (1 Bft) SW 221 0 min 0,000 mm 0,0 UV-I 0 W/m -6,7 C -5,9 C 3,2 km/h (1 Bft) 100,00 %
15.02.2018 04:08 -5,8 C 4,4 C 94 % 1022,0 hPa 0,0 l/m 2,2 km/h (1 Bft) SW 221 0 min 0,000 mm 0,0 UV-I 0 W/m -6,6 C -5,8 C 3,2 km/h (1 Bft) 96,15 %
15.02.2018 04:09 -5,9 C 4,4 C 94 % 1022,0 hPa 0,0 l/m 1,1 km/h (1 Bft) SW 221 0 min 0,000 mm 0,0 UV-I 0 W/m -6,7 C -5,9 C 1,6 km/h (1 Bft) 100,00 %
15.02.2018 04:10 -5,8 C 4,4 C 94 % 1022,1 hPa 0,0 l/m 1,5 km/h (1 Bft) SW 221 0 min 0,000 mm 0,0 UV-I 0 W/m -6,6 C -5,8 C 3,2 km/h (1 Bft) 100,00 %
15.02.2018 04:11 -5,8 C 4,4 C 95 % 1022,0 hPa 0,0 l/m 2,1 km/h (1 Bft) SW 221 0 min 0,000 mm 0,0 UV-I 0 W/m -6,5 C -5,8 C 3,2 km/h (1 Bft) 100,00 %
15.02.2018 04:12 -5,8 C 4,4 C 95 % 1022,0 hPa 0,0 l/m 1,8 km/h (1 Bft) SW 221 0 min 0,000 mm 0,0 UV-I 0 W/m -6,5 C -5,8 C 3,2 km/h (1 Bft) 100,00 %
15.02.2018 04:13 -5,8 C 4,4 C 94 % 1022,1 hPa 0,0 l/m 1,6 km/h (1 Bft) SW 221 0 min 0,000 mm 0,0 UV-I 0 W/m -6,6 C -5,8 C 1,6 km/h (1 Bft) 100,00 %
15.02.2018 04:14 -5,8 C 4,4 C 94 % 1022,1 hPa 0,0 l/m 2,0 km/h (1 Bft) SW 221 0 min 0,000 mm 0,0 UV-I 0 W/m -6,6 C -5,8 C 3,2 km/h (1 Bft) 100,00 %
15.02.2018 04:15 -5,9 C 4,4 C 94 % 1022,1 hPa 0,0 l/m 1,9 km/h (1 Bft) SW 221 0 min 0,000 mm 0,0 UV-I 0 W/m -6,7 C -5,9 C 3,2 km/h (1 Bft) 100,00 %
15.02.2018 04:16 -5,9 C 4,4 C 94 % 1022,0 hPa 0,0 l/m 1,5 km/h (1 Bft) SW 221 0 min 0,000 mm 0,0 UV-I 0 W/m -6,7 C -5,9 C 1,6 km/h (1 Bft) 100,00 %
15.02.2018 04:17 -5,9 C 4,4 C 94 % 1022,0 hPa 0,0 l/m 1,1 km/h (1 Bft) SW 221 0 min 0,000 mm 0,0 UV-I 0 W/m -6,7 C -5,9 C 1,6 km/h (1 Bft) 100,00 %
15.02.2018 04:18 -6,0 C 4,4 C 94 % 1022,0 hPa 0,0 l/m 0,7 km/h (0 Bft) SW 221 0 min 0,000 mm 0,0 UV-I 0 W/m -6,8 C -6,0 C 1,6 km/h (1 Bft) 96,30 %
15.02.2018 04:19 -6,1 C 4,4 C 94 % 1022,0 hPa 0,0 l/m 0,0 km/h (0 Bft) SW 221 0 min 0,000 mm 0,0 UV-I 0 W/m -6,9 C -6,1 C 0,0 km/h (0 Bft) 100,00 %
15.02.2018 04:20 -6,1 C 4,4 C 94 % 1022,0 hPa 0,0 l/m 0,6 km/h (0 Bft) SW 221 0 min 0,000 mm 0,0 UV-I 0 W/m -6,9 C -6,1 C 1,6 km/h (1 Bft) 100,00 %
15.02.2018 04:21 -6,0 C 4,4 C 94 % 1022,0 hPa 0,0 l/m 2,0 km/h (1 Bft) SW 221 0 min 0,000 mm 0,0 UV-I 0 W/m -6,8 C -6,0 C 3,2 km/h (1 Bft) 91,30 %
15.02.2018 04:22 -5,9 C 4,4 C 94 % 1022,0 hPa 0,0 l/m 2,3 km/h (1 Bft) SW 221 0 min 0,000 mm 0,0 UV-I 0 W/m -6,7 C -5,9 C 3,2 km/h (1 Bft) 95,83 %
15.02.2018 04:23 -5,9 C 4,4 C 94 % 1021,9 hPa 0,0 l/m 3,1 km/h (1 Bft) SW 221 0 min 0,000 mm 0,0 UV-I 0 W/m -6,7 C -5,9 C 3,2 km/h (1 Bft) 96,15 %
15.02.2018 04:24 -5,9 C 4,4 C 94 % 1021,9 hPa 0,0 l/m 3,0 km/h (1 Bft) SW 221 0 min 0,000 mm 0,0 UV-I 0 W/m -6,7 C -5,9 C 3,2 km/h (1 Bft) 100,00 %
15.02.2018 04:25 -5,9 C 4,4 C 94 % 1021,9 hPa 0,0 l/m 3,0 km/h (1 Bft) SW 221 0 min 0,000 mm 0,0 UV-I 0 W/m -6,7 C -5,9 C 3,2 km/h (1 Bft) 100,00 %
15.02.2018 04:26 -6,0 C 4,4 C 94 % 1021,9 hPa 0,0 l/m 2,6 km/h (1 Bft) SW 221 0 min 0,000 mm 0,0 UV-I 0 W/m -6,8 C -6,0 C 3,2 km/h (1 Bft) 100,00 %
15.02.2018 04:27 -6,1 C 4,4 C 94 % 1021,8 hPa 0,0 l/m 3,2 km/h (1 Bft) SW 221 0 min 0,000 mm 0,0 UV-I 0 W/m -6,9 C -6,1 C 3,2 km/h (1 Bft) 100,00 %
15.02.2018 04:28 -6,1 C 4,4 C 94 % 1021,8 hPa 0,0 l/m 2,5 km/h (1 Bft) SW 221 0 min 0,000 mm 0,0 UV-I 0 W/m -6,9 C -6,1 C 3,2 km/h (1 Bft) 100,00 %
15.02.2018 04:29 -6,1 C 4,4 C 94 % 1021,8 hPa 0,0 l/m 2,5 km/h (1 Bft) SW 221 0 min 0,000 mm 0,0 UV-I 0 W/m -6,9 C -6,1 C 3,2 km/h (1 Bft) 100,00 %
15.02.2018 04:30 -6,1 C 4,4 C 94 % 1021,8 hPa 0,0 l/m 2,6 km/h (1 Bft) SW 221 0 min 0,000 mm 0,0 UV-I 0 W/m -6,9 C -6,1 C 3,2 km/h (1 Bft) 100,00 %
15.02.2018 04:31 -6,0 C 4,4 C 94 % 1021,8 hPa 0,0 l/m 3,1 km/h (1 Bft) S 173 0 min 0,000 mm 0,0 UV-I 0 W/m -6,8 C -6,0 C 4,8 km/h (1 Bft) 100,00 %
15.02.2018 04:32 -5,9 C 4,4 C 95 % 1021,8 hPa 0,0 l/m 4,0 km/h (1 Bft) SO 126 0 min 0,000 mm 0,0 UV-I 0 W/m -6,6 C -5,9 C 4,8 km/h (1 Bft) 100,00 %
15.02.2018 04:33 -5,8 C 4,4 C 95 % 1021,8 hPa 0,0 l/m 4,7 km/h (1 Bft) O-SO 103 0 min 0,000 mm 0,0 UV-I 0 W/m -6,5 C -5,8 C 6,4 km/h (2 Bft) 95,83 %
15.02.2018 04:34 -5,8 C 4,4 C 95 % 1021,8 hPa 0,0 l/m 5,2 km/h (1 Bft) O 94 0 min 0,000 mm 0,0 UV-I 0 W/m -6,5 C -5,8 C 6,4 km/h (2 Bft) 100,00 %
15.02.2018 04:35 -5,7 C 4,4 C 95 % 1021,8 hPa 0,0 l/m 4,1 km/h (1 Bft) O 94 0 min 0,000 mm 0,0 UV-I 0 W/m -6,4 C -5,7 C 4,8 km/h (1 Bft) 100,00 %
15.02.2018 04:36 -5,6 C 4,4 C 95 % 1021,8 hPa 0,0 l/m 3,0 km/h (1 Bft) O 94 0 min 0,000 mm 0,0 UV-I 0 W/m -6,3 C -5,6 C 4,8 km/h (1 Bft) 100,00 %
15.02.2018 04:37 -5,6 C 4,4 C 95 % 1021,8 hPa 0,0 l/m 3,0 km/h (1 Bft) O 94 0 min 0,000 mm 0,0 UV-I 0 W/m -6,3 C -5,6 C 3,2 km/h (1 Bft) 100,00 %
15.02.2018 04:38 -5,6 C 4,4 C 95 % 1021,8 hPa 0,0 l/m 2,5 km/h (1 Bft) O 94 0 min 0,000 mm 0,0 UV-I 0 W/m -6,3 C -5,6 C 3,2 km/h (1 Bft) 96,15 %
15.02.2018 04:39 -5,7 C 4,4 C 94 % 1021,8 hPa 0,0 l/m 0,8 km/h (0 Bft) O 94 0 min 0,000 mm 0,0 UV-I 0 W/m -6,5 C -5,7 C 1,6 km/h (1 Bft) 100,00 %
15.02.2018 04:40 -5,8 C 4,4 C 94 % 1021,8 hPa 0,0 l/m 0,2 km/h (0 Bft) O 94 0 min 0,000 mm 0,0 UV-I 0 W/m -6,6 C -5,8 C 1,6 km/h (1 Bft) 100,00 %
15.02.2018 04:41 -5,9 C 4,4 C 94 % 1021,8 hPa 0,0 l/m 0,0 km/h (0 Bft) O 94 0 min 0,000 mm 0,0 UV-I 0 W/m -6,7 C -5,9 C 0,0 km/h (0 Bft) 100,00 %
15.02.2018 04:42 -6,1 C 4,4 C 94 % 1021,9 hPa 0,0 l/m 0,0 km/h (0 Bft) O 94 0 min 0,000 mm 0,0 UV-I 0 W/m -6,9 C -6,1 C 0,0 km/h (0 Bft) 100,00 %
15.02.2018 04:43 -6,1 C 4,4 C 94 % 1021,8 hPa 0,0 l/m 0,0 km/h (0 Bft) O 94 0 min 0,000 mm 0,0 UV-I 0 W/m -6,9 C -6,1 C 0,0 km/h (0 Bft) 100,00 %
15.02.2018 04:44 -6,1 C 4,4 C 94 % 1022,0 hPa 0,0 l/m 0,0 km/h (0 Bft) O 94 0 min 0,000 mm 0,0 UV-I 0 W/m -6,9 C -6,1 C 0,0 km/h (0 Bft) 92,31 %
15.02.2018 04:45 -6,1 C 4,4 C 94 % 1022,0 hPa 0,0 l/m 0,4 km/h (0 Bft) O 94 0 min 0,000 mm 0,0 UV-I 0 W/m -6,9 C -6,1 C 1,6 km/h (1 Bft) 100,00 %
15.02.2018 04:46 -6,1 C 4,4 C 94 % 1022,0 hPa 0,0 l/m 2,0 km/h (1 Bft) O 94 0 min 0,000 mm 0,0 UV-I 0 W/m -6,9 C -6,1 C 3,2 km/h (1 Bft) 100,00 %
15.02.2018 04:47 -6,1 C 4,4 C 94 % 1022,0 hPa 0,0 l/m 1,8 km/h (1 Bft) O 94 0 min 0,000 mm 0,0 UV-I 0 W/m -6,9 C -6,1 C 3,2 km/h (1 Bft) 100,00 %
15.02.2018 04:48 -6,2 C 4,4 C 94 % 1022,0 hPa 0,0 l/m 0,8 km/h (0 Bft) O 94 0 min 0,000 mm 0,0 UV-I 0 W/m -7,0 C -6,2 C 1,6 km/h (1 Bft) 96,88 %
15.02.2018 04:49 -6,2 C 4,4 C 94 % 1022,0 hPa 0,0 l/m 0,0 km/h (0 Bft) O 94 0 min 0,000 mm 0,0 UV-I 0 W/m -7,0 C -6,2 C 0,0 km/h (0 Bft) 100,00 %
15.02.2018 04:50 -6,2 C 4,4 C 94 % 1022,1 hPa 0,0 l/m 0,0 km/h (0 Bft) O 94 0 min 0,000 mm 0,0 UV-I 0 W/m -7,0 C -6,2 C 0,0 km/h (0 Bft) 92,31 %
15.02.2018 04:51 -6,2 C 4,4 C 94 % 1022,1 hPa 0,0 l/m 0,0 km/h (0 Bft) O 94 0 min 0,000 mm 0,0 UV-I 0 W/m -7,0 C -6,2 C 0,0 km/h (0 Bft) 100,00 %
15.02.2018 04:52 -6,2 C 4,4 C 94 % 1022,1 hPa 0,0 l/m 0,0 km/h (0 Bft) O 94 0 min 0,000 mm 0,0 UV-I 0 W/m -7,0 C -6,2 C 0,0 km/h (0 Bft) 100,00 %
15.02.2018 04:53 -6,2 C 4,4 C 94 % 1022,0 hPa 0,0 l/m 0,0 km/h (0 Bft) O 94 0 min 0,000 mm 0,0 UV-I 0 W/m -7,0 C -6,2 C 0,0 km/h (0 Bft) 96,15 %
15.02.2018 04:54 -6,3 C 4,4 C 94 % 1022,1 hPa 0,0 l/m 0,0 km/h (0 Bft) O 94 0 min 0,000 mm 0,0 UV-I 0 W/m -7,1 C -6,3 C 0,0 km/h (0 Bft) 100,00 %
15.02.2018 04:55 -6,3 C 4,4 C 94 % 1022,1 hPa 0,0 l/m 0,0 km/h (0 Bft) O 94 0 min 0,000 mm 0,0 UV-I 0 W/m -7,1 C -6,3 C 0,0 km/h (0 Bft) 91,30 %
15.02.2018 04:56 -6,3 C 4,4 C 94 % 1022,1 hPa 0,0 l/m 0,0 km/h (0 Bft) O 94 0 min 0,000 mm 0,0 UV-I 0 W/m -7,1 C -6,3 C 0,0 km/h (0 Bft) 100,00 %
15.02.2018 04:57 -6,3 C 4,4 C 94 % 1022,1 hPa 0,0 l/m 0,0 km/h (0 Bft) O 94 0 min 0,000 mm 0,0 UV-I 0 W/m -7,1 C -6,3 C 0,0 km/h (0 Bft) 91,30 %
15.02.2018 04:58 -6,3 C 4,4 C 94 % 1022,1 hPa 0,0 l/m 0,0 km/h (0 Bft) O 94 0 min 0,000 mm 0,0 UV-I 0 W/m -7,1 C -6,3 C 0,0 km/h (0 Bft) 100,00 %
15.02.2018 04:59 -6,3 C 4,4 C 94 % 1022,1 hPa 0,0 l/m 0,0 km/h (0 Bft) O 94 0 min 0,000 mm 0,0 UV-I 0 W/m -7,1 C -6,3 C 0,0 km/h (0 Bft) 92,31 %
15.02.2018 05:00 -6,4 C 4,4 C 94 % 1022,1 hPa 0,0 l/m 0,0 km/h (0 Bft) O 94 0 min 0,000 mm 0,0 UV-I 0 W/m -7,2 C -6,4 C 0,0 km/h (0 Bft) 95,83 %
15.02.2018 05:01 -6,4 C 4,4 C 94 % 1022,1 hPa 0,0 l/m 0,9 km/h (0 Bft) O 94 0 min 0,000 mm 0,0 UV-I 0 W/m -7,2 C -6,4 C 3,2 km/h (1 Bft) 92,31 %
15.02.2018 05:02 -6,4 C 4,4 C 94 % 1022,2 hPa 0,0 l/m 2,3 km/h (1 Bft) O 94 0 min 0,000 mm 0,0 UV-I 0 W/m -7,2 C -6,4 C 3,2 km/h (1 Bft) 83,33 %
15.02.2018 05:03 -6,5 C 4,4 C 94 % 1022,2 hPa 0,0 l/m 2,3 km/h (1 Bft) O 94 0 min 0,000 mm 0,0 UV-I 0 W/m -7,3 C -6,5 C 3,2 km/h (1 Bft) 100,00 %
15.02.2018 05:04 -6,5 C 4,4 C 94 % 1022,2 hPa 0,0 l/m 2,1 km/h (1 Bft) O 94 0 min 0,000 mm 0,0 UV-I 0 W/m -7,3 C -6,5 C 3,2 km/h (1 Bft) 91,67 %
15.02.2018 05:05 -6,4 C 4,4 C 94 % 1022,2 hPa 0,0 l/m 1,9 km/h (1 Bft) O 94 0 min 0,000 mm 0,0 UV-I 0 W/m -7,2 C -6,4 C 3,2 km/h (1 Bft) 96,15 %
15.02.2018 05:06 -6,5 C 4,4 C 94 % 1022,2 hPa 0,0 l/m 1,3 km/h (1 Bft) O 94 0 min 0,000 mm 0,0 UV-I 0 W/m -7,3 C -6,5 C 1,6 km/h (1 Bft) 83,33 %
15.02.2018 05:07 -6,5 C 4,4 C 94 % 1022,2 hPa 0,0 l/m 0,3 km/h (0 Bft) O 94 0 min 0,000 mm 0,0 UV-I 0 W/m -7,3 C -6,5 C 1,6 km/h (1 Bft) 100,00 %
15.02.2018 05:08 -6,5 C 4,4 C 94 % 1022,2 hPa 0,0 l/m 0,0 km/h (0 Bft) O 94 0 min 0,000 mm 0,0 UV-I 0 W/m -7,3 C -6,5 C 0,0 km/h (0 Bft) 92,59 %
15.02.2018 05:09 -6,5 C 4,4 C 94 % 1022,2 hPa 0,0 l/m 0,0 km/h (0 Bft) O 94 0 min 0,000 mm 0,0 UV-I 0 W/m -7,3 C -6,5 C 0,0 km/h (0 Bft) 100,00 %
15.02.2018 05:10 -6,4 C 4,4 C 94 % 1022,2 hPa 0,0 l/m 0,0 km/h (0 Bft) O 94 0 min 0,000 mm 0,0 UV-I 0 W/m -7,2 C -6,4 C 0,0 km/h (0 Bft) 91,30 %
15.02.2018 05:11 -6,4 C 4,4 C 94 % 1022,2 hPa 0,0 l/m 0,0 km/h (0 Bft) O 94 0 min 0,000 mm 0,0 UV-I 0 W/m -7,2 C -6,4 C 0,0 km/h (0 Bft) 100,00 %
15.02.2018 05:12 -6,5 C 4,4 C 94 % 1022,2 hPa 0,0 l/m 0,0 km/h (0 Bft) O 94 0 min 0,000 mm 0,0 UV-I 0 W/m -7,3 C -6,5 C 0,0 km/h (0 Bft) 86,96 %
15.02.2018 05:13 -6,6 C 4,4 C 94 % 1022,2 hPa 0,0 l/m 0,0 km/h (0 Bft) O 94 0 min 0,000 mm 0,0 UV-I 0 W/m -7,4 C -6,6 C 0,0 km/h (0 Bft) 91,67 %
15.02.2018 05:14 -6,6 C 4,4 C 94 % 1022,2 hPa 0,0 l/m 0,0 km/h (0 Bft) O 94 0 min 0,000 mm 0,0 UV-I 0 W/m -7,4 C -6,6 C 0,0 km/h (0 Bft) 96,15 %
15.02.2018 05:15 -6,6 C 4,4 C 94 % 1022,2 hPa 0,0 l/m 0,0 km/h (0 Bft) O 94 0 min 0,000 mm 0,0 UV-I 0 W/m -7,4 C -6,6 C 0,0 km/h (0 Bft) 91,67 %
15.02.2018 05:16 -6,7 C 4,4 C 94 % 1022,2 hPa 0,0 l/m 0,0 km/h (0 Bft) O 94 0 min 0,000 mm 0,0 UV-I 0 W/m -7,5 C -6,7 C 0,0 km/h (0 Bft) 100,00 %
15.02.2018 05:17 -6,7 C 4,4 C 94 % 1022,2 hPa 0,0 l/m 0,0 km/h (0 Bft) O 94 0 min 0,000 mm 0,0 UV-I 0 W/m -7,5 C -6,7 C 0,0 km/h (0 Bft) 88,89 %
15.02.2018 05:18 -6,7 C 4,4 C 94 % 1022,2 hPa 0,0 l/m 0,0 km/h (0 Bft) O 94 0 min 0,000 mm 0,0 UV-I 0 W/m -7,5 C -6,7 C 0,0 km/h (0 Bft) 95,65 %
15.02.2018 05:19 -6,8 C 4,4 C 94 % 1022,1 hPa 0,0 l/m 1,1 km/h (1 Bft) O 94 0 min 0,000 mm 0,0 UV-I 0 W/m -7,6 C -6,8 C 1,6 km/h (1 Bft) 95,83 %
15.02.2018 05:20 -6,8 C 4,4 C 94 % 1022,1 hPa 0,0 l/m 1,1 km/h (1 Bft) O 94 0 min 0,000 mm 0,0 UV-I 0 W/m -7,6 C -6,8 C 1,6 km/h (1 Bft) 94,12 %
15.02.2018 05:21 -6,8 C 4,4 C 94 % 1022,2 hPa 0,0 l/m 1,1 km/h (1 Bft) O 94 0 min 0,000 mm 0,0 UV-I 0 W/m -7,6 C -6,8 C 1,6 km/h (1 Bft) 95,83 %
15.02.2018 05:22 -6,8 C 4,4 C 94 % 1022,3 hPa 0,0 l/m 0,7 km/h (0 Bft) O 94 0 min 0,000 mm 0,0 UV-I 0 W/m -7,6 C -6,8 C 1,6 km/h (1 Bft) 96,15 %
15.02.2018 05:23 -6,8 C 4,4 C 94 % 1022,3 hPa 0,0 l/m 0,9 km/h (0 Bft) O 94 0 min 0,000 mm 0,0 UV-I 0 W/m -7,6 C -6,8 C 1,6 km/h (1 Bft) 95,83 %
15.02.2018 05:24 -6,8 C 4,4 C 94 % 1022,3 hPa 0,0 l/m 0,1 km/h (0 Bft) O 94 0 min 0,000 mm 0,0 UV-I 0 W/m -7,6 C -6,8 C 1,6 km/h (1 Bft) 86,96 %
15.02.2018 05:25 -6,8 C 4,4 C 94 % 1022,3 hPa 0,0 l/m 0,0 km/h (0 Bft) O 94 0 min 0,000 mm 0,0 UV-I 0 W/m -7,6 C -6,8 C 0,0 km/h (0 Bft) 95,83 %
15.02.2018 05:26 -6,8 C 4,4 C 94 % 1022,3 hPa 0,0 l/m 0,0 km/h (0 Bft) O 94 0 min 0,000 mm 0,0 UV-I 0 W/m -7,6 C -6,8 C 0,0 km/h (0 Bft) 91,67 %
15.02.2018 05:27 -6,8 C 4,4 C 94 % 1022,3 hPa 0,0 l/m 0,0 km/h (0 Bft) O 94 0 min 0,000 mm 0,0 UV-I 0 W/m -7,6 C -6,8 C 0,0 km/h (0 Bft) 96,55 %
15.02.2018 05:28 -6,8 C 4,4 C 94 % 1022,3 hPa 0,0 l/m 0,0 km/h (0 Bft) O 94 0 min 0,000 mm 0,0 UV-I 0 W/m -7,6 C -6,8 C 0,0 km/h (0 Bft) 83,33 %
15.02.2018 05:29 -6,8 C 4,4 C 94 % 1022,4 hPa 0,0 l/m 0,0 km/h (0 Bft) O 94 0 min 0,000 mm 0,0 UV-I 0 W/m -7,6 C -6,8 C 0,0 km/h (0 Bft) 96,15 %
15.02.2018 05:30 -6,8 C 4,4 C 94 % 1022,4 hPa 0,0 l/m 0,0 km/h (0 Bft) O 94 0 min 0,000 mm 0,0 UV-I 0 W/m -7,6 C -6,8 C 0,0 km/h (0 Bft) 96,30 %
15.02.2018 05:31 -6,8 C 4,4 C 94 % 1022,3 hPa 0,0 l/m 0,0 km/h (0 Bft) O 94 0 min 0,000 mm 0,0 UV-I 0 W/m -7,6 C -6,8 C 0,0 km/h (0 Bft) 96,15 %
15.02.2018 05:32 -6,8 C 4,4 C 94 % 1022,4 hPa 0,0 l/m 0,0 km/h (0 Bft) O 94 0 min 0,000 mm 0,0 UV-I 0 W/m -7,6 C -6,8 C 0,0 km/h (0 Bft) 93,33 %
15.02.2018 05:33 -6,8 C 4,4 C 94 % 1022,3 hPa 0,0 l/m 0,0 km/h (0 Bft) O 94 0 min 0,000 mm 0,0 UV-I 0 W/m -7,6 C -6,8 C 0,0 km/h (0 Bft) 95,65 %
15.02.2018 05:34 -6,8 C 4,4 C 94 % 1022,3 hPa 0,0 l/m 0,0 km/h (0 Bft) O 94 0 min 0,000 mm 0,0 UV-I 0 W/m -7,6 C -6,8 C 0,0 km/h (0 Bft) 95,83 %
15.02.2018 05:35 -6,8 C 4,4 C 94 % 1022,3 hPa 0,0 l/m 0,0 km/h (0 Bft) O 94 0 min 0,000 mm 0,0 UV-I 0 W/m -7,6 C -6,8 C 0,0 km/h (0 Bft) 92,31 %
15.02.2018 05:36 -6,8 C 4,4 C 94 % 1022,4 hPa 0,0 l/m 0,0 km/h (0 Bft) O 94 0 min 0,000 mm 0,0 UV-I 0 W/m -7,6 C -6,8 C 0,0 km/h (0 Bft) 100,00 %
15.02.2018 05:37 -6,7 C 4,4 C 94 % 1022,4 hPa 0,0 l/m 0,0 km/h (0 Bft) O 94 0 min 0,000 mm 0,0 UV-I 0 W/m -7,5 C -6,7 C 0,0 km/h (0 Bft) 100,00 %
15.02.2018 05:38 -6,7 C 4,4 C 94 % 1022,4 hPa 0,0 l/m 0,0 km/h (0 Bft) O 94 0 min 0,000 mm 0,0 UV-I 0 W/m -7,5 C -6,7 C 0,0 km/h (0 Bft) 92,59 %
15.02.2018 05:39 -6,7 C 4,4 C 94 % 1022,5 hPa 0,0 l/m 0,0 km/h (0 Bft) O 94 0 min 0,000 mm 0,0 UV-I 0 W/m -7,5 C -6,7 C 0,0 km/h (0 Bft) 92,31 %
15.02.2018 05:40 -6,6 C 4,4 C 94 % 1022,5 hPa 0,0 l/m 0,0 km/h (0 Bft) O 94 0 min 0,000 mm 0,0 UV-I 0 W/m -7,4 C -6,6 C 0,0 km/h (0 Bft) 100,00 %
15.02.2018 05:41 -6,6 C 4,4 C 95 % 1022,5 hPa 0,0 l/m 0,0 km/h (0 Bft) O 94 0 min 0,000 mm 0,0 UV-I 0 W/m -7,3 C -6,6 C 0,0 km/h (0 Bft) 91,30 %
15.02.2018 05:42 -6,6 C 4,4 C 94 % 1022,4 hPa 0,0 l/m 0,0 km/h (0 Bft) O 94 0 min 0,000 mm 0,0 UV-I 0 W/m -7,4 C -6,6 C 0,0 km/h (0 Bft) 95,83 %
15.02.2018 05:43 -6,6 C 4,4 C 94 % 1022,4 hPa 0,0 l/m 0,0 km/h (0 Bft) O 94 0 min 0,000 mm 0,0 UV-I 0 W/m -7,4 C -6,6 C 0,0 km/h (0 Bft) 100,00 %
15.02.2018 05:44 -6,7 C 4,4 C 94 % 1022,3 hPa 0,0 l/m 0,0 km/h (0 Bft) O 94 0 min 0,000 mm 0,0 UV-I 0 W/m -7,5 C -6,7 C 0,0 km/h (0 Bft) 100,00 %
15.02.2018 05:45 -6,7 C 4,4 C 94 % 1022,3 hPa 0,0 l/m 1,1 km/h (1 Bft) O 94 0 min 0,000 mm 0,0 UV-I 0 W/m -7,5 C -6,7 C 3,2 km/h (1 Bft) 100,00 %
15.02.2018 05:46 -6,7 C 4,4 C 94 % 1022,2 hPa 0,0 l/m 3,3 km/h (1 Bft) O 94 0 min 0,000 mm 0,0 UV-I 0 W/m -7,5 C -6,7 C 4,8 km/h (1 Bft) 95,65 %
15.02.2018 05:47 -6,7 C 4,4 C 94 % 1022,1 hPa 0,0 l/m 3,8 km/h (1 Bft) O 94 0 min 0,000 mm 0,0 UV-I 0 W/m -7,5 C -6,7 C 4,8 km/h (1 Bft) 100,00 %
15.02.2018 05:48 -6,7 C 4,4 C 94 % 1022,1 hPa 0,0 l/m 4,4 km/h (1 Bft) O 93 0 min 0,000 mm 0,0 UV-I 0 W/m -7,5 C -6,7 C 4,8 km/h (1 Bft) 100,00 %
15.02.2018 05:49 -6,7 C 4,4 C 95 % 1022,0 hPa 0,0 l/m 4,5 km/h (1 Bft) O 86 0 min 0,000 mm 0,0 UV-I 0 W/m -7,4 C -6,7 C 4,8 km/h (1 Bft) 100,00 %
15.02.2018 05:50 -6,7 C 4,4 C 95 % 1022,0 hPa 0,0 l/m 4,8 km/h (1 Bft) O-NO 75 0 min 0,000 mm 0,0 UV-I 0 W/m -7,4 C -6,7 C 6,4 km/h (2 Bft) 95,65 %
15.02.2018 05:51 -6,6 C 4,4 C 95 % 1022,0 hPa 0,0 l/m 4,6 km/h (1 Bft) O-NO 76 0 min 0,000 mm 0,0 UV-I 0 W/m -7,3 C -6,6 C 6,4 km/h (2 Bft) 91,67 %
15.02.2018 05:52 -6,6 C 4,4 C 94 % 1022,1 hPa 0,0 l/m 4,6 km/h (1 Bft) O-NO 75 0 min 0,000 mm 0,0 UV-I 0 W/m -7,4 C -6,6 C 4,8 km/h (1 Bft) 100,00 %
15.02.2018 05:53 -6,6 C 4,4 C 95 % 1022,1 hPa 0,0 l/m 5,0 km/h (1 Bft) O-NO 75 0 min 0,000 mm 0,0 UV-I 0 W/m -7,3 C -6,6 C 6,4 km/h (2 Bft) 100,00 %
15.02.2018 05:54 -6,6 C 4,4 C 95 % 1022,0 hPa 0,0 l/m 5,1 km/h (1 Bft) O-NO 65 0 min 0,000 mm 0,0 UV-I 0 W/m -7,3 C -6,6 C 6,4 km/h (2 Bft) 100,00 %
15.02.2018 05:55 -6,6 C 4,4 C 94 % 1022,0 hPa 0,0 l/m 5,0 km/h (1 Bft) O-NO 65 0 min 0,000 mm 0,0 UV-I 0 W/m -7,4 C -6,6 C 6,4 km/h (2 Bft) 100,00 %
15.02.2018 05:56 -6,6 C 4,4 C 94 % 1022,0 hPa 0,0 l/m 5,0 km/h (1 Bft) O-NO 65 0 min 0,000 mm 0,0 UV-I 0 W/m -7,4 C -6,6 C 6,4 km/h (2 Bft) 100,00 %
15.02.2018 05:57 -6,6 C 4,4 C 95 % 1022,0 hPa 0,0 l/m 4,6 km/h (1 Bft) O-NO 65 0 min 0,000 mm 0,0 UV-I 0 W/m -7,3 C -6,6 C 6,4 km/h (2 Bft) 100,00 %
15.02.2018 05:58 -6,6 C 4,4 C 95 % 1022,0 hPa 0,0 l/m 4,3 km/h (1 Bft) O-NO 65 0 min 0,000 mm 0,0 UV-I 0 W/m -7,3 C -6,6 C 4,8 km/h (1 Bft) 100,00 %
15.02.2018 05:59 -6,6 C 4,4 C 95 % 1022,0 hPa 0,0 l/m 3,4 km/h (1 Bft) O-NO 65 0 min 0,000 mm 0,0 UV-I 0 W/m -7,3 C -6,6 C 4,8 km/h (1 Bft) 100,00 %
15.02.2018 06:00 -6,6 C 4,4 C 95 % 1022,0 hPa 0,0 l/m 3,1 km/h (1 Bft) O-NO 65 0 min 0,000 mm 0,0 UV-I 0 W/m -7,3 C -6,6 C 4,8 km/h (1 Bft) 100,00 %
15.02.2018 06:01 -6,7 C 4,4 C 94 % 1022,0 hPa 0,0 l/m 3,3 km/h (1 Bft) O-NO 65 0 min 0,000 mm 0,0 UV-I 0 W/m -7,5 C -6,7 C 4,8 km/h (1 Bft) 95,83 %
15.02.2018 06:02 -6,7 C 4,4 C 94 % 1022,1 hPa 0,0 l/m 2,9 km/h (1 Bft) O-NO 65 0 min 0,000 mm 0,0 UV-I 0 W/m -7,5 C -6,7 C 3,2 km/h (1 Bft) 100,00 %
15.02.2018 06:03 -6,8 C 4,4 C 94 % 1022,1 hPa 0,0 l/m 3,1 km/h (1 Bft) O-NO 65 0 min 0,000 mm 0,0 UV-I 0 W/m -7,6 C -6,8 C 3,2 km/h (1 Bft) 100,00 %
15.02.2018 06:04 -6,8 C 4,4 C 94 % 1022,1 hPa 0,0 l/m 2,6 km/h (1 Bft) O-NO 65 0 min 0,000 mm 0,0 UV-I 0 W/m -7,6 C -6,8 C 3,2 km/h (1 Bft) 100,00 %
15.02.2018 06:05 -6,8 C 4,4 C 94 % 1022,1 hPa 0,0 l/m 2,0 km/h (1 Bft) O-NO 65 0 min 0,000 mm 0,0 UV-I 0 W/m -7,6 C -6,8 C 3,2 km/h (1 Bft) 100,00 %
15.02.2018 06:06 -6,8 C 4,4 C 94 % 1022,1 hPa 0,0 l/m 1,4 km/h (1 Bft) O-NO 65 0 min 0,000 mm 0,0 UV-I 0 W/m -7,6 C -6,8 C 3,2 km/h (1 Bft) 100,00 %
15.02.2018 06:07 -6,8 C 4,4 C 95 % 1022,1 hPa 0,0 l/m 0,2 km/h (0 Bft) O-NO 65 0 min 0,000 mm 0,0 UV-I 0 W/m -7,5 C -6,8 C 1,6 km/h (1 Bft) 100,00 %
15.02.2018 06:08 -6,8 C 4,4 C 95 % 1022,1 hPa 0,0 l/m 0,0 km/h (0 Bft) O-NO 65 0 min 0,000 mm 0,0 UV-I 0 W/m -7,5 C -6,8 C 0,0 km/h (0 Bft) 91,67 %
15.02.2018 06:09 -6,8 C 4,4 C 95 % 1022,1 hPa 0,0 l/m 0,0 km/h (0 Bft) O-NO 65 0 min 0,000 mm 0,0 UV-I 0 W/m -7,5 C -6,8 C 0,0 km/h (0 Bft) 100,00 %
15.02.2018 06:10 -6,8 C 4,4 C 95 % 1022,0 hPa 0,0 l/m 0,0 km/h (0 Bft) O-NO 65 0 min 0,000 mm 0,0 UV-I 0 W/m -7,5 C -6,8 C 0,0 km/h (0 Bft) 100,00 %
15.02.2018 06:11 -6,8 C 4,4 C 95 % 1022,0 hPa 0,0 l/m 0,0 km/h (0 Bft) O-NO 65 0 min 0,000 mm 0,0 UV-I 0 W/m -7,5 C -6,8 C 0,0 km/h (0 Bft) 96,15 %
15.02.2018 06:12 -6,9 C 4,4 C 95 % 1022,0 hPa 0,0 l/m 0,0 km/h (0 Bft) O-NO 65 0 min 0,000 mm 0,0 UV-I 0 W/m -7,6 C -6,9 C 0,0 km/h (0 Bft) 95,83 %
15.02.2018 06:13 -6,9 C 4,4 C 95 % 1022,0 hPa 0,0 l/m 0,0 km/h (0 Bft) O-NO 65 0 min 0,000 mm 0,0 UV-I 0 W/m -7,6 C -6,9 C 0,0 km/h (0 Bft) 100,00 %
15.02.2018 06:14 -7,0 C 4,4 C 94 % 1022,0 hPa 0,0 l/m 0,0 km/h (0 Bft) O-NO 65 0 min 0,000 mm 0,0 UV-I 0 W/m -7,8 C -7,0 C 0,0 km/h (0 Bft) 100,00 %
15.02.2018 06:15 -7,1 C 4,4 C 94 % 1022,0 hPa 0,0 l/m 0,0 km/h (0 Bft) O-NO 65 0 min 0,000 mm 0,0 UV-I 0 W/m -7,9 C -7,1 C 0,0 km/h (0 Bft) 100,00 %
15.02.2018 06:16 -7,1 C 4,4 C 94 % 1022,0 hPa 0,0 l/m 0,0 km/h (0 Bft) O-NO 65 0 min 0,000 mm 0,0 UV-I 0 W/m -7,9 C -7,1 C 0,0 km/h (0 Bft) 100,00 %
15.02.2018 06:17 -7,1 C 4,4 C 94 % 1022,0 hPa 0,0 l/m 0,0 km/h (0 Bft) O-NO 65 0 min 0,000 mm 0,0 UV-I 0 W/m -7,9 C -7,1 C 0,0 km/h (0 Bft) 100,00 %
15.02.2018 06:18 -7,1 C 4,4 C 94 % 1022,0 hPa 0,0 l/m 0,0 km/h (0 Bft) O-NO 65 0 min 0,000 mm 0,0 UV-I 0 W/m -7,9 C -7,1 C 0,0 km/h (0 Bft) 95,83 %
15.02.2018 06:19 -7,1 C 4,4 C 95 % 1022,1 hPa 0,0 l/m 0,0 km/h (0 Bft) O-NO 65 0 min 0,000 mm 0,0 UV-I 0 W/m -7,8 C -7,1 C 0,0 km/h (0 Bft) 100,00 %
15.02.2018 06:20 -7,1 C 4,4 C 95 % 1022,1 hPa 0,0 l/m 0,0 km/h (0 Bft) O-NO 65 0 min 0,000 mm 0,0 UV-I 0 W/m -7,8 C -7,1 C 0,0 km/h (0 Bft) 100,00 %
15.02.2018 06:21 -7,0 C 4,4 C 95 % 1022,1 hPa 0,0 l/m 0,0 km/h (0 Bft) O-NO 65 0 min 0,000 mm 0,0 UV-I 0 W/m -7,7 C -7,0 C 0,0 km/h (0 Bft) 100,00 %
15.02.2018 06:22 -7,1 C 4,4 C 95 % 1022,2 hPa 0,0 l/m 0,0 km/h (0 Bft) O-NO 65 0 min 0,000 mm 0,0 UV-I 0 W/m -7,8 C -7,1 C 0,0 km/h (0 Bft) 95,65 %
15.02.2018 06:23 -7,0 C 4,4 C 95 % 1022,2 hPa 0,0 l/m 0,0 km/h (0 Bft) O-NO 65 0 min 0,000 mm 0,0 UV-I 0 W/m -7,7 C -7,0 C 0,0 km/h (0 Bft) 100,00 %
15.02.2018 06:24 -7,0 C 4,4 C 95 % 1022,2 hPa 0,0 l/m 0,8 km/h (0 Bft) O-NO 65 0 min 0,000 mm 0,0 UV-I 0 W/m -7,7 C -7,0 C 1,6 km/h (1 Bft) 91,30 %
15.02.2018 06:25 -7,0 C 4,4 C 95 % 1022,2 hPa 0,0 l/m 1,8 km/h (1 Bft) O-NO 65 0 min 0,000 mm 0,0 UV-I 0 W/m -7,7 C -7,0 C 3,2 km/h (1 Bft) 100,00 %
15.02.2018 06:26 -7,1 C 4,4 C 95 % 1022,2 hPa 0,0 l/m 1,8 km/h (1 Bft) O-NO 65 0 min 0,000 mm 0,0 UV-I 0 W/m -7,8 C -7,1 C 3,2 km/h (1 Bft) 100,00 %
15.02.2018 06:27 -7,1 C 4,4 C 94 % 1022,2 hPa 0,0 l/m 1,9 km/h (1 Bft) O-NO 65 0 min 0,000 mm 0,0 UV-I 0 W/m -7,9 C -7,1 C 3,2 km/h (1 Bft) 100,00 %
15.02.2018 06:28 -7,1 C 4,4 C 94 % 1022,3 hPa 0,0 l/m 2,1 km/h (1 Bft) O-NO 65 0 min 0,000 mm 0,0 UV-I 0 W/m -7,9 C -7,1 C 3,2 km/h (1 Bft) 95,65 %
15.02.2018 06:29 -7,1 C 4,4 C 94 % 1022,3 hPa 0,0 l/m 1,7 km/h (1 Bft) O-NO 65 0 min 0,000 mm 0,0 UV-I 0 W/m -7,9 C -7,1 C 3,2 km/h (1 Bft) 95,83 %
15.02.2018 06:30 -7,2 C 4,4 C 95 % 1022,3 hPa 0,0 l/m 0,7 km/h (0 Bft) O-NO 65 0 min 0,000 mm 0,0 UV-I 0 W/m -7,9 C -7,2 C 1,6 km/h (1 Bft) 100,00 %
15.02.2018 06:31 -7,1 C 4,4 C 95 % 1022,3 hPa 0,0 l/m 1,0 km/h (0 Bft) O-NO 65 0 min 0,000 mm 0,0 UV-I 0 W/m -7,8 C -7,1 C 1,6 km/h (1 Bft) 100,00 %
15.02.2018 06:32 -7,2 C 4,4 C 95 % 1022,3 hPa 0,0 l/m 1,0 km/h (0 Bft) O-NO 65 0 min 0,000 mm 0,0 UV-I 0 W/m -7,9 C -7,2 C 1,6 km/h (1 Bft) 95,65 %
15.02.2018 06:33 -7,1 C 4,4 C 95 % 1022,3 hPa 0,0 l/m 0,2 km/h (0 Bft) O-NO 65 0 min 0,000 mm 0,0 UV-I 0 W/m -7,8 C -7,1 C 1,6 km/h (1 Bft) 96,30 %
15.02.2018 06:34 -7,1 C 4,4 C 95 % 1022,4 hPa 0,0 l/m 1,0 km/h (0 Bft) O-NO 65 0 min 0,000 mm 0,0 UV-I 0 W/m -7,8 C -7,1 C 3,2 km/h (1 Bft) 100,00 %
15.02.2018 06:35 -7,1 C 4,4 C 95 % 1022,4 hPa 0,0 l/m 1,6 km/h (1 Bft) O-NO 65 0 min 0,000 mm 0,0 UV-I 0 W/m -7,8 C -7,1 C 1,6 km/h (1 Bft) 100,00 %
15.02.2018 06:36 -7,1 C 4,4 C 95 % 1022,4 hPa 0,0 l/m 0,9 km/h (0 Bft) O-NO 65 0 min 0,000 mm 0,0 UV-I 0 W/m -7,8 C -7,1 C 1,6 km/h (1 Bft) 95,65 %
15.02.2018 06:37 -7,1 C 4,4 C 95 % 1022,4 hPa 0,0 l/m 1,0 km/h (0 Bft) O-NO 65 0 min 0,000 mm 0,0 UV-I 0 W/m -7,8 C -7,1 C 1,6 km/h (1 Bft) 100,00 %
15.02.2018 06:38 -7,1 C 4,4 C 95 % 1022,4 hPa 0,0 l/m 1,5 km/h (1 Bft) O-NO 65 0 min 0,000 mm 0,0 UV-I 0 W/m -7,8 C -7,1 C 3,2 km/h (1 Bft) 100,00 %
15.02.2018 06:39 -7,0 C 4,4 C 95 % 1022,3 hPa 0,0 l/m 1,2 km/h (1 Bft) O-NO 65 0 min 0,000 mm 0,0 UV-I 0 W/m -7,7 C -7,0 C 1,6 km/h (1 Bft) 100,00 %
15.02.2018 06:40 -6,9 C 4,4 C 95 % 1022,4 hPa 0,0 l/m 1,0 km/h (0 Bft) O-NO 65 0 min 0,000 mm 0,0 UV-I 0 W/m -7,6 C -6,9 C 1,6 km/h (1 Bft) 100,00 %
15.02.2018 06:41 -7,0 C 4,4 C 95 % 1022,4 hPa 0,0 l/m 0,1 km/h (0 Bft) O-NO 65 0 min 0,000 mm 0,0 UV-I 0 W/m -7,7 C -7,0 C 1,6 km/h (1 Bft) 100,00 %
15.02.2018 06:42 -6,9 C 4,4 C 95 % 1022,4 hPa 0,0 l/m 0,0 km/h (0 Bft) O-NO 65 0 min 0,000 mm 0,0 UV-I 0 W/m -7,6 C -6,9 C 0,0 km/h (0 Bft) 100,00 %
15.02.2018 06:43 -7,0 C 4,4 C 95 % 1022,4 hPa 0,0 l/m 0,0 km/h (0 Bft) O-NO 65 0 min 0,000 mm 0,0 UV-I 0 W/m -7,7 C -7,0 C 0,0 km/h (0 Bft) 100,00 %
15.02.2018 06:44 -7,0 C 4,4 C 94 % 1022,4 hPa 0,0 l/m 0,3 km/h (0 Bft) O-NO 65 0 min 0,000 mm 0,0 UV-I 0 W/m -7,8 C -7,0 C 1,6 km/h (1 Bft) 100,00 %
15.02.2018 06:45 -7,0 C 4,4 C 94 % 1022,4 hPa 0,0 l/m 1,1 km/h (1 Bft) O-NO 65 0 min 0,000 mm 0,0 UV-I 0 W/m -7,8 C -7,0 C 1,6 km/h (1 Bft) 95,65 %
15.02.2018 06:46 -7,0 C 4,4 C 94 % 1022,4 hPa 0,0 l/m 1,3 km/h (1 Bft) O-NO 65 0 min 0,000 mm 0,0 UV-I 0 W/m -7,8 C -7,0 C 1,6 km/h (1 Bft) 100,00 %
15.02.2018 06:47 -7,0 C 4,4 C 94 % 1022,4 hPa 0,0 l/m 1,0 km/h (0 Bft) O-NO 65 0 min 0,000 mm 0,0 UV-I 0 W/m -7,8 C -7,0 C 1,6 km/h (1 Bft) 96,55 %
15.02.2018 06:48 -7,0 C 4,4 C 94 % 1022,3 hPa 0,0 l/m 0,7 km/h (0 Bft) O-NO 65 0 min 0,000 mm 0,0 UV-I 0 W/m -7,8 C -7,0 C 1,6 km/h (1 Bft) 100,00 %
15.02.2018 06:49 -6,9 C 4,4 C 95 % 1022,3 hPa 0,0 l/m 0,9 km/h (0 Bft) O-NO 65 0 min 0,000 mm 0,0 UV-I 0 W/m -7,6 C -6,9 C 1,6 km/h (1 Bft) 100,00 %
15.02.2018 06:50 -6,9 C 4,4 C 95 % 1022,3 hPa 0,0 l/m 1,7 km/h (1 Bft) O-NO 65 0 min 0,000 mm 0,0 UV-I 0 W/m -7,6 C -6,9 C 3,2 km/h (1 Bft) 100,00 %
15.02.2018 06:51 -6,8 C 4,4 C 95 % 1022,4 hPa 0,0 l/m 2,0 km/h (1 Bft) O-NO 65 0 min 0,000 mm 0,0 UV-I 0 W/m -7,5 C -6,8 C 3,2 km/h (1 Bft) 100,00 %
15.02.2018 06:52 -6,8 C 4,4 C 95 % 1022,3 hPa 0,0 l/m 2,1 km/h (1 Bft) O-NO 65 0 min 0,000 mm 0,0 UV-I 0 W/m -7,5 C -6,8 C 3,2 km/h (1 Bft) 95,83 %
15.02.2018 06:53 -6,7 C 4,4 C 95 % 1022,3 hPa 0,0 l/m 2,1 km/h (1 Bft) O-NO 65 0 min 0,000 mm 0,0 UV-I 0 W/m -7,4 C -6,7 C 3,2 km/h (1 Bft) 100,00 %
15.02.2018 06:54 -6,7 C 4,4 C 95 % 1022,2 hPa 0,0 l/m 2,6 km/h (1 Bft) O-NO 65 0 min 0,000 mm 0,0 UV-I 0 W/m -7,4 C -6,7 C 3,2 km/h (1 Bft) 100,00 %
15.02.2018 06:55 -6,6 C 4,4 C 95 % 1022,2 hPa 0,0 l/m 2,5 km/h (1 Bft) O-NO 65 0 min 0,000 mm 0,0 UV-I 0 W/m -7,3 C -6,6 C 3,2 km/h (1 Bft) 100,00 %
15.02.2018 06:56 -6,6 C 4,4 C 95 % 1022,3 hPa 0,0 l/m 2,7 km/h (1 Bft) O-NO 65 0 min 0,000 mm 0,0 UV-I 3 W/m -7,3 C -6,6 C 3,2 km/h (1 Bft) 100,00 %
15.02.2018 06:57 -6,6 C 4,4 C 95 % 1022,3 hPa 0,0 l/m 2,3 km/h (1 Bft) O-NO 65 0 min 0,000 mm 0,0 UV-I 5 W/m -7,3 C -6,6 C 3,2 km/h (1 Bft) 95,65 %
15.02.2018 06:58 -6,5 C 4,4 C 95 % 1022,3 hPa 0,0 l/m 1,9 km/h (1 Bft) O-NO 65 0 min 0,000 mm 0,0 UV-I 5 W/m -7,2 C -6,5 C 3,2 km/h (1 Bft) 100,00 %
15.02.2018 06:59 -6,5 C 4,4 C 95 % 1022,3 hPa 0,0 l/m 3,1 km/h (1 Bft) O-NO 65 0 min 0,000 mm 0,0 UV-I 7 W/m -7,2 C -6,5 C 3,2 km/h (1 Bft) 100,00 %
15.02.2018 07:00 -6,4 C 4,4 C 95 % 1022,3 hPa 0,0 l/m 2,5 km/h (1 Bft) O-NO 65 0 min 0,000 mm 0,0 UV-I 7 W/m -7,1 C -6,4 C 3,2 km/h (1 Bft) 100,00 %
15.02.2018 07:01 -6,4 C 4,4 C 95 % 1022,3 hPa 0,0 l/m 2,8 km/h (1 Bft) O-NO 65 0 min 0,000 mm 0,0 UV-I 7 W/m -7,1 C -6,4 C 3,2 km/h (1 Bft) 96,55 %
15.02.2018 07:02 -6,4 C 4,4 C 95 % 1022,3 hPa 0,0 l/m 3,2 km/h (1 Bft) O-NO 65 0 min 0,000 mm 0,0 UV-I 7 W/m -7,1 C -6,4 C 3,2 km/h (1 Bft) 100,00 %
15.02.2018 07:03 -6,3 C 4,4 C 95 % 1022,3 hPa 0,0 l/m 4,0 km/h (1 Bft) O-NO 65 0 min 0,000 mm 0,0 UV-I 7 W/m -7,0 C -6,3 C 6,4 km/h (2 Bft) 100,00 %
15.02.2018 07:04 -6,3 C 4,4 C 95 % 1022,3 hPa 0,0 l/m 3,5 km/h (1 Bft) O-NO 65 0 min 0,000 mm 0,0 UV-I 7 W/m -7,0 C -6,3 C 4,8 km/h (1 Bft) 100,00 %
15.02.2018 07:05 -6,3 C 4,4 C 95 % 1022,3 hPa 0,0 l/m 3,6 km/h (1 Bft) O-NO 65 0 min 0,000 mm 0,0 UV-I 7 W/m -7,0 C -6,3 C 4,8 km/h (1 Bft) 100,00 %
15.02.2018 07:06 -6,2 C 4,4 C 95 % 1022,3 hPa 0,0 l/m 3,9 km/h (1 Bft) O-NO 65 0 min 0,000 mm 0,0 UV-I 8 W/m -6,9 C -6,2 C 4,8 km/h (1 Bft) 100,00 %
15.02.2018 07:07 -6,2 C 4,4 C 95 % 1022,3 hPa 0,0 l/m 4,2 km/h (1 Bft) O-NO 65 0 min 0,000 mm 0,0 UV-I 9 W/m -6,9 C -6,2 C 6,4 km/h (2 Bft) 100,00 %
15.02.2018 07:08 -6,2 C 4,4 C 95 % 1022,4 hPa 0,0 l/m 3,6 km/h (1 Bft) O-NO 65 0 min 0,000 mm 0,0 UV-I 9 W/m -6,9 C -6,2 C 4,8 km/h (1 Bft) 100,00 %
15.02.2018 07:09 -6,2 C 4,4 C 95 % 1022,4 hPa 0,0 l/m 3,8 km/h (1 Bft) O-NO 59 0 min 0,000 mm 0,0 UV-I 9 W/m -6,9 C -6,2 C 4,8 km/h (1 Bft) 100,00 %
15.02.2018 07:10 -6,2 C 4,4 C 95 % 1022,3 hPa 0,0 l/m 4,2 km/h (1 Bft) O-NO 59 0 min 0,000 mm 0,0 UV-I 9 W/m -6,9 C -6,2 C 4,8 km/h (1 Bft) 100,00 %
15.02.2018 07:11 -6,1 C 4,4 C 95 % 1022,4 hPa 0,0 l/m 4,8 km/h (1 Bft) NO 55 0 min 0,000 mm 0,0 UV-I 11 W/m -6,8 C -6,1 C 6,4 km/h (2 Bft) 100,00 %
15.02.2018 07:12 -6,1 C 4,4 C 95 % 1022,4 hPa 0,0 l/m 4,1 km/h (1 Bft) NO 55 0 min 0,000 mm 0,0 UV-I 11 W/m -6,8 C -6,1 C 4,8 km/h (1 Bft) 100,00 %
15.02.2018 07:13 -6,1 C 4,4 C 95 % 1022,4 hPa 0,0 l/m 4,2 km/h (1 Bft) NO 55 0 min 0,000 mm 0,0 UV-I 11 W/m -6,8 C -6,1 C 4,8 km/h (1 Bft) 100,00 %
15.02.2018 07:14 -6,1 C 4,4 C 95 % 1022,4 hPa 0,0 l/m 3,5 km/h (1 Bft) NO 55 0 min 0,000 mm 0,0 UV-I 11 W/m -6,8 C -6,1 C 4,8 km/h (1 Bft) 96,15 %
15.02.2018 07:15 -6,1 C 4,4 C 95 % 1022,5 hPa 0,0 l/m 3,4 km/h (1 Bft) NO 55 0 min 0,000 mm 0,0 UV-I 12 W/m -6,8 C -6,1 C 4,8 km/h (1 Bft) 100,00 %
15.02.2018 07:16 -6,1 C 4,4 C 95 % 1022,5 hPa 0,0 l/m 2,5 km/h (1 Bft) NO 55 0 min 0,000 mm 0,0 UV-I 12 W/m -6,8 C -6,1 C 3,2 km/h (1 Bft) 100,00 %
15.02.2018 07:17 -6,1 C 4,4 C 95 % 1022,6 hPa 0,0 l/m 2,8 km/h (1 Bft) NO 55 0 min 0,000 mm 0,0 UV-I 14 W/m -6,8 C -6,1 C 3,2 km/h (1 Bft) 96,67 %
15.02.2018 07:18 -6,0 C 4,4 C 95 % 1022,6 hPa 0,0 l/m 1,8 km/h (1 Bft) NO 55 0 min 0,000 mm 0,0 UV-I 14 W/m -6,7 C -6,0 C 3,2 km/h (1 Bft) 95,65 %
15.02.2018 07:19 -6,0 C 4,4 C 95 % 1022,6 hPa 0,0 l/m 0,2 km/h (0 Bft) NO 55 0 min 0,000 mm 0,0 UV-I 15 W/m -6,7 C -6,0 C 1,6 km/h (1 Bft) 95,83 %
15.02.2018 07:20 -6,0 C 4,4 C 95 % 1022,6 hPa 0,0 l/m 0,0 km/h (0 Bft) NO 55 0 min 0,000 mm 0,0 UV-I 16 W/m -6,7 C -6,0 C 0,0 km/h (0 Bft) 95,65 %
15.02.2018 07:21 -6,0 C 4,4 C 95 % 1022,6 hPa 0,0 l/m 0,7 km/h (0 Bft) NO 55 0 min 0,000 mm 0,0 UV-I 18 W/m -6,7 C -6,0 C 1,6 km/h (1 Bft) 95,83 %
15.02.2018 07:22 -6,0 C 4,4 C 95 % 1022,6 hPa 0,0 l/m 0,5 km/h (0 Bft) NO 55 1 min 0,000 mm 0,0 UV-I 18 W/m -6,7 C -6,0 C 1,6 km/h (1 Bft) 95,83 %
15.02.2018 07:23 -6,0 C 4,4 C 95 % 1022,5 hPa 0,0 l/m 1,7 km/h (1 Bft) NO 55 1 min 0,000 mm 0,0 UV-I 18 W/m -6,7 C -6,0 C 4,8 km/h (1 Bft) 95,65 %
15.02.2018 07:24 -6,0 C 4,4 C 95 % 1022,5 hPa 0,0 l/m 3,3 km/h (1 Bft) NO 55 1 min 0,000 mm 0,0 UV-I 19 W/m -6,7 C -6,0 C 4,8 km/h (1 Bft) 96,30 %
15.02.2018 07:25 -6,0 C 4,4 C 95 % 1022,4 hPa 0,0 l/m 4,2 km/h (1 Bft) NO 55 1 min 0,000 mm 0,0 UV-I 19 W/m -6,7 C -6,0 C 4,8 km/h (1 Bft) 100,00 %
15.02.2018 07:26 -6,0 C 4,4 C 95 % 1022,5 hPa 0,0 l/m 4,7 km/h (1 Bft) NO 55 1 min 0,000 mm 0,0 UV-I 21 W/m -6,7 C -6,0 C 6,4 km/h (2 Bft) 96,30 %
15.02.2018 07:27 -5,9 C 4,4 C 95 % 1022,4 hPa 0,0 l/m 5,5 km/h (1 Bft) NO 55 1 min 0,000 mm 0,0 UV-I 23 W/m -6,6 C -5,9 C 6,4 km/h (2 Bft) 100,00 %
15.02.2018 07:28 -5,9 C 4,4 C 95 % 1022,4 hPa 0,0 l/m 4,9 km/h (1 Bft) NO 55 1 min 0,000 mm 0,0 UV-I 23 W/m -6,6 C -5,9 C 6,4 km/h (2 Bft) 91,67 %
15.02.2018 07:29 -5,9 C 4,4 C 95 % 1022,4 hPa 0,0 l/m 4,4 km/h (1 Bft) NO 56 1 min 0,000 mm 0,0 UV-I 24 W/m -6,6 C -5,9 C 6,4 km/h (2 Bft) 96,15 %
15.02.2018 07:30 -5,9 C 4,4 C 95 % 1022,4 hPa 0,0 l/m 4,4 km/h (1 Bft) NO 56 1 min 0,000 mm 0,0 UV-I 25 W/m -6,6 C -5,9 C 4,8 km/h (1 Bft) 91,67 %
15.02.2018 07:31 -5,8 C 4,4 C 95 % 1022,4 hPa 0,0 l/m 4,1 km/h (1 Bft) O-NO 58 1 min 0,000 mm 0,0 UV-I 25 W/m -6,5 C -5,8 C 6,4 km/h (2 Bft) 92,31 %
15.02.2018 07:32 -5,9 C 4,4 C 95 % 1022,4 hPa 0,0 l/m 4,5 km/h (1 Bft) NO 53 1 min 0,000 mm 0,0 UV-I 25 W/m -6,6 C -5,9 C 6,4 km/h (2 Bft) 92,59 %
15.02.2018 07:33 -5,8 C 4,4 C 95 % 1022,3 hPa 0,0 l/m 4,6 km/h (1 Bft) NO 53 0 min 0,000 mm 0,0 UV-I 26 W/m -6,5 C -5,8 C 6,4 km/h (2 Bft) 95,65 %
15.02.2018 07:34 -5,8 C 4,4 C 95 % 1022,4 hPa 0,0 l/m 4,4 km/h (1 Bft) NO 54 0 min 0,000 mm 0,0 UV-I 26 W/m -6,5 C -5,8 C 6,4 km/h (2 Bft) 100,00 %
15.02.2018 07:35 -5,8 C 4,4 C 95 % 1022,4 hPa 0,0 l/m 2,8 km/h (1 Bft) O 86 0 min 0,000 mm 0,0 UV-I 26 W/m -6,5 C -5,8 C 4,8 km/h (1 Bft) 92,86 %
15.02.2018 07:36 -5,8 C 4,4 C 95 % 1022,4 hPa 0,0 l/m 3,0 km/h (1 Bft) O-NO 59 0 min 0,000 mm 0,0 UV-I 27 W/m -6,5 C -5,8 C 4,8 km/h (1 Bft) 95,83 %
15.02.2018 07:37 -5,8 C 4,4 C 95 % 1022,4 hPa 0,0 l/m 6,3 km/h (2 Bft) O-NO 74 0 min 0,000 mm 0,0 UV-I 30 W/m -6,5 C -5,8 C 8,0 km/h (2 Bft) 96,15 %
15.02.2018 07:38 -5,7 C 4,4 C 95 % 1022,4 hPa 0,0 l/m 7,0 km/h (2 Bft) O-SO 104 0 min 0,000 mm 0,0 UV-I 30 W/m -6,4 C -6,4 C 9,7 km/h (2 Bft) 95,83 %
15.02.2018 07:39 -5,7 C 4,4 C 95 % 1022,4 hPa 0,0 l/m 5,9 km/h (2 Bft) O 99 0 min 0,000 mm 0,0 UV-I 32 W/m -6,4 C -5,7 C 8,0 km/h (2 Bft) 100,00 %
15.02.2018 07:40 -5,7 C 4,4 C 95 % 1022,3 hPa 0,0 l/m 4,8 km/h (1 Bft) O 101 0 min 0,000 mm 0,0 UV-I 32 W/m -6,4 C -5,7 C 9,7 km/h (2 Bft) 95,83 %
15.02.2018 07:41 -5,6 C 4,4 C 95 % 1022,4 hPa 0,0 l/m 6,4 km/h (2 Bft) O-SO 102 0 min 0,000 mm 0,0 UV-I 34 W/m -6,3 C -5,5 C 11,3 km/h (2 Bft) 96,15 %
15.02.2018 07:42 -5,6 C 4,4 C 95 % 1022,4 hPa 0,0 l/m 7,5 km/h (2 Bft) O 80 0 min 0,000 mm 0,0 UV-I 36 W/m -6,3 C -6,9 C 9,7 km/h (2 Bft) 93,33 %
15.02.2018 07:43 -5,6 C 4,4 C 95 % 1022,4 hPa 0,0 l/m 5,3 km/h (1 Bft) O 92 0 min 0,000 mm 0,0 UV-I 37 W/m -6,3 C -5,6 C 6,4 km/h (2 Bft) 100,00 %
15.02.2018 07:44 -5,5 C 4,4 C 95 % 1022,4 hPa 0,0 l/m 3,7 km/h (1 Bft) O 96 0 min 0,000 mm 0,0 UV-I 39 W/m -6,2 C -5,5 C 6,4 km/h (2 Bft) 95,65 %
15.02.2018 07:45 -5,4 C 4,4 C 95 % 1022,3 hPa 0,0 l/m 3,0 km/h (1 Bft) O 96 0 min 0,000 mm 0,0 UV-I 42 W/m -6,1 C -5,4 C 3,2 km/h (1 Bft) 91,67 %
15.02.2018 07:46 -5,4 C 4,4 C 96 % 1022,3 hPa 0,0 l/m 3,1 km/h (1 Bft) O 96 0 min 0,000 mm 0,0 UV-I 43 W/m -5,9 C -5,4 C 4,8 km/h (1 Bft) 91,30 %
15.02.2018 07:47 -5,3 C 4,4 C 96 % 1022,3 hPa 0,0 l/m 4,6 km/h (1 Bft) O 96 1 min 0,000 mm 0,0 UV-I 48 W/m -5,8 C -5,3 C 6,4 km/h (2 Bft) 92,59 %
15.02.2018 07:48 -5,3 C 4,4 C 96 % 1022,4 hPa 0,0 l/m 5,6 km/h (1 Bft) O 96 1 min 0,000 mm 0,0 UV-I 52 W/m -5,8 C -5,3 C 6,4 km/h (2 Bft) 100,00 %
15.02.2018 07:49 -5,3 C 4,4 C 95 % 1022,3 hPa 0,0 l/m 4,8 km/h (1 Bft) O 96 1 min 0,000 mm 0,0 UV-I 53 W/m -6,0 C -5,3 C 6,4 km/h (2 Bft) 92,59 %
15.02.2018 07:50 -5,3 C 4,4 C 95 % 1022,3 hPa 0,0 l/m 4,5 km/h (1 Bft) O 96 1 min 0,000 mm 0,0 UV-I 53 W/m -6,0 C -5,3 C 6,4 km/h (2 Bft) 96,55 %
15.02.2018 07:51 -5,3 C 4,4 C 95 % 1022,3 hPa 0,0 l/m 4,4 km/h (1 Bft) O 96 1 min 0,000 mm 0,0 UV-I 54 W/m -6,0 C -5,3 C 6,4 km/h (2 Bft) 91,67 %
15.02.2018 07:52 -5,3 C 4,4 C 95 % 1022,3 hPa 0,0 l/m 6,0 km/h (2 Bft) O 82 0 min 0,000 mm 0,0 UV-I 54 W/m -6,0 C -5,3 C 9,7 km/h (2 Bft) 96,15 %
15.02.2018 07:53 -5,3 C 4,4 C 95 % 1022,3 hPa 0,0 l/m 5,5 km/h (1 Bft) O 94 1 min 0,000 mm 0,0 UV-I 57 W/m -6,0 C -5,3 C 6,4 km/h (2 Bft) 92,59 %
15.02.2018 07:54 -5,2 C 4,4 C 95 % 1022,3 hPa 0,0 l/m 4,6 km/h (1 Bft) O 89 1 min 0,000 mm 0,0 UV-I 61 W/m -5,9 C -5,2 C 6,4 km/h (2 Bft) 93,10 %
15.02.2018 07:55 -5,3 C 4,4 C 95 % 1022,3 hPa 0,0 l/m 6,6 km/h (2 Bft) O-SO 104 1 min 0,000 mm 0,0 UV-I 62 W/m -6,0 C -5,5 C 9,7 km/h (2 Bft) 100,00 %
15.02.2018 07:56 -5,2 C 4,4 C 95 % 1022,3 hPa 0,0 l/m 7,2 km/h (2 Bft) O 92 1 min 0,000 mm 0,0 UV-I 63 W/m -5,9 C -6,2 C 9,7 km/h (2 Bft) 91,67 %
15.02.2018 07:57 -5,3 C 4,4 C 95 % 1022,2 hPa 0,0 l/m 5,6 km/h (1 Bft) O 82 1 min 0,000 mm 0,0 UV-I 63 W/m -6,0 C -5,3 C 8,0 km/h (2 Bft) 96,55 %
15.02.2018 07:58 -5,2 C 4,4 C 95 % 1022,2 hPa 0,0 l/m 6,0 km/h (2 Bft) O 86 0 min 0,000 mm 0,0 UV-I 62 W/m -5,9 C -5,2 C 9,7 km/h (2 Bft) 91,30 %
15.02.2018 07:59 -5,2 C 4,4 C 95 % 1022,2 hPa 0,0 l/m 5,0 km/h (1 Bft) O 86 0 min 0,000 mm 0,0 UV-I 61 W/m -5,9 C -5,2 C 6,4 km/h (2 Bft) 100,00 %
15.02.2018 08:00 -5,2 C 4,4 C 95 % 1022,1 hPa 0,0 l/m 5,8 km/h (2 Bft) O 94 0 min 0,000 mm 0,0 UV-I 62 W/m -5,9 C -5,2 C 9,7 km/h (2 Bft) 92,31 %
15.02.2018 08:01 -5,2 C 4,4 C 95 % 1022,1 hPa 0,0 l/m 6,8 km/h (2 Bft) O 101 0 min 0,000 mm 0,0 UV-I 63 W/m -5,9 C -5,7 C 11,3 km/h (2 Bft) 96,30 %
15.02.2018 08:02 -5,2 C 4,4 C 95 % 1022,1 hPa 0,0 l/m 6,4 km/h (2 Bft) O 101 0 min 0,000 mm 0,0 UV-I 65 W/m -5,9 C -5,1 C 9,7 km/h (2 Bft) 93,33 %
15.02.2018 08:03 -5,1 C 4,4 C 95 % 1022,1 hPa 0,0 l/m 5,6 km/h (1 Bft) O-SO 105 0 min 0,000 mm 0,0 UV-I 70 W/m -5,8 C -5,1 C 9,7 km/h (2 Bft) 95,65 %
15.02.2018 08:04 -5,1 C 4,4 C 95 % 1022,1 hPa 0,0 l/m 6,8 km/h (2 Bft) O-SO 102 1 min 0,000 mm 0,0 UV-I 76 W/m -5,8 C -5,6 C 9,7 km/h (2 Bft) 100,00 %
15.02.2018 08:05 -5,1 C 4,4 C 96 % 1022,1 hPa 0,0 l/m 7,5 km/h (2 Bft) O-SO 103 1 min 0,000 mm 0,0 UV-I 83 W/m -5,6 C -6,4 C 11,3 km/h (2 Bft) 94,12 %
15.02.2018 08:06 -5,0 C 4,4 C 96 % 1022,1 hPa 0,0 l/m 6,7 km/h (2 Bft) O-SO 109 1 min 0,000 mm 0,0 UV-I 84 W/m -5,5 C -5,3 C 9,7 km/h (2 Bft) 96,67 %
15.02.2018 08:07 -4,9 C 4,4 C 96 % 1022,0 hPa 0,0 l/m 5,4 km/h (1 Bft) O-SO 105 1 min 0,000 mm 0,0 UV-I 84 W/m -5,4 C -4,9 C 8,0 km/h (2 Bft) 96,15 %
15.02.2018 08:08 -4,9 C 4,4 C 96 % 1022,1 hPa 0,0 l/m 4,9 km/h (1 Bft) O 100 1 min 0,000 mm 0,0 UV-I 78 W/m -5,4 C -4,9 C 6,4 km/h (2 Bft) 100,00 %
15.02.2018 08:09 -4,9 C 4,4 C 95 % 1022,1 hPa 0,0 l/m 5,4 km/h (1 Bft) O 80 0 min 0,000 mm 0,0 UV-I 77 W/m -5,6 C -4,9 C 9,7 km/h (2 Bft) 96,15 %
15.02.2018 08:10 -4,8 C 4,4 C 96 % 1022,1 hPa 0,0 l/m 6,7 km/h (2 Bft) O-NO 61 0 min 0,000 mm 0,0 UV-I 73 W/m -5,3 C -5,1 C 9,7 km/h (2 Bft) 100,00 %
15.02.2018 08:11 -4,8 C 4,4 C 96 % 1022,1 hPa 0,0 l/m 7,2 km/h (2 Bft) O 98 0 min 0,000 mm 0,0 UV-I 66 W/m -5,3 C -5,8 C 11,3 km/h (2 Bft) 93,10 %
15.02.2018 08:13 -4,8 C 4,4 C 95 % 1022,1 hPa 0,0 l/m 6,9 km/h (2 Bft) O-NO 76 0 min 0,000 mm 0,0 UV-I 65 W/m -5,5 C -5,4 C 9,7 km/h (2 Bft) 97,56 %
15.02.2018 08:14 -4,7 C 4,4 C 95 % 1022,1 hPa 0,0 l/m 5,8 km/h (2 Bft) O-NO 78 0 min 0,000 mm 0,0 UV-I 62 W/m -5,4 C -4,7 C 8,0 km/h (2 Bft) 96,30 %
15.02.2018 08:15 -4,7 C 4,4 C 96 % 1022,1 hPa 0,0 l/m 5,6 km/h (1 Bft) O-SO 102 0 min 0,000 mm 0,0 UV-I 62 W/m -5,2 C -4,7 C 9,7 km/h (2 Bft) 100,00 %
15.02.2018 08:16 -4,7 C 4,4 C 96 % 1022,1 hPa 0,0 l/m 7,3 km/h (2 Bft) O 97 0 min 0,000 mm 0,0 UV-I 59 W/m -5,2 C -5,8 C 11,3 km/h (2 Bft) 96,43 %
15.02.2018 08:17 -4,7 C 4,4 C 96 % 1022,0 hPa 0,0 l/m 8,1 km/h (2 Bft) O-NO 68 0 min 0,000 mm 0,0 UV-I 62 W/m -5,2 C -6,7 C 12,9 km/h (3 Bft) 100,00 %
15.02.2018 08:18 -4,6 C 4,4 C 96 % 1022,0 hPa 0,0 l/m 12,4 km/h (3 Bft) O 93 0 min 0,000 mm 0,0 UV-I 63 W/m -5,1 C -10,6 C 14,5 km/h (3 Bft) 96,55 %
15.02.2018 08:19 -4,6 C 4,4 C 96 % 1022,0 hPa 0,0 l/m 6,6 km/h (2 Bft) O 95 0 min 0,000 mm 0,0 UV-I 63 W/m -5,1 C -4,8 C 11,3 km/h (2 Bft) 100,00 %
15.02.2018 08:20 -4,6 C 4,4 C 96 % 1022,0 hPa 0,0 l/m 7,1 km/h (2 Bft) O-NO 57 0 min 0,000 mm 0,0 UV-I 62 W/m -5,1 C -5,4 C 9,7 km/h (2 Bft) 91,67 %
15.02.2018 08:21 -4,6 C 4,4 C 96 % 1022,0 hPa 0,0 l/m 8,0 km/h (2 Bft) O-NO 75 0 min 0,000 mm 0,0 UV-I 62 W/m -5,1 C -6,5 C 11,3 km/h (2 Bft) 100,00 %
15.02.2018 08:22 -4,7 C 4,4 C 96 % 1022,0 hPa 0,0 l/m 6,8 km/h (2 Bft) O-NO 72 0 min 0,000 mm 0,0 UV-I 61 W/m -5,2 C -5,2 C 11,3 km/h (2 Bft) 93,10 %
15.02.2018 08:23 -4,6 C 4,4 C 96 % 1022,0 hPa 0,0 l/m 8,4 km/h (2 Bft) O 95 0 min 0,000 mm 0,0 UV-I 63 W/m -5,1 C -6,9 C 12,9 km/h (3 Bft) 91,30 %
15.02.2018 08:24 -4,6 C 4,4 C 96 % 1021,9 hPa 0,0 l/m 8,3 km/h (2 Bft) O-NO 73 0 min 0,000 mm 0,0 UV-I 63 W/m -5,1 C -6,8 C 12,9 km/h (3 Bft) 100,00 %
15.02.2018 08:25 -4,6 C 4,4 C 96 % 1022,0 hPa 0,0 l/m 10,2 km/h (2 Bft) O 80 0 min 0,000 mm 0,0 UV-I 62 W/m -5,1 C -8,7 C 12,9 km/h (3 Bft) 96,97 %
15.02.2018 08:26 -4,6 C 4,4 C 96 % 1022,0 hPa 0,0 l/m 8,0 km/h (2 Bft) O 93 0 min 0,000 mm 0,0 UV-I 59 W/m -5,1 C -6,5 C 12,9 km/h (3 Bft) 92,86 %
15.02.2018 08:27 -4,6 C 4,4 C 96 % 1022,0 hPa 0,0 l/m 6,9 km/h (2 Bft) O 86 0 min 0,000 mm 0,0 UV-I 57 W/m -5,1 C -5,2 C 11,3 km/h (2 Bft) 100,00 %
15.02.2018 08:28 -4,5 C 4,4 C 96 % 1022,0 hPa 0,0 l/m 8,4 km/h (2 Bft) O-NO 63 0 min 0,000 mm 0,0 UV-I 57 W/m -5,0 C -6,8 C 11,3 km/h (2 Bft) 97,56 %
15.02.2018 08:29 -4,5 C 4,4 C 96 % 1022,0 hPa 0,0 l/m 8,5 km/h (2 Bft) O 82 0 min 0,000 mm 0,0 UV-I 55 W/m -5,0 C -6,9 C 12,9 km/h (3 Bft) 92,59 %
15.02.2018 08:30 -4,4 C 4,4 C 96 % 1022,0 hPa 0,0 l/m 7,0 km/h (2 Bft) O 95 0 min 0,000 mm 0,0 UV-I 57 W/m -4,9 C -5,1 C 11,3 km/h (2 Bft) 97,30 %
15.02.2018 08:31 -4,4 C 4,4 C 96 % 1022,0 hPa 0,0 l/m 8,6 km/h (2 Bft) O 86 0 min 0,000 mm 0,0 UV-I 58 W/m -4,9 C -6,9 C 11,3 km/h (2 Bft) 97,56 %
15.02.2018 08:32 -4,4 C 4,4 C 96 % 1022,0 hPa 0,0 l/m 8,4 km/h (2 Bft) O-NO 75 0 min 0,000 mm 0,0 UV-I 60 W/m -4,9 C -6,7 C 11,3 km/h (2 Bft) 100,00 %
15.02.2018 08:33 -4,4 C 4,4 C 96 % 1022,0 hPa 0,0 l/m 6,8 km/h (2 Bft) O-NO 76 0 min 0,000 mm 0,0 UV-I 61 W/m -4,9 C -4,9 C 11,3 km/h (2 Bft) 96,30 %
15.02.2018 08:34 -4,4 C 4,4 C 96 % 1022,0 hPa 0,0 l/m 10,5 km/h (2 Bft) O 88 0 min 0,000 mm 0,0 UV-I 62 W/m -4,9 C -8,8 C 12,9 km/h (3 Bft) 100,00 %
15.02.2018 08:35 -4,4 C 4,4 C 96 % 1022,0 hPa 0,0 l/m 8,4 km/h (2 Bft) O 82 0 min 0,000 mm 0,0 UV-I 63 W/m -4,9 C -6,7 C 11,3 km/h (2 Bft) 96,30 %
15.02.2018 08:36 -4,4 C 4,4 C 96 % 1022,0 hPa 0,0 l/m 5,2 km/h (1 Bft) O 93 0 min 0,000 mm 0,0 UV-I 65 W/m -4,9 C -4,4 C 6,4 km/h (2 Bft) 93,10 %
15.02.2018 08:37 -4,4 C 4,4 C 96 % 1022,0 hPa 0,0 l/m 6,4 km/h (2 Bft) O-NO 74 0 min 0,000 mm 0,0 UV-I 69 W/m -4,9 C -4,3 C 11,3 km/h (2 Bft) 100,00 %
15.02.2018 08:38 -4,4 C 4,4 C 96 % 1022,0 hPa 0,0 l/m 7,6 km/h (2 Bft) O-NO 69 0 min 0,000 mm 0,0 UV-I 74 W/m -4,9 C -5,8 C 11,3 km/h (2 Bft) 97,30 %
15.02.2018 08:39 -4,3 C 4,4 C 96 % 1022,0 hPa 0,0 l/m 6,8 km/h (2 Bft) O-NO 69 0 min 0,000 mm 0,0 UV-I 74 W/m -4,8 C -4,8 C 8,0 km/h (2 Bft) 97,56 %
15.02.2018 08:40 -4,3 C 4,4 C 96 % 1022,0 hPa 0,0 l/m 6,0 km/h (2 Bft) O-NO 64 0 min 0,000 mm 0,0 UV-I 74 W/m -4,8 C -4,3 C 8,0 km/h (2 Bft) 93,10 %
15.02.2018 08:41 -4,3 C 4,4 C 96 % 1022,0 hPa 0,0 l/m 7,1 km/h (2 Bft) O-NO 66 0 min 0,000 mm 0,0 UV-I 75 W/m -4,8 C -5,1 C 9,7 km/h (2 Bft) 100,00 %
15.02.2018 08:42 -4,3 C 4,4 C 96 % 1022,0 hPa 0,0 l/m 6,3 km/h (2 Bft) O-NO 71 0 min 0,000 mm 0,0 UV-I 82 W/m -4,8 C -4,3 C 8,0 km/h (2 Bft) 95,65 %
15.02.2018 08:43 -4,3 C 4,4 C 96 % 1022,0 hPa 0,0 l/m 5,8 km/h (2 Bft) O-NO 69 0 min 0,000 mm 0,0 UV-I 81 W/m -4,8 C -4,3 C 8,0 km/h (2 Bft) 100,00 %
15.02.2018 08:44 -4,3 C 4,4 C 96 % 1022,0 hPa 0,0 l/m 7,5 km/h (2 Bft) O-NO 66 0 min 0,000 mm 0,0 UV-I 82 W/m -4,8 C -5,6 C 9,7 km/h (2 Bft) 96,30 %
15.02.2018 08:45 -4,3 C 4,4 C 96 % 1022,0 hPa 0,0 l/m 7,7 km/h (2 Bft) O-NO 69 0 min 0,000 mm 0,0 UV-I 83 W/m -4,8 C -5,8 C 9,7 km/h (2 Bft) 100,00 %
15.02.2018 08:46 -4,3 C 4,4 C 96 % 1022,0 hPa 0,0 l/m 8,2 km/h (2 Bft) NO 56 0 min 0,000 mm 0,0 UV-I 81 W/m -4,8 C -6,4 C 9,7 km/h (2 Bft) 93,33 %
15.02.2018 08:47 -4,3 C 4,4 C 96 % 1022,0 hPa 0,0 l/m 6,4 km/h (2 Bft) O-NO 59 0 min 0,000 mm 0,0 UV-I 84 W/m -4,8 C -4,2 C 9,7 km/h (2 Bft) 96,43 %
15.02.2018 08:48 -4,2 C 4,4 C 96 % 1022,0 hPa 0,0 l/m 9,1 km/h (2 Bft) O-NO 59 0 min 0,000 mm 0,0 UV-I 86 W/m -4,7 C -7,2 C 11,3 km/h (2 Bft) 96,30 %
15.02.2018 08:49 -4,2 C 4,4 C 96 % 1022,1 hPa 0,0 l/m 8,0 km/h (2 Bft) O 80 0 min 0,000 mm 0,0 UV-I 84 W/m -4,7 C -6,1 C 11,3 km/h (2 Bft) 100,00 %
15.02.2018 08:50 -4,2 C 4,4 C 96 % 1022,1 hPa 0,0 l/m 6,3 km/h (2 Bft) NO 48 0 min 0,000 mm 0,0 UV-I 84 W/m -4,7 C -4,2 C 8,0 km/h (2 Bft) 96,67 %
15.02.2018 08:51 -4,2 C 4,4 C 96 % 1022,1 hPa 0,0 l/m 7,4 km/h (2 Bft) O-NO 57 0 min 0,000 mm 0,0 UV-I 85 W/m -4,7 C -5,4 C 11,3 km/h (2 Bft) 92,31 %
15.02.2018 08:52 -4,2 C 4,4 C 96 % 1022,1 hPa 0,0 l/m 6,5 km/h (2 Bft) NO 51 0 min 0,000 mm 0,0 UV-I 84 W/m -4,7 C -4,3 C 8,0 km/h (2 Bft) 100,00 %
15.02.2018 08:53 -4,2 C 4,4 C 96 % 1022,1 hPa 0,0 l/m 6,3 km/h (2 Bft) O-NO 59 0 min 0,000 mm 0,0 UV-I 84 W/m -4,7 C -4,2 C 8,0 km/h (2 Bft) 100,00 %
15.02.2018 08:54 -4,2 C 4,4 C 96 % 1022,1 hPa 0,0 l/m 6,6 km/h (2 Bft) NO 56 0 min 0,000 mm 0,0 UV-I 86 W/m -4,7 C -4,4 C 8,0 km/h (2 Bft) 97,73 %
15.02.2018 08:55 -4,3 C 4,4 C 96 % 1022,2 hPa 0,0 l/m 8,1 km/h (2 Bft) NO 53 0 min 0,000 mm 0,0 UV-I 84 W/m -4,8 C -6,3 C 11,3 km/h (2 Bft) 100,00 %
15.02.2018 08:56 -4,3 C 4,4 C 96 % 1022,1 hPa 0,0 l/m 5,8 km/h (2 Bft) NO 44 0 min 0,000 mm 0,0 UV-I 86 W/m -4,8 C -4,3 C 8,0 km/h (2 Bft) 96,67 %
15.02.2018 08:57 -4,3 C 4,4 C 96 % 1022,2 hPa 0,0 l/m 7,6 km/h (2 Bft) O-NO 59 0 min 0,000 mm 0,0 UV-I 89 W/m -4,8 C -5,7 C 9,7 km/h (2 Bft) 100,00 %
15.02.2018 08:58 -4,3 C 4,4 C 96 % 1022,2 hPa 0,0 l/m 8,0 km/h (2 Bft) NO 44 0 min 0,000 mm 0,0 UV-I 93 W/m -4,8 C -6,2 C 9,7 km/h (2 Bft) 100,00 %
15.02.2018 08:59 -4,2 C 4,4 C 96 % 1022,2 hPa 0,0 l/m 6,4 km/h (2 Bft) O-NO 61 0 min 0,000 mm 0,0 UV-I 94 W/m -4,7 C -4,1 C 9,7 km/h (2 Bft) 96,88 %
15.02.2018 09:00 -4,2 C 4,4 C 96 % 1022,3 hPa 0,0 l/m 6,2 km/h (2 Bft) O-NO 69 0 min 0,025 mm 0,0 UV-I 95 W/m -4,7 C -4,2 C 9,7 km/h (2 Bft) 100,00 %
15.02.2018 09:01 -4,2 C 4,4 C 96 % 1022,3 hPa 0,0 l/m 5,1 km/h (1 Bft) O-NO 63 0 min 0,000 mm 0,0 UV-I 91 W/m -4,7 C -4,2 C 6,4 km/h (2 Bft) 97,31 %
15.02.2018 09:02 -4,2 C 4,4 C 96 % 1022,3 hPa 0,0 l/m 4,7 km/h (1 Bft) O-NO 67 0 min 0,000 mm 0,0 UV-I 91 W/m -4,7 C -4,2 C 8,0 km/h (2 Bft) 97,56 %
15.02.2018 09:03 -4,2 C 4,4 C 96 % 1022,3 hPa 0,0 l/m 6,8 km/h (2 Bft) O-NO 73 0 min 0,000 mm 0,0 UV-I 90 W/m -4,7 C -4,7 C 12,9 km/h (3 Bft) 100,00 %
15.02.2018 09:04 -4,2 C 4,4 C 96 % 1022,3 hPa 0,0 l/m 8,2 km/h (2 Bft) O-NO 63 0 min 0,000 mm 0,0 UV-I 94 W/m -4,7 C -6,3 C 12,9 km/h (3 Bft) 100,00 %
15.02.2018 09:05 -4,2 C 4,4 C 96 % 1022,4 hPa 0,0 l/m 5,9 km/h (2 Bft) O-NO 76 0 min 0,000 mm 0,0 UV-I 97 W/m -4,7 C -4,2 C 8,0 km/h (2 Bft) 96,67 %
15.02.2018 09:06 -4,2 C 4,4 C 96 % 1022,4 hPa 0,0 l/m 5,4 km/h (1 Bft) O 88 0 min 0,000 mm 0,0 UV-I 97 W/m -4,7 C -4,2 C 8,0 km/h (2 Bft) 100,00 %
15.02.2018 09:07 -4,2 C 4,4 C 96 % 1022,3 hPa 0,0 l/m 6,0 km/h (2 Bft) O 89 0 min 0,000 mm 0,0 UV-I 102 W/m -4,7 C -4,2 C 9,7 km/h (2 Bft) 95,83 %
15.02.2018 09:08 -4,2 C 4,4 C 96 % 1022,3 hPa 0,0 l/m 5,1 km/h (1 Bft) O-NO 74 0 min 0,000 mm 0,0 UV-I 102 W/m -4,7 C -4,2 C 8,0 km/h (2 Bft) 95,65 %
15.02.2018 09:09 -4,2 C 4,4 C 96 % 1022,3 hPa 0,0 l/m 6,8 km/h (2 Bft) O 85 0 min 0,000 mm 0,0 UV-I 96 W/m -4,7 C -4,7 C 9,7 km/h (2 Bft) 100,00 %
15.02.2018 09:10 -4,2 C 4,4 C 96 % 1022,4 hPa 0,0 l/m 6,0 km/h (2 Bft) O-NO 72 0 min 0,000 mm 0,0 UV-I 96 W/m -4,7 C -4,2 C 11,3 km/h (2 Bft) 100,00 %
15.02.2018 09:11 -4,1 C 4,4 C 96 % 1022,3 hPa 0,0 l/m 7,9 km/h (2 Bft) O-NO 78 0 min 0,000 mm 0,0 UV-I 91 W/m -4,6 C -5,8 C 11,3 km/h (2 Bft) 100,00 %
15.02.2018 09:12 -4,1 C 4,4 C 96 % 1022,3 hPa 0,0 l/m 6,9 km/h (2 Bft) O 92 0 min 0,000 mm 0,0 UV-I 87 W/m -4,6 C -4,7 C 8,0 km/h (2 Bft) 100,00 %
15.02.2018 09:13 -4,1 C 4,4 C 96 % 1022,3 hPa 0,0 l/m 8,5 km/h (2 Bft) O 88 0 min 0,000 mm 0,0 UV-I 85 W/m -4,6 C -6,5 C 12,9 km/h (3 Bft) 100,00 %
15.02.2018 09:14 -4,1 C 4,4 C 96 % 1022,3 hPa 0,0 l/m 8,8 km/h (2 Bft) O-NO 69 0 min 0,000 mm 0,0 UV-I 91 W/m -4,6 C -6,8 C 11,3 km/h (2 Bft) 100,00 %
15.02.2018 09:15 -4,1 C 4,4 C 96 % 1022,3 hPa 0,0 l/m 9,4 km/h (2 Bft) O 90 0 min 0,000 mm 0,0 UV-I 93 W/m -4,6 C -7,4 C 11,3 km/h (2 Bft) 100,00 %
15.02.2018 09:16 -4,1 C 4,4 C 96 % 1022,4 hPa 0,0 l/m 8,2 km/h (2 Bft) O 85 0 min 0,000 mm 0,0 UV-I 93 W/m -4,6 C -6,2 C 11,3 km/h (2 Bft) 100,00 %
15.02.2018 09:17 -4,1 C 4,4 C 96 % 1022,3 hPa 0,0 l/m 7,6 km/h (2 Bft) O-NO 57 0 min 0,000 mm 0,0 UV-I 93 W/m -4,6 C -5,5 C 9,7 km/h (2 Bft) 100,00 %
15.02.2018 09:18 -4,1 C 4,4 C 96 % 1022,3 hPa 0,0 l/m 7,5 km/h (2 Bft) O 98 0 min 0,000 mm 0,0 UV-I 93 W/m -4,6 C -5,4 C 11,3 km/h (2 Bft) 100,00 %
15.02.2018 09:19 -4,1 C 4,4 C 96 % 1022,3 hPa 0,0 l/m 6,2 km/h (2 Bft) O 95 0 min 0,000 mm 0,0 UV-I 88 W/m -4,6 C -4,1 C 9,7 km/h (2 Bft) 96,15 %
15.02.2018 09:20 -4,1 C 4,4 C 96 % 1022,3 hPa 0,0 l/m 4,7 km/h (1 Bft) O 85 0 min 0,000 mm 0,0 UV-I 87 W/m -4,6 C -4,1 C 6,4 km/h (2 Bft) 100,00 %
15.02.2018 09:21 -4,1 C 4,4 C 96 % 1022,3 hPa 0,0 l/m 5,3 km/h (1 Bft) NO 53 0 min 0,000 mm 0,0 UV-I 85 W/m -4,6 C -4,1 C 8,0 km/h (2 Bft) 100,00 %
15.02.2018 09:22 -4,0 C 4,4 C 96 % 1022,3 hPa 0,0 l/m 7,8 km/h (2 Bft) O-NO 69 0 min 0,000 mm 0,0 UV-I 85 W/m -4,5 C -5,6 C 11,3 km/h (2 Bft) 100,00 %
15.02.2018 09:23 -3,9 C 4,4 C 96 % 1022,3 hPa 0,0 l/m 6,9 km/h (2 Bft) O-NO 68 0 min 0,000 mm 0,0 UV-I 90 W/m -4,4 C -4,5 C 9,7 km/h (2 Bft) 93,10 %
15.02.2018 09:24 -3,9 C 4,4 C 96 % 1022,3 hPa 0,0 l/m 6,4 km/h (2 Bft) O-NO 74 0 min 0,000 mm 0,0 UV-I 98 W/m -4,4 C -3,8 C 8,0 km/h (2 Bft) 100,00 %
15.02.2018 09:25 -3,9 C 4,4 C 96 % 1022,3 hPa 0,0 l/m 7,6 km/h (2 Bft) O-NO 64 0 min 0,000 mm 0,0 UV-I 93 W/m -4,4 C -5,3 C 9,7 km/h (2 Bft) 96,15 %
15.02.2018 09:26 -3,9 C 4,4 C 96 % 1022,2 hPa 0,0 l/m 10,3 km/h (2 Bft) O-NO 77 0 min 0,000 mm 0,0 UV-I 96 W/m -4,4 C -8,0 C 14,5 km/h (3 Bft) 96,30 %
15.02.2018 09:27 -3,9 C 4,4 C 96 % 1022,2 hPa 0,0 l/m 7,6 km/h (2 Bft) O-NO 70 0 min 0,000 mm 0,0 UV-I 102 W/m -4,4 C -5,3 C 11,3 km/h (2 Bft) 100,00 %
15.02.2018 09:28 -3,9 C 4,4 C 96 % 1022,2 hPa 0,0 l/m 8,8 km/h (2 Bft) O-SO 102 0 min 0,000 mm 0,0 UV-I 104 W/m -4,4 C -6,6 C 12,9 km/h (3 Bft) 91,67 %
15.02.2018 09:29 -3,9 C 4,4 C 96 % 1022,2 hPa 0,0 l/m 7,8 km/h (2 Bft) O 90 0 min 0,000 mm 0,0 UV-I 102 W/m -4,4 C -5,5 C 11,3 km/h (2 Bft) 100,00 %
15.02.2018 09:30 -3,9 C 4,4 C 96 % 1022,2 hPa 0,0 l/m 6,5 km/h (2 Bft) O-SO 105 0 min 0,000 mm 0,0 UV-I 100 W/m -4,4 C -4,0 C 9,7 km/h (2 Bft) 100,00 %
15.02.2018 09:31 -3,9 C 4,4 C 96 % 1022,3 hPa 0,0 l/m 9,3 km/h (2 Bft) O-NO 73 0 min 0,000 mm 0,0 UV-I 101 W/m -4,4 C -7,1 C 11,3 km/h (2 Bft) 95,65 %
15.02.2018 09:32 -3,9 C 4,4 C 96 % 1022,3 hPa 0,0 l/m 5,3 km/h (1 Bft) O 79 0 min 0,000 mm 0,0 UV-I 104 W/m -4,4 C -3,9 C 6,4 km/h (2 Bft) 100,00 %
15.02.2018 09:33 -3,9 C 4,4 C 96 % 1022,3 hPa 0,0 l/m 5,2 km/h (1 Bft) O 89 0 min 0,000 mm 0,0 UV-I 102 W/m -4,4 C -3,9 C 6,4 km/h (2 Bft) 96,30 %
15.02.2018 09:34 -3,9 C 4,4 C 96 % 1022,3 hPa 0,0 l/m 4,3 km/h (1 Bft) O-NO 62 0 min 0,000 mm 0,0 UV-I 96 W/m -4,4 C -3,9 C 8,0 km/h (2 Bft) 100,00 %
15.02.2018 09:35 -3,9 C 4,4 C 96 % 1022,4 hPa 0,0 l/m 5,1 km/h (1 Bft) O 79 0 min 0,000 mm 0,0 UV-I 91 W/m -4,4 C -3,9 C 6,4 km/h (2 Bft) 96,15 %
15.02.2018 09:36 -3,8 C 4,4 C 96 % 1022,4 hPa 0,0 l/m 6,7 km/h (2 Bft) O-NO 78 0 min 0,000 mm 0,0 UV-I 96 W/m -4,3 C -4,1 C 8,0 km/h (2 Bft) 100,00 %
15.02.2018 09:37 -3,8 C 4,4 C 96 % 1022,4 hPa 0,0 l/m 7,6 km/h (2 Bft) O-NO 78 0 min 0,000 mm 0,0 UV-I 98 W/m -4,3 C -5,2 C 11,3 km/h (2 Bft) 96,97 %
15.02.2018 09:38 -3,8 C 4,4 C 96 % 1022,4 hPa 0,0 l/m 7,8 km/h (2 Bft) O-NO 57 0 min 0,000 mm 0,0 UV-I 104 W/m -4,3 C -5,4 C 9,7 km/h (2 Bft) 100,00 %
15.02.2018 09:39 -3,8 C 4,4 C 96 % 1022,4 hPa 0,0 l/m 6,4 km/h (2 Bft) O-NO 73 0 min 0,000 mm 0,0 UV-I 111 W/m -4,3 C -3,7 C 8,0 km/h (2 Bft) 96,15 %
15.02.2018 09:40 -3,8 C 4,4 C 96 % 1022,4 hPa 0,0 l/m 9,0 km/h (2 Bft) O-NO 74 0 min 0,000 mm 0,0 UV-I 115 W/m -4,3 C -6,7 C 12,9 km/h (3 Bft) 100,00 %
15.02.2018 09:41 -3,8 C 4,4 C 96 % 1022,3 hPa 0,0 l/m 7,2 km/h (2 Bft) O 96 0 min 0,000 mm 0,0 UV-I 114 W/m -4,3 C -4,7 C 12,9 km/h (3 Bft) 91,67 %
15.02.2018 09:42 -3,8 C 4,4 C 96 % 1022,3 hPa 0,0 l/m 8,6 km/h (2 Bft) O-NO 78 0 min 0,000 mm 0,0 UV-I 110 W/m -4,3 C -6,3 C 12,9 km/h (3 Bft) 96,15 %
15.02.2018 09:43 -3,8 C 4,4 C 96 % 1022,2 hPa 0,0 l/m 10,1 km/h (2 Bft) NO 55 0 min 0,000 mm 0,0 UV-I 122 W/m -4,3 C -7,7 C 12,9 km/h (3 Bft) 96,30 %
15.02.2018 09:44 -3,8 C 4,4 C 96 % 1022,2 hPa 0,0 l/m 7,8 km/h (2 Bft) O-NO 78 0 min 0,000 mm 0,0 UV-I 132 W/m -4,3 C -5,4 C 11,3 km/h (2 Bft) 95,65 %
15.02.2018 09:45 -3,7 C 4,4 C 96 % 1022,2 hPa 0,0 l/m 9,8 km/h (2 Bft) O 92 0 min 0,000 mm 0,0 UV-I 134 W/m -4,2 C -7,4 C 12,9 km/h (3 Bft) 100,00 %
15.02.2018 09:46 -3,7 C 4,4 C 96 % 1022,2 hPa 0,0 l/m 9,3 km/h (2 Bft) O-NO 75 0 min 0,000 mm 0,0 UV-I 129 W/m -4,2 C -6,9 C 12,9 km/h (3 Bft) 92,31 %
15.02.2018 09:47 -3,7 C 4,4 C 96 % 1022,3 hPa 0,0 l/m 6,9 km/h (2 Bft) O 97 0 min 0,000 mm 0,0 UV-I 139 W/m -4,2 C -4,3 C 9,7 km/h (2 Bft) 95,83 %
15.02.2018 09:48 -3,7 C 4,4 C 96 % 1022,3 hPa 0,0 l/m 9,4 km/h (2 Bft) O-NO 76 0 min 0,000 mm 0,0 UV-I 140 W/m -4,2 C -7,0 C 12,9 km/h (3 Bft) 100,00 %
15.02.2018 09:49 -3,7 C 4,4 C 96 % 1022,2 hPa 0,0 l/m 9,9 km/h (2 Bft) O-NO 76 0 min 0,000 mm 0,0 UV-I 135 W/m -4,2 C -7,4 C 12,9 km/h (3 Bft) 92,59 %
15.02.2018 09:50 -3,6 C 4,4 C 96 % 1022,3 hPa 0,0 l/m 10,4 km/h (2 Bft) O-NO 72 0 min 0,000 mm 0,0 UV-I 140 W/m -4,1 C -7,8 C 12,9 km/h (3 Bft) 92,86 %
15.02.2018 09:51 -3,6 C 4,4 C 96 % 1022,3 hPa 0,0 l/m 8,5 km/h (2 Bft) O 94 0 min 0,000 mm 0,0 UV-I 148 W/m -4,1 C -6,0 C 12,9 km/h (3 Bft) 96,30 %
15.02.2018 09:52 -3,6 C 4,4 C 96 % 1022,3 hPa 0,0 l/m 8,3 km/h (2 Bft) O 84 0 min 0,000 mm 0,0 UV-I 154 W/m -4,1 C -5,7 C 11,3 km/h (2 Bft) 96,15 %
15.02.2018 09:53 -3,6 C 4,4 C 96 % 1022,2 hPa 0,0 l/m 8,2 km/h (2 Bft) O 84 0 min 0,000 mm 0,0 UV-I 158 W/m -4,1 C -5,6 C 11,3 km/h (2 Bft) 96,30 %
15.02.2018 09:54 -3,6 C 4,4 C 96 % 1022,2 hPa 0,0 l/m 9,2 km/h (2 Bft) O 88 0 min 0,000 mm 0,0 UV-I 158 W/m -4,1 C -6,7 C 11,3 km/h (2 Bft) 100,00 %
15.02.2018 09:55 -3,6 C 4,4 C 96 % 1022,2 hPa 0,0 l/m 9,4 km/h (2 Bft) O-NO 68 0 min 0,000 mm 0,4 UV-I 162 W/m -4,1 C -6,9 C 12,9 km/h (3 Bft) 96,15 %
15.02.2018 09:56 -3,6 C 4,4 C 96 % 1022,2 hPa 0,0 l/m 8,5 km/h (2 Bft) O-NO 75 0 min 0,000 mm 0,0 UV-I 152 W/m -4,1 C -6,0 C 11,3 km/h (2 Bft) 100,00 %
15.02.2018 09:57 -3,6 C 4,4 C 96 % 1022,2 hPa 0,0 l/m 7,7 km/h (2 Bft) O 88 0 min 0,000 mm 0,0 UV-I 154 W/m -4,1 C -5,1 C 11,3 km/h (2 Bft) 96,55 %
15.02.2018 09:58 -3,6 C 4,4 C 96 % 1022,2 hPa 0,0 l/m 7,6 km/h (2 Bft) O 92 0 min 0,000 mm 0,2 UV-I 166 W/m -4,1 C -5,0 C 11,3 km/h (2 Bft) 100,00 %
15.02.2018 09:59 -3,6 C 4,4 C 96 % 1022,1 hPa 0,0 l/m 10,0 km/h (2 Bft) O 89 0 min 0,000 mm 0,1 UV-I 167 W/m -4,1 C -7,4 C 14,5 km/h (3 Bft) 96,88 %
15.02.2018 10:00 -3,6 C 4,4 C 96 % 1022,1 hPa 0,0 l/m 10,7 km/h (2 Bft) O 99 0 min 0,000 mm 0,0 UV-I 162 W/m -4,1 C -8,1 C 12,9 km/h (3 Bft) 100,00 %
15.02.2018 10:01 -3,6 C 4,4 C 96 % 1022,1 hPa 0,0 l/m 9,2 km/h (2 Bft) O-SO 103 0 min 0,026 mm 0,0 UV-I 159 W/m -4,1 C -6,7 C 11,3 km/h (2 Bft) 100,00 %
15.02.2018 10:02 -3,5 C 4,4 C 96 % 1022,1 hPa 0,0 l/m 10,0 km/h (2 Bft) O 86 0 min 0,000 mm 0,0 UV-I 154 W/m -4,0 C -7,3 C 12,9 km/h (3 Bft) 96,30 %
15.02.2018 10:03 -3,4 C 4,4 C 96 % 1022,0 hPa 0,0 l/m 7,6 km/h (2 Bft) O 89 0 min 0,000 mm 0,0 UV-I 150 W/m -3,9 C -4,8 C 11,3 km/h (2 Bft) 100,00 %
15.02.2018 10:04 -3,4 C 4,4 C 96 % 1022,1 hPa 0,0 l/m 9,7 km/h (2 Bft) O-NO 71 0 min 0,000 mm 0,0 UV-I 149 W/m -3,9 C -6,9 C 11,3 km/h (2 Bft) 95,83 %
15.02.2018 10:05 -3,4 C 4,4 C 96 % 1022,1 hPa 0,0 l/m 7,8 km/h (2 Bft) O-NO 63 0 min 0,000 mm 0,0 UV-I 138 W/m -3,9 C -5,0 C 11,3 km/h (2 Bft) 96,15 %
15.02.2018 10:06 -3,4 C 4,4 C 96 % 1022,0 hPa 0,0 l/m 6,6 km/h (2 Bft) O-NO 63 0 min 0,000 mm 0,0 UV-I 134 W/m -3,9 C -3,6 C 8,0 km/h (2 Bft) 100,00 %
15.02.2018 10:07 -3,4 C 4,4 C 96 % 1022,0 hPa 0,0 l/m 6,4 km/h (2 Bft) O-NO 66 0 min 0,000 mm 0,0 UV-I 134 W/m -3,9 C -3,3 C 9,7 km/h (2 Bft) 95,65 %
15.02.2018 10:08 -3,4 C 4,4 C 96 % 1022,0 hPa 0,0 l/m 5,8 km/h (2 Bft) O-NO 74 0 min 0,000 mm 0,0 UV-I 141 W/m -3,9 C -3,4 C 8,0 km/h (2 Bft) 100,00 %
15.02.2018 10:09 -3,3 C 4,4 C 96 % 1022,0 hPa 0,0 l/m 8,3 km/h (2 Bft) O-NO 71 0 min 0,000 mm 0,2 UV-I 153 W/m -3,8 C -5,4 C 11,3 km/h (2 Bft) 100,00 %
15.02.2018 10:10 -3,3 C 4,4 C 96 % 1022,0 hPa 0,0 l/m 8,9 km/h (2 Bft) O 86 0 min 0,000 mm 0,5 UV-I 159 W/m -3,8 C -6,0 C 12,9 km/h (3 Bft) 100,00 %
15.02.2018 10:11 -3,3 C 4,4 C 96 % 1022,0 hPa 0,0 l/m 7,5 km/h (2 Bft) O-NO 76 0 min 0,000 mm 0,5 UV-I 156 W/m -3,8 C -4,6 C 9,7 km/h (2 Bft) 92,86 %
15.02.2018 10:12 -3,4 C 4,4 C 96 % 1022,0 hPa 0,0 l/m 6,5 km/h (2 Bft) O-NO 67 0 min 0,000 mm 0,1 UV-I 151 W/m -3,9 C -3,5 C 8,0 km/h (2 Bft) 100,00 %
15.02.2018 10:13 -3,4 C 4,4 C 96 % 1022,0 hPa 0,0 l/m 5,5 km/h (1 Bft) O-NO 57 0 min 0,000 mm 0,1 UV-I 155 W/m -3,9 C -3,4 C 8,0 km/h (2 Bft) 95,83 %
15.02.2018 10:14 -3,4 C 4,4 C 96 % 1022,0 hPa 0,0 l/m 7,8 km/h (2 Bft) O-NO 57 0 min 0,000 mm 0,5 UV-I 166 W/m -3,9 C -5,0 C 9,7 km/h (2 Bft) 100,00 %
15.02.2018 10:15 -3,3 C 4,4 C 96 % 1022,0 hPa 0,0 l/m 6,6 km/h (2 Bft) O-NO 69 0 min 0,000 mm 0,5 UV-I 171 W/m -3,8 C -3,5 C 9,7 km/h (2 Bft) 100,00 %
15.02.2018 10:16 -3,4 C 4,4 C 96 % 1022,0 hPa 0,0 l/m 7,5 km/h (2 Bft) O 93 0 min 0,000 mm 0,5 UV-I 163 W/m -3,9 C -4,7 C 9,7 km/h (2 Bft) 96,15 %
15.02.2018 10:17 -3,4 C 4,4 C 96 % 1022,0 hPa 0,0 l/m 6,1 km/h (2 Bft) O-NO 61 0 min 0,000 mm 0,5 UV-I 171 W/m -3,9 C -3,4 C 8,0 km/h (2 Bft) 100,00 %
15.02.2018 10:18 -3,4 C 4,4 C 96 % 1022,0 hPa 0,0 l/m 7,5 km/h (2 Bft) O-NO 67 0 min 0,000 mm 0,5 UV-I 180 W/m -3,9 C -4,7 C 11,3 km/h (2 Bft) 100,00 %
15.02.2018 10:19 -3,4 C 4,4 C 96 % 1022,0 hPa 0,0 l/m 6,9 km/h (2 Bft) O-NO 63 0 min 0,000 mm 0,5 UV-I 177 W/m -3,9 C -4,0 C 9,7 km/h (2 Bft) 100,00 %
15.02.2018 10:20 -3,4 C 4,4 C 96 % 1022,0 hPa 0,0 l/m 8,4 km/h (2 Bft) O-NO 60 0 min 0,000 mm 0,5 UV-I 186 W/m -3,9 C -5,6 C 11,3 km/h (2 Bft) 100,00 %
15.02.2018 10:21 -3,4 C 4,4 C 96 % 1021,9 hPa 0,0 l/m 6,8 km/h (2 Bft) O 84 0 min 0,000 mm 0,6 UV-I 202 W/m -3,9 C -3,8 C 9,7 km/h (2 Bft) 95,83 %
15.02.2018 10:22 -3,4 C 4,4 C 96 % 1021,9 hPa 0,0 l/m 11,2 km/h (2 Bft) O-NO 78 0 min 0,000 mm 0,6 UV-I 202 W/m -3,9 C -8,3 C 14,5 km/h (3 Bft) 100,00 %
15.02.2018 10:23 -3,4 C 4,4 C 96 % 1021,9 hPa 0,0 l/m 8,5 km/h (2 Bft) O-NO 71 0 min 0,000 mm 0,6 UV-I 194 W/m -3,9 C -5,7 C 12,9 km/h (3 Bft) 100,00 %
15.02.2018 10:24 -3,5 C 4,4 C 96 % 1021,9 hPa 0,0 l/m 8,5 km/h (2 Bft) O 80 0 min 0,000 mm 0,6 UV-I 204 W/m -4,0 C -5,9 C 11,3 km/h (2 Bft) 100,00 %
15.02.2018 10:25 -3,5 C 4,4 C 96 % 1021,9 hPa 0,0 l/m 5,9 km/h (2 Bft) O-NO 77 0 min 0,000 mm 0,6 UV-I 198 W/m -4,0 C -3,5 C 9,7 km/h (2 Bft) 100,00 %
15.02.2018 10:26 -3,5 C 4,4 C 96 % 1022,0 hPa 0,0 l/m 6,9 km/h (2 Bft) O 92 0 min 0,000 mm 0,6 UV-I 200 W/m -4,0 C -4,1 C 9,7 km/h (2 Bft) 96,15 %
15.02.2018 10:27 -3,5 C 4,4 C 96 % 1022,0 hPa 0,0 l/m 6,9 km/h (2 Bft) O-SO 113 0 min 0,000 mm 0,6 UV-I 201 W/m -4,0 C -4,1 C 11,3 km/h (2 Bft) 100,00 %
15.02.2018 10:28 -3,4 C 4,4 C 96 % 1021,9 hPa 0,0 l/m 6,5 km/h (2 Bft) O-NO 70 0 min 0,000 mm 0,6 UV-I 205 W/m -3,9 C -3,5 C 9,7 km/h (2 Bft) 100,00 %
15.02.2018 10:29 -3,4 C 4,4 C 96 % 1021,9 hPa 0,0 l/m 8,4 km/h (2 Bft) O-NO 78 0 min 0,000 mm 0,6 UV-I 210 W/m -3,9 C -5,6 C 12,9 km/h (3 Bft) 100,00 %
15.02.2018 10:30 -3,4 C 4,4 C 96 % 1021,9 hPa 0,0 l/m 8,4 km/h (2 Bft) O-NO 61 0 min 0,000 mm 0,6 UV-I 218 W/m -3,9 C -5,6 C 11,3 km/h (2 Bft) 100,00 %
15.02.2018 10:31 -3,4 C 4,4 C 96 % 1021,9 hPa 0,0 l/m 8,0 km/h (2 Bft) O-NO 65 0 min 0,000 mm 0,6 UV-I 219 W/m -3,9 C -5,2 C 11,3 km/h (2 Bft) 100,00 %
15.02.2018 10:32 -3,3 C 4,4 C 96 % 1021,9 hPa 0,0 l/m 7,3 km/h (2 Bft) O-NO 63 0 min 0,000 mm 0,6 UV-I 221 W/m -3,8 C -4,3 C 12,9 km/h (3 Bft) 100,00 %
15.02.2018 10:33 -3,4 C 4,4 C 96 % 1021,9 hPa 0,0 l/m 10,6 km/h (2 Bft) O-NO 58 0 min 0,000 mm 0,6 UV-I 221 W/m -3,9 C -7,7 C 12,9 km/h (3 Bft) 100,00 %
15.02.2018 10:34 -3,4 C 4,4 C 96 % 1021,9 hPa 0,0 l/m 9,4 km/h (2 Bft) O 98 0 min 0,000 mm 0,6 UV-I 220 W/m -3,9 C -6,6 C 12,9 km/h (3 Bft) 100,00 %
15.02.2018 10:35 -3,4 C 4,4 C 96 % 1021,9 hPa 0,0 l/m 9,8 km/h (2 Bft) O 97 0 min 0,000 mm 0,6 UV-I 218 W/m -3,9 C -7,0 C 12,9 km/h (3 Bft) 100,00 %
15.02.2018 10:36 -3,4 C 4,4 C 96 % 1021,9 hPa 0,0 l/m 6,3 km/h (2 Bft) O-NO 78 0 min 0,000 mm 0,6 UV-I 213 W/m -3,9 C -3,4 C 8,0 km/h (2 Bft) 100,00 %
15.02.2018 10:37 -3,4 C 4,4 C 96 % 1021,8 hPa 0,0 l/m 12,1 km/h (2 Bft) O 92 0 min 0,000 mm 0,6 UV-I 222 W/m -3,9 C -9,0 C 14,5 km/h (3 Bft) 100,00 %
15.02.2018 10:38 -3,3 C 4,4 C 96 % 1021,9 hPa 0,0 l/m 11,5 km/h (2 Bft) O-NO 66 0 min 0,000 mm 0,6 UV-I 226 W/m -3,8 C -8,4 C 14,5 km/h (3 Bft) 95,83 %
15.02.2018 10:39 -3,3 C 4,4 C 96 % 1021,9 hPa 0,0 l/m 10,3 km/h (2 Bft) O-NO 73 0 min 0,000 mm 0,7 UV-I 228 W/m -3,8 C -7,4 C 12,9 km/h (3 Bft) 100,00 %
15.02.2018 10:40 -3,3 C 4,4 C 96 % 1021,9 hPa 0,0 l/m 12,0 km/h (2 Bft) O 94 0 min 0,000 mm 0,7 UV-I 229 W/m -3,8 C -8,8 C 14,5 km/h (3 Bft) 100,00 %
15.02.2018 10:41 -3,3 C 4,4 C 96 % 1021,9 hPa 0,0 l/m 8,9 km/h (2 Bft) O-NO 69 0 min 0,000 mm 0,7 UV-I 228 W/m -3,8 C -6,0 C 12,9 km/h (3 Bft) 100,00 %
15.02.2018 10:42 -3,3 C 4,4 C 96 % 1021,9 hPa 0,0 l/m 8,2 km/h (2 Bft) O 84 0 min 0,000 mm 0,7 UV-I 232 W/m -3,8 C -5,3 C 11,3 km/h (2 Bft) 100,00 %
15.02.2018 10:43 -3,2 C 4,4 C 96 % 1021,9 hPa 0,0 l/m 8,6 km/h (2 Bft) O 85 0 min 0,000 mm 0,7 UV-I 235 W/m -3,7 C -5,6 C 12,9 km/h (3 Bft) 90,91 %
15.02.2018 10:44 -3,2 C 4,4 C 96 % 1021,9 hPa 0,0 l/m 8,2 km/h (2 Bft) O-NO 77 0 min 0,000 mm 0,7 UV-I 237 W/m -3,7 C -5,2 C 11,3 km/h (2 Bft) 100,00 %
15.02.2018 10:45 -3,1 C 4,4 C 96 % 1021,8 hPa 0,0 l/m 8,9 km/h (2 Bft) O 84 0 min 0,000 mm 0,7 UV-I 237 W/m -3,6 C -5,8 C 12,9 km/h (3 Bft) 100,00 %
15.02.2018 10:46 -3,1 C 4,4 C 96 % 1021,9 hPa 0,0 l/m 9,0 km/h (2 Bft) O-NO 76 0 min 0,000 mm 0,7 UV-I 237 W/m -3,6 C -5,9 C 12,9 km/h (3 Bft) 100,00 %
15.02.2018 10:47 -3,0 C 4,4 C 96 % 1021,8 hPa 0,0 l/m 9,1 km/h (2 Bft) O-NO 69 0 min 0,000 mm 0,7 UV-I 237 W/m -3,5 C -5,9 C 12,9 km/h (3 Bft) 100,00 %
15.02.2018 10:48 -3,0 C 4,4 C 97 % 1021,8 hPa 0,0 l/m 8,9 km/h (2 Bft) O-NO 76 0 min 0,000 mm 0,7 UV-I 236 W/m -3,4 C -5,7 C 11,3 km/h (2 Bft) 100,00 %
15.02.2018 10:49 -3,0 C 4,4 C 96 % 1021,8 hPa 0,0 l/m 10,3 km/h (2 Bft) O 82 0 min 0,000 mm 0,7 UV-I 236 W/m -3,5 C -7,0 C 16,1 km/h (3 Bft) 92,31 %
15.02.2018 10:50 -3,0 C 4,4 C 96 % 1021,8 hPa 0,0 l/m 11,1 km/h (2 Bft) O 85 0 min 0,000 mm 0,7 UV-I 235 W/m -3,5 C -7,7 C 14,5 km/h (3 Bft) 100,00 %
15.02.2018 10:51 -3,1 C 4,4 C 96 % 1021,8 hPa 0,0 l/m 10,7 km/h (2 Bft) O 82 0 min 0,000 mm 0,7 UV-I 236 W/m -3,6 C -7,5 C 14,5 km/h (3 Bft) 100,00 %
15.02.2018 10:52 -3,1 C 4,4 C 96 % 1021,8 hPa 0,0 l/m 10,6 km/h (2 Bft) O-NO 74 0 min 0,000 mm 0,7 UV-I 236 W/m -3,6 C -7,4 C 14,5 km/h (3 Bft) 95,83 %
15.02.2018 10:53 -3,1 C 4,4 C 96 % 1021,8 hPa 0,0 l/m 8,0 km/h (2 Bft) O-NO 71 0 min 0,000 mm 0,7 UV-I 233 W/m -3,6 C -4,9 C 12,9 km/h (3 Bft) 100,00 %
15.02.2018 10:54 -3,1 C 4,4 C 96 % 1021,8 hPa 0,0 l/m 8,8 km/h (2 Bft) O-NO 68 0 min 0,000 mm 0,7 UV-I 236 W/m -3,6 C -5,7 C 11,3 km/h (2 Bft) 100,00 %
15.02.2018 10:55 -3,0 C 4,4 C 96 % 1021,8 hPa 0,0 l/m 8,9 km/h (2 Bft) O 92 0 min 0,000 mm 0,7 UV-I 236 W/m -3,5 C -5,7 C 12,9 km/h (3 Bft) 96,15 %
15.02.2018 10:56 -3,0 C 4,4 C 96 % 1021,8 hPa 0,0 l/m 8,3 km/h (2 Bft) O 86 0 min 0,000 mm 0,7 UV-I 238 W/m -3,5 C -5,1 C 11,3 km/h (2 Bft) 100,00 %
15.02.2018 10:57 -2,9 C 4,4 C 96 % 1021,8 hPa 0,0 l/m 8,6 km/h (2 Bft) O-NO 74 0 min 0,000 mm 0,7 UV-I 242 W/m -3,4 C -5,3 C 11,3 km/h (2 Bft) 100,00 %
15.02.2018 10:58 -2,9 C 4,4 C 96 % 1021,7 hPa 0,0 l/m 10,2 km/h (2 Bft) O 84 0 min 0,000 mm 0,7 UV-I 245 W/m -3,4 C -6,8 C 14,5 km/h (3 Bft) 100,00 %
15.02.2018 10:59 -2,9 C 4,4 C 96 % 1021,7 hPa 0,0 l/m 10,8 km/h (2 Bft) O 81 0 min 0,000 mm 0,7 UV-I 240 W/m -3,4 C -7,4 C 14,5 km/h (3 Bft) 100,00 %
15.02.2018 11:00 -2,8 C 4,4 C 96 % 1021,7 hPa 0,0 l/m 12,8 km/h (3 Bft) O-NO 66 0 min 0,000 mm 0,7 UV-I 245 W/m -3,3 C -8,8 C 16,1 km/h (3 Bft) 100,00 %
15.02.2018 11:01 -2,8 C 4,4 C 96 % 1021,7 hPa 0,0 l/m 12,9 km/h (3 Bft) O-NO 57 0 min 0,051 mm 0,7 UV-I 242 W/m -3,3 C -8,9 C 16,1 km/h (3 Bft) 100,00 %
15.02.2018 11:02 -2,8 C 4,4 C 96 % 1021,7 hPa 0,0 l/m 13,6 km/h (3 Bft) O-NO 65 0 min 0,000 mm 0,8 UV-I 250 W/m -3,3 C -9,4 C 16,1 km/h (3 Bft) 96,15 %
15.02.2018 11:03 -2,8 C 4,4 C 96 % 1021,7 hPa 0,0 l/m 12,1 km/h (2 Bft) O-NO 65 0 min 0,000 mm 0,7 UV-I 253 W/m -3,3 C -8,3 C 14,5 km/h (3 Bft) 95,83 %
15.02.2018 11:04 -2,8 C 4,4 C 96 % 1021,6 hPa 0,0 l/m 13,0 km/h (3 Bft) O 84 0 min 0,000 mm 0,7 UV-I 244 W/m -3,3 C -9,0 C 16,1 km/h (3 Bft) 100,00 %
15.02.2018 11:05 -2,8 C 4,4 C 96 % 1021,6 hPa 0,0 l/m 11,0 km/h (2 Bft) O 87 0 min 0,000 mm 0,7 UV-I 250 W/m -3,3 C -7,4 C 14,5 km/h (3 Bft) 96,30 %
15.02.2018 11:06 -2,8 C 4,4 C 96 % 1021,6 hPa 0,0 l/m 8,2 km/h (2 Bft) O-NO 74 0 min 0,000 mm 0,7 UV-I 241 W/m -3,3 C -4,8 C 11,3 km/h (2 Bft) 100,00 %
15.02.2018 11:07 -2,7 C 4,4 C 97 % 1021,6 hPa 0,0 l/m 8,0 km/h (2 Bft) NO 55 0 min 0,000 mm 0,7 UV-I 240 W/m -3,1 C -4,5 C 9,7 km/h (2 Bft) 100,00 %
15.02.2018 11:08 -2,7 C 4,4 C 97 % 1021,6 hPa 0,0 l/m 9,3 km/h (2 Bft) O 86 0 min 0,000 mm 0,8 UV-I 243 W/m -3,1 C -5,8 C 11,3 km/h (2 Bft) 100,00 %
15.02.2018 11:09 -2,6 C 4,4 C 97 % 1021,7 hPa 0,0 l/m 9,8 km/h (2 Bft) O 98 0 min 0,000 mm 0,8 UV-I 241 W/m -3,0 C -6,1 C 12,9 km/h (3 Bft) 100,00 %
15.02.2018 11:10 -2,6 C 4,4 C 97 % 1021,7 hPa 0,0 l/m 5,9 km/h (2 Bft) O 92 0 min 0,000 mm 0,7 UV-I 239 W/m -3,0 C -2,6 C 11,3 km/h (2 Bft) 96,15 %
15.02.2018 11:11 -2,6 C 4,4 C 97 % 1021,7 hPa 0,0 l/m 6,6 km/h (2 Bft) O-NO 65 0 min 0,000 mm 0,7 UV-I 243 W/m -3,0 C -2,8 C 9,7 km/h (2 Bft) 100,00 %
15.02.2018 11:12 -2,6 C 4,4 C 97 % 1021,7 hPa 0,0 l/m 6,3 km/h (2 Bft) O-NO 69 0 min 0,000 mm 0,7 UV-I 245 W/m -3,0 C -2,6 C 8,0 km/h (2 Bft) 100,00 %
15.02.2018 11:13 -2,6 C 4,4 C 97 % 1021,6 hPa 0,0 l/m 5,6 km/h (1 Bft) O-NO 69 0 min 0,000 mm 0,7 UV-I 244 W/m -3,0 C -2,6 C 8,0 km/h (2 Bft) 100,00 %
15.02.2018 11:14 -2,5 C 4,4 C 97 % 1021,7 hPa 0,0 l/m 5,7 km/h (1 Bft) N-NO 33 0 min 0,000 mm 0,7 UV-I 239 W/m -2,9 C -2,5 C 8,0 km/h (2 Bft) 100,00 %
15.02.2018 11:15 -2,4 C 4,4 C 97 % 1021,7 hPa 0,0 l/m 8,9 km/h (2 Bft) NO 55 0 min 0,000 mm 0,8 UV-I 234 W/m -2,8 C -5,1 C 11,3 km/h (2 Bft) 100,00 %
15.02.2018 11:16 -2,4 C 4,4 C 97 % 1021,7 hPa 0,0 l/m 7,4 km/h (2 Bft) O 82 0 min 0,000 mm 0,8 UV-I 236 W/m -2,8 C -3,5 C 9,7 km/h (2 Bft) 100,00 %
15.02.2018 11:17 -2,4 C 4,4 C 97 % 1021,7 hPa 0,0 l/m 6,8 km/h (2 Bft) O 89 0 min 0,000 mm 0,8 UV-I 247 W/m -2,8 C -2,8 C 11,3 km/h (2 Bft) 100,00 %
15.02.2018 11:18 -2,4 C 4,4 C 97 % 1021,7 hPa 0,0 l/m 4,7 km/h (1 Bft) O-NO 69 0 min 0,000 mm 0,8 UV-I 234 W/m -2,8 C -2,4 C 8,0 km/h (2 Bft) 100,00 %
15.02.2018 11:19 -2,4 C 4,4 C 97 % 1021,8 hPa 0,0 l/m 4,9 km/h (1 Bft) O-NO 58 0 min 0,000 mm 0,8 UV-I 240 W/m -2,8 C -2,4 C 8,0 km/h (2 Bft) 100,00 %
15.02.2018 11:20 -2,4 C 4,4 C 97 % 1021,8 hPa 0,0 l/m 4,6 km/h (1 Bft) O-SO 108 0 min 0,000 mm 0,8 UV-I 237 W/m -2,8 C -2,4 C 9,7 km/h (2 Bft) 100,00 %
15.02.2018 11:21 -2,4 C 4,4 C 97 % 1021,8 hPa 0,0 l/m 5,8 km/h (2 Bft) O 90 0 min 0,000 mm 0,8 UV-I 234 W/m -2,8 C -2,4 C 6,4 km/h (2 Bft) 100,00 %
15.02.2018 11:22 -2,4 C 4,4 C 97 % 1021,7 hPa 0,0 l/m 6,0 km/h (2 Bft) O 98 0 min 0,000 mm 0,8 UV-I 232 W/m -2,8 C -2,4 C 9,7 km/h (2 Bft) 100,00 %
15.02.2018 11:23 -2,4 C 4,4 C 97 % 1021,7 hPa 0,0 l/m 3,7 km/h (1 Bft) O-NO 76 0 min 0,000 mm 0,8 UV-I 227 W/m -2,8 C -2,4 C 4,8 km/h (1 Bft) 94,12 %
15.02.2018 11:24 -2,4 C 4,4 C 97 % 1021,8 hPa 0,0 l/m 5,4 km/h (1 Bft) O 93 0 min 0,000 mm 0,8 UV-I 235 W/m -2,8 C -2,4 C 9,7 km/h (2 Bft) 95,83 %
15.02.2018 11:25 -2,4 C 4,4 C 97 % 1021,7 hPa 0,0 l/m 3,5 km/h (1 Bft) O 94 0 min 0,000 mm 0,8 UV-I 223 W/m -2,8 C -2,4 C 4,8 km/h (1 Bft) 100,00 %
15.02.2018 11:26 -2,4 C 4,4 C 96 % 1021,7 hPa 0,0 l/m 6,5 km/h (2 Bft) O 80 0 min 0,000 mm 0,8 UV-I 218 W/m -2,9 C -2,5 C 9,7 km/h (2 Bft) 96,30 %
15.02.2018 11:27 -2,4 C 4,4 C 97 % 1021,7 hPa 0,0 l/m 7,7 km/h (2 Bft) O 94 0 min 0,000 mm 0,9 UV-I 258 W/m -2,8 C -3,8 C 9,7 km/h (2 Bft) 100,00 %
15.02.2018 11:28 -2,4 C 4,4 C 97 % 1021,7 hPa 0,0 l/m 8,6 km/h (2 Bft) O 95 1 min 0,000 mm 0,9 UV-I 265 W/m -2,8 C -4,8 C 11,3 km/h (2 Bft) 96,88 %
15.02.2018 11:29 -2,4 C 4,4 C 97 % 1021,6 hPa 0,0 l/m 7,4 km/h (2 Bft) O-NO 75 1 min 0,000 mm 0,9 UV-I 298 W/m -2,8 C -3,5 C 11,3 km/h (2 Bft) 100,00 %
15.02.2018 11:30 -2,4 C 4,4 C 97 % 1021,6 hPa 0,0 l/m 7,2 km/h (2 Bft) O 93 1 min 0,000 mm 0,9 UV-I 312 W/m -2,8 C -3,3 C 11,3 km/h (2 Bft) 96,15 %
15.02.2018 11:31 -2,4 C 4,4 C 97 % 1021,5 hPa 0,0 l/m 8,8 km/h (2 Bft) O 93 1 min 0,000 mm 0,9 UV-I 317 W/m -2,8 C -5,0 C 11,3 km/h (2 Bft) 95,65 %
15.02.2018 11:32 -2,3 C 4,4 C 97 % 1021,5 hPa 0,0 l/m 8,2 km/h (2 Bft) O 89 1 min 0,000 mm 0,9 UV-I 336 W/m -2,7 C -4,3 C 11,3 km/h (2 Bft) 100,00 %
15.02.2018 11:33 -2,3 C 4,4 C 97 % 1021,5 hPa 0,0 l/m 6,1 km/h (2 Bft) O-NO 78 1 min 0,000 mm 0,9 UV-I 329 W/m -2,7 C -2,3 C 9,7 km/h (2 Bft) 100,00 %
15.02.2018 11:34 -2,2 C 4,4 C 97 % 1021,4 hPa 0,0 l/m 7,6 km/h (2 Bft) O-NO 74 1 min 0,000 mm 0,9 UV-I 311 W/m -2,6 C -3,5 C 11,3 km/h (2 Bft) 93,10 %
15.02.2018 11:35 -2,2 C 4,4 C 97 % 1021,4 hPa 0,0 l/m 6,0 km/h (2 Bft) O 79 1 min 0,000 mm 0,9 UV-I 304 W/m -2,6 C -2,2 C 11,3 km/h (2 Bft) 96,30 %
15.02.2018 11:36 -2,2 C 4,4 C 97 % 1021,4 hPa 0,0 l/m 4,2 km/h (1 Bft) O-NO 65 1 min 0,000 mm 0,9 UV-I 346 W/m -2,6 C -2,2 C 8,0 km/h (2 Bft) 100,00 %
15.02.2018 11:37 -2,1 C 4,4 C 97 % 1021,4 hPa 0,0 l/m 7,9 km/h (2 Bft) O 94 1 min 0,000 mm 0,9 UV-I 350 W/m -2,5 C -3,7 C 11,3 km/h (2 Bft) 80,00 %
15.02.2018 11:38 -2,1 C 4,4 C 97 % 1021,4 hPa 0,0 l/m 7,1 km/h (2 Bft) O 81 1 min 0,000 mm 1,0 UV-I 351 W/m -2,5 C -2,9 C 12,9 km/h (3 Bft) 100,00 %
15.02.2018 11:39 -2,1 C 4,4 C 97 % 1021,4 hPa 0,0 l/m 8,7 km/h (2 Bft) O 85 1 min 0,000 mm 0,9 UV-I 373 W/m -2,5 C -4,6 C 12,9 km/h (3 Bft) 96,30 %
15.02.2018 11:40 -2,0 C 4,4 C 97 % 1021,4 hPa 0,0 l/m 9,5 km/h (2 Bft) O-SO 112 1 min 0,000 mm 0,9 UV-I 378 W/m -2,4 C -5,2 C 12,9 km/h (3 Bft) 90,91 %
15.02.2018 11:41 -1,9 C 4,4 C 97 % 1021,4 hPa 0,0 l/m 7,3 km/h (2 Bft) O 86 1 min 0,000 mm 0,9 UV-I 375 W/m -2,3 C -2,9 C 11,3 km/h (2 Bft) 92,59 %
15.02.2018 11:42 -1,9 C 4,4 C 97 % 1021,4 hPa 0,0 l/m 8,9 km/h (2 Bft) O-NO 77 1 min 0,000 mm 0,9 UV-I 350 W/m -2,3 C -4,5 C 11,3 km/h (2 Bft) 95,65 %
15.02.2018 11:43 -1,9 C 4,4 C 97 % 1021,4 hPa 0,0 l/m 8,1 km/h (2 Bft) O 95 1 min 0,000 mm 1,0 UV-I 354 W/m -2,3 C -3,7 C 11,3 km/h (2 Bft) 100,00 %
15.02.2018 11:44 -1,9 C 4,4 C 97 % 1021,4 hPa 0,0 l/m 8,2 km/h (2 Bft) O 82 1 min 0,000 mm 1,0 UV-I 346 W/m -2,3 C -3,8 C 11,3 km/h (2 Bft) 95,65 %
15.02.2018 11:45 -1,8 C 4,4 C 97 % 1021,4 hPa 0,0 l/m 4,7 km/h (1 Bft) O-NO 75 1 min 0,000 mm 1,0 UV-I 333 W/m -2,2 C -1,8 C 6,4 km/h (2 Bft) 100,00 %
15.02.2018 11:46 -1,8 C 4,4 C 97 % 1021,4 hPa 0,0 l/m 7,1 km/h (2 Bft) O 94 1 min 0,000 mm 1,0 UV-I 353 W/m -2,2 C -2,6 C 9,7 km/h (2 Bft) 96,15 %
15.02.2018 11:47 -1,8 C 4,4 C 97 % 1021,3 hPa 0,0 l/m 7,7 km/h (2 Bft) O-SO 107 1 min 0,000 mm 1,0 UV-I 326 W/m -2,2 C -3,2 C 12,9 km/h (3 Bft) 95,83 %
15.02.2018 11:48 -1,8 C 4,4 C 97 % 1021,4 hPa 0,0 l/m 8,4 km/h (2 Bft) O-NO 73 1 min 0,000 mm 0,9 UV-I 325 W/m -2,2 C -3,9 C 11,3 km/h (2 Bft) 91,67 %
15.02.2018 11:49 -1,8 C 4,4 C 97 % 1021,4 hPa 0,0 l/m 9,4 km/h (2 Bft) O 98 1 min 0,000 mm 0,9 UV-I 320 W/m -2,2 C -4,9 C 11,3 km/h (2 Bft) 100,00 %
15.02.2018 11:50 -1,8 C 4,4 C 97 % 1021,3 hPa 0,0 l/m 6,9 km/h (2 Bft) O 86 1 min 0,000 mm 1,0 UV-I 345 W/m -2,2 C -2,3 C 12,9 km/h (3 Bft) 92,59 %
15.02.2018 11:51 -1,8 C 4,4 C 97 % 1021,3 hPa 0,0 l/m 7,8 km/h (2 Bft) O 101 1 min 0,000 mm 1,0 UV-I 387 W/m -2,2 C -3,3 C 12,9 km/h (3 Bft) 95,83 %
15.02.2018 11:52 -1,7 C 4,4 C 97 % 1021,3 hPa 0,0 l/m 9,0 km/h (2 Bft) O 86 1 min 0,000 mm 1,0 UV-I 380 W/m -2,1 C -4,4 C 11,3 km/h (2 Bft) 100,00 %
15.02.2018 11:53 -1,7 C 4,4 C 97 % 1021,3 hPa 0,0 l/m 6,6 km/h (2 Bft) O-NO 71 1 min 0,000 mm 1,0 UV-I 363 W/m -2,1 C -1,9 C 9,7 km/h (2 Bft) 95,65 %
15.02.2018 11:54 -1,6 C 4,4 C 97 % 1021,3 hPa 0,0 l/m 7,7 km/h (2 Bft) O 81 1 min 0,000 mm 1,0 UV-I 360 W/m -2,0 C -3,0 C 9,7 km/h (2 Bft) 100,00 %
15.02.2018 11:55 -1,5 C 4,4 C 97 % 1021,3 hPa 0,0 l/m 8,4 km/h (2 Bft) O 98 1 min 0,000 mm 1,0 UV-I 373 W/m -1,9 C -3,6 C 11,3 km/h (2 Bft) 100,00 %
15.02.2018 11:56 -1,4 C 4,4 C 97 % 1021,3 hPa 0,0 l/m 10,3 km/h (2 Bft) O-NO 72 1 min 0,000 mm 1,0 UV-I 376 W/m -1,8 C -5,3 C 12,9 km/h (3 Bft) 100,00 %
15.02.2018 11:57 -1,4 C 4,4 C 97 % 1021,3 hPa 0,0 l/m 8,1 km/h (2 Bft) O 98 1 min 0,000 mm 1,0 UV-I 354 W/m -1,8 C -3,2 C 12,9 km/h (3 Bft) 100,00 %
15.02.2018 11:58 -1,4 C 4,4 C 97 % 1021,3 hPa 0,0 l/m 10,2 km/h (2 Bft) O-NO 63 1 min 0,000 mm 1,0 UV-I 361 W/m -1,8 C -5,2 C 14,5 km/h (3 Bft) 96,67 %
15.02.2018 11:59 -1,4 C 4,4 C 96 % 1021,3 hPa 0,0 l/m 7,0 km/h (2 Bft) O 94 1 min 0,000 mm 1,0 UV-I 352 W/m -2,0 C -2,0 C 11,3 km/h (2 Bft) 91,30 %
15.02.2018 12:00 -1,4 C 4,4 C 96 % 1021,2 hPa 0,0 l/m 6,4 km/h (2 Bft) O-NO 59 1 min 0,101 mm 1,0 UV-I 344 W/m -2,0 C -1,4 C 11,3 km/h (2 Bft) 100,00 %
15.02.2018 12:01 -1,3 C 4,4 C 96 % 1021,3 hPa 0,0 l/m 6,2 km/h (2 Bft) O-NO 68 1 min 0,000 mm 1,0 UV-I 338 W/m -1,9 C -1,3 C 8,0 km/h (2 Bft) 100,00 %
15.02.2018 12:02 -1,3 C 4,4 C 96 % 1021,2 hPa 0,0 l/m 6,6 km/h (2 Bft) O-NO 71 1 min 0,000 mm 1,0 UV-I 336 W/m -1,9 C -1,5 C 8,0 km/h (2 Bft) 100,00 %
15.02.2018 12:03 -1,2 C 4,4 C 96 % 1021,2 hPa 0,0 l/m 5,7 km/h (1 Bft) O-NO 71 1 min 0,000 mm 1,0 UV-I 334 W/m -1,8 C -1,2 C 6,4 km/h (2 Bft) 100,00 %
15.02.2018 12:04 -1,1 C 4,4 C 96 % 1021,2 hPa 0,0 l/m 7,4 km/h (2 Bft) O-NO 77 1 min 0,000 mm 1,0 UV-I 333 W/m -1,7 C -2,2 C 9,7 km/h (2 Bft) 100,00 %
15.02.2018 12:05 -1,1 C 4,4 C 96 % 1021,2 hPa 0,0 l/m 5,5 km/h (1 Bft) NO 44 1 min 0,000 mm 1,0 UV-I 329 W/m -1,7 C -1,1 C 9,7 km/h (2 Bft) 100,00 %
15.02.2018 12:06 -1,0 C 4,4 C 95 % 1021,2 hPa 0,0 l/m 10,8 km/h (2 Bft) NO 51 1 min 0,000 mm 1,0 UV-I 324 W/m -1,7 C -5,2 C 17,7 km/h (3 Bft) 100,00 %
15.02.2018 12:07 -1,0 C 4,4 C 95 % 1021,2 hPa 0,0 l/m 14,5 km/h (3 Bft) O-SO 119 1 min 0,000 mm 1,0 UV-I 326 W/m -1,7 C -7,9 C 19,3 km/h (3 Bft) 100,00 %
15.02.2018 12:08 -1,0 C 4,4 C 95 % 1021,2 hPa 0,0 l/m 13,2 km/h (3 Bft) O 84 1 min 0,000 mm 1,0 UV-I 328 W/m -1,7 C -7,0 C 16,1 km/h (3 Bft) 93,33 %
15.02.2018 12:09 -1,0 C 4,4 C 94 % 1021,2 hPa 0,0 l/m 15,0 km/h (3 Bft) O-NO 69 1 min 0,000 mm 1,0 UV-I 327 W/m -1,8 C -8,2 C 17,7 km/h (3 Bft) 100,00 %
15.02.2018 12:10 -1,1 C 4,4 C 93 % 1021,1 hPa 0,0 l/m 12,9 km/h (3 Bft) O-NO 76 1 min 0,000 mm 1,0 UV-I 327 W/m -2,1 C -6,9 C 16,1 km/h (3 Bft) 100,00 %
15.02.2018 12:11 -1,0 C 4,4 C 93 % 1021,1 hPa 0,0 l/m 9,7 km/h (2 Bft) O-NO 69 1 min 0,000 mm 1,0 UV-I 326 W/m -2,0 C -4,3 C 17,7 km/h (3 Bft) 100,00 %
15.02.2018 12:12 -0,9 C 4,4 C 93 % 1021,1 hPa 0,0 l/m 12,8 km/h (3 Bft) O 79 1 min 0,000 mm 1,0 UV-I 324 W/m -1,9 C -6,6 C 16,1 km/h (3 Bft) 100,00 %
15.02.2018 12:13 -0,9 C 4,4 C 92 % 1021,1 hPa 0,0 l/m 12,0 km/h (2 Bft) O 88 1 min 0,000 mm 1,0 UV-I 323 W/m -2,0 C -6,0 C 14,5 km/h (3 Bft) 100,00 %
15.02.2018 12:14 -0,9 C 4,4 C 92 % 1021,0 hPa 0,0 l/m 12,6 km/h (3 Bft) O-NO 76 1 min 0,000 mm 1,0 UV-I 322 W/m -2,0 C -6,5 C 16,1 km/h (3 Bft) 95,65 %
15.02.2018 12:15 -0,9 C 4,4 C 91 % 1021,0 hPa 0,0 l/m 11,3 km/h (2 Bft) O-NO 71 1 min 0,000 mm 1,0 UV-I 317 W/m -2,2 C -5,5 C 14,5 km/h (3 Bft) 100,00 %
15.02.2018 12:16 -0,9 C 4,4 C 91 % 1020,9 hPa 0,0 l/m 13,0 km/h (3 Bft) O-NO 58 1 min 0,000 mm 1,0 UV-I 319 W/m -2,2 C -6,8 C 17,7 km/h (3 Bft) 96,15 %
15.02.2018 12:17 -0,8 C 4,4 C 91 % 1020,9 hPa 0,0 l/m 13,1 km/h (3 Bft) O-NO 66 1 min 0,000 mm 1,0 UV-I 318 W/m -2,1 C -6,7 C 19,3 km/h (3 Bft) 100,00 %
15.02.2018 12:18 -0,7 C 4,4 C 91 % 1020,9 hPa 0,0 l/m 17,0 km/h (3 Bft) O-SO 116 1 min 0,000 mm 1,0 UV-I 317 W/m -2,0 C -9,0 C 22,5 km/h (4 Bft) 95,65 %
15.02.2018 12:19 -0,7 C 4,4 C 91 % 1020,8 hPa 0,0 l/m 15,8 km/h (3 Bft) O-SO 113 1 min 0,000 mm 1,0 UV-I 318 W/m -2,0 C -8,3 C 19,3 km/h (3 Bft) 100,00 %
15.02.2018 12:20 -0,7 C 4,4 C 90 % 1020,8 hPa 0,0 l/m 12,7 km/h (3 Bft) O-NO 78 1 min 0,000 mm 1,0 UV-I 318 W/m -2,1 C -6,3 C 16,1 km/h (3 Bft) 95,65 %
15.02.2018 12:21 -0,7 C 4,4 C 90 % 1020,9 hPa 0,0 l/m 14,4 km/h (3 Bft) O-NO 69 1 min 0,000 mm 1,0 UV-I 321 W/m -2,1 C -7,5 C 19,3 km/h (3 Bft) 95,83 %
15.02.2018 12:22 -0,6 C 4,4 C 90 % 1020,9 hPa 0,0 l/m 13,2 km/h (3 Bft) O-NO 70 1 min 0,000 mm 1,0 UV-I 325 W/m -2,0 C -6,5 C 16,1 km/h (3 Bft) 100,00 %
15.02.2018 12:23 -0,6 C 4,4 C 90 % 1020,9 hPa 0,0 l/m 12,8 km/h (3 Bft) O-NO 61 1 min 0,000 mm 1,0 UV-I 322 W/m -2,0 C -6,3 C 16,1 km/h (3 Bft) 96,30 %
15.02.2018 12:24 -0,6 C 4,4 C 90 % 1020,8 hPa 0,0 l/m 10,2 km/h (2 Bft) O-NO 69 1 min 0,000 mm 1,0 UV-I 320 W/m -2,0 C -4,3 C 16,1 km/h (3 Bft) 100,00 %
15.02.2018 12:25 -0,5 C 4,4 C 90 % 1020,8 hPa 0,0 l/m 12,3 km/h (3 Bft) O-NO 76 1 min 0,000 mm 1,0 UV-I 318 W/m -1,9 C -5,8 C 16,1 km/h (3 Bft) 95,83 %
15.02.2018 12:26 -0,5 C 4,4 C 90 % 1020,8 hPa 0,0 l/m 11,1 km/h (2 Bft) O 80 1 min 0,000 mm 1,0 UV-I 314 W/m -1,9 C -4,9 C 16,1 km/h (3 Bft) 100,00 %
15.02.2018 12:27 -0,4 C 4,4 C 90 % 1020,8 hPa 0,0 l/m 10,2 km/h (2 Bft) O 88 1 min 0,000 mm 1,0 UV-I 316 W/m -1,8 C -4,1 C 14,5 km/h (3 Bft) 96,30 %
15.02.2018 12:28 -0,4 C 4,4 C 89 % 1020,8 hPa 0,0 l/m 8,7 km/h (2 Bft) NO 45 1 min 0,000 mm 1,0 UV-I 315 W/m -2,0 C -2,7 C 11,3 km/h (2 Bft) 100,00 %
15.02.2018 12:29 -0,3 C 4,4 C 89 % 1020,8 hPa 0,0 l/m 9,1 km/h (2 Bft) O 97 1 min 0,000 mm 1,0 UV-I 314 W/m -1,9 C -3,0 C 14,5 km/h (3 Bft) 92,31 %
15.02.2018 12:30 -0,3 C 4,4 C 89 % 1020,8 hPa 0,0 l/m 10,8 km/h (2 Bft) O-NO 67 1 min 0,000 mm 1,0 UV-I 315 W/m -1,9 C -4,4 C 14,5 km/h (3 Bft) 100,00 %
15.02.2018 12:31 -0,3 C 4,4 C 89 % 1020,8 hPa 0,0 l/m 8,2 km/h (2 Bft) NO 51 1 min 0,000 mm 1,0 UV-I 315 W/m -1,9 C -2,2 C 9,7 km/h (2 Bft) 96,15 %
15.02.2018 12:32 -0,3 C 4,4 C 89 % 1020,8 hPa 0,0 l/m 9,2 km/h (2 Bft) O 83 1 min 0,000 mm 1,0 UV-I 323 W/m -1,9 C -3,1 C 12,9 km/h (3 Bft) 92,59 %
15.02.2018 12:33 -0,2 C 4,4 C 89 % 1020,9 hPa 0,0 l/m 10,5 km/h (2 Bft) O-NO 61 1 min 0,000 mm 1,0 UV-I 317 W/m -1,8 C -4,1 C 14,5 km/h (3 Bft) 100,00 %
15.02.2018 12:34 -0,2 C 4,4 C 88 % 1020,9 hPa 0,0 l/m 8,6 km/h (2 Bft) NO 44 1 min 0,000 mm 1,0 UV-I 310 W/m -1,9 C -2,4 C 11,3 km/h (2 Bft) 96,30 %
15.02.2018 12:35 -0,2 C 4,4 C 88 % 1020,9 hPa 0,0 l/m 5,8 km/h (2 Bft) O-NO 76 1 min 0,000 mm 1,0 UV-I 311 W/m -1,9 C -0,2 C 8,0 km/h (2 Bft) 100,00 %
15.02.2018 12:36 -0,2 C 4,4 C 88 % 1020,9 hPa 0,0 l/m 10,4 km/h (2 Bft) O 84 1 min 0,000 mm 1,0 UV-I 315 W/m -1,9 C -4,0 C 12,9 km/h (3 Bft) 97,44 %
15.02.2018 12:37 -0,1 C 4,4 C 88 % 1020,9 hPa 0,0 l/m 6,3 km/h (2 Bft) O-NO 78 1 min 0,000 mm 1,0 UV-I 319 W/m -1,8 C -0,1 C 11,3 km/h (2 Bft) 90,91 %
15.02.2018 12:38 -0,1 C 4,4 C 88 % 1020,9 hPa 0,0 l/m 8,4 km/h (2 Bft) O 88 1 min 0,000 mm 1,0 UV-I 334 W/m -1,8 C -2,1 C 12,9 km/h (3 Bft) 96,30 %
15.02.2018 12:39 -0,1 C 4,4 C 88 % 1020,9 hPa 0,0 l/m 8,4 km/h (2 Bft) O-NO 69 1 min 0,000 mm 1,0 UV-I 344 W/m -1,8 C -2,1 C 12,9 km/h (3 Bft) 100,00 %
15.02.2018 12:40 0,1 C 4,4 C 88 % 1020,9 hPa 0,0 l/m 9,6 km/h (2 Bft) O 83 1 min 0,000 mm 1,0 UV-I 347 W/m -1,6 C -3,0 C 12,9 km/h (3 Bft) 86,67 %
15.02.2018 12:41 0,1 C 4,4 C 87 % 1020,9 hPa 0,0 l/m 12,8 km/h (3 Bft) NO 54 1 min 0,000 mm 1,0 UV-I 350 W/m -1,8 C -5,4 C 16,1 km/h (3 Bft) 100,00 %
15.02.2018 12:42 0,1 C 4,4 C 87 % 1020,8 hPa 0,0 l/m 12,1 km/h (2 Bft) O 98 1 min 0,000 mm 1,1 UV-I 351 W/m -1,8 C -5,0 C 17,7 km/h (3 Bft) 95,83 %
15.02.2018 12:43 0,1 C 4,4 C 87 % 1020,8 hPa 0,0 l/m 9,8 km/h (2 Bft) O 98 1 min 0,000 mm 1,0 UV-I 346 W/m -1,8 C -3,2 C 16,1 km/h (3 Bft) 100,00 %
15.02.2018 12:44 0,1 C 4,4 C 86 % 1020,8 hPa 0,0 l/m 10,7 km/h (2 Bft) O-NO 73 1 min 0,000 mm 1,1 UV-I 352 W/m -2,0 C -3,9 C 12,9 km/h (3 Bft) 95,65 %
15.02.2018 12:45 0,1 C 4,4 C 86 % 1020,8 hPa 0,0 l/m 8,6 km/h (2 Bft) O 82 1 min 0,000 mm 1,1 UV-I 357 W/m -2,0 C -2,1 C 14,5 km/h (3 Bft) 95,83 %
15.02.2018 12:46 0,1 C 4,4 C 86 % 1020,8 hPa 0,0 l/m 11,5 km/h (2 Bft) O 88 1 min 0,000 mm 1,1 UV-I 368 W/m -2,0 C -4,5 C 16,1 km/h (3 Bft) 100,00 %
15.02.2018 12:47 0,1 C 4,4 C 86 % 1020,8 hPa 0,0 l/m 12,9 km/h (3 Bft) O-NO 64 1 min 0,000 mm 1,1 UV-I 371 W/m -2,0 C -5,5 C 16,1 km/h (3 Bft) 100,00 %
15.02.2018 12:48 0,2 C 4,4 C 86 % 1020,7 hPa 0,0 l/m 15,1 km/h (3 Bft) O-NO 58 1 min 0,000 mm 1,1 UV-I 370 W/m -1,9 C -6,8 C 20,9 km/h (4 Bft) 100,00 %
15.02.2018 12:49 0,3 C 4,4 C 86 % 1020,7 hPa 0,0 l/m 14,4 km/h (3 Bft) O-NO 75 1 min 0,000 mm 1,1 UV-I 362 W/m -1,8 C -6,3 C 17,7 km/h (3 Bft) 96,67 %
15.02.2018 12:50 0,3 C 4,4 C 86 % 1020,7 hPa 0,0 l/m 10,8 km/h (2 Bft) O-NO 64 1 min 0,000 mm 1,1 UV-I 356 W/m -1,8 C -3,8 C 16,1 km/h (3 Bft) 100,00 %
15.02.2018 12:51 0,3 C 4,4 C 85 % 1020,7 hPa 0,0 l/m 11,6 km/h (2 Bft) O 82 1 min 0,000 mm 1,1 UV-I 350 W/m -1,9 C -4,4 C 16,1 km/h (3 Bft) 92,59 %
15.02.2018 12:52 0,3 C 4,4 C 85 % 1020,7 hPa 0,0 l/m 9,1 km/h (2 Bft) O-NO 67 1 min 0,000 mm 1,1 UV-I 357 W/m -1,9 C -2,4 C 12,9 km/h (3 Bft) 100,00 %
15.02.2018 12:53 0,3 C 4,4 C 84 % 1020,8 hPa 0,0 l/m 10,5 km/h (2 Bft) O-NO 69 1 min 0,000 mm 1,1 UV-I 361 W/m -2,1 C -3,5 C 16,1 km/h (3 Bft) 95,83 %
15.02.2018 12:54 0,3 C 4,4 C 84 % 1020,8 hPa 0,0 l/m 7,7 km/h (2 Bft) O 80 1 min 0,000 mm 1,1 UV-I 366 W/m -2,1 C -1,0 C 9,7 km/h (2 Bft) 88,46 %
15.02.2018 12:55 0,4 C 4,4 C 84 % 1020,8 hPa 0,0 l/m 6,5 km/h (2 Bft) NO 49 1 min 0,000 mm 1,1 UV-I 367 W/m -2,0 C 0,3 C 9,7 km/h (2 Bft) 93,33 %
15.02.2018 12:56 0,5 C 4,4 C 85 % 1020,8 hPa 0,0 l/m 10,2 km/h (2 Bft) O 92 1 min 0,000 mm 1,1 UV-I 362 W/m -1,7 C -3,1 C 16,1 km/h (3 Bft) 95,65 %
15.02.2018 12:57 0,5 C 4,4 C 85 % 1020,8 hPa 0,0 l/m 13,1 km/h (3 Bft) O-NO 78 1 min 0,000 mm 1,1 UV-I 358 W/m -1,7 C -5,2 C 16,1 km/h (3 Bft) 100,00 %
15.02.2018 12:58 0,5 C 4,4 C 83 % 1020,8 hPa 0,0 l/m 12,6 km/h (3 Bft) O-NO 71 1 min 0,000 mm 1,1 UV-I 351 W/m -2,0 C -4,8 C 16,1 km/h (3 Bft) 96,55 %
15.02.2018 12:59 0,5 C 4,4 C 82 % 1020,8 hPa 0,0 l/m 11,8 km/h (2 Bft) O-NO 68 1 min 0,000 mm 1,0 UV-I 334 W/m -2,2 C -4,3 C 14,5 km/h (3 Bft) 100,00 %
15.02.2018 13:00 0,5 C 4,4 C 82 % 1020,9 hPa 0,0 l/m 11,6 km/h (2 Bft) O-NO 69 1 min 0,000 mm 1,1 UV-I 346 W/m -2,2 C -4,1 C 14,5 km/h (3 Bft) 96,55 %
15.02.2018 13:01 0,6 C 4,4 C 83 % 1020,9 hPa 0,0 l/m 10,1 km/h (2 Bft) O-NO 62 1 min 0,127 mm 1,0 UV-I 334 W/m -1,9 C -2,9 C 12,9 km/h (3 Bft) 96,30 %
15.02.2018 13:02 0,6 C 4,4 C 82 % 1020,8 hPa 0,0 l/m 9,6 km/h (2 Bft) O 92 1 min 0,000 mm 1,0 UV-I 336 W/m -2,1 C -2,5 C 12,9 km/h (3 Bft) 93,33 %
15.02.2018 13:03 0,6 C 4,4 C 83 % 1020,8 hPa 0,0 l/m 5,8 km/h (2 Bft) O 101 1 min 0,000 mm 1,0 UV-I 335 W/m -1,9 C 0,6 C 9,7 km/h (2 Bft) 100,00 %
15.02.2018 13:04 0,7 C 4,4 C 83 % 1020,8 hPa 0,0 l/m 10,6 km/h (2 Bft) O-NO 59 1 min 0,000 mm 1,0 UV-I 331 W/m -1,8 C -3,2 C 14,5 km/h (3 Bft) 94,44 %
15.02.2018 13:05 0,7 C 4,4 C 82 % 1020,8 hPa 0,0 l/m 9,9 km/h (2 Bft) O-NO 76 1 min 0,000 mm 1,0 UV-I 332 W/m -2,0 C -2,6 C 12,9 km/h (3 Bft) 92,31 %
15.02.2018 13:06 0,7 C 4,4 C 81 % 1020,8 hPa 0,0 l/m 9,2 km/h (2 Bft) O-NO 62 1 min 0,000 mm 1,0 UV-I 326 W/m -2,2 C -2,0 C 14,5 km/h (3 Bft) 96,30 %
15.02.2018 13:07 0,7 C 4,4 C 80 % 1020,8 hPa 0,0 l/m 12,6 km/h (3 Bft) O 82 1 min 0,000 mm 1,0 UV-I 328 W/m -2,3 C -4,6 C 16,1 km/h (3 Bft) 86,96 %
15.02.2018 13:08 0,7 C 4,4 C 79 % 1020,8 hPa 0,0 l/m 15,0 km/h (3 Bft) O-NO 72 1 min 0,000 mm 1,0 UV-I 322 W/m -2,5 C -6,1 C 19,3 km/h (3 Bft) 96,55 %
15.02.2018 13:09 0,7 C 4,4 C 79 % 1020,8 hPa 0,0 l/m 14,9 km/h (3 Bft) O-NO 74 1 min 0,000 mm 1,0 UV-I 322 W/m -2,5 C -6,1 C 20,9 km/h (4 Bft) 91,67 %
15.02.2018 13:10 0,7 C 4,4 C 78 % 1020,8 hPa 0,0 l/m 16,7 km/h (3 Bft) O-NO 74 1 min 0,000 mm 1,0 UV-I 324 W/m -2,7 C -7,1 C 20,9 km/h (4 Bft) 96,30 %
15.02.2018 13:11 0,7 C 4,4 C 78 % 1020,7 hPa 0,0 l/m 13,9 km/h (3 Bft) O 92 1 min 0,000 mm 1,0 UV-I 323 W/m -2,7 C -5,5 C 17,7 km/h (3 Bft) 96,55 %
15.02.2018 13:12 0,7 C 4,4 C 78 % 1020,8 hPa 0,0 l/m 8,6 km/h (2 Bft) O-NO 71 1 min 0,000 mm 1,0 UV-I 320 W/m -2,7 C -1,5 C 12,9 km/h (3 Bft) 91,67 %
15.02.2018 13:13 0,7 C 4,4 C 78 % 1020,8 hPa 0,0 l/m 12,9 km/h (3 Bft) O-NO 67 1 min 0,000 mm 1,0 UV-I 321 W/m -2,7 C -4,8 C 16,1 km/h (3 Bft) 95,65 %
15.02.2018 13:14 0,7 C 4,4 C 78 % 1020,7 hPa 0,0 l/m 11,6 km/h (2 Bft) O-NO 65 1 min 0,000 mm 1,0 UV-I 328 W/m -2,7 C -3,9 C 16,1 km/h (3 Bft) 91,67 %
15.02.2018 13:15 0,8 C 4,4 C 78 % 1020,7 hPa 0,0 l/m 12,8 km/h (3 Bft) O-NO 74 1 min 0,000 mm 1,0 UV-I 339 W/m -2,6 C -4,6 C 14,5 km/h (3 Bft) 100,00 %
15.02.2018 13:16 0,8 C 4,4 C 79 % 1020,7 hPa 0,0 l/m 12,2 km/h (2 Bft) O-NO 64 1 min 0,000 mm 1,1 UV-I 353 W/m -2,4 C -4,2 C 14,5 km/h (3 Bft) 93,33 %
15.02.2018 13:17 0,8 C 4,4 C 79 % 1020,7 hPa 0,0 l/m 11,1 km/h (2 Bft) O-NO 73 1 min 0,000 mm 1,1 UV-I 352 W/m -2,4 C -3,4 C 17,7 km/h (3 Bft) 95,65 %
15.02.2018 13:18 0,9 C 4,4 C 78 % 1020,7 hPa 0,0 l/m 11,5 km/h (2 Bft) O-NO 58 1 min 0,000 mm 1,1 UV-I 353 W/m -2,5 C -3,6 C 14,5 km/h (3 Bft) 100,00 %
15.02.2018 13:19 0,9 C 4,4 C 78 % 1020,7 hPa 0,0 l/m 10,4 km/h (2 Bft) NO 52 1 min 0,000 mm 1,1 UV-I 363 W/m -2,5 C -2,8 C 16,1 km/h (3 Bft) 90,62 %
15.02.2018 13:20 1,0 C 4,4 C 79 % 1020,7 hPa 0,0 l/m 13,4 km/h (3 Bft) O 86 1 min 0,000 mm 1,1 UV-I 375 W/m -2,2 C -4,8 C 16,1 km/h (3 Bft) 96,30 %
15.02.2018 13:21 1,1 C 4,4 C 79 % 1020,7 hPa 0,0 l/m 16,3 km/h (3 Bft) NO 53 1 min 0,000 mm 1,1 UV-I 387 W/m -2,1 C -6,4 C 19,3 km/h (3 Bft) 92,31 %
15.02.2018 13:22 1,1 C 4,4 C 78 % 1020,7 hPa 0,0 l/m 13,0 km/h (3 Bft) O-NO 76 1 min 0,000 mm 1,1 UV-I 393 W/m -2,3 C -4,4 C 16,1 km/h (3 Bft) 86,67 %
15.02.2018 13:23 1,1 C 4,4 C 78 % 1020,7 hPa 0,0 l/m 12,1 km/h (2 Bft) O-NO 58 1 min 0,000 mm 1,1 UV-I 386 W/m -2,3 C -3,8 C 19,3 km/h (3 Bft) 95,83 %
15.02.2018 13:24 1,2 C 4,4 C 78 % 1020,7 hPa 0,0 l/m 15,1 km/h (3 Bft) O 98 1 min 0,000 mm 1,1 UV-I 379 W/m -2,2 C -5,6 C 19,3 km/h (3 Bft) 92,31 %
15.02.2018 13:25 1,2 C 4,4 C 79 % 1020,7 hPa 0,0 l/m 17,1 km/h (3 Bft) O-NO 67 1 min 0,000 mm 1,1 UV-I 374 W/m -2,0 C -6,7 C 20,9 km/h (4 Bft) 91,67 %
15.02.2018 13:26 1,2 C 4,4 C 77 % 1020,6 hPa 0,0 l/m 13,0 km/h (3 Bft) O 81 1 min 0,000 mm 1,1 UV-I 383 W/m -2,4 C -4,3 C 16,1 km/h (3 Bft) 93,10 %
15.02.2018 13:27 1,2 C 4,4 C 76 % 1020,6 hPa 0,0 l/m 10,1 km/h (2 Bft) O-NO 74 1 min 0,000 mm 1,1 UV-I 387 W/m -2,5 C -2,2 C 14,5 km/h (3 Bft) 100,00 %
15.02.2018 13:28 1,2 C 4,4 C 77 % 1020,6 hPa 0,0 l/m 8,3 km/h (2 Bft) O-NO 67 1 min 0,000 mm 1,1 UV-I 389 W/m -2,4 C -0,7 C 12,9 km/h (3 Bft) 92,31 %
15.02.2018 13:29 1,2 C 4,4 C 78 % 1020,6 hPa 0,0 l/m 7,1 km/h (2 Bft) O 84 1 min 0,000 mm 1,1 UV-I 387 W/m -2,2 C 0,5 C 11,3 km/h (2 Bft) 96,30 %
15.02.2018 13:30 1,3 C 4,4 C 78 % 1020,6 hPa 0,0 l/m 6,6 km/h (2 Bft) O 85 1 min 0,000 mm 1,1 UV-I 388 W/m -2,1 C 1,1 C 8,0 km/h (2 Bft) 91,30 %
15.02.2018 13:31 1,3 C 4,4 C 78 % 1020,6 hPa 0,0 l/m 10,6 km/h (2 Bft) O 81 1 min 0,000 mm 1,1 UV-I 387 W/m -2,1 C -2,5 C 16,1 km/h (3 Bft) 96,30 %
15.02.2018 13:32 1,3 C 4,4 C 77 % 1020,6 hPa 0,0 l/m 8,6 km/h (2 Bft) O-NO 63 1 min 0,000 mm 1,1 UV-I 392 W/m -2,3 C -0,8 C 12,9 km/h (3 Bft) 100,00 %
15.02.2018 13:33 1,3 C 4,4 C 76 % 1020,6 hPa 0,0 l/m 12,6 km/h (3 Bft) NO 48 1 min 0,000 mm 1,1 UV-I 395 W/m -2,5 C -3,9 C 16,1 km/h (3 Bft) 96,30 %
15.02.2018 13:34 1,4 C 4,4 C 77 % 1020,5 hPa 0,0 l/m 11,3 km/h (2 Bft) O-NO 64 1 min 0,000 mm 1,1 UV-I 388 W/m -2,2 C -2,9 C 17,7 km/h (3 Bft) 100,00 %
15.02.2018 13:35 1,4 C 4,4 C 77 % 1020,5 hPa 0,0 l/m 10,6 km/h (2 Bft) O 88 1 min 0,000 mm 1,0 UV-I 382 W/m -2,2 C -2,4 C 14,5 km/h (3 Bft) 93,33 %
15.02.2018 13:36 1,4 C 4,4 C 77 % 1020,5 hPa 0,0 l/m 6,8 km/h (2 Bft) O 82 1 min 0,000 mm 1,0 UV-I 380 W/m -2,2 C 1,0 C 9,7 km/h (2 Bft) 96,15 %
15.02.2018 13:37 1,5 C 4,4 C 77 % 1020,5 hPa 0,0 l/m 13,2 km/h (3 Bft) O-NO 70 1 min 0,000 mm 1,0 UV-I 367 W/m -2,1 C -4,1 C 16,1 km/h (3 Bft) 93,33 %
15.02.2018 13:38 1,5 C 4,4 C 76 % 1020,5 hPa 0,0 l/m 9,2 km/h (2 Bft) O-NO 68 1 min 0,000 mm 1,0 UV-I 367 W/m -2,3 C -1,1 C 12,9 km/h (3 Bft) 96,55 %
15.02.2018 13:39 1,5 C 4,4 C 77 % 1020,4 hPa 0,0 l/m 13,1 km/h (3 Bft) O 80 1 min 0,000 mm 1,0 UV-I 356 W/m -2,1 C -4,0 C 16,1 km/h (3 Bft) 95,83 %
15.02.2018 13:40 1,4 C 4,4 C 75 % 1020,4 hPa 0,0 l/m 12,0 km/h (2 Bft) O-NO 65 1 min 0,000 mm 1,0 UV-I 357 W/m -2,5 C -3,4 C 14,5 km/h (3 Bft) 92,86 %
15.02.2018 13:41 1,4 C 4,4 C 75 % 1020,4 hPa 0,0 l/m 11,9 km/h (2 Bft) O 94 1 min 0,000 mm 1,0 UV-I 364 W/m -2,5 C -3,3 C 16,1 km/h (3 Bft) 96,30 %
15.02.2018 13:42 1,4 C 4,4 C 75 % 1020,4 hPa 0,0 l/m 12,5 km/h (3 Bft) O-SO 109 1 min 0,000 mm 1,0 UV-I 364 W/m -2,5 C -3,7 C 14,5 km/h (3 Bft) 86,96 %
15.02.2018 13:43 1,4 C 4,4 C 74 % 1020,5 hPa 0,0 l/m 14,5 km/h (3 Bft) O 84 1 min 0,000 mm 1,0 UV-I 354 W/m -2,7 C -5,0 C 17,7 km/h (3 Bft) 100,00 %
15.02.2018 13:44 1,4 C 4,4 C 74 % 1020,5 hPa 0,0 l/m 15,2 km/h (3 Bft) O-SO 108 1 min 0,000 mm 1,0 UV-I 340 W/m -2,7 C -5,4 C 17,7 km/h (3 Bft) 85,19 %
15.02.2018 13:45 1,3 C 4,4 C 74 % 1020,5 hPa 0,0 l/m 13,4 km/h (3 Bft) O-SO 108 1 min 0,000 mm 1,0 UV-I 326 W/m -2,8 C -4,4 C 17,7 km/h (3 Bft) 96,55 %
15.02.2018 13:46 1,3 C 4,4 C 74 % 1020,5 hPa 0,0 l/m 11,0 km/h (2 Bft) O 100 1 min 0,000 mm 1,0 UV-I 334 W/m -2,8 C -2,8 C 14,5 km/h (3 Bft) 91,67 %
15.02.2018 13:47 1,3 C 4,4 C 75 % 1020,5 hPa 0,0 l/m 10,5 km/h (2 Bft) O-SO 117 1 min 0,000 mm 0,9 UV-I 339 W/m -2,6 C -2,4 C 14,5 km/h (3 Bft) 100,00 %
15.02.2018 13:48 1,3 C 4,4 C 74 % 1020,4 hPa 0,0 l/m 12,3 km/h (3 Bft) O 87 1 min 0,000 mm 1,0 UV-I 344 W/m -2,8 C -3,7 C 19,3 km/h (3 Bft) 96,30 %
15.02.2018 13:49 1,4 C 4,4 C 74 % 1020,4 hPa 0,0 l/m 14,6 km/h (3 Bft) O 86 1 min 0,000 mm 1,0 UV-I 350 W/m -2,7 C -5,1 C 17,7 km/h (3 Bft) 96,15 %
15.02.2018 13:50 1,4 C 4,4 C 74 % 1020,4 hPa 0,0 l/m 14,8 km/h (3 Bft) O-SO 105 1 min 0,000 mm 1,0 UV-I 374 W/m -2,7 C -5,2 C 19,3 km/h (3 Bft) 100,00 %
15.02.2018 13:51 1,4 C 4,4 C 75 % 1020,4 hPa 0,0 l/m 18,2 km/h (3 Bft) O 80 1 min 0,000 mm 1,0 UV-I 404 W/m -2,5 C -7,0 C 22,5 km/h (4 Bft) 96,15 %
15.02.2018 13:52 1,5 C 4,4 C 74 % 1020,4 hPa 0,0 l/m 17,5 km/h (3 Bft) O 94 1 min 0,000 mm 1,0 UV-I 398 W/m -2,6 C -6,5 C 20,9 km/h (4 Bft) 96,30 %
15.02.2018 13:53 1,5 C 4,4 C 74 % 1020,4 hPa 0,0 l/m 15,3 km/h (3 Bft) O 90 1 min 0,000 mm 1,0 UV-I 392 W/m -2,6 C -5,3 C 17,7 km/h (3 Bft) 88,24 %
15.02.2018 13:54 1,5 C 4,4 C 74 % 1020,4 hPa 0,0 l/m 15,2 km/h (3 Bft) O 88 1 min 0,000 mm 1,0 UV-I 417 W/m -2,6 C -5,3 C 19,3 km/h (3 Bft) 100,00 %
15.02.2018 13:55 1,4 C 4,4 C 73 % 1020,4 hPa 0,0 l/m 14,1 km/h (3 Bft) O-NO 78 1 min 0,000 mm 1,0 UV-I 406 W/m -2,9 C -4,8 C 17,7 km/h (3 Bft) 86,96 %
15.02.2018 13:56 1,5 C 4,4 C 73 % 1020,4 hPa 0,0 l/m 11,1 km/h (2 Bft) O-NO 76 1 min 0,000 mm 1,0 UV-I 413 W/m -2,8 C -2,6 C 14,5 km/h (3 Bft) 77,78 %
15.02.2018 13:57 1,6 C 4,4 C 75 % 1020,4 hPa 0,0 l/m 9,7 km/h (2 Bft) O 88 1 min 0,000 mm 1,0 UV-I 398 W/m -2,3 C -1,4 C 12,9 km/h (3 Bft) 86,21 %
15.02.2018 13:58 1,6 C 4,4 C 75 % 1020,4 hPa 0,0 l/m 13,8 km/h (3 Bft) O-SO 103 1 min 0,000 mm 1,0 UV-I 383 W/m -2,3 C -4,3 C 17,7 km/h (3 Bft) 66,67 %
15.02.2018 13:59 1,6 C 4,4 C 74 % 1020,4 hPa 0,0 l/m 16,6 km/h (3 Bft) O 89 1 min 0,000 mm 1,0 UV-I 422 W/m -2,5 C -5,9 C 19,3 km/h (3 Bft) 53,85 %
15.02.2018 14:00 1,6 C 4,4 C 74 % 1020,4 hPa 0,0 l/m 11,2 km/h (2 Bft) O 80 1 min 0,153 mm 1,0 UV-I 422 W/m -2,5 C -2,6 C 12,9 km/h (3 Bft) 77,78 %
15.02.2018 14:01 1,7 C 4,4 C 75 % 1020,4 hPa 0,0 l/m 12,6 km/h (3 Bft) O 96 1 min 0,000 mm 1,0 UV-I 418 W/m -2,2 C -3,4 C 19,3 km/h (3 Bft) 80,77 %
15.02.2018 14:02 1,7 C 4,4 C 75 % 1020,4 hPa 0,0 l/m 12,8 km/h (3 Bft) O 97 1 min 0,000 mm 1,0 UV-I 407 W/m -2,2 C -3,6 C 16,1 km/h (3 Bft) 53,33 %
15.02.2018 14:03 1,8 C 4,4 C 73 % 1020,4 hPa 0,0 l/m 12,9 km/h (3 Bft) O 92 1 min 0,000 mm 1,0 UV-I 399 W/m -2,5 C -3,5 C 16,1 km/h (3 Bft) 70,83 %
15.02.2018 14:04 1,8 C 4,4 C 74 % 1020,4 hPa 0,0 l/m 11,2 km/h (2 Bft) O-SO 105 1 min 0,000 mm 0,9 UV-I 397 W/m -2,3 C -2,4 C 14,5 km/h (3 Bft) 78,26 %
15.02.2018 14:05 1,8 C 4,4 C 74 % 1020,4 hPa 0,0 l/m 9,8 km/h (2 Bft) O 93 1 min 0,000 mm 0,9 UV-I 394 W/m -2,3 C -1,3 C 17,7 km/h (3 Bft) 96,30 %
15.02.2018 14:06 1,8 C 4,4 C 73 % 1020,4 hPa 0,0 l/m 13,0 km/h (3 Bft) O-NO 76 1 min 0,000 mm 0,9 UV-I 394 W/m -2,5 C -3,6 C 16,1 km/h (3 Bft) 95,65 %
15.02.2018 14:07 1,8 C 4,4 C 73 % 1020,4 hPa 0,0 l/m 12,6 km/h (3 Bft) O-NO 78 1 min 0,000 mm 0,9 UV-I 371 W/m -2,5 C -3,3 C 14,5 km/h (3 Bft) 100,00 %
15.02.2018 14:08 1,9 C 4,4 C 73 % 1020,4 hPa 0,0 l/m 8,6 km/h (2 Bft) O-NO 57 1 min 0,000 mm 0,9 UV-I 363 W/m -2,4 C -0,2 C 12,9 km/h (3 Bft) 95,65 %
15.02.2018 14:09 1,9 C 4,4 C 74 % 1020,4 hPa 0,0 l/m 11,1 km/h (2 Bft) O 98 1 min 0,000 mm 0,9 UV-I 381 W/m -2,2 C -2,2 C 14,5 km/h (3 Bft) 100,00 %
15.02.2018 14:10 1,9 C 4,4 C 74 % 1020,4 hPa 0,0 l/m 11,0 km/h (2 Bft) O 97 1 min 0,000 mm 0,9 UV-I 382 W/m -2,2 C -2,1 C 19,3 km/h (3 Bft) 92,86 %
15.02.2018 14:11 1,9 C 4,4 C 74 % 1020,4 hPa 0,0 l/m 14,5 km/h (3 Bft) O-SO 109 1 min 0,000 mm 0,9 UV-I 372 W/m -2,2 C -4,4 C 17,7 km/h (3 Bft) 100,00 %
15.02.2018 14:12 1,9 C 4,4 C 73 % 1020,4 hPa 0,0 l/m 12,2 km/h (2 Bft) O-SO 111 1 min 0,000 mm 0,9 UV-I 361 W/m -2,4 C -2,9 C 16,1 km/h (3 Bft) 96,55 %
15.02.2018 14:13 1,8 C 4,4 C 73 % 1020,4 hPa 0,0 l/m 11,3 km/h (2 Bft) O-SO 117 1 min 0,000 mm 0,9 UV-I 377 W/m -2,5 C -2,4 C 14,5 km/h (3 Bft) 91,67 %
15.02.2018 14:14 1,8 C 4,4 C 73 % 1020,5 hPa 0,0 l/m 11,4 km/h (2 Bft) O-SO 112 1 min 0,000 mm 0,9 UV-I 415 W/m -2,5 C -2,5 C 14,5 km/h (3 Bft) 92,31 %
15.02.2018 14:15 1,8 C 4,4 C 74 % 1020,4 hPa 0,0 l/m 12,6 km/h (3 Bft) O 89 1 min 0,000 mm 0,9 UV-I 402 W/m -2,3 C -3,3 C 16,1 km/h (3 Bft) 96,67 %
15.02.2018 14:16 1,9 C 4,4 C 74 % 1020,4 hPa 0,0 l/m 11,8 km/h (2 Bft) O 80 1 min 0,000 mm 0,9 UV-I 383 W/m -2,2 C -2,7 C 16,1 km/h (3 Bft) 88,46 %
15.02.2018 14:17 1,9 C 4,4 C 74 % 1020,4 hPa 0,0 l/m 13,6 km/h (3 Bft) O-NO 78 1 min 0,000 mm 0,9 UV-I 382 W/m -2,2 C -3,9 C 16,1 km/h (3 Bft) 91,67 %
15.02.2018 14:18 1,9 C 4,4 C 74 % 1020,4 hPa 0,0 l/m 9,5 km/h (2 Bft) O-NO 57 1 min 0,000 mm 0,9 UV-I 372 W/m -2,2 C -1,0 C 16,1 km/h (3 Bft) 96,30 %
15.02.2018 14:19 2,0 C 4,4 C 74 % 1020,4 hPa 0,0 l/m 8,9 km/h (2 Bft) O 79 1 min 0,000 mm 0,8 UV-I 371 W/m -2,1 C -0,3 C 11,3 km/h (2 Bft) 86,96 %
15.02.2018 14:20 2,0 C 4,4 C 74 % 1020,5 hPa 0,0 l/m 17,0 km/h (3 Bft) O-NO 78 1 min 0,000 mm 0,8 UV-I 376 W/m -2,1 C -5,6 C 20,9 km/h (4 Bft) 84,62 %
15.02.2018 14:21 1,9 C 4,4 C 73 % 1020,4 hPa 0,0 l/m 15,6 km/h (3 Bft) O-NO 78 1 min 0,000 mm 0,8 UV-I 377 W/m -2,4 C -5,0 C 19,3 km/h (3 Bft) 79,17 %
15.02.2018 14:22 1,9 C 4,4 C 73 % 1020,4 hPa 0,0 l/m 13,6 km/h (3 Bft) O-NO 65 1 min 0,000 mm 0,8 UV-I 341 W/m -2,4 C -3,9 C 17,7 km/h (3 Bft) 79,17 %
15.02.2018 14:23 1,9 C 4,4 C 73 % 1020,5 hPa 0,0 l/m 12,4 km/h (3 Bft) O-NO 74 1 min 0,000 mm 0,8 UV-I 344 W/m -2,4 C -3,1 C 17,7 km/h (3 Bft) 96,15 %
15.02.2018 14:24 1,8 C 4,4 C 73 % 1020,5 hPa 0,0 l/m 9,1 km/h (2 Bft) O 82 1 min 0,000 mm 0,8 UV-I 335 W/m -2,5 C -0,7 C 12,9 km/h (3 Bft) 92,31 %
15.02.2018 14:25 1,8 C 4,4 C 73 % 1020,5 hPa 0,0 l/m 14,5 km/h (3 Bft) O-NO 65 1 min 0,000 mm 0,8 UV-I 349 W/m -2,5 C -4,5 C 17,7 km/h (3 Bft) 95,83 %
15.02.2018 14:26 1,9 C 4,4 C 73 % 1020,5 hPa 0,0 l/m 10,4 km/h (2 Bft) O 89 1 min 0,000 mm 0,8 UV-I 357 W/m -2,4 C -1,7 C 14,5 km/h (3 Bft) 90,48 %
15.02.2018 14:27 1,9 C 4,4 C 73 % 1020,6 hPa 0,0 l/m 12,4 km/h (3 Bft) O-SO 105 1 min 0,000 mm 0,8 UV-I 367 W/m -2,4 C -3,1 C 16,1 km/h (3 Bft) 92,31 %
15.02.2018 14:28 1,9 C 4,4 C 73 % 1020,5 hPa 0,0 l/m 11,2 km/h (2 Bft) O 96 1 min 0,000 mm 0,8 UV-I 378 W/m -2,4 C -2,3 C 12,9 km/h (3 Bft) 93,33 %
15.02.2018 14:29 1,9 C 4,4 C 73 % 1020,5 hPa 0,0 l/m 13,1 km/h (3 Bft) O-SO 108 1 min 0,000 mm 0,8 UV-I 373 W/m -2,4 C -3,5 C 16,1 km/h (3 Bft) 100,00 %
15.02.2018 14:30 1,9 C 4,4 C 72 % 1020,5 hPa 0,0 l/m 12,5 km/h (3 Bft) O 92 1 min 0,000 mm 0,8 UV-I 349 W/m -2,6 C -3,1 C 14,5 km/h (3 Bft) 96,30 %
15.02.2018 14:31 1,9 C 4,4 C 72 % 1020,5 hPa 0,0 l/m 10,4 km/h (2 Bft) O-NO 72 1 min 0,000 mm 0,7 UV-I 313 W/m -2,6 C -1,7 C 14,5 km/h (3 Bft) 95,65 %
15.02.2018 14:32 2,0 C 4,4 C 73 % 1020,5 hPa 0,0 l/m 10,4 km/h (2 Bft) NO 43 1 min 0,000 mm 0,7 UV-I 312 W/m -2,3 C -1,5 C 12,9 km/h (3 Bft) 95,83 %
15.02.2018 14:33 2,0 C 4,4 C 73 % 1020,5 hPa 0,0 l/m 10,3 km/h (2 Bft) O 81 1 min 0,000 mm 0,7 UV-I 308 W/m -2,3 C -1,5 C 12,9 km/h (3 Bft) 92,31 %
15.02.2018 14:34 2,1 C 4,4 C 73 % 1020,5 hPa 0,0 l/m 9,1 km/h (2 Bft) O-NO 66 1 min 0,000 mm 0,7 UV-I 278 W/m -2,2 C -0,4 C 14,5 km/h (3 Bft) 100,00 %
15.02.2018 14:35 2,1 C 4,4 C 73 % 1020,5 hPa 0,0 l/m 10,7 km/h (2 Bft) O-NO 61 1 min 0,000 mm 0,7 UV-I 266 W/m -2,2 C -1,7 C 14,5 km/h (3 Bft) 94,12 %
15.02.2018 14:36 2,1 C 4,4 C 74 % 1020,5 hPa 0,0 l/m 9,4 km/h (2 Bft) O-SO 102 1 min 0,000 mm 0,7 UV-I 297 W/m -2,0 C -0,7 C 12,9 km/h (3 Bft) 100,00 %
15.02.2018 14:37 2,1 C 4,4 C 73 % 1020,6 hPa 0,0 l/m 6,7 km/h (2 Bft) O 98 1 min 0,000 mm 0,7 UV-I 292 W/m -2,2 C 1,8 C 9,7 km/h (2 Bft) 96,15 %
15.02.2018 14:38 2,0 C 4,4 C 72 % 1020,6 hPa 0,0 l/m 6,1 km/h (2 Bft) O 87 1 min 0,000 mm 0,7 UV-I 311 W/m -2,5 C 2,0 C 9,7 km/h (2 Bft) 100,00 %
15.02.2018 14:39 2,1 C 4,4 C 73 % 1020,6 hPa 0,0 l/m 7,5 km/h (2 Bft) O 82 1 min 0,000 mm 0,7 UV-I 299 W/m -2,2 C 1,0 C 12,9 km/h (3 Bft) 96,55 %
15.02.2018 14:40 2,1 C 4,4 C 72 % 1020,6 hPa 0,0 l/m 12,4 km/h (3 Bft) O-NO 72 1 min 0,000 mm 0,7 UV-I 321 W/m -2,4 C -2,9 C 16,1 km/h (3 Bft) 100,00 %
15.02.2018 14:41 2,1 C 4,4 C 72 % 1020,6 hPa 0,0 l/m 11,2 km/h (2 Bft) O-NO 78 1 min 0,000 mm 0,7 UV-I 300 W/m -2,4 C -2,0 C 14,5 km/h (3 Bft) 91,67 %
15.02.2018 14:42 2,1 C 4,4 C 72 % 1020,5 hPa 0,0 l/m 13,2 km/h (3 Bft) O 88 1 min 0,000 mm 0,7 UV-I 298 W/m -2,4 C -3,4 C 17,7 km/h (3 Bft) 100,00 %
15.02.2018 14:43 2,1 C 4,4 C 71 % 1020,6 hPa 0,0 l/m 11,5 km/h (2 Bft) O 99 1 min 0,000 mm 0,7 UV-I 314 W/m -2,6 C -2,2 C 16,1 km/h (3 Bft) 93,10 %
15.02.2018 14:44 2,1 C 4,4 C 71 % 1020,6 hPa 0,0 l/m 9,7 km/h (2 Bft) O 95 1 min 0,000 mm 0,7 UV-I 318 W/m -2,6 C -0,9 C 14,5 km/h (3 Bft) 96,30 %
15.02.2018 14:45 2,1 C 4,4 C 72 % 1020,6 hPa 0,0 l/m 12,8 km/h (3 Bft) O 92 1 min 0,000 mm 0,7 UV-I 291 W/m -2,4 C -3,1 C 14,5 km/h (3 Bft) 91,67 %
15.02.2018 14:46 2,0 C 4,4 C 71 % 1020,6 hPa 0,0 l/m 9,7 km/h (2 Bft) O-NO 69 1 min 0,000 mm 0,6 UV-I 287 W/m -2,7 C -1,0 C 12,9 km/h (3 Bft) 93,33 %
15.02.2018 14:47 2,0 C 4,4 C 70 % 1020,6 hPa 0,0 l/m 7,5 km/h (2 Bft) O-NO 66 1 min 0,000 mm 0,6 UV-I 288 W/m -2,9 C 0,9 C 12,9 km/h (3 Bft) 94,74 %
15.02.2018 14:48 2,1 C 4,4 C 71 % 1020,6 hPa 0,0 l/m 7,5 km/h (2 Bft) O-NO 74 1 min 0,000 mm 0,6 UV-I 261 W/m -2,6 C 1,0 C 11,3 km/h (2 Bft) 95,65 %
15.02.2018 14:49 2,1 C 4,4 C 73 % 1020,6 hPa 0,0 l/m 9,0 km/h (2 Bft) O-NO 62 1 min 0,000 mm 0,6 UV-I 263 W/m -2,2 C -0,3 C 12,9 km/h (3 Bft) 95,83 %
15.02.2018 14:50 2,1 C 4,4 C 72 % 1020,5 hPa 0,0 l/m 7,2 km/h (2 Bft) O-NO 59 1 min 0,000 mm 0,6 UV-I 277 W/m -2,4 C 1,3 C 9,7 km/h (2 Bft) 92,31 %
15.02.2018 14:51 2,1 C 4,4 C 72 % 1020,5 hPa 0,0 l/m 8,6 km/h (2 Bft) O-NO 57 1 min 0,000 mm 0,6 UV-I 267 W/m -2,4 C 0,0 C 12,9 km/h (3 Bft) 100,00 %
15.02.2018 14:52 2,1 C 4,4 C 73 % 1020,5 hPa 0,0 l/m 10,3 km/h (2 Bft) O 88 1 min 0,000 mm 0,6 UV-I 259 W/m -2,2 C -1,4 C 14,5 km/h (3 Bft) 91,30 %
15.02.2018 14:53 2,1 C 4,4 C 72 % 1020,5 hPa 0,0 l/m 9,7 km/h (2 Bft) O-NO 65 1 min 0,000 mm 0,6 UV-I 250 W/m -2,4 C -0,9 C 12,9 km/h (3 Bft) 96,78 %
15.02.2018 14:54 2,1 C 4,4 C 71 % 1020,5 hPa 0,0 l/m 9,5 km/h (2 Bft) O 96 1 min 0,000 mm 0,6 UV-I 259 W/m -2,6 C -0,7 C 12,9 km/h (3 Bft) 94,74 %
15.02.2018 14:55 2,1 C 4,4 C 72 % 1020,5 hPa 0,0 l/m 7,0 km/h (2 Bft) O 96 1 min 0,000 mm 0,6 UV-I 272 W/m -2,4 C 1,5 C 12,9 km/h (3 Bft) 100,00 %
15.02.2018 14:56 2,1 C 4,4 C 72 % 1020,5 hPa 0,0 l/m 8,9 km/h (2 Bft) O 94 1 min 0,000 mm 0,6 UV-I 277 W/m -2,4 C -0,2 C 11,3 km/h (2 Bft) 88,46 %
15.02.2018 14:57 2,2 C 4,4 C 71 % 1020,4 hPa 0,0 l/m 6,8 km/h (2 Bft) O 88 1 min 0,000 mm 0,6 UV-I 286 W/m -2,5 C 1,8 C 9,7 km/h (2 Bft) 100,00 %
15.02.2018 14:58 2,1 C 4,4 C 71 % 1020,4 hPa 0,0 l/m 10,1 km/h (2 Bft) O 90 1 min 0,000 mm 0,6 UV-I 293 W/m -2,6 C -1,2 C 12,9 km/h (3 Bft) 92,31 %
15.02.2018 14:59 2,2 C 4,4 C 71 % 1020,4 hPa 0,0 l/m 14,6 km/h (3 Bft) O 94 1 min 0,000 mm 0,6 UV-I 287 W/m -2,5 C -4,1 C 17,7 km/h (3 Bft) 92,59 %
15.02.2018 15:00 2,1 C 4,4 C 71 % 1020,4 hPa 0,0 l/m 11,8 km/h (2 Bft) O 101 1 min 0,000 mm 0,6 UV-I 285 W/m -2,6 C -2,4 C 16,1 km/h (3 Bft) 100,00 %
15.02.2018 15:01 2,1 C 4,4 C 71 % 1020,4 hPa 0,0 l/m 10,1 km/h (2 Bft) SO 126 1 min 0,152 mm 0,6 UV-I 278 W/m -2,6 C -1,2 C 14,5 km/h (3 Bft) 93,10 %
15.02.2018 15:02 2,1 C 4,4 C 71 % 1020,5 hPa 0,0 l/m 8,4 km/h (2 Bft) O 88 1 min 0,000 mm 0,6 UV-I 279 W/m -2,6 C 0,2 C 11,3 km/h (2 Bft) 100,00 %
15.02.2018 15:03 2,1 C 4,4 C 71 % 1020,5 hPa 0,0 l/m 8,9 km/h (2 Bft) O-NO 71 1 min 0,000 mm 0,6 UV-I 279 W/m -2,6 C -0,2 C 11,3 km/h (2 Bft) 92,31 %
15.02.2018 15:04 2,1 C 4,4 C 71 % 1020,5 hPa 0,0 l/m 11,3 km/h (2 Bft) O-NO 78 1 min 0,000 mm 0,5 UV-I 251 W/m -2,6 C -2,1 C 14,5 km/h (3 Bft) 95,83 %
15.02.2018 15:05 2,1 C 4,4 C 71 % 1020,5 hPa 0,0 l/m 12,9 km/h (3 Bft) O-SO 103 1 min 0,000 mm 0,5 UV-I 248 W/m -2,6 C -3,2 C 14,5 km/h (3 Bft) 91,30 %
15.02.2018 15:06 2,1 C 4,4 C 70 % 1020,5 hPa 0,0 l/m 9,0 km/h (2 Bft) O-SO 102 1 min 0,000 mm 0,5 UV-I 247 W/m -2,8 C -0,3 C 12,9 km/h (3 Bft) 100,00 %
15.02.2018 15:07 2,1 C 4,4 C 70 % 1020,6 hPa 0,0 l/m 8,1 km/h (2 Bft) O-NO 78 1 min 0,000 mm 0,5 UV-I 248 W/m -2,8 C 0,5 C 12,9 km/h (3 Bft) 91,30 %
15.02.2018 15:08 2,1 C 4,4 C 71 % 1020,5 hPa 0,0 l/m 9,7 km/h (2 Bft) O 93 1 min 0,000 mm 0,5 UV-I 251 W/m -2,6 C -0,9 C 11,3 km/h (2 Bft) 100,00 %
15.02.2018 15:09 2,2 C 4,4 C 70 % 1020,5 hPa 0,0 l/m 10,9 km/h (2 Bft) O-SO 107 1 min 0,000 mm 0,5 UV-I 246 W/m -2,7 C -1,7 C 12,9 km/h (3 Bft) 93,10 %
15.02.2018 15:10 2,2 C 4,4 C 71 % 1020,5 hPa 0,0 l/m 9,8 km/h (2 Bft) O-SO 103 1 min 0,000 mm 0,5 UV-I 233 W/m -2,5 C -0,9 C 14,5 km/h (3 Bft) 96,67 %
15.02.2018 15:11 2,2 C 4,4 C 71 % 1020,5 hPa 0,0 l/m 9,5 km/h (2 Bft) O 88 1 min 0,000 mm 0,5 UV-I 235 W/m -2,5 C -0,6 C 14,5 km/h (3 Bft) 90,91 %
15.02.2018 15:12 2,2 C 4,4 C 71 % 1020,5 hPa 0,0 l/m 10,3 km/h (2 Bft) O-NO 69 1 min 0,000 mm 0,5 UV-I 218 W/m -2,5 C -1,3 C 14,5 km/h (3 Bft) 88,89 %
15.02.2018 15:13 2,2 C 4,4 C 71 % 1020,6 hPa 0,0 l/m 11,0 km/h (2 Bft) O-SO 104 1 min 0,000 mm 0,5 UV-I 205 W/m -2,5 C -1,8 C 14,5 km/h (3 Bft) 100,00 %
15.02.2018 15:14 2,2 C 4,4 C 71 % 1020,5 hPa 0,0 l/m 9,6 km/h (2 Bft) O 93 1 min 0,000 mm 0,5 UV-I 199 W/m -2,5 C -0,7 C 14,5 km/h (3 Bft) 96,30 %
15.02.2018 15:15 2,1 C 4,4 C 71 % 1020,5 hPa 0,0 l/m 11,3 km/h (2 Bft) O 100 1 min 0,000 mm 0,2 UV-I 186 W/m -2,6 C -2,1 C 14,5 km/h (3 Bft) 100,00 %
15.02.2018 15:16 2,1 C 4,4 C 71 % 1020,5 hPa 0,0 l/m 10,3 km/h (2 Bft) O-NO 63 1 min 0,000 mm 0,0 UV-I 171 W/m -2,6 C -1,4 C 12,9 km/h (3 Bft) 92,31 %
15.02.2018 15:17 2,1 C 4,4 C 71 % 1020,5 hPa 0,0 l/m 11,1 km/h (2 Bft) O 88 0 min 0,000 mm 0,0 UV-I 163 W/m -2,6 C -2,0 C 12,9 km/h (3 Bft) 96,30 %
15.02.2018 15:18 2,1 C 4,4 C 71 % 1020,5 hPa 0,0 l/m 9,5 km/h (2 Bft) O-NO 71 0 min 0,000 mm 0,0 UV-I 157 W/m -2,6 C -0,7 C 14,5 km/h (3 Bft) 90,91 %
15.02.2018 15:19 2,1 C 4,4 C 71 % 1020,5 hPa 0,0 l/m 6,6 km/h (2 Bft) O 92 0 min 0,000 mm 0,0 UV-I 155 W/m -2,6 C 1,9 C 9,7 km/h (2 Bft) 97,56 %
15.02.2018 15:20 2,0 C 4,4 C 72 % 1020,6 hPa 0,0 l/m 7,6 km/h (2 Bft) O-NO 71 0 min 0,000 mm 0,0 UV-I 157 W/m -2,5 C 0,8 C 11,3 km/h (2 Bft) 100,00 %
15.02.2018 15:21 2,0 C 4,4 C 71 % 1020,5 hPa 0,0 l/m 6,1 km/h (2 Bft) O-NO 69 0 min 0,000 mm 0,0 UV-I 160 W/m -2,7 C 2,0 C 11,3 km/h (2 Bft) 95,65 %
15.02.2018 15:22 2,0 C 4,4 C 71 % 1020,5 hPa 0,0 l/m 6,7 km/h (2 Bft) NO 52 0 min 0,000 mm 0,0 UV-I 160 W/m -2,7 C 1,7 C 9,7 km/h (2 Bft) 100,00 %
15.02.2018 15:23 1,9 C 4,4 C 72 % 1020,5 hPa 0,0 l/m 7,5 km/h (2 Bft) O 82 1 min 0,000 mm 0,0 UV-I 162 W/m -2,6 C 0,8 C 11,3 km/h (2 Bft) 91,67 %
15.02.2018 15:24 1,9 C 4,4 C 72 % 1020,5 hPa 0,0 l/m 7,5 km/h (2 Bft) O-NO 60 0 min 0,000 mm 0,0 UV-I 158 W/m -2,6 C 0,8 C 11,3 km/h (2 Bft) 100,00 %
15.02.2018 15:25 1,9 C 4,4 C 73 % 1020,5 hPa 0,0 l/m 9,3 km/h (2 Bft) O-NO 72 0 min 0,000 mm 0,0 UV-I 154 W/m -2,4 C -0,8 C 12,9 km/h (3 Bft) 92,59 %
15.02.2018 15:26 2,0 C 4,4 C 73 % 1020,5 hPa 0,0 l/m 11,1 km/h (2 Bft) O 92 0 min 0,000 mm 0,0 UV-I 149 W/m -2,3 C -2,1 C 14,5 km/h (3 Bft) 100,00 %
15.02.2018 15:27 2,0 C 4,4 C 72 % 1020,5 hPa 0,0 l/m 9,7 km/h (2 Bft) O 93 0 min 0,000 mm 0,0 UV-I 144 W/m -2,5 C -1,0 C 12,9 km/h (3 Bft) 96,30 %
15.02.2018 15:28 1,9 C 4,4 C 72 % 1020,5 hPa 0,0 l/m 6,5 km/h (2 Bft) O 82 0 min 0,000 mm 0,0 UV-I 141 W/m -2,6 C 1,8 C 8,0 km/h (2 Bft) 96,55 %
15.02.2018 15:29 2,0 C 4,4 C 73 % 1020,6 hPa 0,0 l/m 5,8 km/h (2 Bft) O 94 0 min 0,000 mm 0,0 UV-I 138 W/m -2,3 C 2,0 C 9,7 km/h (2 Bft) 100,00 %
15.02.2018 15:30 2,0 C 4,4 C 73 % 1020,5 hPa 0,0 l/m 7,0 km/h (2 Bft) O 88 0 min 0,000 mm 0,0 UV-I 136 W/m -2,3 C 1,4 C 9,7 km/h (2 Bft) 100,00 %
15.02.2018 15:31 2,0 C 4,4 C 74 % 1020,6 hPa 0,0 l/m 7,3 km/h (2 Bft) O 82 0 min 0,000 mm 0,0 UV-I 131 W/m -2,1 C 1,1 C 9,7 km/h (2 Bft) 92,59 %
15.02.2018 15:32 2,0 C 4,4 C 73 % 1020,6 hPa 0,0 l/m 6,6 km/h (2 Bft) O-NO 69 0 min 0,000 mm 0,0 UV-I 130 W/m -2,3 C 1,8 C 11,3 km/h (2 Bft) 100,00 %
15.02.2018 15:33 2,0 C 4,4 C 73 % 1020,6 hPa 0,0 l/m 4,5 km/h (1 Bft) O 95 0 min 0,000 mm 0,0 UV-I 128 W/m -2,3 C 2,0 C 9,7 km/h (2 Bft) 96,30 %
15.02.2018 15:34 2,0 C 4,4 C 74 % 1020,6 hPa 0,0 l/m 5,9 km/h (2 Bft) O 94 0 min 0,000 mm 0,0 UV-I 128 W/m -2,1 C 2,0 C 9,7 km/h (2 Bft) 95,65 %
15.02.2018 15:35 2,0 C 4,4 C 73 % 1020,5 hPa 0,0 l/m 5,6 km/h (1 Bft) O-SO 117 0 min 0,000 mm 0,0 UV-I 127 W/m -2,3 C 2,0 C 9,7 km/h (2 Bft) 100,00 %
15.02.2018 15:36 2,0 C 4,4 C 73 % 1020,5 hPa 0,0 l/m 8,4 km/h (2 Bft) O 96 0 min 0,000 mm 0,0 UV-I 126 W/m -2,3 C 0,1 C 11,3 km/h (2 Bft) 93,10 %
15.02.2018 15:37 1,9 C 4,4 C 73 % 1020,5 hPa 0,0 l/m 8,6 km/h (2 Bft) O-NO 68 0 min 0,000 mm 0,0 UV-I 125 W/m -2,4 C -0,2 C 12,9 km/h (3 Bft) 100,00 %
15.02.2018 15:38 1,9 C 4,4 C 73 % 1020,5 hPa 0,0 l/m 9,5 km/h (2 Bft) O 88 0 min 0,000 mm 0,0 UV-I 125 W/m -2,4 C -1,0 C 12,9 km/h (3 Bft) 93,33 %
15.02.2018 15:39 1,9 C 4,4 C 73 % 1020,5 hPa 0,0 l/m 9,7 km/h (2 Bft) O 80 0 min 0,000 mm 0,0 UV-I 123 W/m -2,4 C -1,1 C 12,9 km/h (3 Bft) 100,00 %
15.02.2018 15:40 1,9 C 4,4 C 73 % 1020,5 hPa 0,0 l/m 7,1 km/h (2 Bft) O-NO 75 0 min 0,000 mm 0,0 UV-I 123 W/m -2,4 C 1,2 C 11,3 km/h (2 Bft) 88,89 %
15.02.2018 15:41 1,9 C 4,4 C 73 % 1020,5 hPa 0,0 l/m 9,5 km/h (2 Bft) O-NO 69 0 min 0,000 mm 0,0 UV-I 121 W/m -2,4 C -1,0 C 12,9 km/h (3 Bft) 96,55 %
15.02.2018 15:42 1,9 C 4,4 C 73 % 1020,5 hPa 0,0 l/m 8,9 km/h (2 Bft) O-NO 74 0 min 0,000 mm 0,0 UV-I 119 W/m -2,4 C -0,5 C 11,3 km/h (2 Bft) 96,30 %
15.02.2018 15:43 1,9 C 4,4 C 73 % 1020,5 hPa 0,0 l/m 9,5 km/h (2 Bft) O-NO 70 0 min 0,000 mm 0,0 UV-I 118 W/m -2,4 C -1,0 C 12,9 km/h (3 Bft) 100,00 %
15.02.2018 15:44 1,9 C 4,4 C 73 % 1020,5 hPa 0,0 l/m 8,3 km/h (2 Bft) O 79 0 min 0,000 mm 0,0 UV-I 116 W/m -2,4 C 0,1 C 11,3 km/h (2 Bft) 96,30 %
15.02.2018 15:45 1,9 C 4,4 C 74 % 1020,5 hPa 0,0 l/m 7,5 km/h (2 Bft) O 88 0 min 0,000 mm 0,0 UV-I 114 W/m -2,2 C 0,8 C 8,0 km/h (2 Bft) 100,00 %
15.02.2018 15:46 1,9 C 4,4 C 74 % 1020,5 hPa 0,0 l/m 6,1 km/h (2 Bft) O 88 0 min 0,000 mm 0,0 UV-I 113 W/m -2,2 C 1,9 C 9,7 km/h (2 Bft) 96,15 %
15.02.2018 15:47 1,9 C 4,4 C 74 % 1020,5 hPa 0,0 l/m 6,0 km/h (2 Bft) O 98 0 min 0,000 mm 0,0 UV-I 111 W/m -2,2 C 1,9 C 9,7 km/h (2 Bft) 96,15 %
15.02.2018 15:48 1,9 C 4,4 C 73 % 1020,5 hPa 0,0 l/m 5,3 km/h (1 Bft) O 94 0 min 0,000 mm 0,0 UV-I 109 W/m -2,4 C 1,9 C 6,4 km/h (2 Bft) 100,00 %
15.02.2018 15:49 1,9 C 4,4 C 74 % 1020,5 hPa 0,0 l/m 5,4 km/h (1 Bft) O 101 0 min 0,000 mm 0,0 UV-I 108 W/m -2,2 C 1,9 C 9,7 km/h (2 Bft) 86,96 %
15.02.2018 15:50 1,9 C 4,4 C 74 % 1020,5 hPa 0,0 l/m 5,8 km/h (2 Bft) O 94 0 min 0,000 mm 0,0 UV-I 107 W/m -2,2 C 1,9 C 9,7 km/h (2 Bft) 100,00 %
15.02.2018 15:51 1,9 C 4,4 C 74 % 1020,6 hPa 0,0 l/m 5,2 km/h (1 Bft) O-NO 68 0 min 0,000 mm 0,0 UV-I 105 W/m -2,2 C 1,9 C 8,0 km/h (2 Bft) 94,12 %
15.02.2018 15:52 1,9 C 4,4 C 75 % 1020,5 hPa 0,0 l/m 6,9 km/h (2 Bft) O-NO 74 0 min 0,000 mm 0,0 UV-I 105 W/m -2,1 C 1,4 C 9,7 km/h (2 Bft) 96,30 %
15.02.2018 15:53 1,9 C 4,4 C 75 % 1020,6 hPa 0,0 l/m 7,5 km/h (2 Bft) O 85 0 min 0,000 mm 0,0 UV-I 103 W/m -2,1 C 0,8 C 11,3 km/h (2 Bft) 100,00 %
15.02.2018 15:54 1,9 C 4,4 C 74 % 1020,6 hPa 0,0 l/m 7,1 km/h (2 Bft) O-NO 71 0 min 0,000 mm 0,0 UV-I 101 W/m -2,2 C 1,2 C 9,7 km/h (2 Bft) 100,00 %
15.02.2018 15:55 1,9 C 4,4 C 74 % 1020,6 hPa 0,0 l/m 5,2 km/h (1 Bft) O-NO 67 0 min 0,000 mm 0,0 UV-I 99 W/m -2,2 C 1,9 C 6,4 km/h (2 Bft) 93,10 %
15.02.2018 15:56 1,9 C 4,4 C 74 % 1020,6 hPa 0,0 l/m 4,5 km/h (1 Bft) O 94 0 min 0,000 mm 0,0 UV-I 97 W/m -2,2 C 1,9 C 8,0 km/h (2 Bft) 95,83 %
15.02.2018 15:57 1,9 C 4,4 C 74 % 1020,6 hPa 0,0 l/m 5,0 km/h (1 Bft) O-NO 71 0 min 0,000 mm 0,0 UV-I 95 W/m -2,2 C 1,9 C 8,0 km/h (2 Bft) 100,00 %
15.02.2018 15:58 1,9 C 4,4 C 74 % 1020,6 hPa 0,0 l/m 6,9 km/h (2 Bft) O-NO 71 0 min 0,000 mm 0,0 UV-I 92 W/m -2,2 C 1,4 C 8,0 km/h (2 Bft) 86,67 %
15.02.2018 15:59 1,9 C 4,4 C 74 % 1020,6 hPa 0,0 l/m 6,2 km/h (2 Bft) O 85 0 min 0,000 mm 0,0 UV-I 90 W/m -2,2 C 1,9 C 8,0 km/h (2 Bft) 96,55 %
15.02.2018 16:00 1,9 C 4,4 C 74 % 1020,6 hPa 0,0 l/m 5,1 km/h (1 Bft) O-NO 69 0 min 0,000 mm 0,0 UV-I 89 W/m -2,2 C 1,9 C 6,4 km/h (2 Bft) 92,59 %
15.02.2018 16:01 1,9 C 4,4 C 75 % 1020,6 hPa 0,0 l/m 5,0 km/h (1 Bft) O 92 0 min 0,076 mm 0,0 UV-I 88 W/m -2,1 C 1,9 C 6,4 km/h (2 Bft) 100,00 %
15.02.2018 16:02 1,9 C 4,4 C 75 % 1020,6 hPa 0,0 l/m 4,2 km/h (1 Bft) O-NO 74 0 min 0,000 mm 0,0 UV-I 86 W/m -2,1 C 1,9 C 6,4 km/h (2 Bft) 97,14 %
15.02.2018 16:03 1,9 C 4,4 C 75 % 1020,6 hPa 0,0 l/m 6,1 km/h (2 Bft) O-NO 59 0 min 0,000 mm 0,0 UV-I 86 W/m -2,1 C 1,9 C 8,0 km/h (2 Bft) 100,00 %
15.02.2018 16:04 1,9 C 4,4 C 75 % 1020,7 hPa 0,0 l/m 4,9 km/h (1 Bft) O 86 0 min 0,000 mm 0,0 UV-I 84 W/m -2,1 C 1,9 C 6,4 km/h (2 Bft) 96,55 %
15.02.2018 16:05 1,9 C 4,4 C 75 % 1020,6 hPa 0,0 l/m 4,4 km/h (1 Bft) O 87 0 min 0,000 mm 0,0 UV-I 83 W/m -2,1 C 1,9 C 6,4 km/h (2 Bft) 100,00 %
15.02.2018 16:06 1,9 C 4,4 C 75 % 1020,7 hPa 0,0 l/m 5,6 km/h (1 Bft) O 91 0 min 0,000 mm 0,0 UV-I 80 W/m -2,1 C 1,9 C 9,7 km/h (2 Bft) 93,10 %
15.02.2018 16:07 1,9 C 4,4 C 75 % 1020,7 hPa 0,0 l/m 5,6 km/h (1 Bft) O 80 0 min 0,000 mm 0,0 UV-I 78 W/m -2,1 C 1,9 C 8,0 km/h (2 Bft) 95,83 %
15.02.2018 16:08 1,9 C 4,4 C 76 % 1020,7 hPa 0,0 l/m 4,8 km/h (1 Bft) O 95 0 min 0,000 mm 0,0 UV-I 76 W/m -1,9 C 1,9 C 6,4 km/h (2 Bft) 95,65 %
15.02.2018 16:09 1,9 C 4,4 C 76 % 1020,7 hPa 0,0 l/m 4,4 km/h (1 Bft) O 93 0 min 0,000 mm 0,0 UV-I 74 W/m -1,9 C 1,9 C 4,8 km/h (1 Bft) 92,59 %
15.02.2018 16:10 1,9 C 4,4 C 76 % 1020,8 hPa 0,0 l/m 4,0 km/h (1 Bft) O-SO 113 0 min 0,000 mm 0,0 UV-I 71 W/m -1,9 C 1,9 C 6,4 km/h (2 Bft) 100,00 %
15.02.2018 16:11 1,9 C 4,4 C 76 % 1020,7 hPa 0,0 l/m 4,6 km/h (1 Bft) O-SO 105 0 min 0,000 mm 0,0 UV-I 68 W/m -1,9 C 1,9 C 6,4 km/h (2 Bft) 95,83 %
15.02.2018 16:12 1,9 C 4,4 C 74 % 1020,8 hPa 0,0 l/m 5,2 km/h (1 Bft) O-SO 104 0 min 0,000 mm 0,0 UV-I 66 W/m -2,2 C 1,9 C 9,7 km/h (2 Bft) 100,00 %
15.02.2018 16:13 1,9 C 4,4 C 74 % 1020,8 hPa 0,0 l/m 4,5 km/h (1 Bft) O 94 0 min 0,000 mm 0,0 UV-I 63 W/m -2,2 C 1,9 C 9,7 km/h (2 Bft) 95,83 %
15.02.2018 16:14 1,9 C 4,4 C 74 % 1020,8 hPa 0,0 l/m 5,1 km/h (1 Bft) O 92 0 min 0,000 mm 0,0 UV-I 60 W/m -2,2 C 1,9 C 6,4 km/h (2 Bft) 100,00 %
15.02.2018 16:15 1,9 C 4,4 C 74 % 1020,8 hPa 0,0 l/m 4,4 km/h (1 Bft) O 91 0 min 0,000 mm 0,0 UV-I 56 W/m -2,2 C 1,9 C 6,4 km/h (2 Bft) 96,30 %
15.02.2018 16:16 1,9 C 4,4 C 75 % 1020,8 hPa 0,0 l/m 5,8 km/h (2 Bft) O-NO 60 0 min 0,000 mm 0,0 UV-I 54 W/m -2,1 C 1,9 C 6,4 km/h (2 Bft) 95,65 %
15.02.2018 16:17 1,9 C 4,4 C 74 % 1020,8 hPa 0,0 l/m 6,0 km/h (2 Bft) O 82 0 min 0,000 mm 0,0 UV-I 53 W/m -2,2 C 1,9 C 9,7 km/h (2 Bft) 100,00 %
15.02.2018 16:18 1,9 C 4,4 C 74 % 1020,9 hPa 0,0 l/m 5,0 km/h (1 Bft) O 80 0 min 0,000 mm 0,0 UV-I 52 W/m -2,2 C 1,9 C 6,4 km/h (2 Bft) 95,65 %
15.02.2018 16:19 1,9 C 4,4 C 75 % 1020,8 hPa 0,0 l/m 4,8 km/h (1 Bft) O 98 0 min 0,000 mm 0,0 UV-I 51 W/m -2,1 C 1,9 C 6,4 km/h (2 Bft) 100,00 %
15.02.2018 16:20 1,9 C 4,4 C 74 % 1020,8 hPa 0,0 l/m 4,6 km/h (1 Bft) O 88 0 min 0,000 mm 0,0 UV-I 51 W/m -2,2 C 1,9 C 6,4 km/h (2 Bft) 100,00 %
15.02.2018 16:21 1,9 C 4,4 C 74 % 1020,9 hPa 0,0 l/m 3,8 km/h (1 Bft) O 88 0 min 0,000 mm 0,0 UV-I 51 W/m -2,2 C 1,9 C 4,8 km/h (1 Bft) 91,67 %
15.02.2018 16:22 1,9 C 4,4 C 75 % 1020,9 hPa 0,0 l/m 2,5 km/h (1 Bft) O 88 0 min 0,000 mm 0,0 UV-I 51 W/m -2,1 C 1,9 C 3,2 km/h (1 Bft) 100,00 %
15.02.2018 16:23 1,9 C 4,4 C 75 % 1020,9 hPa 0,0 l/m 1,9 km/h (1 Bft) O 88 0 min 0,000 mm 0,0 UV-I 51 W/m -2,1 C 1,9 C 4,8 km/h (1 Bft) 100,00 %
15.02.2018 16:24 1,8 C 4,4 C 75 % 1020,9 hPa 0,0 l/m 2,7 km/h (1 Bft) O 88 0 min 0,000 mm 0,0 UV-I 51 W/m -2,1 C 1,8 C 4,8 km/h (1 Bft) 100,00 %
15.02.2018 16:25 1,8 C 4,4 C 75 % 1020,8 hPa 0,0 l/m 3,0 km/h (1 Bft) O 83 0 min 0,000 mm 0,0 UV-I 52 W/m -2,1 C 1,8 C 4,8 km/h (1 Bft) 100,00 %
15.02.2018 16:26 1,8 C 4,4 C 76 % 1020,8 hPa 0,0 l/m 4,5 km/h (1 Bft) O 80 0 min 0,000 mm 0,0 UV-I 53 W/m -2,0 C 1,8 C 6,4 km/h (2 Bft) 100,00 %
15.02.2018 16:27 1,8 C 4,4 C 77 % 1020,8 hPa 0,0 l/m 3,3 km/h (1 Bft) O 80 0 min 0,000 mm 0,0 UV-I 53 W/m -1,8 C 1,8 C 4,8 km/h (1 Bft) 100,00 %
15.02.2018 16:28 1,8 C 4,4 C 77 % 1020,8 hPa 0,0 l/m 2,7 km/h (1 Bft) O 82 0 min 0,000 mm 0,0 UV-I 52 W/m -1,8 C 1,8 C 4,8 km/h (1 Bft) 100,00 %
15.02.2018 16:29 1,7 C 4,4 C 77 % 1020,9 hPa 0,0 l/m 2,6 km/h (1 Bft) O 82 0 min 0,000 mm 0,0 UV-I 51 W/m -1,9 C 1,7 C 4,8 km/h (1 Bft) 95,65 %
15.02.2018 16:30 1,7 C 4,4 C 77 % 1020,8 hPa 0,0 l/m 3,6 km/h (1 Bft) O 82 0 min 0,000 mm 0,0 UV-I 50 W/m -1,9 C 1,7 C 4,8 km/h (1 Bft) 100,00 %
15.02.2018 16:31 1,7 C 4,4 C 76 % 1020,9 hPa 0,0 l/m 3,1 km/h (1 Bft) O 82 0 min 0,000 mm 0,0 UV-I 47 W/m -2,1 C 1,7 C 4,8 km/h (1 Bft) 100,00 %
15.02.2018 16:32 1,8 C 4,4 C 76 % 1020,9 hPa 0,0 l/m 3,6 km/h (1 Bft) O 82 0 min 0,000 mm 0,0 UV-I 44 W/m -2,0 C 1,8 C 4,8 km/h (1 Bft) 100,00 %
15.02.2018 16:33 1,8 C 4,4 C 76 % 1020,9 hPa 0,0 l/m 3,3 km/h (1 Bft) O 82 0 min 0,000 mm 0,0 UV-I 42 W/m -2,0 C 1,8 C 4,8 km/h (1 Bft) 100,00 %
15.02.2018 16:34 1,8 C 4,4 C 76 % 1020,9 hPa 0,0 l/m 2,6 km/h (1 Bft) O 82 0 min 0,000 mm 0,0 UV-I 40 W/m -2,0 C 1,8 C 3,2 km/h (1 Bft) 100,00 %
15.02.2018 16:35 1,8 C 4,4 C 75 % 1020,9 hPa 0,0 l/m 2,5 km/h (1 Bft) O 82 0 min 0,000 mm 0,0 UV-I 39 W/m -2,1 C 1,8 C 3,2 km/h (1 Bft) 100,00 %
15.02.2018 16:36 1,8 C 4,4 C 77 % 1020,9 hPa 0,0 l/m 2,5 km/h (1 Bft) O 82 0 min 0,000 mm 0,0 UV-I 38 W/m -1,8 C 1,8 C 3,2 km/h (1 Bft) 100,00 %
15.02.2018 16:37 1,8 C 4,4 C 78 % 1020,9 hPa 0,0 l/m 2,5 km/h (1 Bft) O 82 0 min 0,000 mm 0,0 UV-I 37 W/m -1,6 C 1,8 C 3,2 km/h (1 Bft) 100,00 %
15.02.2018 16:38 1,8 C 4,4 C 77 % 1020,9 hPa 0,0 l/m 2,6 km/h (1 Bft) O 82 0 min 0,000 mm 0,0 UV-I 35 W/m -1,8 C 1,8 C 3,2 km/h (1 Bft) 96,15 %
15.02.2018 16:39 1,8 C 4,4 C 76 % 1020,9 hPa 0,0 l/m 2,8 km/h (1 Bft) O 82 0 min 0,000 mm 0,0 UV-I 35 W/m -2,0 C 1,8 C 4,8 km/h (1 Bft) 100,00 %
15.02.2018 16:40 1,8 C 4,4 C 76 % 1020,9 hPa 0,0 l/m 2,9 km/h (1 Bft) O 82 0 min 0,000 mm 0,0 UV-I 34 W/m -2,0 C 1,8 C 4,8 km/h (1 Bft) 96,55 %
15.02.2018 16:41 1,8 C 4,4 C 76 % 1020,8 hPa 0,0 l/m 2,8 km/h (1 Bft) O 82 0 min 0,000 mm 0,0 UV-I 33 W/m -2,0 C 1,8 C 3,2 km/h (1 Bft) 95,83 %
15.02.2018 16:42 1,8 C 4,4 C 76 % 1020,9 hPa 0,0 l/m 3,3 km/h (1 Bft) O 82 0 min 0,000 mm 0,0 UV-I 33 W/m -2,0 C 1,8 C 4,8 km/h (1 Bft) 95,65 %
15.02.2018 16:43 1,8 C 4,4 C 77 % 1020,9 hPa 0,0 l/m 1,9 km/h (1 Bft) O 82 0 min 0,000 mm 0,0 UV-I 32 W/m -1,8 C 1,8 C 4,8 km/h (1 Bft) 100,00 %
15.02.2018 16:44 1,8 C 4,4 C 77 % 1020,9 hPa 0,0 l/m 1,6 km/h (1 Bft) O 82 0 min 0,000 mm 0,0 UV-I 32 W/m -1,8 C 1,8 C 3,2 km/h (1 Bft) 96,15 %
15.02.2018 16:45 1,8 C 4,4 C 77 % 1020,9 hPa 0,0 l/m 2,0 km/h (1 Bft) O 82 0 min 0,000 mm 0,0 UV-I 30 W/m -1,8 C 1,8 C 3,2 km/h (1 Bft) 96,30 %
15.02.2018 16:46 1,8 C 4,4 C 77 % 1020,9 hPa 0,0 l/m 1,7 km/h (1 Bft) O 82 0 min 0,000 mm 0,0 UV-I 29 W/m -1,8 C 1,8 C 3,2 km/h (1 Bft) 100,00 %
15.02.2018 16:47 1,8 C 4,4 C 77 % 1020,9 hPa 0,0 l/m 2,7 km/h (1 Bft) O 82 0 min 0,000 mm 0,0 UV-I 28 W/m -1,8 C 1,8 C 4,8 km/h (1 Bft) 95,83 %
15.02.2018 16:48 1,8 C 4,4 C 77 % 1020,9 hPa 0,0 l/m 1,9 km/h (1 Bft) O 82 0 min 0,000 mm 0,0 UV-I 26 W/m -1,8 C 1,8 C 3,2 km/h (1 Bft) 100,00 %
15.02.2018 16:49 1,8 C 4,4 C 77 % 1020,9 hPa 0,0 l/m 1,9 km/h (1 Bft) O 82 0 min 0,000 mm 0,0 UV-I 26 W/m -1,8 C 1,8 C 3,2 km/h (1 Bft) 96,30 %
15.02.2018 16:50 1,8 C 4,4 C 77 % 1020,9 hPa 0,0 l/m 2,1 km/h (1 Bft) O 82 0 min 0,000 mm 0,0 UV-I 25 W/m -1,8 C 1,8 C 3,2 km/h (1 Bft) 100,00 %
15.02.2018 16:51 1,8 C 4,4 C 77 % 1020,9 hPa 0,0 l/m 1,3 km/h (1 Bft) O 82 0 min 0,000 mm 0,0 UV-I 24 W/m -1,8 C 1,8 C 3,2 km/h (1 Bft) 95,83 %
15.02.2018 16:52 1,7 C 4,4 C 77 % 1020,9 hPa 0,0 l/m 0,5 km/h (0 Bft) O 82 0 min 0,000 mm 0,0 UV-I 22 W/m -1,9 C 1,7 C 3,2 km/h (1 Bft) 100,00 %
15.02.2018 16:53 1,7 C 4,4 C 78 % 1020,9 hPa 0,0 l/m 2,2 km/h (1 Bft) O 82 0 min 0,000 mm 0,0 UV-I 21 W/m -1,7 C 1,7 C 3,2 km/h (1 Bft) 96,15 %
15.02.2018 16:54 1,7 C 4,4 C 77 % 1020,9 hPa 0,0 l/m 0,7 km/h (0 Bft) O 82 0 min 0,000 mm 0,0 UV-I 20 W/m -1,9 C 1,7 C 1,6 km/h (1 Bft) 95,65 %
15.02.2018 16:55 1,7 C 4,4 C 76 % 1021,0 hPa 0,0 l/m 0,0 km/h (0 Bft) O 82 0 min 0,000 mm 0,0 UV-I 19 W/m -2,1 C 1,7 C 0,0 km/h (0 Bft) 100,00 %
15.02.2018 16:56 1,7 C 4,4 C 76 % 1021,0 hPa 0,0 l/m 0,0 km/h (0 Bft) O 82 0 min 0,000 mm 0,0 UV-I 19 W/m -2,1 C 1,7 C 0,0 km/h (0 Bft) 95,83 %
15.02.2018 16:57 1,7 C 4,4 C 76 % 1021,0 hPa 0,0 l/m 0,0 km/h (0 Bft) O 82 0 min 0,000 mm 0,0 UV-I 18 W/m -2,1 C 1,7 C 0,0 km/h (0 Bft) 100,00 %
15.02.2018 16:58 1,7 C 4,4 C 76 % 1021,0 hPa 0,0 l/m 0,0 km/h (0 Bft) O 82 0 min 0,000 mm 0,0 UV-I 18 W/m -2,1 C 1,7 C 0,0 km/h (0 Bft) 91,67 %
15.02.2018 16:59 1,7 C 4,4 C 76 % 1021,1 hPa 0,0 l/m 0,0 km/h (0 Bft) O 82 0 min 0,000 mm 0,0 UV-I 17 W/m -2,1 C 1,7 C 0,0 km/h (0 Bft) 100,00 %
15.02.2018 17:00 1,7 C 4,4 C 76 % 1021,1 hPa 0,0 l/m 0,0 km/h (0 Bft) O 82 0 min 0,000 mm 0,0 UV-I 16 W/m -2,1 C 1,7 C 0,0 km/h (0 Bft) 95,83 %
15.02.2018 17:01 1,7 C 4,4 C 76 % 1021,1 hPa 0,0 l/m 0,0 km/h (0 Bft) O 82 0 min 0,026 mm 0,0 UV-I 16 W/m -2,1 C 1,7 C 0,0 km/h (0 Bft) 91,30 %
15.02.2018 17:02 1,7 C 4,4 C 76 % 1021,1 hPa 0,0 l/m 0,0 km/h (0 Bft) O 82 0 min 0,000 mm 0,0 UV-I 14 W/m -2,1 C 1,7 C 0,0 km/h (0 Bft) 100,00 %
15.02.2018 17:03 1,7 C 4,4 C 77 % 1021,1 hPa 0,0 l/m 0,0 km/h (0 Bft) O 82 0 min 0,000 mm 0,0 UV-I 14 W/m -1,9 C 1,7 C 0,0 km/h (0 Bft) 95,65 %
15.02.2018 17:04 1,7 C 4,4 C 77 % 1021,1 hPa 0,0 l/m 0,0 km/h (0 Bft) O 82 0 min 0,000 mm 0,0 UV-I 14 W/m -1,9 C 1,7 C 0,0 km/h (0 Bft) 100,00 %
15.02.2018 17:05 1,7 C 4,4 C 77 % 1021,1 hPa 0,0 l/m 0,0 km/h (0 Bft) O 82 0 min 0,000 mm 0,0 UV-I 13 W/m -1,9 C 1,7 C 0,0 km/h (0 Bft) 91,30 %
15.02.2018 17:06 1,7 C 4,4 C 76 % 1021,1 hPa 0,0 l/m 0,0 km/h (0 Bft) O 82 0 min 0,000 mm 0,0 UV-I 12 W/m -2,1 C 1,7 C 0,0 km/h (0 Bft) 100,00 %
15.02.2018 17:07 1,7 C 4,4 C 76 % 1021,2 hPa 0,0 l/m 0,0 km/h (0 Bft) O 82 0 min 0,000 mm 0,0 UV-I 12 W/m -2,1 C 1,7 C 0,0 km/h (0 Bft) 95,65 %
15.02.2018 17:08 1,7 C 4,4 C 76 % 1021,2 hPa 0,0 l/m 0,0 km/h (0 Bft) O 82 0 min 0,000 mm 0,0 UV-I 12 W/m -2,1 C 1,7 C 0,0 km/h (0 Bft) 100,00 %
15.02.2018 17:09 1,7 C 4,4 C 76 % 1021,2 hPa 0,0 l/m 0,0 km/h (0 Bft) O 82 0 min 0,000 mm 0,0 UV-I 12 W/m -2,1 C 1,7 C 0,0 km/h (0 Bft) 95,65 %
15.02.2018 17:10 1,7 C 4,4 C 76 % 1021,3 hPa 0,0 l/m 0,0 km/h (0 Bft) O 82 0 min 0,000 mm 0,0 UV-I 11 W/m -2,1 C 1,7 C 0,0 km/h (0 Bft) 96,30 %
15.02.2018 17:11 1,7 C 4,4 C 76 % 1021,3 hPa 0,0 l/m 0,0 km/h (0 Bft) O 82 0 min 0,000 mm 0,0 UV-I 11 W/m -2,1 C 1,7 C 0,0 km/h (0 Bft) 100,00 %
15.02.2018 17:12 1,7 C 4,4 C 76 % 1021,3 hPa 0,0 l/m 0,0 km/h (0 Bft) O 82 0 min 0,000 mm 0,0 UV-I 11 W/m -2,1 C 1,7 C 0,0 km/h (0 Bft) 95,83 %
15.02.2018 17:13 1,7 C 4,4 C 76 % 1021,3 hPa 0,0 l/m 0,0 km/h (0 Bft) O 82 0 min 0,000 mm 0,0 UV-I 9 W/m -2,1 C 1,7 C 0,0 km/h (0 Bft) 100,00 %
15.02.2018 17:14 1,6 C 4,4 C 76 % 1021,3 hPa 0,0 l/m 0,8 km/h (0 Bft) O 82 0 min 0,000 mm 0,0 UV-I 9 W/m -2,2 C 1,6 C 1,6 km/h (1 Bft) 100,00 %
15.02.2018 17:15 1,6 C 4,4 C 77 % 1021,3 hPa 0,0 l/m 1,5 km/h (1 Bft) O 82 0 min 0,000 mm 0,0 UV-I 9 W/m -2,0 C 1,6 C 1,6 km/h (1 Bft) 100,00 %
15.02.2018 17:16 1,6 C 4,4 C 77 % 1021,3 hPa 0,0 l/m 1,0 km/h (0 Bft) O 82 0 min 0,000 mm 0,0 UV-I 9 W/m -2,0 C 1,6 C 1,6 km/h (1 Bft) 100,00 %
15.02.2018 17:17 1,6 C 4,4 C 77 % 1021,3 hPa 0,0 l/m 0,8 km/h (0 Bft) O 82 0 min 0,000 mm 0,0 UV-I 8 W/m -2,0 C 1,6 C 1,6 km/h (1 Bft) 100,00 %
15.02.2018 17:18 1,6 C 4,4 C 77 % 1021,3 hPa 0,0 l/m 0,8 km/h (0 Bft) O 82 0 min 0,000 mm 0,0 UV-I 7 W/m -2,0 C 1,6 C 1,6 km/h (1 Bft) 100,00 %
15.02.2018 17:19 1,6 C 4,4 C 77 % 1021,3 hPa 0,0 l/m 0,0 km/h (0 Bft) O 82 0 min 0,000 mm 0,0 UV-I 7 W/m -2,0 C 1,6 C 0,0 km/h (0 Bft) 100,00 %
15.02.2018 17:20 1,6 C 4,4 C 77 % 1021,3 hPa 0,0 l/m 0,0 km/h (0 Bft) O 82 0 min 0,000 mm 0,0 UV-I 6 W/m -2,0 C 1,6 C 0,0 km/h (0 Bft) 100,00 %
15.02.2018 17:21 1,6 C 4,4 C 77 % 1021,3 hPa 0,0 l/m 0,0 km/h (0 Bft) O 82 0 min 0,000 mm 0,0 UV-I 5 W/m -2,0 C 1,6 C 0,0 km/h (0 Bft) 95,83 %
15.02.2018 17:22 1,6 C 4,4 C 77 % 1021,3 hPa 0,0 l/m 1,2 km/h (1 Bft) O 82 0 min 0,000 mm 0,0 UV-I 5 W/m -2,0 C 1,6 C 3,2 km/h (1 Bft) 100,00 %
15.02.2018 17:23 1,6 C 4,4 C 77 % 1021,4 hPa 0,0 l/m 1,7 km/h (1 Bft) O 82 0 min 0,000 mm 0,0 UV-I 5 W/m -2,0 C 1,6 C 3,2 km/h (1 Bft) 100,00 %
15.02.2018 17:24 1,6 C 4,4 C 77 % 1021,4 hPa 0,0 l/m 1,9 km/h (1 Bft) O 82 0 min 0,000 mm 0,0 UV-I 5 W/m -2,0 C 1,6 C 3,2 km/h (1 Bft) 95,65 %
15.02.2018 17:25 1,6 C 4,4 C 77 % 1021,4 hPa 0,0 l/m 1,6 km/h (1 Bft) O 82 0 min 0,000 mm 0,0 UV-I 5 W/m -2,0 C 1,6 C 1,6 km/h (1 Bft) 100,00 %
15.02.2018 17:26 1,6 C 4,4 C 78 % 1021,4 hPa 0,0 l/m 1,5 km/h (1 Bft) O 82 0 min 0,000 mm 0,0 UV-I 5 W/m -1,8 C 1,6 C 1,6 km/h (1 Bft) 100,00 %
15.02.2018 17:27 1,6 C 4,4 C 78 % 1021,4 hPa 0,0 l/m 1,2 km/h (1 Bft) O 82 0 min 0,000 mm 0,0 UV-I 5 W/m -1,8 C 1,6 C 1,6 km/h (1 Bft) 100,00 %
15.02.2018 17:28 1,6 C 4,4 C 78 % 1021,3 hPa 0,0 l/m 1,3 km/h (1 Bft) O 82 0 min 0,000 mm 0,0 UV-I 2 W/m -1,8 C 1,6 C 1,6 km/h (1 Bft) 100,00 %
15.02.2018 17:29 1,5 C 4,4 C 79 % 1021,3 hPa 0,0 l/m 2,0 km/h (1 Bft) O 82 0 min 0,000 mm 0,0 UV-I 0 W/m -1,7 C 1,5 C 3,2 km/h (1 Bft) 91,67 %
15.02.2018 17:30 1,4 C 4,4 C 79 % 1021,4 hPa 0,0 l/m 1,9 km/h (1 Bft) O 82 0 min 0,000 mm 0,0 UV-I 0 W/m -1,8 C 1,4 C 3,2 km/h (1 Bft) 100,00 %
15.02.2018 17:31 1,4 C 4,4 C 79 % 1021,3 hPa 0,0 l/m 1,7 km/h (1 Bft) O 82 0 min 0,000 mm 0,0 UV-I 0 W/m -1,8 C 1,4 C 3,2 km/h (1 Bft) 100,00 %
15.02.2018 17:32 1,4 C 4,4 C 79 % 1021,4 hPa 0,0 l/m 1,7 km/h (1 Bft) O 82 0 min 0,000 mm 0,0 UV-I 0 W/m -1,8 C 1,4 C 3,2 km/h (1 Bft) 100,00 %
15.02.2018 17:33 1,3 C 4,4 C 80 % 1021,3 hPa 0,0 l/m 0,9 km/h (0 Bft) O 82 0 min 0,000 mm 0,0 UV-I 0 W/m -1,8 C 1,3 C 1,6 km/h (1 Bft) 100,00 %
15.02.2018 17:34 1,2 C 4,4 C 81 % 1021,3 hPa 0,0 l/m 0,0 km/h (0 Bft) O 82 0 min 0,000 mm 0,0 UV-I 0 W/m -1,7 C 1,2 C 0,0 km/h (0 Bft) 95,65 %
15.02.2018 17:35 1,1 C 4,4 C 82 % 1021,3 hPa 0,0 l/m 0,0 km/h (0 Bft) O 82 0 min 0,000 mm 0,0 UV-I 0 W/m -1,6 C 1,1 C 0,0 km/h (0 Bft) 100,00 %
15.02.2018 17:36 1,1 C 4,4 C 82 % 1021,3 hPa 0,0 l/m 0,0 km/h (0 Bft) O 82 0 min 0,000 mm 0,0 UV-I 0 W/m -1,6 C 1,1 C 0,0 km/h (0 Bft) 95,83 %
15.02.2018 17:37 1,0 C 4,4 C 82 % 1021,4 hPa 0,0 l/m 0,0 km/h (0 Bft) O 82 0 min 0,000 mm 0,0 UV-I 0 W/m -1,7 C 1,0 C 0,0 km/h (0 Bft) 100,00 %
15.02.2018 17:38 1,0 C 4,4 C 82 % 1021,4 hPa 0,0 l/m 0,0 km/h (0 Bft) O 82 0 min 0,000 mm 0,0 UV-I 0 W/m -1,7 C 1,0 C 0,0 km/h (0 Bft) 100,00 %
15.02.2018 17:39 0,9 C 4,4 C 82 % 1021,3 hPa 0,0 l/m 0,1 km/h (0 Bft) O 82 0 min 0,000 mm 0,0 UV-I 0 W/m -1,8 C 0,9 C 1,6 km/h (1 Bft) 100,00 %
15.02.2018 17:40 0,9 C 4,4 C 82 % 1021,4 hPa 0,0 l/m 1,1 km/h (1 Bft) O 82 0 min 0,000 mm 0,0 UV-I 0 W/m -1,8 C 0,9 C 1,6 km/h (1 Bft) 100,00 %
15.02.2018 17:41 1,0 C 4,4 C 83 % 1021,4 hPa 0,0 l/m 1,7 km/h (1 Bft) O 82 0 min 0,000 mm 0,0 UV-I 0 W/m -1,6 C 1,0 C 3,2 km/h (1 Bft) 100,00 %
15.02.2018 17:42 0,9 C 4,4 C 82 % 1021,4 hPa 0,0 l/m 1,0 km/h (0 Bft) O 82 0 min 0,000 mm 0,0 UV-I 0 W/m -1,8 C 0,9 C 3,2 km/h (1 Bft) 100,00 %
15.02.2018 17:43 0,9 C 4,4 C 82 % 1021,4 hPa 0,0 l/m 0,3 km/h (0 Bft) O 82 0 min 0,000 mm 0,0 UV-I 0 W/m -1,8 C 0,9 C 1,6 km/h (1 Bft) 100,00 %
15.02.2018 17:44 0,9 C 4,4 C 82 % 1021,4 hPa 0,0 l/m 0,0 km/h (0 Bft) O 82 0 min 0,000 mm 0,0 UV-I 0 W/m -1,8 C 0,9 C 0,0 km/h (0 Bft) 100,00 %
15.02.2018 17:45 0,9 C 4,4 C 83 % 1021,4 hPa 0,0 l/m 0,2 km/h (0 Bft) O 82 0 min 0,000 mm 0,0 UV-I 0 W/m -1,7 C 0,9 C 1,6 km/h (1 Bft) 96,55 %
15.02.2018 17:46 0,8 C 4,4 C 84 % 1021,4 hPa 0,0 l/m 0,3 km/h (0 Bft) O 82 0 min 0,000 mm 0,0 UV-I 0 W/m -1,6 C 0,8 C 1,6 km/h (1 Bft) 95,83 %
15.02.2018 17:47 0,8 C 4,4 C 84 % 1021,4 hPa 0,0 l/m 0,3 km/h (0 Bft) O 82 0 min 0,000 mm 0,0 UV-I 0 W/m -1,6 C 0,8 C 1,6 km/h (1 Bft) 100,00 %
15.02.2018 17:48 0,8 C 4,4 C 84 % 1021,5 hPa 0,0 l/m 0,0 km/h (0 Bft) O 82 0 min 0,000 mm 0,0 UV-I 0 W/m -1,6 C 0,8 C 0,0 km/h (0 Bft) 100,00 %
15.02.2018 17:49 0,8 C 4,4 C 83 % 1021,4 hPa 0,0 l/m 0,0 km/h (0 Bft) O 82 0 min 0,000 mm 0,0 UV-I 0 W/m -1,8 C 0,8 C 0,0 km/h (0 Bft) 100,00 %
15.02.2018 17:50 0,8 C 4,4 C 83 % 1021,4 hPa 0,0 l/m 0,0 km/h (0 Bft) O 82 0 min 0,000 mm 0,0 UV-I 0 W/m -1,8 C 0,8 C 0,0 km/h (0 Bft) 100,00 %
15.02.2018 17:51 0,8 C 4,4 C 82 % 1021,4 hPa 0,0 l/m 0,0 km/h (0 Bft) O 82 0 min 0,000 mm 0,0 UV-I 0 W/m -1,9 C 0,8 C 0,0 km/h (0 Bft) 100,00 %
15.02.2018 17:52 0,9 C 4,4 C 82 % 1021,4 hPa 0,0 l/m 0,0 km/h (0 Bft) O 82 0 min 0,000 mm 0,0 UV-I 0 W/m -1,8 C 0,9 C 0,0 km/h (0 Bft) 100,00 %
15.02.2018 17:53 0,9 C 4,4 C 82 % 1021,4 hPa 0,0 l/m 0,0 km/h (0 Bft) O 82 0 min 0,000 mm 0,0 UV-I 0 W/m -1,8 C 0,9 C 0,0 km/h (0 Bft) 100,00 %
15.02.2018 17:54 1,0 C 4,4 C 82 % 1021,4 hPa 0,0 l/m 0,1 km/h (0 Bft) O 82 0 min 0,000 mm 0,0 UV-I 0 W/m -1,7 C 1,0 C 1,6 km/h (1 Bft) 100,00 %
15.02.2018 17:55 1,1 C 4,4 C 82 % 1021,4 hPa 0,0 l/m 1,8 km/h (1 Bft) O 82 0 min 0,000 mm 0,0 UV-I 0 W/m -1,6 C 1,1 C 3,2 km/h (1 Bft) 100,00 %
15.02.2018 17:56 1,1 C 4,4 C 80 % 1021,4 hPa 0,0 l/m 1,7 km/h (1 Bft) O 82 0 min 0,000 mm 0,0 UV-I 0 W/m -2,0 C 1,1 C 3,2 km/h (1 Bft) 100,00 %
15.02.2018 17:57 1,1 C 4,4 C 80 % 1021,4 hPa 0,0 l/m 1,1 km/h (1 Bft) O 82 0 min 0,000 mm 0,0 UV-I 0 W/m -2,0 C 1,1 C 1,6 km/h (1 Bft) 100,00 %
15.02.2018 17:58 1,1 C 4,4 C 81 % 1021,4 hPa 0,0 l/m 1,7 km/h (1 Bft) O 82 0 min 0,000 mm 0,0 UV-I 0 W/m -1,8 C 1,1 C 3,2 km/h (1 Bft) 100,00 %
15.02.2018 17:59 1,0 C 4,4 C 81 % 1021,5 hPa 0,0 l/m 1,9 km/h (1 Bft) O 82 0 min 0,000 mm 0,0 UV-I 0 W/m -1,9 C 1,0 C 3,2 km/h (1 Bft) 100,00 %
15.02.2018 18:00 0,9 C 4,4 C 82 % 1021,4 hPa 0,0 l/m 1,9 km/h (1 Bft) O 82 0 min 0,000 mm 0,0 UV-I 0 W/m -1,8 C 0,9 C 3,2 km/h (1 Bft) 100,00 %
15.02.2018 18:01 0,9 C 4,4 C 82 % 1021,5 hPa 0,0 l/m 1,9 km/h (1 Bft) O 82 0 min 0,000 mm 0,0 UV-I 0 W/m -1,8 C 0,9 C 3,2 km/h (1 Bft) 100,00 %
15.02.2018 18:03 0,8 C 4,4 C 83 % 1021,5 hPa 0,0 l/m 1,8 km/h (1 Bft) O 82 0 min 0,000 mm 0,0 UV-I 0 W/m -1,8 C 0,8 C 3,2 km/h (1 Bft) 100,00 %
15.02.2018 18:04 0,8 C 4,4 C 83 % 1021,5 hPa 0,0 l/m 1,6 km/h (1 Bft) O 82 0 min 0,000 mm 0,0 UV-I 0 W/m -1,8 C 0,8 C 1,6 km/h (1 Bft) 100,00 %
15.02.2018 18:05 0,8 C 4,4 C 83 % 1021,6 hPa 0,0 l/m 1,6 km/h (1 Bft) O 82 0 min 0,000 mm 0,0 UV-I 0 W/m -1,8 C 0,8 C 1,6 km/h (1 Bft) 100,00 %
15.02.2018 18:06 0,8 C 4,4 C 83 % 1021,6 hPa 0,0 l/m 2,1 km/h (1 Bft) O 82 0 min 0,000 mm 0,0 UV-I 0 W/m -1,8 C 0,8 C 3,2 km/h (1 Bft) 96,15 %
15.02.2018 18:07 0,8 C 4,4 C 83 % 1021,6 hPa 0,0 l/m 2,5 km/h (1 Bft) O 82 0 min 0,000 mm 0,0 UV-I 0 W/m -1,8 C 0,8 C 3,2 km/h (1 Bft) 100,00 %
15.02.2018 18:08 0,8 C 4,4 C 83 % 1021,6 hPa 0,0 l/m 2,6 km/h (1 Bft) O 82 0 min 0,000 mm 0,0 UV-I 0 W/m -1,8 C 0,8 C 3,2 km/h (1 Bft) 100,00 %
15.02.2018 18:09 0,9 C 4,4 C 83 % 1021,6 hPa 0,0 l/m 2,5 km/h (1 Bft) O 82 0 min 0,000 mm 0,0 UV-I 0 W/m -1,7 C 0,9 C 3,2 km/h (1 Bft) 100,00 %
15.02.2018 18:10 0,9 C 4,4 C 83 % 1021,7 hPa 0,0 l/m 2,6 km/h (1 Bft) O 82 0 min 0,000 mm 0,0 UV-I 0 W/m -1,7 C 0,9 C 3,2 km/h (1 Bft) 100,00 %
15.02.2018 18:11 0,9 C 4,4 C 83 % 1021,7 hPa 0,0 l/m 2,4 km/h (1 Bft) O 82 0 min 0,000 mm 0,0 UV-I 0 W/m -1,7 C 0,9 C 3,2 km/h (1 Bft) 95,83 %
15.02.2018 18:12 0,9 C 4,4 C 83 % 1021,7 hPa 0,0 l/m 2,3 km/h (1 Bft) O 82 0 min 0,000 mm 0,0 UV-I 0 W/m -1,7 C 0,9 C 3,2 km/h (1 Bft) 100,00 %
15.02.2018 18:13 0,9 C 4,4 C 84 % 1021,7 hPa 0,0 l/m 2,3 km/h (1 Bft) O 82 0 min 0,000 mm 0,0 UV-I 0 W/m -1,5 C 0,9 C 3,2 km/h (1 Bft) 100,00 %
15.02.2018 18:14 0,9 C 4,4 C 84 % 1021,7 hPa 0,0 l/m 2,7 km/h (1 Bft) O 82 0 min 0,000 mm 0,0 UV-I 0 W/m -1,5 C 0,9 C 3,2 km/h (1 Bft) 100,00 %
15.02.2018 18:15 0,8 C 4,4 C 84 % 1021,6 hPa 0,0 l/m 2,7 km/h (1 Bft) O 82 0 min 0,000 mm 0,0 UV-I 0 W/m -1,6 C 0,8 C 3,2 km/h (1 Bft) 100,00 %
15.02.2018 18:16 0,8 C 4,4 C 84 % 1021,7 hPa 0,0 l/m 1,0 km/h (0 Bft) O 82 0 min 0,000 mm 0,0 UV-I 0 W/m -1,6 C 0,8 C 1,6 km/h (1 Bft) 96,30 %
15.02.2018 18:17 0,8 C 4,4 C 84 % 1021,7 hPa 0,0 l/m 1,3 km/h (1 Bft) O 82 0 min 0,000 mm 0,0 UV-I 0 W/m -1,6 C 0,8 C 3,2 km/h (1 Bft) 100,00 %
15.02.2018 18:18 0,8 C 4,4 C 84 % 1021,7 hPa 0,0 l/m 1,5 km/h (1 Bft) O 82 0 min 0,000 mm 0,0 UV-I 0 W/m -1,6 C 0,8 C 1,6 km/h (1 Bft) 100,00 %
15.02.2018 18:19 0,8 C 4,4 C 84 % 1021,7 hPa 0,0 l/m 1,1 km/h (1 Bft) O 82 0 min 0,000 mm 0,0 UV-I 0 W/m -1,6 C 0,8 C 1,6 km/h (1 Bft) 100,00 %
15.02.2018 18:20 0,8 C 4,4 C 84 % 1021,7 hPa 0,0 l/m 1,4 km/h (1 Bft) O 82 0 min 0,000 mm 0,0 UV-I 0 W/m -1,6 C 0,8 C 3,2 km/h (1 Bft) 100,00 %
15.02.2018 18:21 0,8 C 4,4 C 84 % 1021,7 hPa 0,0 l/m 1,5 km/h (1 Bft) O 82 0 min 0,000 mm 0,0 UV-I 0 W/m -1,6 C 0,8 C 1,6 km/h (1 Bft) 97,00 %
15.02.2018 18:22 0,8 C 4,4 C 84 % 1021,7 hPa 0,0 l/m 1,4 km/h (1 Bft) O 82 0 min 0,000 mm 0,0 UV-I 0 W/m -1,6 C 0,8 C 1,6 km/h (1 Bft) 100,00 %
15.02.2018 18:23 0,8 C 4,4 C 84 % 1021,7 hPa 0,0 l/m 0,9 km/h (0 Bft) O 82 0 min 0,000 mm 0,0 UV-I 0 W/m -1,6 C 0,8 C 1,6 km/h (1 Bft) 96,15 %
15.02.2018 18:24 0,8 C 4,4 C 84 % 1021,7 hPa 0,0 l/m 0,9 km/h (0 Bft) O 82 0 min 0,000 mm 0,0 UV-I 0 W/m -1,6 C 0,8 C 1,6 km/h (1 Bft) 100,00 %
15.02.2018 18:25 0,8 C 4,4 C 84 % 1021,7 hPa 0,0 l/m 0,1 km/h (0 Bft) O 82 0 min 0,000 mm 0,0 UV-I 0 W/m -1,6 C 0,8 C 1,6 km/h (1 Bft) 96,15 %
15.02.2018 18:26 0,8 C 4,4 C 85 % 1021,8 hPa 0,0 l/m 0,0 km/h (0 Bft) O 82 0 min 0,000 mm 0,0 UV-I 0 W/m -1,4 C 0,8 C 0,0 km/h (0 Bft) 100,00 %
15.02.2018 18:27 0,8 C 4,4 C 85 % 1021,8 hPa 0,0 l/m 0,0 km/h (0 Bft) O 82 0 min 0,000 mm 0,0 UV-I 0 W/m -1,4 C 0,8 C 0,0 km/h (0 Bft) 100,00 %
15.02.2018 18:28 0,8 C 4,4 C 85 % 1021,8 hPa 0,0 l/m 1,0 km/h (0 Bft) O 82 0 min 0,000 mm 0,0 UV-I 0 W/m -1,4 C 0,8 C 1,6 km/h (1 Bft) 100,00 %
15.02.2018 18:29 0,8 C 4,4 C 85 % 1021,8 hPa 0,0 l/m 1,4 km/h (1 Bft) O 82 0 min 0,000 mm 0,0 UV-I 0 W/m -1,4 C 0,8 C 1,6 km/h (1 Bft) 95,65 %
15.02.2018 18:30 0,8 C 4,4 C 85 % 1021,8 hPa 0,0 l/m 1,0 km/h (0 Bft) O 82 0 min 0,000 mm 0,0 UV-I 0 W/m -1,4 C 0,8 C 1,6 km/h (1 Bft) 100,00 %
15.02.2018 18:31 0,8 C 4,4 C 85 % 1021,7 hPa 0,0 l/m 1,1 km/h (1 Bft) O 82 0 min 0,000 mm 0,0 UV-I 0 W/m -1,4 C 0,8 C 1,6 km/h (1 Bft) 100,00 %
15.02.2018 18:32 0,8 C 4,4 C 84 % 1021,7 hPa 0,0 l/m 1,5 km/h (1 Bft) O 82 0 min 0,000 mm 0,0 UV-I 0 W/m -1,6 C 0,8 C 1,6 km/h (1 Bft) 100,00 %
15.02.2018 18:33 0,8 C 4,4 C 84 % 1021,8 hPa 0,0 l/m 1,7 km/h (1 Bft) O 82 0 min 0,000 mm 0,0 UV-I 0 W/m -1,6 C 0,8 C 3,2 km/h (1 Bft) 100,00 %
15.02.2018 18:34 0,8 C 4,4 C 84 % 1021,8 hPa 0,0 l/m 1,4 km/h (1 Bft) O 82 0 min 0,000 mm 0,0 UV-I 0 W/m -1,6 C 0,8 C 1,6 km/h (1 Bft) 100,00 %
15.02.2018 18:35 0,8 C 4,4 C 84 % 1021,8 hPa 0,0 l/m 1,5 km/h (1 Bft) O 82 0 min 0,000 mm 0,0 UV-I 0 W/m -1,6 C 0,8 C 3,2 km/h (1 Bft) 100,00 %
15.02.2018 18:36 0,8 C 4,4 C 84 % 1021,8 hPa 0,0 l/m 1,6 km/h (1 Bft) O 82 0 min 0,000 mm 0,0 UV-I 0 W/m -1,6 C 0,8 C 3,2 km/h (1 Bft) 95,65 %
15.02.2018 18:37 0,8 C 4,4 C 84 % 1021,8 hPa 0,0 l/m 1,7 km/h (1 Bft) O 82 0 min 0,000 mm 0,0 UV-I 0 W/m -1,6 C 0,8 C 3,2 km/h (1 Bft) 100,00 %
15.02.2018 18:38 0,8 C 4,4 C 84 % 1021,8 hPa 0,0 l/m 1,6 km/h (1 Bft) O 82 0 min 0,000 mm 0,0 UV-I 0 W/m -1,6 C 0,8 C 3,2 km/h (1 Bft) 100,00 %
15.02.2018 18:39 0,8 C 4,4 C 84 % 1021,8 hPa 0,0 l/m 1,4 km/h (1 Bft) O 82 0 min 0,000 mm 0,0 UV-I 0 W/m -1,6 C 0,8 C 1,6 km/h (1 Bft) 100,00 %
15.02.2018 18:40 0,8 C 4,4 C 84 % 1021,8 hPa 0,0 l/m 1,3 km/h (1 Bft) O 82 0 min 0,000 mm 0,0 UV-I 0 W/m -1,6 C 0,8 C 1,6 km/h (1 Bft) 100,00 %
15.02.2018 18:41 0,8 C 4,4 C 84 % 1021,8 hPa 0,0 l/m 1,2 km/h (1 Bft) O 82 0 min 0,000 mm 0,0 UV-I 0 W/m -1,6 C 0,8 C 1,6 km/h (1 Bft) 95,83 %
15.02.2018 18:42 0,8 C 4,4 C 84 % 1021,8 hPa 0,0 l/m 1,3 km/h (1 Bft) O 82 0 min 0,000 mm 0,0 UV-I 0 W/m -1,6 C 0,8 C 1,6 km/h (1 Bft) 100,00 %
15.02.2018 18:43 0,8 C 4,4 C 84 % 1021,8 hPa 0,0 l/m 1,8 km/h (1 Bft) O 82 0 min 0,000 mm 0,0 UV-I 0 W/m -1,6 C 0,8 C 3,2 km/h (1 Bft) 100,00 %
15.02.2018 18:44 0,8 C 4,4 C 83 % 1021,7 hPa 0,0 l/m 2,1 km/h (1 Bft) O 82 0 min 0,000 mm 0,0 UV-I 0 W/m -1,8 C 0,8 C 3,2 km/h (1 Bft) 100,00 %
15.02.2018 18:45 0,8 C 4,4 C 83 % 1021,8 hPa 0,0 l/m 2,2 km/h (1 Bft) O 82 0 min 0,000 mm 0,0 UV-I 0 W/m -1,8 C 0,8 C 3,2 km/h (1 Bft) 100,00 %
15.02.2018 18:46 0,8 C 4,4 C 83 % 1021,8 hPa 0,0 l/m 2,0 km/h (1 Bft) O 82 0 min 0,000 mm 0,0 UV-I 0 W/m -1,8 C 0,8 C 3,2 km/h (1 Bft) 100,00 %
15.02.2018 18:47 0,8 C 4,4 C 83 % 1021,8 hPa 0,0 l/m 1,9 km/h (1 Bft) O 82 0 min 0,000 mm 0,0 UV-I 0 W/m -1,8 C 0,8 C 3,2 km/h (1 Bft) 100,00 %
15.02.2018 18:48 0,8 C 4,4 C 83 % 1021,8 hPa 0,0 l/m 1,9 km/h (1 Bft) O 82 0 min 0,000 mm 0,0 UV-I 0 W/m -1,8 C 0,8 C 3,2 km/h (1 Bft) 100,00 %
15.02.2018 18:49 0,8 C 4,4 C 83 % 1021,8 hPa 0,0 l/m 2,2 km/h (1 Bft) O 82 0 min 0,000 mm 0,0 UV-I 0 W/m -1,8 C 0,8 C 3,2 km/h (1 Bft) 100,00 %
15.02.2018 18:50 0,8 C 4,4 C 84 % 1021,8 hPa 0,0 l/m 2,4 km/h (1 Bft) O 82 0 min 0,000 mm 0,0 UV-I 0 W/m -1,6 C 0,8 C 3,2 km/h (1 Bft) 100,00 %
15.02.2018 18:51 0,8 C 4,4 C 84 % 1021,8 hPa 0,0 l/m 2,3 km/h (1 Bft) O 82 0 min 0,000 mm 0,0 UV-I 0 W/m -1,6 C 0,8 C 3,2 km/h (1 Bft) 100,00 %
15.02.2018 18:52 0,8 C 4,4 C 84 % 1021,8 hPa 0,0 l/m 2,1 km/h (1 Bft) O 82 0 min 0,000 mm 0,0 UV-I 0 W/m -1,6 C 0,8 C 3,2 km/h (1 Bft) 100,00 %
15.02.2018 18:53 0,8 C 4,4 C 85 % 1021,9 hPa 0,0 l/m 1,4 km/h (1 Bft) O 82 0 min 0,000 mm 0,0 UV-I 0 W/m -1,4 C 0,8 C 1,6 km/h (1 Bft) 95,65 %
15.02.2018 18:54 0,8 C 4,4 C 85 % 1021,9 hPa 0,0 l/m 1,8 km/h (1 Bft) O 82 0 min 0,000 mm 0,0 UV-I 0 W/m -1,4 C 0,8 C 3,2 km/h (1 Bft) 96,30 %
15.02.2018 18:55 0,8 C 4,4 C 85 % 1021,9 hPa 0,0 l/m 1,4 km/h (1 Bft) O 82 0 min 0,000 mm 0,0 UV-I 0 W/m -1,4 C 0,8 C 1,6 km/h (1 Bft) 100,00 %
15.02.2018 18:56 0,8 C 4,4 C 85 % 1021,9 hPa 0,0 l/m 1,1 km/h (1 Bft) O 82 0 min 0,000 mm 0,0 UV-I 0 W/m -1,4 C 0,8 C 1,6 km/h (1 Bft) 93,33 %
15.02.2018 18:57 0,8 C 4,4 C 85 % 1021,9 hPa 0,0 l/m 0,7 km/h (0 Bft) O 82 0 min 0,000 mm 0,0 UV-I 0 W/m -1,4 C 0,8 C 1,6 km/h (1 Bft) 95,65 %
15.02.2018 18:58 0,8 C 4,4 C 84 % 1021,9 hPa 0,0 l/m 0,6 km/h (0 Bft) O 82 0 min 0,000 mm 0,0 UV-I 0 W/m -1,6 C 0,8 C 1,6 km/h (1 Bft) 96,30 %
15.02.2018 18:59 0,8 C 4,4 C 84 % 1021,9 hPa 0,0 l/m 1,6 km/h (1 Bft) O 82 0 min 0,000 mm 0,0 UV-I 0 W/m -1,6 C 0,8 C 1,6 km/h (1 Bft) 100,00 %
15.02.2018 19:00 0,8 C 4,4 C 84 % 1021,9 hPa 0,0 l/m 2,0 km/h (1 Bft) O 82 0 min 0,000 mm 0,0 UV-I 0 W/m -1,6 C 0,8 C 3,2 km/h (1 Bft) 86,67 %
15.02.2018 19:01 0,8 C 4,4 C 85 % 1021,9 hPa 0,0 l/m 1,8 km/h (1 Bft) O 82 0 min 0,000 mm 0,0 UV-I 0 W/m -1,4 C 0,8 C 3,2 km/h (1 Bft) 96,88 %
15.02.2018 19:02 0,8 C 4,4 C 84 % 1021,9 hPa 0,0 l/m 2,5 km/h (1 Bft) O 82 0 min 0,000 mm 0,0 UV-I 0 W/m -1,6 C 0,8 C 3,2 km/h (1 Bft) 95,83 %
15.02.2018 19:03 0,7 C 4,4 C 85 % 1021,9 hPa 0,0 l/m 2,5 km/h (1 Bft) O 82 0 min 0,000 mm 0,0 UV-I 0 W/m -1,5 C 0,7 C 3,2 km/h (1 Bft) 96,15 %
15.02.2018 19:04 0,7 C 4,4 C 85 % 1021,8 hPa 0,0 l/m 3,3 km/h (1 Bft) SO 127 0 min 0,000 mm 0,0 UV-I 0 W/m -1,5 C 0,7 C 4,8 km/h (1 Bft) 100,00 %
15.02.2018 19:05 0,7 C 4,4 C 85 % 1021,8 hPa 0,0 l/m 2,7 km/h (1 Bft) SO 127 0 min 0,000 mm 0,0 UV-I 0 W/m -1,5 C 0,7 C 3,2 km/h (1 Bft) 95,65 %
15.02.2018 19:06 0,6 C 4,4 C 85 % 1021,9 hPa 0,0 l/m 1,2 km/h (1 Bft) SO 127 0 min 0,000 mm 0,0 UV-I 0 W/m -1,6 C 0,6 C 1,6 km/h (1 Bft) 100,00 %
15.02.2018 19:07 0,6 C 4,4 C 86 % 1021,9 hPa 0,0 l/m 2,0 km/h (1 Bft) SO 127 0 min 0,000 mm 0,0 UV-I 0 W/m -1,5 C 0,6 C 3,2 km/h (1 Bft) 96,15 %
15.02.2018 19:08 0,5 C 4,4 C 87 % 1021,9 hPa 0,0 l/m 1,7 km/h (1 Bft) SO 127 0 min 0,000 mm 0,0 UV-I 0 W/m -1,4 C 0,5 C 3,2 km/h (1 Bft) 100,00 %
15.02.2018 19:09 0,4 C 4,4 C 87 % 1021,9 hPa 0,0 l/m 1,9 km/h (1 Bft) SO 127 0 min 0,000 mm 0,0 UV-I 0 W/m -1,5 C 0,4 C 3,2 km/h (1 Bft) 94,12 %
15.02.2018 19:10 0,4 C 4,4 C 88 % 1021,8 hPa 0,0 l/m 1,5 km/h (1 Bft) SO 127 0 min 0,000 mm 0,0 UV-I 0 W/m -1,3 C 0,4 C 1,6 km/h (1 Bft) 100,00 %
15.02.2018 19:11 0,4 C 4,4 C 88 % 1021,8 hPa 0,0 l/m 0,6 km/h (0 Bft) SO 127 0 min 0,000 mm 0,0 UV-I 0 W/m -1,3 C 0,4 C 1,6 km/h (1 Bft) 95,83 %
15.02.2018 19:12 0,3 C 4,4 C 88 % 1021,8 hPa 0,0 l/m 0,8 km/h (0 Bft) SO 127 0 min 0,000 mm 0,0 UV-I 0 W/m -1,4 C 0,3 C 1,6 km/h (1 Bft) 100,00 %
15.02.2018 19:13 0,3 C 4,4 C 88 % 1021,9 hPa 0,0 l/m 1,9 km/h (1 Bft) SO 127 0 min 0,000 mm 0,0 UV-I 0 W/m -1,4 C 0,3 C 3,2 km/h (1 Bft) 96,30 %
15.02.2018 19:14 0,3 C 4,4 C 89 % 1021,9 hPa 0,0 l/m 2,0 km/h (1 Bft) SO 127 0 min 0,000 mm 0,0 UV-I 0 W/m -1,3 C 0,3 C 3,2 km/h (1 Bft) 91,30 %
15.02.2018 19:15 0,3 C 4,4 C 89 % 1021,9 hPa 0,0 l/m 2,1 km/h (1 Bft) SO 127 0 min 0,000 mm 0,0 UV-I 0 W/m -1,3 C 0,3 C 3,2 km/h (1 Bft) 100,00 %
15.02.2018 19:16 0,2 C 4,4 C 89 % 1021,9 hPa 0,0 l/m 2,7 km/h (1 Bft) SO 127 0 min 0,000 mm 0,0 UV-I 0 W/m -1,4 C 0,2 C 3,2 km/h (1 Bft) 96,15 %
15.02.2018 19:17 0,2 C 4,4 C 89 % 1021,8 hPa 0,0 l/m 2,2 km/h (1 Bft) SO 127 0 min 0,000 mm 0,0 UV-I 0 W/m -1,4 C 0,2 C 3,2 km/h (1 Bft) 100,00 %
15.02.2018 19:18 0,2 C 4,4 C 90 % 1021,8 hPa 0,0 l/m 2,7 km/h (1 Bft) SO 127 0 min 0,000 mm 0,0 UV-I 0 W/m -1,2 C 0,2 C 3,2 km/h (1 Bft) 85,71 %
15.02.2018 19:19 0,2 C 4,4 C 90 % 1021,9 hPa 0,0 l/m 2,1 km/h (1 Bft) SO 127 0 min 0,000 mm 0,0 UV-I 0 W/m -1,2 C 0,2 C 3,2 km/h (1 Bft) 96,30 %
15.02.2018 19:20 0,2 C 4,4 C 90 % 1021,8 hPa 0,0 l/m 2,9 km/h (1 Bft) SO 127 0 min 0,000 mm 0,0 UV-I 0 W/m -1,2 C 0,2 C 4,8 km/h (1 Bft) 96,15 %
15.02.2018 19:21 0,2 C 4,4 C 90 % 1021,8 hPa 0,0 l/m 2,7 km/h (1 Bft) S-SO 163 0 min 0,000 mm 0,0 UV-I 0 W/m -1,2 C 0,2 C 3,2 km/h (1 Bft) 95,83 %
15.02.2018 19:22 0,2 C 4,4 C 90 % 1021,8 hPa 0,0 l/m 1,3 km/h (1 Bft) S-SO 163 0 min 0,000 mm 0,0 UV-I 0 W/m -1,2 C 0,2 C 3,2 km/h (1 Bft) 100,00 %
15.02.2018 19:23 0,2 C 4,4 C 90 % 1021,8 hPa 0,0 l/m 2,2 km/h (1 Bft) S-SO 163 0 min 0,000 mm 0,0 UV-I 0 W/m -1,2 C 0,2 C 3,2 km/h (1 Bft) 95,83 %
15.02.2018 19:24 0,2 C 4,4 C 90 % 1021,8 hPa 0,0 l/m 2,6 km/h (1 Bft) S-SO 163 0 min 0,000 mm 0,0 UV-I 0 W/m -1,2 C 0,2 C 3,2 km/h (1 Bft) 100,00 %
15.02.2018 19:25 0,2 C 4,4 C 90 % 1021,8 hPa 0,0 l/m 2,0 km/h (1 Bft) S-SO 163 0 min 0,000 mm 0,0 UV-I 0 W/m -1,2 C 0,2 C 3,2 km/h (1 Bft) 93,33 %
15.02.2018 19:26 0,2 C 4,4 C 91 % 1021,8 hPa 0,0 l/m 2,1 km/h (1 Bft) S-SO 163 0 min 0,000 mm 0,0 UV-I 0 W/m -1,1 C 0,2 C 3,2 km/h (1 Bft) 100,00 %
15.02.2018 19:27 0,2 C 4,4 C 91 % 1021,9 hPa 0,0 l/m 3,0 km/h (1 Bft) S-SO 163 0 min 0,000 mm 0,0 UV-I 0 W/m -1,1 C 0,2 C 6,4 km/h (2 Bft) 95,83 %
15.02.2018 19:28 0,2 C 4,4 C 91 % 1021,9 hPa 0,0 l/m 3,0 km/h (1 Bft) S-SO 163 0 min 0,000 mm 0,0 UV-I 0 W/m -1,1 C 0,2 C 6,4 km/h (2 Bft) 100,00 %
15.02.2018 19:29 0,2 C 4,4 C 91 % 1021,9 hPa 0,0 l/m 3,0 km/h (1 Bft) S-SO 163 0 min 0,000 mm 0,0 UV-I 0 W/m -1,1 C 0,2 C 6,4 km/h (2 Bft) 95,83 %
15.02.2018 19:30 0,2 C 4,4 C 91 % 1021,8 hPa 0,0 l/m 4,0 km/h (1 Bft) S-SO 163 0 min 0,000 mm 0,0 UV-I 0 W/m -1,1 C 0,2 C 6,4 km/h (2 Bft) 95,65 %
15.02.2018 19:31 0,2 C 4,4 C 91 % 1021,9 hPa 0,0 l/m 2,2 km/h (1 Bft) S-SO 163 0 min 0,000 mm 0,0 UV-I 0 W/m -1,1 C 0,2 C 3,2 km/h (1 Bft) 92,59 %
15.02.2018 19:32 0,1 C 4,4 C 91 % 1021,9 hPa 0,0 l/m 2,9 km/h (1 Bft) S-SO 163 0 min 0,000 mm 0,0 UV-I 0 W/m -1,2 C 0,1 C 3,2 km/h (1 Bft) 100,00 %
15.02.2018 19:33 0,1 C 4,4 C 91 % 1021,9 hPa 0,0 l/m 1,9 km/h (1 Bft) S-SO 163 0 min 0,000 mm 0,0 UV-I 0 W/m -1,2 C 0,1 C 3,2 km/h (1 Bft) 100,00 %
15.02.2018 19:34 0,1 C 4,4 C 91 % 1021,9 hPa 0,0 l/m 1,2 km/h (1 Bft) S-SO 163 0 min 0,000 mm 0,0 UV-I 0 W/m -1,2 C 0,1 C 1,6 km/h (1 Bft) 100,00 %
15.02.2018 19:35 0,1 C 4,4 C 92 % 1021,8 hPa 0,0 l/m 1,9 km/h (1 Bft) S-SO 163 0 min 0,000 mm 0,0 UV-I 0 W/m -1,0 C 0,1 C 3,2 km/h (1 Bft) 100,00 %
15.02.2018 19:36 0,0 C 4,4 C 92 % 1021,8 hPa 0,0 l/m 2,4 km/h (1 Bft) S-SO 163 0 min 0,000 mm 0,0 UV-I 0 W/m -1,1 C 0,0 C 3,2 km/h (1 Bft) 95,83 %
15.02.2018 19:37 0,1 C 4,4 C 92 % 1021,9 hPa 0,0 l/m 3,0 km/h (1 Bft) S-SO 163 0 min 0,000 mm 0,0 UV-I 0 W/m -1,0 C 0,1 C 6,4 km/h (2 Bft) 100,00 %
15.02.2018 19:38 0,0 C 4,4 C 92 % 1021,9 hPa 0,0 l/m 2,4 km/h (1 Bft) S-SO 163 0 min 0,000 mm 0,0 UV-I 0 W/m -1,1 C 0,0 C 3,2 km/h (1 Bft) 100,00 %
15.02.2018 19:39 0,0 C 4,4 C 92 % 1021,9 hPa 0,0 l/m 1,8 km/h (1 Bft) S-SO 163 0 min 0,000 mm 0,0 UV-I 0 W/m -1,1 C 0,0 C 3,2 km/h (1 Bft) 100,00 %
15.02.2018 19:40 0,0 C 4,4 C 92 % 1021,9 hPa 0,0 l/m 2,6 km/h (1 Bft) S-SO 163 0 min 0,000 mm 0,0 UV-I 0 W/m -1,1 C 0,0 C 3,2 km/h (1 Bft) 100,00 %
15.02.2018 19:41 -0,1 C 4,4 C 92 % 1021,9 hPa 0,0 l/m 2,3 km/h (1 Bft) S-SO 163 0 min 0,000 mm 0,0 UV-I 0 W/m -1,2 C -0,1 C 3,2 km/h (1 Bft) 100,00 %
15.02.2018 19:42 -0,1 C 4,4 C 93 % 1021,9 hPa 0,0 l/m 1,6 km/h (1 Bft) S-SO 163 0 min 0,000 mm 0,0 UV-I 0 W/m -1,1 C -0,1 C 3,2 km/h (1 Bft) 100,00 %
15.02.2018 19:43 -0,1 C 4,4 C 93 % 1021,9 hPa 0,0 l/m 1,5 km/h (1 Bft) S-SO 163 0 min 0,000 mm 0,0 UV-I 0 W/m -1,1 C -0,1 C 3,2 km/h (1 Bft) 100,00 %
15.02.2018 19:44 -0,1 C 4,4 C 93 % 1021,9 hPa 0,0 l/m 1,8 km/h (1 Bft) S-SO 163 0 min 0,000 mm 0,0 UV-I 0 W/m -1,1 C -0,1 C 3,2 km/h (1 Bft) 100,00 %
15.02.2018 19:45 -0,1 C 4,4 C 93 % 1021,9 hPa 0,0 l/m 1,9 km/h (1 Bft) S-SO 163 0 min 0,000 mm 0,0 UV-I 0 W/m -1,1 C -0,1 C 3,2 km/h (1 Bft) 100,00 %
15.02.2018 19:46 -0,1 C 4,4 C 93 % 1021,9 hPa 0,0 l/m 1,7 km/h (1 Bft) S-SO 163 0 min 0,000 mm 0,0 UV-I 0 W/m -1,1 C -0,1 C 3,2 km/h (1 Bft) 100,00 %
15.02.2018 19:47 -0,1 C 4,4 C 93 % 1021,9 hPa 0,0 l/m 1,2 km/h (1 Bft) S-SO 163 0 min 0,000 mm 0,0 UV-I 0 W/m -1,1 C -0,1 C 3,2 km/h (1 Bft) 100,00 %
15.02.2018 19:48 -0,1 C 4,4 C 93 % 1022,0 hPa 0,0 l/m 1,4 km/h (1 Bft) S-SO 163 0 min 0,000 mm 0,0 UV-I 0 W/m -1,1 C -0,1 C 3,2 km/h (1 Bft) 100,00 %
15.02.2018 19:49 -0,2 C 4,4 C 93 % 1021,9 hPa 0,0 l/m 2,6 km/h (1 Bft) S-SO 163 0 min 0,000 mm 0,0 UV-I 0 W/m -1,2 C -0,2 C 3,2 km/h (1 Bft) 92,31 %
15.02.2018 19:50 -0,2 C 4,4 C 93 % 1021,9 hPa 0,0 l/m 1,9 km/h (1 Bft) S-SO 163 0 min 0,000 mm 0,0 UV-I 0 W/m -1,2 C -0,2 C 3,2 km/h (1 Bft) 100,00 %
15.02.2018 19:51 -0,2 C 4,4 C 93 % 1022,0 hPa 0,0 l/m 2,5 km/h (1 Bft) S-SO 163 0 min 0,000 mm 0,0 UV-I 0 W/m -1,2 C -0,2 C 3,2 km/h (1 Bft) 92,59 %
15.02.2018 19:52 -0,2 C 4,4 C 93 % 1021,9 hPa 0,0 l/m 1,3 km/h (1 Bft) S-SO 163 0 min 0,000 mm 0,0 UV-I 0 W/m -1,2 C -0,2 C 3,2 km/h (1 Bft) 92,31 %
15.02.2018 19:53 -0,2 C 4,4 C 93 % 1021,9 hPa 0,0 l/m 1,9 km/h (1 Bft) S-SO 163 0 min 0,000 mm 0,0 UV-I 0 W/m -1,2 C -0,2 C 3,2 km/h (1 Bft) 100,00 %
15.02.2018 19:54 -0,2 C 4,4 C 93 % 1021,9 hPa 0,0 l/m 1,9 km/h (1 Bft) S-SO 163 0 min 0,000 mm 0,0 UV-I 0 W/m -1,2 C -0,2 C 3,2 km/h (1 Bft) 95,65 %
15.02.2018 19:55 -0,2 C 4,4 C 93 % 1021,9 hPa 0,0 l/m 1,9 km/h (1 Bft) S-SO 163 0 min 0,000 mm 0,0 UV-I 0 W/m -1,2 C -0,2 C 3,2 km/h (1 Bft) 100,00 %
15.02.2018 19:56 -0,2 C 4,4 C 93 % 1021,9 hPa 0,0 l/m 2,1 km/h (1 Bft) S-SO 163 0 min 0,000 mm 0,0 UV-I 0 W/m -1,2 C -0,2 C 3,2 km/h (1 Bft) 93,33 %
15.02.2018 19:57 -0,2 C 4,4 C 93 % 1021,9 hPa 0,0 l/m 2,4 km/h (1 Bft) S-SO 163 0 min 0,000 mm 0,0 UV-I 0 W/m -1,2 C -0,2 C 3,2 km/h (1 Bft) 100,00 %
15.02.2018 19:58 -0,2 C 4,4 C 94 % 1021,9 hPa 0,0 l/m 1,9 km/h (1 Bft) S-SO 163 0 min 0,000 mm 0,0 UV-I 0 W/m -1,0 C -0,2 C 3,2 km/h (1 Bft) 95,65 %
15.02.2018 19:59 -0,2 C 4,4 C 94 % 1021,9 hPa 0,0 l/m 1,4 km/h (1 Bft) S-SO 163 0 min 0,000 mm 0,0 UV-I 0 W/m -1,0 C -0,2 C 3,2 km/h (1 Bft) 100,00 %
15.02.2018 20:00 -0,2 C 4,4 C 94 % 1021,9 hPa 0,0 l/m 2,5 km/h (1 Bft) S-SO 163 0 min 0,000 mm 0,0 UV-I 0 W/m -1,0 C -0,2 C 3,2 km/h (1 Bft) 95,65 %
15.02.2018 20:01 -0,2 C 4,4 C 94 % 1021,9 hPa 0,0 l/m 3,1 km/h (1 Bft) S-SO 163 0 min 0,000 mm 0,0 UV-I 0 W/m -1,0 C -0,2 C 6,4 km/h (2 Bft) 100,00 %
15.02.2018 20:02 -0,2 C 4,4 C 94 % 1021,9 hPa 0,0 l/m 3,6 km/h (1 Bft) S-SO 163 0 min 0,000 mm 0,0 UV-I 0 W/m -1,0 C -0,2 C 6,4 km/h (2 Bft) 91,30 %
15.02.2018 20:03 -0,2 C 4,4 C 94 % 1021,9 hPa 0,0 l/m 2,1 km/h (1 Bft) S-SO 163 0 min 0,000 mm 0,0 UV-I 0 W/m -1,0 C -0,2 C 3,2 km/h (1 Bft) 96,67 %
15.02.2018 20:04 -0,2 C 4,4 C 94 % 1021,9 hPa 0,0 l/m 1,9 km/h (1 Bft) S-SO 163 0 min 0,000 mm 0,0 UV-I 0 W/m -1,0 C -0,2 C 3,2 km/h (1 Bft) 100,00 %
15.02.2018 20:05 -0,2 C 4,4 C 94 % 1021,9 hPa 0,0 l/m 2,1 km/h (1 Bft) S-SO 163 0 min 0,000 mm 0,0 UV-I 0 W/m -1,0 C -0,2 C 3,2 km/h (1 Bft) 95,83 %
15.02.2018 20:06 -0,2 C 4,4 C 94 % 1021,9 hPa 0,0 l/m 1,9 km/h (1 Bft) S-SO 163 0 min 0,000 mm 0,0 UV-I 0 W/m -1,0 C -0,2 C 3,2 km/h (1 Bft) 95,65 %
15.02.2018 20:07 -0,2 C 4,4 C 94 % 1021,9 hPa 0,0 l/m 2,3 km/h (1 Bft) S-SO 163 0 min 0,000 mm 0,0 UV-I 0 W/m -1,0 C -0,2 C 3,2 km/h (1 Bft) 95,83 %
15.02.2018 20:08 -0,2 C 4,4 C 94 % 1021,8 hPa 0,0 l/m 2,5 km/h (1 Bft) S-SO 163 0 min 0,000 mm 0,0 UV-I 0 W/m -1,0 C -0,2 C 3,2 km/h (1 Bft) 100,00 %
15.02.2018 20:09 -0,2 C 4,4 C 94 % 1021,9 hPa 0,0 l/m 2,1 km/h (1 Bft) S-SO 163 0 min 0,000 mm 0,0 UV-I 0 W/m -1,0 C -0,2 C 3,2 km/h (1 Bft) 91,67 %
15.02.2018 20:10 -0,2 C 4,4 C 94 % 1021,9 hPa 0,0 l/m 2,6 km/h (1 Bft) S-SO 163 0 min 0,000 mm 0,0 UV-I 0 W/m -1,0 C -0,2 C 3,2 km/h (1 Bft) 100,00 %
15.02.2018 20:11 -0,2 C 4,4 C 94 % 1021,9 hPa 0,0 l/m 2,4 km/h (1 Bft) S-SO 163 0 min 0,000 mm 0,0 UV-I 0 W/m -1,0 C -0,2 C 3,2 km/h (1 Bft) 95,65 %
15.02.2018 20:13 -0,2 C 4,4 C 94 % 1021,9 hPa 0,0 l/m 2,2 km/h (1 Bft) S-SO 163 0 min 0,000 mm 0,0 UV-I 0 W/m -1,0 C -0,2 C 6,4 km/h (2 Bft) 98,21 %
15.02.2018 20:14 -0,2 C 4,4 C 94 % 1021,9 hPa 0,0 l/m 1,8 km/h (1 Bft) S-SO 163 0 min 0,000 mm 0,0 UV-I 0 W/m -1,0 C -0,2 C 3,2 km/h (1 Bft) 95,83 %
15.02.2018 20:15 -0,2 C 4,4 C 94 % 1021,9 hPa 0,0 l/m 1,7 km/h (1 Bft) S-SO 163 0 min 0,000 mm 0,0 UV-I 0 W/m -1,0 C -0,2 C 3,2 km/h (1 Bft) 100,00 %
15.02.2018 20:16 -0,2 C 4,4 C 94 % 1021,9 hPa 0,0 l/m 2,5 km/h (1 Bft) S-SO 163 0 min 0,000 mm 0,0 UV-I 0 W/m -1,0 C -0,2 C 3,2 km/h (1 Bft) 93,33 %
15.02.2018 20:17 -0,2 C 4,4 C 94 % 1021,9 hPa 0,0 l/m 2,7 km/h (1 Bft) S-SO 163 0 min 0,000 mm 0,0 UV-I 0 W/m -1,0 C -0,2 C 3,2 km/h (1 Bft) 100,00 %
15.02.2018 20:18 -0,2 C 4,4 C 94 % 1021,9 hPa 0,0 l/m 1,5 km/h (1 Bft) S-SO 163 0 min 0,000 mm 0,0 UV-I 0 W/m -1,0 C -0,2 C 3,2 km/h (1 Bft) 95,83 %
15.02.2018 20:19 -0,2 C 4,4 C 94 % 1021,9 hPa 0,0 l/m 0,9 km/h (0 Bft) S-SO 163 0 min 0,000 mm 0,0 UV-I 0 W/m -1,0 C -0,2 C 3,2 km/h (1 Bft) 95,65 %
15.02.2018 20:20 -0,2 C 4,4 C 94 % 1021,9 hPa 0,0 l/m 1,4 km/h (1 Bft) S-SO 163 0 min 0,000 mm 0,0 UV-I 0 W/m -1,0 C -0,2 C 3,2 km/h (1 Bft) 87,50 %
15.02.2018 20:21 -0,2 C 4,4 C 94 % 1021,9 hPa 0,0 l/m 2,4 km/h (1 Bft) S-SO 163 0 min 0,000 mm 0,0 UV-I 0 W/m -1,0 C -0,2 C 3,2 km/h (1 Bft) 95,65 %
15.02.2018 20:22 -0,2 C 4,4 C 94 % 1021,8 hPa 0,0 l/m 2,9 km/h (1 Bft) S-SO 163 0 min 0,000 mm 0,0 UV-I 0 W/m -1,0 C -0,2 C 3,2 km/h (1 Bft) 92,59 %
15.02.2018 20:23 -0,2 C 4,4 C 94 % 1021,9 hPa 0,0 l/m 2,2 km/h (1 Bft) S-SO 163 0 min 0,000 mm 0,0 UV-I 0 W/m -1,0 C -0,2 C 3,2 km/h (1 Bft) 96,15 %
15.02.2018 20:24 -0,2 C 4,4 C 95 % 1021,9 hPa 0,0 l/m 2,4 km/h (1 Bft) S-SO 163 0 min 0,000 mm 0,0 UV-I 0 W/m -0,9 C -0,2 C 3,2 km/h (1 Bft) 100,00 %
15.02.2018 20:25 -0,2 C 4,4 C 95 % 1021,8 hPa 0,0 l/m 2,4 km/h (1 Bft) S-SO 163 0 min 0,000 mm 0,0 UV-I 0 W/m -0,9 C -0,2 C 3,2 km/h (1 Bft) 95,65 %
15.02.2018 20:26 -0,2 C 4,4 C 95 % 1021,8 hPa 0,0 l/m 1,7 km/h (1 Bft) S-SO 163 0 min 0,000 mm 0,0 UV-I 0 W/m -0,9 C -0,2 C 3,2 km/h (1 Bft) 100,00 %
15.02.2018 20:27 -0,2 C 4,4 C 95 % 1021,9 hPa 0,0 l/m 1,8 km/h (1 Bft) S-SO 163 0 min 0,000 mm 0,0 UV-I 0 W/m -0,9 C -0,2 C 3,2 km/h (1 Bft) 94,12 %
15.02.2018 20:28 -0,2 C 4,4 C 95 % 1021,9 hPa 0,0 l/m 1,2 km/h (1 Bft) S-SO 163 0 min 0,000 mm 0,0 UV-I 0 W/m -0,9 C -0,2 C 1,6 km/h (1 Bft) 95,83 %
15.02.2018 20:29 -0,2 C 4,4 C 95 % 1021,9 hPa 0,0 l/m 1,5 km/h (1 Bft) S-SO 163 0 min 0,000 mm 0,0 UV-I 0 W/m -0,9 C -0,2 C 3,2 km/h (1 Bft) 95,83 %
15.02.2018 20:30 -0,2 C 4,4 C 95 % 1021,9 hPa 0,0 l/m 1,8 km/h (1 Bft) S-SO 163 0 min 0,000 mm 0,0 UV-I 0 W/m -0,9 C -0,2 C 3,2 km/h (1 Bft) 100,00 %
15.02.2018 20:31 -0,2 C 4,4 C 95 % 1021,9 hPa 0,0 l/m 1,9 km/h (1 Bft) S-SO 163 0 min 0,000 mm 0,0 UV-I 0 W/m -0,9 C -0,2 C 3,2 km/h (1 Bft) 93,33 %
15.02.2018 20:32 -0,2 C 4,4 C 95 % 1021,9 hPa 0,0 l/m 0,6 km/h (0 Bft) S-SO 163 0 min 0,000 mm 0,0 UV-I 0 W/m -0,9 C -0,2 C 1,6 km/h (1 Bft) 100,00 %
15.02.2018 20:33 -0,2 C 4,4 C 95 % 1021,9 hPa 0,0 l/m 0,0 km/h (0 Bft) S-SO 163 0 min 0,000 mm 0,0 UV-I 0 W/m -0,9 C -0,2 C 0,0 km/h (0 Bft) 95,83 %
15.02.2018 20:34 -0,2 C 4,4 C 95 % 1021,9 hPa 0,0 l/m 0,1 km/h (0 Bft) S-SO 163 0 min 0,000 mm 0,0 UV-I 0 W/m -0,9 C -0,2 C 1,6 km/h (1 Bft) 100,00 %
15.02.2018 20:35 -0,2 C 4,4 C 95 % 1021,9 hPa 0,0 l/m 0,1 km/h (0 Bft) S-SO 163 0 min 0,000 mm 0,0 UV-I 0 W/m -0,9 C -0,2 C 1,6 km/h (1 Bft) 91,67 %
15.02.2018 20:36 -0,2 C 4,4 C 95 % 1021,9 hPa 0,0 l/m 0,0 km/h (0 Bft) S-SO 163 0 min 0,000 mm 0,0 UV-I 0 W/m -0,9 C -0,2 C 0,0 km/h (0 Bft) 95,65 %
15.02.2018 20:37 -0,2 C 4,4 C 95 % 1021,9 hPa 0,0 l/m 0,0 km/h (0 Bft) S-SO 163 0 min 0,000 mm 0,0 UV-I 0 W/m -0,9 C -0,2 C 0,0 km/h (0 Bft) 100,00 %
15.02.2018 20:38 -0,2 C 4,4 C 95 % 1021,9 hPa 0,0 l/m 0,0 km/h (0 Bft) S-SO 163 0 min 0,000 mm 0,0 UV-I 0 W/m -0,9 C -0,2 C 0,0 km/h (0 Bft) 95,65 %
15.02.2018 20:39 -0,2 C 4,4 C 95 % 1021,9 hPa 0,0 l/m 0,0 km/h (0 Bft) S-SO 163 0 min 0,000 mm 0,0 UV-I 0 W/m -0,9 C -0,2 C 0,0 km/h (0 Bft) 100,00 %
15.02.2018 20:40 -0,2 C 4,4 C 95 % 1021,9 hPa 0,0 l/m 0,0 km/h (0 Bft) S-SO 163 0 min 0,000 mm 0,0 UV-I 0 W/m -0,9 C -0,2 C 0,0 km/h (0 Bft) 71,43 %
15.02.2018 20:41 -0,1 C 4,4 C 95 % 1021,9 hPa 0,0 l/m 0,0 km/h (0 Bft) S-SO 163 0 min 0,000 mm 0,0 UV-I 0 W/m -0,8 C -0,1 C 0,0 km/h (0 Bft) 95,83 %
15.02.2018 20:42 -0,1 C 4,4 C 95 % 1021,9 hPa 0,0 l/m 0,0 km/h (0 Bft) S-SO 163 0 min 0,000 mm 0,0 UV-I 0 W/m -0,8 C -0,1 C 0,0 km/h (0 Bft) 91,30 %
15.02.2018 20:43 -0,1 C 4,4 C 95 % 1022,0 hPa 0,0 l/m 0,0 km/h (0 Bft) S-SO 163 0 min 0,000 mm 0,0 UV-I 0 W/m -0,8 C -0,1 C 0,0 km/h (0 Bft) 100,00 %
15.02.2018 20:44 -0,1 C 4,4 C 95 % 1022,0 hPa 0,0 l/m 0,0 km/h (0 Bft) S-SO 163 0 min 0,000 mm 0,0 UV-I 0 W/m -0,8 C -0,1 C 0,0 km/h (0 Bft) 95,83 %
15.02.2018 20:45 -0,1 C 4,4 C 95 % 1022,0 hPa 0,0 l/m 0,0 km/h (0 Bft) S-SO 163 0 min 0,000 mm 0,0 UV-I 0 W/m -0,8 C -0,1 C 0,0 km/h (0 Bft) 100,00 %
15.02.2018 20:46 -0,1 C 4,4 C 95 % 1021,9 hPa 0,0 l/m 0,0 km/h (0 Bft) S-SO 163 0 min 0,000 mm 0,0 UV-I 0 W/m -0,8 C -0,1 C 0,0 km/h (0 Bft) 91,67 %
15.02.2018 20:47 -0,1 C 4,4 C 95 % 1021,9 hPa 0,0 l/m 0,0 km/h (0 Bft) S-SO 163 0 min 0,000 mm 0,0 UV-I 0 W/m -0,8 C -0,1 C 0,0 km/h (0 Bft) 88,46 %
15.02.2018 20:48 -0,1 C 4,4 C 95 % 1021,9 hPa 0,0 l/m 0,0 km/h (0 Bft) S-SO 163 0 min 0,000 mm 0,0 UV-I 0 W/m -0,8 C -0,1 C 0,0 km/h (0 Bft) 100,00 %
15.02.2018 20:49 -0,1 C 4,4 C 95 % 1021,9 hPa 0,0 l/m 0,0 km/h (0 Bft) S-SO 163 0 min 0,000 mm 0,0 UV-I 0 W/m -0,8 C -0,1 C 0,0 km/h (0 Bft) 95,65 %
15.02.2018 20:50 -0,2 C 4,4 C 95 % 1021,9 hPa 0,0 l/m 0,0 km/h (0 Bft) S-SO 163 0 min 0,000 mm 0,0 UV-I 0 W/m -0,9 C -0,2 C 0,0 km/h (0 Bft) 96,30 %
15.02.2018 20:51 -0,2 C 4,4 C 95 % 1021,9 hPa 0,0 l/m 0,0 km/h (0 Bft) S-SO 163 0 min 0,000 mm 0,0 UV-I 0 W/m -0,9 C -0,2 C 0,0 km/h (0 Bft) 96,15 %
15.02.2018 20:53 -0,2 C 4,4 C 95 % 1022,0 hPa 0,0 l/m 0,0 km/h (0 Bft) S-SO 163 0 min 0,000 mm 0,0 UV-I 0 W/m -0,9 C -0,2 C 0,0 km/h (0 Bft) 98,00 %
15.02.2018 20:54 -0,2 C 4,4 C 95 % 1022,0 hPa 0,0 l/m 0,0 km/h (0 Bft) S-SO 163 0 min 0,000 mm 0,0 UV-I 0 W/m -0,9 C -0,2 C 0,0 km/h (0 Bft) 100,00 %
15.02.2018 20:55 -0,1 C 4,4 C 95 % 1021,9 hPa 0,0 l/m 0,0 km/h (0 Bft) S-SO 163 0 min 0,000 mm 0,0 UV-I 0 W/m -0,8 C -0,1 C 0,0 km/h (0 Bft) 95,65 %
15.02.2018 20:56 -0,1 C 4,4 C 96 % 1021,9 hPa 0,0 l/m 0,0 km/h (0 Bft) S-SO 163 0 min 0,000 mm 0,0 UV-I 0 W/m -0,7 C -0,1 C 0,0 km/h (0 Bft) 100,00 %
15.02.2018 20:57 -0,1 C 4,4 C 96 % 1021,8 hPa 0,0 l/m 0,0 km/h (0 Bft) S-SO 163 0 min 0,000 mm 0,0 UV-I 0 W/m -0,7 C -0,1 C 0,0 km/h (0 Bft) 96,15 %
15.02.2018 20:58 -0,1 C 4,4 C 95 % 1021,9 hPa 0,0 l/m 0,0 km/h (0 Bft) S-SO 163 0 min 0,000 mm 0,0 UV-I 0 W/m -0,8 C -0,1 C 0,0 km/h (0 Bft) 100,00 %
15.02.2018 20:59 -0,1 C 4,4 C 96 % 1021,9 hPa 0,0 l/m 0,0 km/h (0 Bft) S-SO 163 0 min 0,000 mm 0,0 UV-I 0 W/m -0,7 C -0,1 C 0,0 km/h (0 Bft) 100,00 %
15.02.2018 21:00 -0,1 C 4,4 C 96 % 1021,9 hPa 0,0 l/m 0,0 km/h (0 Bft) S-SO 163 0 min 0,000 mm 0,0 UV-I 0 W/m -0,7 C -0,1 C 0,0 km/h (0 Bft) 100,00 %
15.02.2018 21:01 -0,1 C 4,4 C 96 % 1021,9 hPa 0,0 l/m 0,0 km/h (0 Bft) S-SO 163 0 min 0,000 mm 0,0 UV-I 0 W/m -0,7 C -0,1 C 0,0 km/h (0 Bft) 100,00 %
15.02.2018 21:02 -0,1 C 4,4 C 95 % 1021,8 hPa 0,0 l/m 0,0 km/h (0 Bft) S-SO 163 0 min 0,000 mm 0,0 UV-I 0 W/m -0,8 C -0,1 C 0,0 km/h (0 Bft) 100,00 %
15.02.2018 21:03 -0,1 C 4,4 C 95 % 1021,8 hPa 0,0 l/m 0,0 km/h (0 Bft) S-SO 163 0 min 0,000 mm 0,0 UV-I 0 W/m -0,8 C -0,1 C 0,0 km/h (0 Bft) 95,83 %
15.02.2018 21:04 -0,1 C 4,4 C 96 % 1021,8 hPa 0,0 l/m 0,0 km/h (0 Bft) S-SO 163 0 min 0,000 mm 0,0 UV-I 0 W/m -0,7 C -0,1 C 0,0 km/h (0 Bft) 95,65 %
15.02.2018 21:05 -0,1 C 4,4 C 95 % 1021,8 hPa 0,0 l/m 0,0 km/h (0 Bft) S-SO 163 0 min 0,000 mm 0,0 UV-I 0 W/m -0,8 C -0,1 C 0,0 km/h (0 Bft) 96,15 %
15.02.2018 21:06 -0,2 C 4,4 C 96 % 1021,8 hPa 0,0 l/m 0,0 km/h (0 Bft) S-SO 163 0 min 0,000 mm 0,0 UV-I 0 W/m -0,8 C -0,2 C 0,0 km/h (0 Bft) 100,00 %
15.02.2018 21:07 -0,2 C 4,4 C 95 % 1021,8 hPa 0,0 l/m 0,0 km/h (0 Bft) S-SO 163 0 min 0,000 mm 0,0 UV-I 0 W/m -0,9 C -0,2 C 0,0 km/h (0 Bft) 100,00 %
15.02.2018 21:08 -0,2 C 4,4 C 95 % 1021,8 hPa 0,0 l/m 0,0 km/h (0 Bft) S-SO 163 0 min 0,000 mm 0,0 UV-I 0 W/m -0,9 C -0,2 C 0,0 km/h (0 Bft) 100,00 %
15.02.2018 21:09 -0,2 C 4,4 C 95 % 1021,8 hPa 0,0 l/m 0,0 km/h (0 Bft) S-SO 163 0 min 0,000 mm 0,0 UV-I 0 W/m -0,9 C -0,2 C 0,0 km/h (0 Bft) 100,00 %
15.02.2018 21:10 -0,3 C 4,4 C 95 % 1021,8 hPa 0,0 l/m 0,0 km/h (0 Bft) S-SO 163 0 min 0,000 mm 0,0 UV-I 0 W/m -1,0 C -0,3 C 0,0 km/h (0 Bft) 100,00 %
15.02.2018 21:11 -0,3 C 4,4 C 95 % 1021,8 hPa 0,0 l/m 0,0 km/h (0 Bft) S-SO 163 0 min 0,000 mm 0,0 UV-I 0 W/m -1,0 C -0,3 C 0,0 km/h (0 Bft) 100,00 %
15.02.2018 21:12 -0,3 C 4,4 C 95 % 1021,8 hPa 0,0 l/m 0,0 km/h (0 Bft) S-SO 163 0 min 0,000 mm 0,0 UV-I 0 W/m -1,0 C -0,3 C 0,0 km/h (0 Bft) 96,15 %
15.02.2018 21:13 -0,3 C 4,4 C 96 % 1021,8 hPa 0,0 l/m 0,0 km/h (0 Bft) S-SO 163 0 min 0,000 mm 0,0 UV-I 0 W/m -0,9 C -0,3 C 0,0 km/h (0 Bft) 100,00 %
15.02.2018 21:14 -0,2 C 4,4 C 96 % 1021,8 hPa 0,0 l/m 0,0 km/h (0 Bft) S-SO 163 0 min 0,000 mm 0,0 UV-I 0 W/m -0,8 C -0,2 C 0,0 km/h (0 Bft) 100,00 %
15.02.2018 21:15 -0,3 C 4,4 C 96 % 1021,8 hPa 0,0 l/m 0,0 km/h (0 Bft) S-SO 163 0 min 0,000 mm 0,0 UV-I 0 W/m -0,9 C -0,3 C 0,0 km/h (0 Bft) 100,00 %
15.02.2018 21:16 -0,2 C 4,4 C 96 % 1021,8 hPa 0,0 l/m 0,0 km/h (0 Bft) S-SO 163 0 min 0,000 mm 0,0 UV-I 0 W/m -0,8 C -0,2 C 0,0 km/h (0 Bft) 100,00 %
15.02.2018 21:17 -0,2 C 4,4 C 96 % 1021,8 hPa 0,0 l/m 0,0 km/h (0 Bft) S-SO 163 0 min 0,000 mm 0,0 UV-I 0 W/m -0,8 C -0,2 C 0,0 km/h (0 Bft) 100,00 %
15.02.2018 21:18 -0,2 C 4,4 C 96 % 1021,7 hPa 0,0 l/m 0,0 km/h (0 Bft) S-SO 163 0 min 0,000 mm 0,0 UV-I 0 W/m -0,8 C -0,2 C 0,0 km/h (0 Bft) 100,00 %
15.02.2018 21:19 -0,2 C 4,4 C 96 % 1021,8 hPa 0,0 l/m 0,0 km/h (0 Bft) S-SO 163 0 min 0,000 mm 0,0 UV-I 0 W/m -0,8 C -0,2 C 0,0 km/h (0 Bft) 100,00 %
15.02.2018 21:20 -0,2 C 4,4 C 96 % 1021,8 hPa 0,0 l/m 0,0 km/h (0 Bft) S-SO 163 0 min 0,000 mm 0,0 UV-I 0 W/m -0,8 C -0,2 C 0,0 km/h (0 Bft) 100,00 %
15.02.2018 21:21 -0,2 C 4,4 C 96 % 1021,8 hPa 0,0 l/m 0,0 km/h (0 Bft) S-SO 163 0 min 0,000 mm 0,0 UV-I 0 W/m -0,8 C -0,2 C 0,0 km/h (0 Bft) 100,00 %
15.02.2018 21:22 -0,2 C 4,4 C 96 % 1021,8 hPa 0,0 l/m 0,0 km/h (0 Bft) S-SO 163 0 min 0,000 mm 0,0 UV-I 0 W/m -0,8 C -0,2 C 0,0 km/h (0 Bft) 100,00 %
15.02.2018 21:23 -0,2 C 4,4 C 96 % 1021,8 hPa 0,0 l/m 0,0 km/h (0 Bft) S-SO 163 0 min 0,000 mm 0,0 UV-I 0 W/m -0,8 C -0,2 C 0,0 km/h (0 Bft) 95,83 %
15.02.2018 21:24 -0,2 C 4,4 C 96 % 1021,8 hPa 0,0 l/m 0,0 km/h (0 Bft) S-SO 163 0 min 0,000 mm 0,0 UV-I 0 W/m -0,8 C -0,2 C 0,0 km/h (0 Bft) 100,00 %
15.02.2018 21:25 -0,2 C 4,4 C 96 % 1021,8 hPa 0,0 l/m 0,0 km/h (0 Bft) S-SO 163 0 min 0,000 mm 0,0 UV-I 0 W/m -0,8 C -0,2 C 0,0 km/h (0 Bft) 100,00 %
15.02.2018 21:26 -0,2 C 4,4 C 96 % 1021,8 hPa 0,0 l/m 0,0 km/h (0 Bft) S-SO 163 0 min 0,000 mm 0,0 UV-I 0 W/m -0,8 C -0,2 C 0,0 km/h (0 Bft) 95,83 %
15.02.2018 21:27 -0,2 C 4,4 C 96 % 1021,8 hPa 0,0 l/m 0,0 km/h (0 Bft) S-SO 163 0 min 0,000 mm 0,0 UV-I 0 W/m -0,8 C -0,2 C 0,0 km/h (0 Bft) 100,00 %
15.02.2018 21:28 -0,2 C 4,4 C 96 % 1021,8 hPa 0,0 l/m 0,0 km/h (0 Bft) S-SO 163 0 min 0,000 mm 0,0 UV-I 0 W/m -0,8 C -0,2 C 0,0 km/h (0 Bft) 100,00 %
15.02.2018 21:29 -0,2 C 4,4 C 96 % 1021,8 hPa 0,0 l/m 0,0 km/h (0 Bft) S-SO 163 0 min 0,000 mm 0,0 UV-I 0 W/m -0,8 C -0,2 C 0,0 km/h (0 Bft) 100,00 %
15.02.2018 21:30 -0,2 C 4,4 C 96 % 1021,8 hPa 0,0 l/m 0,0 km/h (0 Bft) S-SO 163 0 min 0,000 mm 0,0 UV-I 0 W/m -0,8 C -0,2 C 0,0 km/h (0 Bft) 100,00 %
15.02.2018 21:31 -0,1 C 4,4 C 96 % 1021,8 hPa 0,0 l/m 0,0 km/h (0 Bft) S-SO 163 0 min 0,000 mm 0,0 UV-I 0 W/m -0,7 C -0,1 C 0,0 km/h (0 Bft) 95,65 %
15.02.2018 21:32 -0,2 C 4,4 C 96 % 1021,8 hPa 0,0 l/m 0,0 km/h (0 Bft) S-SO 163 0 min 0,000 mm 0,0 UV-I 0 W/m -0,8 C -0,2 C 0,0 km/h (0 Bft) 100,00 %
15.02.2018 21:33 -0,2 C 4,4 C 96 % 1021,8 hPa 0,0 l/m 0,0 km/h (0 Bft) S-SO 163 0 min 0,000 mm 0,0 UV-I 0 W/m -0,8 C -0,2 C 0,0 km/h (0 Bft) 100,00 %
15.02.2018 21:34 -0,2 C 4,4 C 96 % 1021,8 hPa 0,0 l/m 0,0 km/h (0 Bft) S-SO 163 0 min 0,000 mm 0,0 UV-I 0 W/m -0,8 C -0,2 C 0,0 km/h (0 Bft) 97,44 %
15.02.2018 21:35 -0,2 C 4,4 C 96 % 1021,8 hPa 0,0 l/m 0,0 km/h (0 Bft) S-SO 163 0 min 0,000 mm 0,0 UV-I 0 W/m -0,8 C -0,2 C 0,0 km/h (0 Bft) 100,00 %
15.02.2018 21:36 -0,2 C 4,4 C 96 % 1021,9 hPa 0,0 l/m 0,0 km/h (0 Bft) S-SO 163 0 min 0,000 mm 0,0 UV-I 0 W/m -0,8 C -0,2 C 0,0 km/h (0 Bft) 96,67 %
15.02.2018 21:37 -0,2 C 4,4 C 96 % 1021,8 hPa 0,0 l/m 0,0 km/h (0 Bft) S-SO 163 0 min 0,000 mm 0,0 UV-I 0 W/m -0,8 C -0,2 C 0,0 km/h (0 Bft) 100,00 %
15.02.2018 21:38 -0,2 C 4,4 C 96 % 1021,9 hPa 0,0 l/m 0,0 km/h (0 Bft) S-SO 163 0 min 0,000 mm 0,0 UV-I 0 W/m -0,8 C -0,2 C 0,0 km/h (0 Bft) 100,00 %
15.02.2018 21:39 -0,2 C 4,4 C 96 % 1021,9 hPa 0,0 l/m 0,0 km/h (0 Bft) S-SO 163 0 min 0,000 mm 0,0 UV-I 0 W/m -0,8 C -0,2 C 0,0 km/h (0 Bft) 100,00 %
15.02.2018 21:40 -0,2 C 4,4 C 96 % 1022,0 hPa 0,0 l/m 0,0 km/h (0 Bft) S-SO 163 0 min 0,000 mm 0,0 UV-I 0 W/m -0,8 C -0,2 C 0,0 km/h (0 Bft) 100,00 %
15.02.2018 21:41 -0,2 C 4,4 C 96 % 1021,9 hPa 0,0 l/m 0,0 km/h (0 Bft) S-SO 163 0 min 0,000 mm 0,0 UV-I 0 W/m -0,8 C -0,2 C 0,0 km/h (0 Bft) 100,00 %
15.02.2018 21:42 -0,2 C 4,4 C 96 % 1022,0 hPa 0,0 l/m 0,0 km/h (0 Bft) S-SO 163 0 min 0,000 mm 0,0 UV-I 0 W/m -0,8 C -0,2 C 0,0 km/h (0 Bft) 100,00 %
15.02.2018 21:43 -0,2 C 4,4 C 96 % 1021,9 hPa 0,0 l/m 0,0 km/h (0 Bft) S-SO 163 0 min 0,000 mm 0,0 UV-I 0 W/m -0,8 C -0,2 C 0,0 km/h (0 Bft) 100,00 %
15.02.2018 21:44 -0,2 C 4,4 C 96 % 1021,9 hPa 0,0 l/m 0,1 km/h (0 Bft) S-SO 163 0 min 0,000 mm 0,0 UV-I 0 W/m -0,8 C -0,2 C 1,6 km/h (1 Bft) 100,00 %
15.02.2018 21:45 -0,2 C 4,4 C 96 % 1021,9 hPa 0,0 l/m 0,8 km/h (0 Bft) S-SO 163 0 min 0,000 mm 0,0 UV-I 0 W/m -0,8 C -0,2 C 1,6 km/h (1 Bft) 95,65 %
15.02.2018 21:46 -0,2 C 4,4 C 96 % 1021,9 hPa 0,0 l/m 0,7 km/h (0 Bft) S-SO 163 0 min 0,000 mm 0,0 UV-I 0 W/m -0,8 C -0,2 C 1,6 km/h (1 Bft) 100,00 %
15.02.2018 21:47 -0,2 C 4,4 C 96 % 1021,9 hPa 0,0 l/m 0,1 km/h (0 Bft) S-SO 163 0 min 0,000 mm 0,0 UV-I 0 W/m -0,8 C -0,2 C 1,6 km/h (1 Bft) 96,30 %
15.02.2018 21:48 -0,2 C 4,4 C 96 % 1021,9 hPa 0,0 l/m 0,5 km/h (0 Bft) S-SO 163 0 min 0,000 mm 0,0 UV-I 0 W/m -0,8 C -0,2 C 1,6 km/h (1 Bft) 92,31 %
15.02.2018 21:49 -0,2 C 4,4 C 96 % 1021,9 hPa 0,0 l/m 1,1 km/h (1 Bft) S-SO 163 0 min 0,000 mm 0,0 UV-I 0 W/m -0,8 C -0,2 C 1,6 km/h (1 Bft) 100,00 %
15.02.2018 21:50 -0,2 C 4,4 C 96 % 1021,9 hPa 0,0 l/m 0,9 km/h (0 Bft) S-SO 163 0 min 0,000 mm 0,0 UV-I 0 W/m -0,8 C -0,2 C 1,6 km/h (1 Bft) 92,86 %
15.02.2018 21:51 -0,2 C 4,4 C 96 % 1021,9 hPa 0,0 l/m 0,8 km/h (0 Bft) S-SO 163 0 min 0,000 mm 0,0 UV-I 0 W/m -0,8 C -0,2 C 1,6 km/h (1 Bft) 100,00 %
15.02.2018 21:52 -0,2 C 4,4 C 96 % 1021,9 hPa 0,0 l/m 1,2 km/h (1 Bft) S-SO 163 0 min 0,000 mm 0,0 UV-I 0 W/m -0,8 C -0,2 C 1,6 km/h (1 Bft) 95,65 %
15.02.2018 21:53 -0,2 C 4,4 C 96 % 1021,9 hPa 0,0 l/m 1,5 km/h (1 Bft) S-SO 163 0 min 0,000 mm 0,0 UV-I 0 W/m -0,8 C -0,2 C 1,6 km/h (1 Bft) 100,00 %
15.02.2018 21:54 -0,2 C 4,4 C 96 % 1021,9 hPa 0,0 l/m 1,5 km/h (1 Bft) S-SO 163 0 min 0,000 mm 0,0 UV-I 0 W/m -0,8 C -0,2 C 3,2 km/h (1 Bft) 95,65 %
15.02.2018 21:55 -0,2 C 4,4 C 96 % 1021,9 hPa 0,0 l/m 1,1 km/h (1 Bft) S-SO 163 0 min 0,000 mm 0,0 UV-I 0 W/m -0,8 C -0,2 C 1,6 km/h (1 Bft) 100,00 %
15.02.2018 21:56 -0,2 C 4,4 C 96 % 1021,9 hPa 0,0 l/m 1,3 km/h (1 Bft) S-SO 163 0 min 0,000 mm 0,0 UV-I 0 W/m -0,8 C -0,2 C 1,6 km/h (1 Bft) 95,65 %
15.02.2018 21:57 -0,2 C 4,4 C 96 % 1021,9 hPa 0,0 l/m 1,5 km/h (1 Bft) S-SO 163 0 min 0,000 mm 0,0 UV-I 0 W/m -0,8 C -0,2 C 1,6 km/h (1 Bft) 95,83 %
15.02.2018 21:58 -0,2 C 4,4 C 96 % 1021,9 hPa 0,0 l/m 1,8 km/h (1 Bft) S-SO 163 0 min 0,000 mm 0,0 UV-I 0 W/m -0,8 C -0,2 C 3,2 km/h (1 Bft) 100,00 %
15.02.2018 21:59 -0,2 C 4,4 C 96 % 1021,8 hPa 0,0 l/m 1,8 km/h (1 Bft) S-SO 163 0 min 0,000 mm 0,0 UV-I 0 W/m -0,8 C -0,2 C 3,2 km/h (1 Bft) 94,44 %
15.02.2018 22:00 -0,2 C 4,4 C 96 % 1021,8 hPa 0,0 l/m 1,6 km/h (1 Bft) S-SO 163 0 min 0,000 mm 0,0 UV-I 0 W/m -0,8 C -0,2 C 3,2 km/h (1 Bft) 100,00 %
15.02.2018 22:01 -0,2 C 4,4 C 96 % 1021,8 hPa 0,0 l/m 1,6 km/h (1 Bft) S-SO 163 0 min 0,000 mm 0,0 UV-I 0 W/m -0,8 C -0,2 C 1,6 km/h (1 Bft) 95,83 %
15.02.2018 22:02 -0,2 C 4,4 C 96 % 1021,7 hPa 0,0 l/m 1,8 km/h (1 Bft) S-SO 163 0 min 0,000 mm 0,0 UV-I 0 W/m -0,8 C -0,2 C 3,2 km/h (1 Bft) 100,00 %
15.02.2018 22:03 -0,2 C 4,4 C 96 % 1021,7 hPa 0,0 l/m 2,1 km/h (1 Bft) S-SO 163 0 min 0,000 mm 0,0 UV-I 0 W/m -0,8 C -0,2 C 3,2 km/h (1 Bft) 91,67 %
15.02.2018 22:04 -0,2 C 4,4 C 96 % 1021,7 hPa 0,0 l/m 2,2 km/h (1 Bft) S-SO 163 0 min 0,000 mm 0,0 UV-I 0 W/m -0,8 C -0,2 C 3,2 km/h (1 Bft) 100,00 %
15.02.2018 22:05 -0,3 C 4,4 C 96 % 1021,6 hPa 0,0 l/m 2,3 km/h (1 Bft) S-SO 163 0 min 0,000 mm 0,0 UV-I 0 W/m -0,9 C -0,3 C 3,2 km/h (1 Bft) 95,65 %
15.02.2018 22:06 -0,2 C 4,4 C 96 % 1021,7 hPa 0,0 l/m 2,2 km/h (1 Bft) S-SO 163 0 min 0,000 mm 0,0 UV-I 0 W/m -0,8 C -0,2 C 3,2 km/h (1 Bft) 100,00 %
15.02.2018 22:07 -0,2 C 4,4 C 96 % 1021,6 hPa 0,0 l/m 3,1 km/h (1 Bft) S-SO 163 0 min 0,000 mm 0,0 UV-I 0 W/m -0,8 C -0,2 C 3,2 km/h (1 Bft) 95,65 %
15.02.2018 22:08 -0,3 C 4,4 C 96 % 1021,7 hPa 0,0 l/m 2,3 km/h (1 Bft) S-SO 163 0 min 0,000 mm 0,0 UV-I 0 W/m -0,9 C -0,3 C 3,2 km/h (1 Bft) 95,83 %
15.02.2018 22:09 -0,2 C 4,4 C 96 % 1021,6 hPa 0,0 l/m 2,8 km/h (1 Bft) S-SO 163 0 min 0,000 mm 0,0 UV-I 0 W/m -0,8 C -0,2 C 3,2 km/h (1 Bft) 100,00 %
15.02.2018 22:10 -0,3 C 4,4 C 96 % 1021,6 hPa 0,0 l/m 2,3 km/h (1 Bft) S-SO 163 0 min 0,000 mm 0,0 UV-I 0 W/m -0,9 C -0,3 C 3,2 km/h (1 Bft) 95,83 %
15.02.2018 22:11 -0,3 C 4,4 C 96 % 1021,7 hPa 0,0 l/m 2,4 km/h (1 Bft) S-SO 163 0 min 0,000 mm 0,0 UV-I 0 W/m -0,9 C -0,3 C 3,2 km/h (1 Bft) 100,00 %
15.02.2018 22:12 -0,3 C 4,4 C 96 % 1021,7 hPa 0,0 l/m 2,5 km/h (1 Bft) S-SO 163 0 min 0,000 mm 0,0 UV-I 0 W/m -0,9 C -0,3 C 3,2 km/h (1 Bft) 95,83 %
15.02.2018 22:13 -0,3 C 4,4 C 96 % 1021,6 hPa 0,0 l/m 3,0 km/h (1 Bft) S-SO 163 0 min 0,000 mm 0,0 UV-I 0 W/m -0,9 C -0,3 C 6,4 km/h (2 Bft) 100,00 %
15.02.2018 22:14 -0,3 C 4,4 C 96 % 1021,6 hPa 0,0 l/m 2,5 km/h (1 Bft) S-SO 163 0 min 0,000 mm 0,0 UV-I 0 W/m -0,9 C -0,3 C 3,2 km/h (1 Bft) 96,30 %
15.02.2018 22:15 -0,3 C 4,4 C 96 % 1021,6 hPa 0,0 l/m 3,2 km/h (1 Bft) S-SO 163 0 min 0,000 mm 0,0 UV-I 0 W/m -0,9 C -0,3 C 3,2 km/h (1 Bft) 96,55 %
15.02.2018 22:16 -0,3 C 4,4 C 96 % 1021,6 hPa 0,0 l/m 2,0 km/h (1 Bft) S-SO 163 0 min 0,000 mm 0,0 UV-I 0 W/m -0,9 C -0,3 C 3,2 km/h (1 Bft) 97,16 %
15.02.2018 22:17 -0,3 C 4,4 C 96 % 1021,6 hPa 0,0 l/m 2,2 km/h (1 Bft) S-SO 163 0 min 0,000 mm 0,0 UV-I 0 W/m -0,9 C -0,3 C 3,2 km/h (1 Bft) 97,62 %
15.02.2018 22:18 -0,3 C 4,4 C 96 % 1021,6 hPa 0,0 l/m 3,3 km/h (1 Bft) S-SO 163 0 min 0,000 mm 0,0 UV-I 0 W/m -0,9 C -0,3 C 6,4 km/h (2 Bft) 100,00 %
15.02.2018 22:19 -0,3 C 4,4 C 96 % 1021,6 hPa 0,0 l/m 2,7 km/h (1 Bft) S-SO 163 0 min 0,000 mm 0,0 UV-I 0 W/m -0,9 C -0,3 C 3,2 km/h (1 Bft) 95,65 %
15.02.2018 22:20 -0,3 C 4,4 C 96 % 1021,6 hPa 0,0 l/m 1,8 km/h (1 Bft) S-SO 163 0 min 0,000 mm 0,0 UV-I 0 W/m -0,9 C -0,3 C 3,2 km/h (1 Bft) 100,00 %
15.02.2018 22:21 -0,3 C 4,4 C 96 % 1021,5 hPa 0,0 l/m 1,9 km/h (1 Bft) S-SO 163 0 min 0,000 mm 0,0 UV-I 0 W/m -0,9 C -0,3 C 3,2 km/h (1 Bft) 96,30 %
15.02.2018 22:22 -0,3 C 4,4 C 96 % 1021,5 hPa 0,0 l/m 2,0 km/h (1 Bft) S-SO 163 0 min 0,000 mm 0,0 UV-I 0 W/m -0,9 C -0,3 C 3,2 km/h (1 Bft) 100,00 %
15.02.2018 22:23 -0,3 C 4,4 C 96 % 1021,5 hPa 0,0 l/m 2,4 km/h (1 Bft) S-SO 163 0 min 0,000 mm 0,0 UV-I 0 W/m -0,9 C -0,3 C 3,2 km/h (1 Bft) 100,00 %
15.02.2018 22:24 -0,3 C 4,4 C 96 % 1021,5 hPa 0,0 l/m 2,7 km/h (1 Bft) S-SO 163 0 min 0,000 mm 0,0 UV-I 0 W/m -0,9 C -0,3 C 3,2 km/h (1 Bft) 100,00 %
15.02.2018 22:25 -0,3 C 4,4 C 96 % 1021,5 hPa 0,0 l/m 1,7 km/h (1 Bft) S-SO 163 0 min 0,000 mm 0,0 UV-I 0 W/m -0,9 C -0,3 C 3,2 km/h (1 Bft) 97,44 %
15.02.2018 22:26 -0,3 C 4,4 C 96 % 1021,5 hPa 0,0 l/m 1,9 km/h (1 Bft) S-SO 163 0 min 0,000 mm 0,0 UV-I 0 W/m -0,9 C -0,3 C 3,2 km/h (1 Bft) 95,65 %
15.02.2018 22:28 -0,3 C 4,4 C 97 % 1021,5 hPa 0,0 l/m 1,8 km/h (1 Bft) S-SO 163 0 min 0,000 mm 0,0 UV-I 0 W/m -0,7 C -0,3 C 3,2 km/h (1 Bft) 98,11 %
15.02.2018 22:29 -0,2 C 4,4 C 97 % 1021,5 hPa 0,0 l/m 2,5 km/h (1 Bft) S-SO 163 0 min 0,000 mm 0,0 UV-I 0 W/m -0,6 C -0,2 C 3,2 km/h (1 Bft) 95,83 %
15.02.2018 22:30 -0,2 C 4,4 C 97 % 1021,5 hPa 0,0 l/m 2,1 km/h (1 Bft) S-SO 163 0 min 0,000 mm 0,0 UV-I 0 W/m -0,6 C -0,2 C 3,2 km/h (1 Bft) 100,00 %
15.02.2018 22:31 -0,2 C 4,4 C 97 % 1021,5 hPa 0,0 l/m 1,4 km/h (1 Bft) S-SO 163 0 min 0,000 mm 0,0 UV-I 0 W/m -0,6 C -0,2 C 3,2 km/h (1 Bft) 100,00 %
15.02.2018 22:32 -0,2 C 4,4 C 96 % 1021,5 hPa 0,0 l/m 1,1 km/h (1 Bft) S-SO 163 0 min 0,000 mm 0,0 UV-I 0 W/m -0,8 C -0,2 C 1,6 km/h (1 Bft) 100,00 %
15.02.2018 22:33 -0,2 C 4,4 C 97 % 1021,5 hPa 0,0 l/m 1,1 km/h (1 Bft) S-SO 163 0 min 0,000 mm 0,0 UV-I 0 W/m -0,6 C -0,2 C 1,6 km/h (1 Bft) 95,83 %
15.02.2018 22:34 -0,2 C 4,4 C 97 % 1021,5 hPa 0,0 l/m 2,3 km/h (1 Bft) S-SO 163 0 min 0,000 mm 0,0 UV-I 0 W/m -0,6 C -0,2 C 3,2 km/h (1 Bft) 100,00 %
15.02.2018 22:35 -0,2 C 4,4 C 97 % 1021,5 hPa 0,0 l/m 2,9 km/h (1 Bft) S-SO 163 0 min 0,000 mm 0,0 UV-I 0 W/m -0,6 C -0,2 C 3,2 km/h (1 Bft) 91,67 %
15.02.2018 22:36 -0,2 C 4,4 C 97 % 1021,5 hPa 0,0 l/m 3,3 km/h (1 Bft) S-SO 163 0 min 0,000 mm 0,0 UV-I 0 W/m -0,6 C -0,2 C 6,4 km/h (2 Bft) 100,00 %
15.02.2018 22:37 -0,2 C 4,4 C 97 % 1021,5 hPa 0,0 l/m 1,3 km/h (1 Bft) S-SO 163 0 min 0,000 mm 0,0 UV-I 0 W/m -0,6 C -0,2 C 3,2 km/h (1 Bft) 100,00 %
15.02.2018 22:38 -0,2 C 4,4 C 97 % 1021,5 hPa 0,0 l/m 0,5 km/h (0 Bft) S-SO 163 0 min 0,000 mm 0,0 UV-I 0 W/m -0,6 C -0,2 C 1,6 km/h (1 Bft) 100,00 %
15.02.2018 22:39 -0,2 C 4,4 C 97 % 1021,5 hPa 0,0 l/m 0,1 km/h (0 Bft) S-SO 163 0 min 0,000 mm 0,0 UV-I 0 W/m -0,6 C -0,2 C 1,6 km/h (1 Bft) 100,00 %
15.02.2018 22:40 -0,2 C 4,4 C 97 % 1021,5 hPa 0,0 l/m 0,6 km/h (0 Bft) S-SO 163 0 min 0,000 mm 0,0 UV-I 0 W/m -0,6 C -0,2 C 1,6 km/h (1 Bft) 100,00 %
15.02.2018 22:41 -0,2 C 4,4 C 97 % 1021,5 hPa 0,0 l/m 0,1 km/h (0 Bft) S-SO 163 0 min 0,000 mm 0,0 UV-I 0 W/m -0,6 C -0,2 C 1,6 km/h (1 Bft) 100,00 %
15.02.2018 22:42 -0,2 C 4,4 C 97 % 1021,5 hPa 0,0 l/m 0,3 km/h (0 Bft) S-SO 163 0 min 0,000 mm 0,0 UV-I 0 W/m -0,6 C -0,2 C 1,6 km/h (1 Bft) 100,00 %
15.02.2018 22:43 -0,2 C 4,4 C 97 % 1021,5 hPa 0,0 l/m 0,5 km/h (0 Bft) S-SO 163 0 min 0,000 mm 0,0 UV-I 0 W/m -0,6 C -0,2 C 1,6 km/h (1 Bft) 100,00 %
15.02.2018 22:44 -0,2 C 4,4 C 97 % 1021,5 hPa 0,0 l/m 1,7 km/h (1 Bft) S-SO 163 0 min 0,000 mm 0,0 UV-I 0 W/m -0,6 C -0,2 C 3,2 km/h (1 Bft) 100,00 %
15.02.2018 22:45 -0,2 C 4,4 C 97 % 1021,5 hPa 0,0 l/m 0,3 km/h (0 Bft) S-SO 163 0 min 0,000 mm 0,0 UV-I 0 W/m -0,6 C -0,2 C 1,6 km/h (1 Bft) 100,00 %
15.02.2018 22:46 -0,2 C 4,4 C 97 % 1021,5 hPa 0,0 l/m 0,0 km/h (0 Bft) S-SO 163 0 min 0,000 mm 0,0 UV-I 0 W/m -0,6 C -0,2 C 0,0 km/h (0 Bft) 93,33 %
15.02.2018 22:47 -0,2 C 4,4 C 97 % 1021,5 hPa 0,0 l/m 0,0 km/h (0 Bft) S-SO 163 0 min 0,000 mm 0,0 UV-I 0 W/m -0,6 C -0,2 C 0,0 km/h (0 Bft) 95,65 %
15.02.2018 22:48 -0,2 C 4,4 C 97 % 1021,5 hPa 0,0 l/m 0,0 km/h (0 Bft) S-SO 163 0 min 0,000 mm 0,0 UV-I 0 W/m -0,6 C -0,2 C 0,0 km/h (0 Bft) 100,00 %
15.02.2018 22:49 -0,2 C 4,4 C 97 % 1021,5 hPa 0,0 l/m 0,0 km/h (0 Bft) S-SO 163 0 min 0,000 mm 0,0 UV-I 0 W/m -0,6 C -0,2 C 0,0 km/h (0 Bft) 100,00 %
15.02.2018 22:50 -0,2 C 4,4 C 96 % 1021,5 hPa 0,0 l/m 0,0 km/h (0 Bft) S-SO 163 0 min 0,000 mm 0,0 UV-I 0 W/m -0,8 C -0,2 C 0,0 km/h (0 Bft) 95,83 %
15.02.2018 22:51 -0,2 C 4,4 C 97 % 1021,5 hPa 0,0 l/m 0,0 km/h (0 Bft) S-SO 163 0 min 0,000 mm 0,0 UV-I 0 W/m -0,6 C -0,2 C 0,0 km/h (0 Bft) 100,00 %
15.02.2018 22:52 -0,2 C 4,4 C 96 % 1021,5 hPa 0,0 l/m 0,0 km/h (0 Bft) S-SO 163 0 min 0,000 mm 0,0 UV-I 0 W/m -0,8 C -0,2 C 0,0 km/h (0 Bft) 100,00 %
15.02.2018 22:53 -0,2 C 4,4 C 96 % 1021,5 hPa 0,0 l/m 0,0 km/h (0 Bft) S-SO 163 0 min 0,000 mm 0,0 UV-I 0 W/m -0,8 C -0,2 C 0,0 km/h (0 Bft) 95,65 %
15.02.2018 22:54 -0,2 C 4,4 C 96 % 1021,5 hPa 0,0 l/m 0,0 km/h (0 Bft) S-SO 163 0 min 0,000 mm 0,0 UV-I 0 W/m -0,8 C -0,2 C 0,0 km/h (0 Bft) 96,30 %
15.02.2018 22:55 -0,2 C 4,4 C 96 % 1021,5 hPa 0,0 l/m 0,1 km/h (0 Bft) S-SO 163 0 min 0,000 mm 0,0 UV-I 0 W/m -0,8 C -0,2 C 1,6 km/h (1 Bft) 100,00 %
15.02.2018 22:56 -0,2 C 4,4 C 96 % 1021,5 hPa 0,0 l/m 0,5 km/h (0 Bft) S-SO 163 0 min 0,000 mm 0,0 UV-I 0 W/m -0,8 C -0,2 C 1,6 km/h (1 Bft) 100,00 %
15.02.2018 22:57 -0,2 C 4,4 C 96 % 1021,5 hPa 0,0 l/m 0,1 km/h (0 Bft) S-SO 163 0 min 0,000 mm 0,0 UV-I 0 W/m -0,8 C -0,2 C 1,6 km/h (1 Bft) 100,00 %
15.02.2018 22:58 -0,2 C 4,4 C 96 % 1021,5 hPa 0,0 l/m 0,0 km/h (0 Bft) S-SO 163 0 min 0,000 mm 0,0 UV-I 0 W/m -0,8 C -0,2 C 0,0 km/h (0 Bft) 100,00 %
15.02.2018 22:59 -0,2 C 4,4 C 96 % 1021,5 hPa 0,0 l/m 0,0 km/h (0 Bft) S-SO 163 0 min 0,000 mm 0,0 UV-I 0 W/m -0,8 C -0,2 C 0,0 km/h (0 Bft) 100,00 %
15.02.2018 23:00 -0,2 C 4,4 C 96 % 1021,5 hPa 0,0 l/m 0,0 km/h (0 Bft) S-SO 163 0 min 0,000 mm 0,0 UV-I 0 W/m -0,8 C -0,2 C 0,0 km/h (0 Bft) 100,00 %
15.02.2018 23:01 -0,2 C 4,4 C 96 % 1021,5 hPa 0,0 l/m 0,0 km/h (0 Bft) S-SO 163 0 min 0,000 mm 0,0 UV-I 0 W/m -0,8 C -0,2 C 0,0 km/h (0 Bft) 100,00 %
15.02.2018 23:02 -0,1 C 4,4 C 97 % 1021,5 hPa 0,0 l/m 0,0 km/h (0 Bft) S-SO 163 0 min 0,000 mm 0,0 UV-I 0 W/m -0,5 C -0,1 C 0,0 km/h (0 Bft) 100,00 %
15.02.2018 23:03 -0,1 C 4,4 C 97 % 1021,5 hPa 0,0 l/m 0,0 km/h (0 Bft) S-SO 163 0 min 0,000 mm 0,0 UV-I 0 W/m -0,5 C -0,1 C 0,0 km/h (0 Bft) 100,00 %
15.02.2018 23:04 -0,1 C 4,4 C 97 % 1021,5 hPa 0,0 l/m 0,0 km/h (0 Bft) S-SO 163 0 min 0,000 mm 0,0 UV-I 0 W/m -0,5 C -0,1 C 0,0 km/h (0 Bft) 100,00 %
15.02.2018 23:05 -0,1 C 4,4 C 97 % 1021,5 hPa 0,0 l/m 0,0 km/h (0 Bft) S-SO 163 0 min 0,000 mm 0,0 UV-I 0 W/m -0,5 C -0,1 C 0,0 km/h (0 Bft) 100,00 %
15.02.2018 23:06 -0,1 C 4,4 C 97 % 1021,5 hPa 0,0 l/m 0,0 km/h (0 Bft) S-SO 163 0 min 0,000 mm 0,0 UV-I 0 W/m -0,5 C -0,1 C 0,0 km/h (0 Bft) 96,15 %
15.02.2018 23:07 -0,1 C 4,4 C 97 % 1021,5 hPa 0,0 l/m 0,0 km/h (0 Bft) S-SO 163 0 min 0,000 mm 0,0 UV-I 0 W/m -0,5 C -0,1 C 0,0 km/h (0 Bft) 95,83 %
15.02.2018 23:08 -0,1 C 4,4 C 97 % 1021,5 hPa 0,0 l/m 0,0 km/h (0 Bft) S-SO 163 0 min 0,000 mm 0,0 UV-I 0 W/m -0,5 C -0,1 C 0,0 km/h (0 Bft) 100,00 %
15.02.2018 23:09 -0,1 C 4,4 C 97 % 1021,5 hPa 0,0 l/m 1,2 km/h (1 Bft) S-SO 163 0 min 0,000 mm 0,0 UV-I 0 W/m -0,5 C -0,1 C 3,2 km/h (1 Bft) 100,00 %
15.02.2018 23:10 -0,1 C 4,4 C 97 % 1021,5 hPa 0,0 l/m 1,9 km/h (1 Bft) S-SO 163 0 min 0,000 mm 0,0 UV-I 0 W/m -0,5 C -0,1 C 3,2 km/h (1 Bft) 100,00 %
15.02.2018 23:11 -0,1 C 4,4 C 97 % 1021,5 hPa 0,0 l/m 1,8 km/h (1 Bft) S-SO 163 0 min 0,000 mm 0,0 UV-I 0 W/m -0,5 C -0,1 C 3,2 km/h (1 Bft) 95,83 %
15.02.2018 23:12 -0,1 C 4,4 C 97 % 1021,5 hPa 0,0 l/m 2,3 km/h (1 Bft) S-SO 163 0 min 0,000 mm 0,0 UV-I 0 W/m -0,5 C -0,1 C 3,2 km/h (1 Bft) 100,00 %
15.02.2018 23:13 -0,1 C 4,4 C 97 % 1021,5 hPa 0,0 l/m 2,7 km/h (1 Bft) S-SO 163 0 min 0,000 mm 0,0 UV-I 0 W/m -0,5 C -0,1 C 3,2 km/h (1 Bft) 100,00 %
15.02.2018 23:14 -0,1 C 4,4 C 97 % 1021,5 hPa 0,0 l/m 2,2 km/h (1 Bft) S-SO 163 0 min 0,000 mm 0,0 UV-I 0 W/m -0,5 C -0,1 C 3,2 km/h (1 Bft) 100,00 %
15.02.2018 23:15 -0,1 C 4,4 C 96 % 1021,5 hPa 0,0 l/m 2,9 km/h (1 Bft) S-SO 163 0 min 0,000 mm 0,0 UV-I 0 W/m -0,7 C -0,1 C 3,2 km/h (1 Bft) 100,00 %
15.02.2018 23:16 -0,1 C 4,4 C 96 % 1021,5 hPa 0,0 l/m 1,9 km/h (1 Bft) S-SO 163 0 min 0,000 mm 0,0 UV-I 0 W/m -0,7 C -0,1 C 3,2 km/h (1 Bft) 100,00 %
15.02.2018 23:17 -0,1 C 4,4 C 96 % 1021,5 hPa 0,0 l/m 2,3 km/h (1 Bft) S-SO 163 0 min 0,000 mm 0,0 UV-I 0 W/m -0,7 C -0,1 C 3,2 km/h (1 Bft) 96,30 %
15.02.2018 23:18 -0,1 C 4,4 C 96 % 1021,5 hPa 0,0 l/m 1,7 km/h (1 Bft) S-SO 163 0 min 0,000 mm 0,0 UV-I 0 W/m -0,7 C -0,1 C 3,2 km/h (1 Bft) 100,00 %
15.02.2018 23:19 -0,1 C 4,4 C 96 % 1021,5 hPa 0,0 l/m 1,9 km/h (1 Bft) S-SO 163 0 min 0,000 mm 0,0 UV-I 0 W/m -0,7 C -0,1 C 3,2 km/h (1 Bft) 100,00 %
15.02.2018 23:20 -0,1 C 4,4 C 96 % 1021,5 hPa 0,0 l/m 2,3 km/h (1 Bft) S-SO 163 0 min 0,000 mm 0,0 UV-I 0 W/m -0,7 C -0,1 C 3,2 km/h (1 Bft) 100,00 %
15.02.2018 23:21 -0,1 C 4,4 C 96 % 1021,5 hPa 0,0 l/m 3,0 km/h (1 Bft) S-SO 163 0 min 0,000 mm 0,0 UV-I 0 W/m -0,7 C -0,1 C 3,2 km/h (1 Bft) 95,83 %
15.02.2018 23:22 -0,1 C 4,4 C 97 % 1021,5 hPa 0,0 l/m 2,5 km/h (1 Bft) S-SO 163 0 min 0,000 mm 0,0 UV-I 0 W/m -0,5 C -0,1 C 3,2 km/h (1 Bft) 95,65 %
15.02.2018 23:23 -0,1 C 4,4 C 97 % 1021,5 hPa 0,0 l/m 1,5 km/h (1 Bft) S-SO 163 0 min 0,000 mm 0,0 UV-I 0 W/m -0,5 C -0,1 C 3,2 km/h (1 Bft) 100,00 %
15.02.2018 23:24 -0,1 C 4,4 C 97 % 1021,5 hPa 0,0 l/m 2,1 km/h (1 Bft) S-SO 163 0 min 0,000 mm 0,0 UV-I 0 W/m -0,5 C -0,1 C 3,2 km/h (1 Bft) 100,00 %
15.02.2018 23:25 -0,1 C 4,4 C 97 % 1021,5 hPa 0,0 l/m 2,3 km/h (1 Bft) S-SO 163 0 min 0,000 mm 0,0 UV-I 0 W/m -0,5 C -0,1 C 3,2 km/h (1 Bft) 100,00 %
15.02.2018 23:26 -0,1 C 4,4 C 97 % 1021,5 hPa 0,0 l/m 2,9 km/h (1 Bft) N-NO 17 0 min 0,000 mm 0,0 UV-I 0 W/m -0,5 C -0,1 C 4,8 km/h (1 Bft) 100,00 %
15.02.2018 23:27 -0,1 C 4,4 C 97 % 1021,5 hPa 0,0 l/m 3,4 km/h (1 Bft) N-NO 17 0 min 0,000 mm 0,0 UV-I 0 W/m -0,5 C -0,1 C 4,8 km/h (1 Bft) 100,00 %
15.02.2018 23:28 -0,1 C 4,4 C 97 % 1021,5 hPa 0,0 l/m 3,2 km/h (1 Bft) N-NO 17 0 min 0,000 mm 0,0 UV-I 0 W/m -0,5 C -0,1 C 3,2 km/h (1 Bft) 100,00 %
15.02.2018 23:29 -0,1 C 4,4 C 97 % 1021,5 hPa 0,0 l/m 3,0 km/h (1 Bft) N-NO 26 0 min 0,000 mm 0,0 UV-I 0 W/m -0,5 C -0,1 C 4,8 km/h (1 Bft) 100,00 %
15.02.2018 23:30 -0,1 C 4,4 C 97 % 1021,4 hPa 0,0 l/m 2,4 km/h (1 Bft) N-NO 26 0 min 0,000 mm 0,0 UV-I 0 W/m -0,5 C -0,1 C 3,2 km/h (1 Bft) 100,00 %
15.02.2018 23:31 -0,1 C 4,4 C 97 % 1021,4 hPa 0,0 l/m 3,3 km/h (1 Bft) NO 49 0 min 0,000 mm 0,0 UV-I 0 W/m -0,5 C -0,1 C 4,8 km/h (1 Bft) 100,00 %
15.02.2018 23:32 -0,1 C 4,4 C 97 % 1021,4 hPa 0,0 l/m 3,1 km/h (1 Bft) NO 49 0 min 0,000 mm 0,0 UV-I 0 W/m -0,5 C -0,1 C 4,8 km/h (1 Bft) 100,00 %
15.02.2018 23:33 -0,1 C 4,4 C 97 % 1021,5 hPa 0,0 l/m 3,0 km/h (1 Bft) NO 49 0 min 0,000 mm 0,0 UV-I 0 W/m -0,5 C -0,1 C 3,2 km/h (1 Bft) 100,00 %
15.02.2018 23:34 -0,1 C 4,4 C 97 % 1021,5 hPa 0,0 l/m 3,6 km/h (1 Bft) NO 48 0 min 0,000 mm 0,0 UV-I 0 W/m -0,5 C -0,1 C 4,8 km/h (1 Bft) 100,00 %
15.02.2018 23:35 -0,1 C 4,4 C 97 % 1021,5 hPa 0,0 l/m 2,9 km/h (1 Bft) NO 48 0 min 0,000 mm 0,0 UV-I 0 W/m -0,5 C -0,1 C 3,2 km/h (1 Bft) 100,00 %
15.02.2018 23:36 -0,1 C 4,4 C 97 % 1021,5 hPa 0,0 l/m 3,1 km/h (1 Bft) NO 48 0 min 0,000 mm 0,0 UV-I 0 W/m -0,5 C -0,1 C 3,2 km/h (1 Bft) 100,00 %
15.02.2018 23:37 -0,1 C 4,4 C 97 % 1021,5 hPa 0,0 l/m 3,4 km/h (1 Bft) NO 48 0 min 0,000 mm 0,0 UV-I 0 W/m -0,5 C -0,1 C 4,8 km/h (1 Bft) 100,00 %
15.02.2018 23:38 -0,1 C 4,4 C 97 % 1021,5 hPa 0,0 l/m 3,0 km/h (1 Bft) NO 48 0 min 0,000 mm 0,0 UV-I 0 W/m -0,5 C -0,1 C 3,2 km/h (1 Bft) 100,00 %
15.02.2018 23:39 -0,1 C 4,4 C 97 % 1021,5 hPa 0,0 l/m 2,9 km/h (1 Bft) NO 48 0 min 0,000 mm 0,0 UV-I 0 W/m -0,5 C -0,1 C 3,2 km/h (1 Bft) 100,00 %
15.02.2018 23:40 -0,1 C 4,4 C 97 % 1021,5 hPa 0,0 l/m 3,6 km/h (1 Bft) NO 48 0 min 0,000 mm 0,0 UV-I 0 W/m -0,5 C -0,1 C 4,8 km/h (1 Bft) 100,00 %
15.02.2018 23:41 -0,1 C 4,4 C 97 % 1021,6 hPa 0,0 l/m 3,3 km/h (1 Bft) NO 48 0 min 0,000 mm 0,0 UV-I 0 W/m -0,5 C -0,1 C 4,8 km/h (1 Bft) 95,65 %
15.02.2018 23:42 -0,1 C 4,4 C 97 % 1021,6 hPa 0,0 l/m 3,4 km/h (1 Bft) NO 48 0 min 0,000 mm 0,0 UV-I 0 W/m -0,5 C -0,1 C 4,8 km/h (1 Bft) 100,00 %
15.02.2018 23:43 -0,1 C 4,4 C 97 % 1021,5 hPa 0,0 l/m 3,4 km/h (1 Bft) NO 48 0 min 0,000 mm 0,0 UV-I 0 W/m -0,5 C -0,1 C 4,8 km/h (1 Bft) 100,00 %
15.02.2018 23:44 -0,1 C 4,4 C 97 % 1021,6 hPa 0,0 l/m 4,1 km/h (1 Bft) NO 41 0 min 0,000 mm 0,0 UV-I 0 W/m -0,5 C -0,1 C 4,8 km/h (1 Bft) 100,00 %
15.02.2018 23:45 -0,1 C 4,4 C 97 % 1021,5 hPa 0,0 l/m 3,8 km/h (1 Bft) NO 41 0 min 0,000 mm 0,0 UV-I 0 W/m -0,5 C -0,1 C 4,8 km/h (1 Bft) 100,00 %
15.02.2018 23:46 -0,1 C 4,4 C 97 % 1021,5 hPa 0,0 l/m 3,3 km/h (1 Bft) NO 41 0 min 0,000 mm 0,0 UV-I 0 W/m -0,5 C -0,1 C 4,8 km/h (1 Bft) 97,14 %
15.02.2018 23:47 -0,1 C 4,4 C 97 % 1021,6 hPa 0,0 l/m 3,2 km/h (1 Bft) NO 41 0 min 0,000 mm 0,0 UV-I 0 W/m -0,5 C -0,1 C 4,8 km/h (1 Bft) 100,00 %
15.02.2018 23:48 -0,1 C 4,4 C 97 % 1021,6 hPa 0,0 l/m 3,4 km/h (1 Bft) NO 41 0 min 0,000 mm 0,0 UV-I 0 W/m -0,5 C -0,1 C 4,8 km/h (1 Bft) 100,00 %
15.02.2018 23:49 -0,1 C 4,4 C 97 % 1021,6 hPa 0,0 l/m 3,9 km/h (1 Bft) NO 37 0 min 0,000 mm 0,0 UV-I 0 W/m -0,5 C -0,1 C 4,8 km/h (1 Bft) 95,83 %
15.02.2018 23:50 -0,1 C 4,4 C 97 % 1021,5 hPa 0,0 l/m 4,6 km/h (1 Bft) NO 37 0 min 0,000 mm 0,0 UV-I 0 W/m -0,5 C -0,1 C 4,8 km/h (1 Bft) 100,00 %
15.02.2018 23:51 -0,1 C 4,4 C 97 % 1021,5 hPa 0,0 l/m 4,6 km/h (1 Bft) NO 37 0 min 0,000 mm 0,0 UV-I 0 W/m -0,5 C -0,1 C 6,4 km/h (2 Bft) 100,00 %
15.02.2018 23:52 -0,1 C 4,4 C 97 % 1021,5 hPa 0,0 l/m 4,4 km/h (1 Bft) NO 37 0 min 0,000 mm 0,0 UV-I 0 W/m -0,5 C -0,1 C 4,8 km/h (1 Bft) 100,00 %
15.02.2018 23:53 -0,1 C 4,4 C 97 % 1021,5 hPa 0,0 l/m 4,2 km/h (1 Bft) NO 37 0 min 0,000 mm 0,0 UV-I 0 W/m -0,5 C -0,1 C 6,4 km/h (2 Bft) 97,37 %
15.02.2018 23:54 -0,1 C 4,4 C 97 % 1021,5 hPa 0,0 l/m 4,2 km/h (1 Bft) NO 37 0 min 0,000 mm 0,0 UV-I 0 W/m -0,5 C -0,1 C 4,8 km/h (1 Bft) 100,00 %
15.02.2018 23:55 -0,1 C 4,4 C 97 % 1021,5 hPa 0,0 l/m 3,1 km/h (1 Bft) NO 37 0 min 0,000 mm 0,0 UV-I 0 W/m -0,5 C -0,1 C 4,8 km/h (1 Bft) 96,67 %
15.02.2018 23:56 -0,1 C 4,4 C 97 % 1021,5 hPa 0,0 l/m 3,6 km/h (1 Bft) NO 38 0 min 0,000 mm 0,0 UV-I 0 W/m -0,5 C -0,1 C 6,4 km/h (2 Bft) 95,65 %
15.02.2018 23:57 -0,1 C 4,4 C 97 % 1021,4 hPa 0,0 l/m 4,4 km/h (1 Bft) NO 37 0 min 0,000 mm 0,0 UV-I 0 W/m -0,5 C -0,1 C 4,8 km/h (1 Bft) 91,67 %
15.02.2018 23:58 -0,2 C 4,4 C 97 % 1021,4 hPa 0,0 l/m 4,6 km/h (1 Bft) NO 37 0 min 0,000 mm 0,0 UV-I 0 W/m -0,6 C -0,2 C 4,8 km/h (1 Bft) 92,86 %
15.02.2018 23:59 -0,1 C 4,4 C 97 % 1021,4 hPa 0,0 l/m 5,7 km/h (1 Bft) NO 35 0 min 0,000 mm 0,0 UV-I 0 W/m -0,5 C -0,1 C 6,4 km/h (2 Bft) 93,33 %
_ Min-Zeit 06:29 00:00 14:47 13:39 - 03:13 - - - - - - 06:15 08:18 03:13 14:02
Minimum _ -7,2 C 4,4 C 70 % 1020,4 hPa - 0,0 km/h (0 Bft) - - - - - - -7,9 C -10,6 C 0,0 km/h (0 Bft) 53,33 %
_ Max-Zeit 14:57 00:00 10:48 07:17 00:00 13:51 - - 07:22 14:00 12:42 13:59 23:02 14:38 12:18 00:02
Maximum _ 2,2 C 4,4 C 97 % 1022,6 hPa 0,0 l/m 18,2 km/h
O (3 Bft)
- - 1 min 0,153 mm 1,1 UV-I 422 W/m -0,5 C 2,0 C 22,5 km/h
NO (4 Bft)
100,00 %
Durchschnitt _ -2,1 C 4,4 C 90 % 1021,7 hPa #0,0 l/m 4,4 km/h (1 Bft) O - #4:16 h #0,737 mm 0,8 UV-I 185 W/m -3,6 C -3,0 C 6,1 km/h (2 Bft) 97,41 %